<?xml version="1.0" encoding="UTF-8" standalone="no" ?>
<gpx xmlns="http://www.topografix.com/GPX/1/1" xmlns:xsi="http://www.w3.org/2001/XMLSchema-instance" xsi:schemaLocation="http://www.topografix.com/GPX/1/1 http://www.topografix.com/GPX/1/1/gpx.xsd" version="1.1" creator="VisuGPX - https://www.visugpx.com">
  <metadata>
    <name>J1 St Véran - Refuge de la Blanche</name>
  </metadata>
  <trk>
    <name><![CDATA[Tracé 20211219-103349]]></name>
    <trkseg>
      <trkpt lat="44.70369" lon="6.8655">
        <ele>2097.5</ele>
        <time>2021-12-19T09:33:49Z</time>
      </trkpt>
      <trkpt lat="44.7037" lon="6.8655">
        <ele>2095.5</ele>
        <time>2021-12-19T09:33:55Z</time>
      </trkpt>
      <trkpt lat="44.7037" lon="6.86551">
        <ele>2095.5</ele>
        <time>2021-12-19T09:33:56Z</time>
      </trkpt>
      <trkpt lat="44.7037" lon="6.86551">
        <ele>2095.5</ele>
        <time>2021-12-19T09:33:57Z</time>
      </trkpt>
      <trkpt lat="44.7037" lon="6.86552">
        <ele>2095.5</ele>
        <time>2021-12-19T09:33:58Z</time>
      </trkpt>
      <trkpt lat="44.70371" lon="6.86553">
        <ele>2095.4</ele>
        <time>2021-12-19T09:33:59Z</time>
      </trkpt>
      <trkpt lat="44.70371" lon="6.86554">
        <ele>2095.3</ele>
        <time>2021-12-19T09:34:00Z</time>
      </trkpt>
      <trkpt lat="44.70372" lon="6.86554">
        <ele>2094.6</ele>
        <time>2021-12-19T09:34:01Z</time>
      </trkpt>
      <trkpt lat="44.70372" lon="6.86553">
        <ele>2094.2</ele>
        <time>2021-12-19T09:34:04Z</time>
      </trkpt>
      <trkpt lat="44.70372" lon="6.86553">
        <ele>2094.1</ele>
        <time>2021-12-19T09:34:05Z</time>
      </trkpt>
      <trkpt lat="44.70373" lon="6.86552">
        <ele>2094.2</ele>
        <time>2021-12-19T09:34:06Z</time>
      </trkpt>
      <trkpt lat="44.70373" lon="6.86552">
        <ele>2094.3</ele>
        <time>2021-12-19T09:34:07Z</time>
      </trkpt>
      <trkpt lat="44.70374" lon="6.86547">
        <ele>2095.5</ele>
        <time>2021-12-19T09:34:10Z</time>
      </trkpt>
      <trkpt lat="44.70374" lon="6.86546">
        <ele>2096</ele>
        <time>2021-12-19T09:34:11Z</time>
      </trkpt>
      <trkpt lat="44.70375" lon="6.86543">
        <ele>2096.5</ele>
        <time>2021-12-19T09:34:12Z</time>
      </trkpt>
      <trkpt lat="44.70376" lon="6.8654">
        <ele>2096.8</ele>
        <time>2021-12-19T09:34:13Z</time>
      </trkpt>
      <trkpt lat="44.70381" lon="6.86542">
        <ele>2099.7</ele>
        <time>2021-12-19T09:34:19Z</time>
      </trkpt>
      <trkpt lat="44.70385" lon="6.86543">
        <ele>2101.8</ele>
        <time>2021-12-19T09:34:25Z</time>
      </trkpt>
      <trkpt lat="44.70381" lon="6.86548">
        <ele>2098.7</ele>
        <time>2021-12-19T09:34:31Z</time>
      </trkpt>
      <trkpt lat="44.70385" lon="6.8655">
        <ele>2097.4</ele>
        <time>2021-12-19T09:34:35Z</time>
      </trkpt>
      <trkpt lat="44.70386" lon="6.86551">
        <ele>2097.3</ele>
        <time>2021-12-19T09:34:36Z</time>
      </trkpt>
      <trkpt lat="44.70387" lon="6.86551">
        <ele>2097.2</ele>
        <time>2021-12-19T09:34:37Z</time>
      </trkpt>
      <trkpt lat="44.70392" lon="6.86553">
        <ele>2096.2</ele>
        <time>2021-12-19T09:34:43Z</time>
      </trkpt>
      <trkpt lat="44.70394" lon="6.86553">
        <ele>2096</ele>
        <time>2021-12-19T09:34:44Z</time>
      </trkpt>
      <trkpt lat="44.70395" lon="6.86553">
        <ele>2095.8</ele>
        <time>2021-12-19T09:34:45Z</time>
      </trkpt>
      <trkpt lat="44.70397" lon="6.86555">
        <ele>2095.6</ele>
        <time>2021-12-19T09:34:47Z</time>
      </trkpt>
      <trkpt lat="44.70399" lon="6.86556">
        <ele>2095.5</ele>
        <time>2021-12-19T09:34:48Z</time>
      </trkpt>
      <trkpt lat="44.704" lon="6.86556">
        <ele>2095.5</ele>
        <time>2021-12-19T09:34:49Z</time>
      </trkpt>
      <trkpt lat="44.704" lon="6.86556">
        <ele>2095.4</ele>
        <time>2021-12-19T09:34:50Z</time>
      </trkpt>
      <trkpt lat="44.70403" lon="6.86557">
        <ele>2095.2</ele>
        <time>2021-12-19T09:34:53Z</time>
      </trkpt>
      <trkpt lat="44.70404" lon="6.86557">
        <ele>2095.1</ele>
        <time>2021-12-19T09:34:54Z</time>
      </trkpt>
      <trkpt lat="44.70406" lon="6.86556">
        <ele>2095.2</ele>
        <time>2021-12-19T09:34:58Z</time>
      </trkpt>
      <trkpt lat="44.70406" lon="6.86556">
        <ele>2095.2</ele>
        <time>2021-12-19T09:34:59Z</time>
      </trkpt>
      <trkpt lat="44.70407" lon="6.86557">
        <ele>2095.1</ele>
        <time>2021-12-19T09:35:00Z</time>
      </trkpt>
      <trkpt lat="44.70408" lon="6.86556">
        <ele>2095.2</ele>
        <time>2021-12-19T09:35:01Z</time>
      </trkpt>
      <trkpt lat="44.70409" lon="6.86556">
        <ele>2095.2</ele>
        <time>2021-12-19T09:35:02Z</time>
      </trkpt>
      <trkpt lat="44.70412" lon="6.86556">
        <ele>2095.2</ele>
        <time>2021-12-19T09:35:03Z</time>
      </trkpt>
      <trkpt lat="44.70416" lon="6.86555">
        <ele>2094.9</ele>
        <time>2021-12-19T09:35:06Z</time>
      </trkpt>
      <trkpt lat="44.70422" lon="6.86554">
        <ele>2094.7</ele>
        <time>2021-12-19T09:35:10Z</time>
      </trkpt>
      <trkpt lat="44.70425" lon="6.86553">
        <ele>2094.3</ele>
        <time>2021-12-19T09:35:13Z</time>
      </trkpt>
      <trkpt lat="44.70426" lon="6.86552">
        <ele>2094.2</ele>
        <time>2021-12-19T09:35:14Z</time>
      </trkpt>
      <trkpt lat="44.70427" lon="6.86552">
        <ele>2093.9</ele>
        <time>2021-12-19T09:35:15Z</time>
      </trkpt>
      <trkpt lat="44.70432" lon="6.86553">
        <ele>2093.1</ele>
        <time>2021-12-19T09:35:22Z</time>
      </trkpt>
      <trkpt lat="44.70437" lon="6.86551">
        <ele>2092.5</ele>
        <time>2021-12-19T09:35:28Z</time>
      </trkpt>
      <trkpt lat="44.70437" lon="6.8655">
        <ele>2092.4</ele>
        <time>2021-12-19T09:35:29Z</time>
      </trkpt>
      <trkpt lat="44.70438" lon="6.86549">
        <ele>2092.3</ele>
        <time>2021-12-19T09:35:30Z</time>
      </trkpt>
      <trkpt lat="44.70439" lon="6.86548">
        <ele>2092.2</ele>
        <time>2021-12-19T09:35:31Z</time>
      </trkpt>
      <trkpt lat="44.7044" lon="6.86546">
        <ele>2092.1</ele>
        <time>2021-12-19T09:35:33Z</time>
      </trkpt>
      <trkpt lat="44.70442" lon="6.86546">
        <ele>2092</ele>
        <time>2021-12-19T09:35:34Z</time>
      </trkpt>
      <trkpt lat="44.70442" lon="6.86545">
        <ele>2092</ele>
        <time>2021-12-19T09:35:35Z</time>
      </trkpt>
      <trkpt lat="44.70447" lon="6.86542">
        <ele>2091.8</ele>
        <time>2021-12-19T09:35:38Z</time>
      </trkpt>
      <trkpt lat="44.70452" lon="6.86542">
        <ele>2091.1</ele>
        <time>2021-12-19T09:35:43Z</time>
      </trkpt>
      <trkpt lat="44.70455" lon="6.86539">
        <ele>2090.8</ele>
        <time>2021-12-19T09:35:44Z</time>
      </trkpt>
      <trkpt lat="44.70454" lon="6.86538">
        <ele>2090.5</ele>
        <time>2021-12-19T09:35:45Z</time>
      </trkpt>
      <trkpt lat="44.70455" lon="6.86531">
        <ele>2089.8</ele>
        <time>2021-12-19T09:35:49Z</time>
      </trkpt>
      <trkpt lat="44.70456" lon="6.86524">
        <ele>2089.5</ele>
        <time>2021-12-19T09:35:54Z</time>
      </trkpt>
      <trkpt lat="44.70458" lon="6.86517">
        <ele>2089.7</ele>
        <time>2021-12-19T09:36:02Z</time>
      </trkpt>
      <trkpt lat="44.7046" lon="6.86511">
        <ele>2090.2</ele>
        <time>2021-12-19T09:36:07Z</time>
      </trkpt>
      <trkpt lat="44.70461" lon="6.86505">
        <ele>2090.8</ele>
        <time>2021-12-19T09:36:12Z</time>
      </trkpt>
      <trkpt lat="44.70465" lon="6.86501">
        <ele>2090.7</ele>
        <time>2021-12-19T09:36:17Z</time>
      </trkpt>
      <trkpt lat="44.70469" lon="6.86498">
        <ele>2090.3</ele>
        <time>2021-12-19T09:36:23Z</time>
      </trkpt>
      <trkpt lat="44.7047" lon="6.86497">
        <ele>2090.3</ele>
        <time>2021-12-19T09:36:24Z</time>
      </trkpt>
      <trkpt lat="44.70471" lon="6.86497">
        <ele>2090.1</ele>
        <time>2021-12-19T09:36:25Z</time>
      </trkpt>
      <trkpt lat="44.70471" lon="6.86497">
        <ele>2090.1</ele>
        <time>2021-12-19T09:36:26Z</time>
      </trkpt>
      <trkpt lat="44.70472" lon="6.86496">
        <ele>2090.1</ele>
        <time>2021-12-19T09:36:27Z</time>
      </trkpt>
      <trkpt lat="44.70473" lon="6.86495">
        <ele>2090</ele>
        <time>2021-12-19T09:36:28Z</time>
      </trkpt>
      <trkpt lat="44.70477" lon="6.86492">
        <ele>2089.7</ele>
        <time>2021-12-19T09:36:33Z</time>
      </trkpt>
      <trkpt lat="44.70479" lon="6.8649">
        <ele>2089.5</ele>
        <time>2021-12-19T09:36:38Z</time>
      </trkpt>
      <trkpt lat="44.7048" lon="6.8649">
        <ele>2089.6</ele>
        <time>2021-12-19T09:36:39Z</time>
      </trkpt>
      <trkpt lat="44.7048" lon="6.86489">
        <ele>2089.4</ele>
        <time>2021-12-19T09:36:45Z</time>
      </trkpt>
      <trkpt lat="44.70482" lon="6.86484">
        <ele>2089.7</ele>
        <time>2021-12-19T09:36:46Z</time>
      </trkpt>
      <trkpt lat="44.70482" lon="6.86484">
        <ele>2089.8</ele>
        <time>2021-12-19T09:36:47Z</time>
      </trkpt>
      <trkpt lat="44.70482" lon="6.86483">
        <ele>2089.8</ele>
        <time>2021-12-19T09:36:48Z</time>
      </trkpt>
      <trkpt lat="44.70483" lon="6.86481">
        <ele>2089.8</ele>
        <time>2021-12-19T09:36:49Z</time>
      </trkpt>
      <trkpt lat="44.70483" lon="6.86481">
        <ele>2089.9</ele>
        <time>2021-12-19T09:36:50Z</time>
      </trkpt>
      <trkpt lat="44.70484" lon="6.8648">
        <ele>2089.9</ele>
        <time>2021-12-19T09:36:51Z</time>
      </trkpt>
      <trkpt lat="44.70484" lon="6.86479">
        <ele>2089.9</ele>
        <time>2021-12-19T09:36:52Z</time>
      </trkpt>
      <trkpt lat="44.70485" lon="6.86479">
        <ele>2090</ele>
        <time>2021-12-19T09:36:53Z</time>
      </trkpt>
      <trkpt lat="44.70486" lon="6.86478">
        <ele>2090</ele>
        <time>2021-12-19T09:36:54Z</time>
      </trkpt>
      <trkpt lat="44.70487" lon="6.86478">
        <ele>2090</ele>
        <time>2021-12-19T09:36:55Z</time>
      </trkpt>
      <trkpt lat="44.70491" lon="6.86476">
        <ele>2090</ele>
        <time>2021-12-19T09:37:01Z</time>
      </trkpt>
      <trkpt lat="44.70495" lon="6.86471">
        <ele>2090.2</ele>
        <time>2021-12-19T09:37:07Z</time>
      </trkpt>
      <trkpt lat="44.70495" lon="6.8647">
        <ele>2090.2</ele>
        <time>2021-12-19T09:37:08Z</time>
      </trkpt>
      <trkpt lat="44.70496" lon="6.8647">
        <ele>2090.3</ele>
        <time>2021-12-19T09:37:09Z</time>
      </trkpt>
      <trkpt lat="44.70497" lon="6.86468">
        <ele>2090.4</ele>
        <time>2021-12-19T09:37:10Z</time>
      </trkpt>
      <trkpt lat="44.70498" lon="6.86467">
        <ele>2090.5</ele>
        <time>2021-12-19T09:37:11Z</time>
      </trkpt>
      <trkpt lat="44.70499" lon="6.86466">
        <ele>2090.5</ele>
        <time>2021-12-19T09:37:12Z</time>
      </trkpt>
      <trkpt lat="44.70501" lon="6.86464">
        <ele>2090.5</ele>
        <time>2021-12-19T09:37:17Z</time>
      </trkpt>
      <trkpt lat="44.70501" lon="6.86464">
        <ele>2090.5</ele>
        <time>2021-12-19T09:37:18Z</time>
      </trkpt>
      <trkpt lat="44.70501" lon="6.86465">
        <ele>2090.4</ele>
        <time>2021-12-19T09:37:19Z</time>
      </trkpt>
      <trkpt lat="44.70503" lon="6.86463">
        <ele>2090.5</ele>
        <time>2021-12-19T09:37:22Z</time>
      </trkpt>
      <trkpt lat="44.70504" lon="6.86463">
        <ele>2090.6</ele>
        <time>2021-12-19T09:37:23Z</time>
      </trkpt>
      <trkpt lat="44.70504" lon="6.86463">
        <ele>2090.8</ele>
        <time>2021-12-19T09:37:24Z</time>
      </trkpt>
      <trkpt lat="44.70505" lon="6.86462">
        <ele>2090.8</ele>
        <time>2021-12-19T09:37:25Z</time>
      </trkpt>
      <trkpt lat="44.70505" lon="6.86461">
        <ele>2090.8</ele>
        <time>2021-12-19T09:37:26Z</time>
      </trkpt>
      <trkpt lat="44.70506" lon="6.86461">
        <ele>2090.8</ele>
        <time>2021-12-19T09:37:27Z</time>
      </trkpt>
      <trkpt lat="44.70506" lon="6.86461">
        <ele>2090.7</ele>
        <time>2021-12-19T09:37:28Z</time>
      </trkpt>
      <trkpt lat="44.70506" lon="6.86461">
        <ele>2090.6</ele>
        <time>2021-12-19T09:37:29Z</time>
      </trkpt>
      <trkpt lat="44.70507" lon="6.86461">
        <ele>2090.4</ele>
        <time>2021-12-19T09:37:30Z</time>
      </trkpt>
      <trkpt lat="44.70509" lon="6.8646">
        <ele>2090.1</ele>
        <time>2021-12-19T09:37:32Z</time>
      </trkpt>
      <trkpt lat="44.70509" lon="6.86459">
        <ele>2090</ele>
        <time>2021-12-19T09:37:33Z</time>
      </trkpt>
      <trkpt lat="44.7051" lon="6.86458">
        <ele>2089.9</ele>
        <time>2021-12-19T09:37:48Z</time>
      </trkpt>
      <trkpt lat="44.70516" lon="6.86454">
        <ele>2089.7</ele>
        <time>2021-12-19T09:37:49Z</time>
      </trkpt>
      <trkpt lat="44.70517" lon="6.86453">
        <ele>2089.8</ele>
        <time>2021-12-19T09:37:50Z</time>
      </trkpt>
      <trkpt lat="44.70517" lon="6.86453">
        <ele>2089.9</ele>
        <time>2021-12-19T09:37:51Z</time>
      </trkpt>
      <trkpt lat="44.70518" lon="6.86452">
        <ele>2090</ele>
        <time>2021-12-19T09:37:52Z</time>
      </trkpt>
      <trkpt lat="44.70518" lon="6.86451">
        <ele>2090.1</ele>
        <time>2021-12-19T09:37:53Z</time>
      </trkpt>
      <trkpt lat="44.70519" lon="6.8645">
        <ele>2090.2</ele>
        <time>2021-12-19T09:37:54Z</time>
      </trkpt>
      <trkpt lat="44.70524" lon="6.86449">
        <ele>2090.6</ele>
        <time>2021-12-19T09:37:59Z</time>
      </trkpt>
      <trkpt lat="44.70528" lon="6.86448">
        <ele>2090.4</ele>
        <time>2021-12-19T09:38:03Z</time>
      </trkpt>
      <trkpt lat="44.70533" lon="6.86445">
        <ele>2090.7</ele>
        <time>2021-12-19T09:38:07Z</time>
      </trkpt>
      <trkpt lat="44.70537" lon="6.86441">
        <ele>2091.4</ele>
        <time>2021-12-19T09:38:12Z</time>
      </trkpt>
      <trkpt lat="44.70541" lon="6.86438">
        <ele>2092.4</ele>
        <time>2021-12-19T09:38:20Z</time>
      </trkpt>
      <trkpt lat="44.70543" lon="6.86434">
        <ele>2092.8</ele>
        <time>2021-12-19T09:38:23Z</time>
      </trkpt>
      <trkpt lat="44.70544" lon="6.86434">
        <ele>2092.9</ele>
        <time>2021-12-19T09:38:24Z</time>
      </trkpt>
      <trkpt lat="44.70545" lon="6.86434">
        <ele>2093</ele>
        <time>2021-12-19T09:38:25Z</time>
      </trkpt>
      <trkpt lat="44.7055" lon="6.86431">
        <ele>2093.3</ele>
        <time>2021-12-19T09:38:28Z</time>
      </trkpt>
      <trkpt lat="44.70554" lon="6.86429">
        <ele>2093.5</ele>
        <time>2021-12-19T09:38:31Z</time>
      </trkpt>
      <trkpt lat="44.70558" lon="6.86426">
        <ele>2094.2</ele>
        <time>2021-12-19T09:38:35Z</time>
      </trkpt>
      <trkpt lat="44.70561" lon="6.86422">
        <ele>2094.6</ele>
        <time>2021-12-19T09:38:38Z</time>
      </trkpt>
      <trkpt lat="44.70561" lon="6.86421">
        <ele>2094.6</ele>
        <time>2021-12-19T09:38:39Z</time>
      </trkpt>
      <trkpt lat="44.70561" lon="6.86421">
        <ele>2094.5</ele>
        <time>2021-12-19T09:38:40Z</time>
      </trkpt>
      <trkpt lat="44.70564" lon="6.86413">
        <ele>2095.7</ele>
        <time>2021-12-19T09:38:46Z</time>
      </trkpt>
      <trkpt lat="44.70565" lon="6.86411">
        <ele>2096.1</ele>
        <time>2021-12-19T09:38:49Z</time>
      </trkpt>
      <trkpt lat="44.70565" lon="6.86411">
        <ele>2096.1</ele>
        <time>2021-12-19T09:38:50Z</time>
      </trkpt>
      <trkpt lat="44.70564" lon="6.86411">
        <ele>2096.3</ele>
        <time>2021-12-19T09:38:56Z</time>
      </trkpt>
      <trkpt lat="44.70564" lon="6.86412">
        <ele>2096.2</ele>
        <time>2021-12-19T09:38:57Z</time>
      </trkpt>
      <trkpt lat="44.70564" lon="6.86412">
        <ele>2096.1</ele>
        <time>2021-12-19T09:38:58Z</time>
      </trkpt>
      <trkpt lat="44.70564" lon="6.86413">
        <ele>2096.1</ele>
        <time>2021-12-19T09:38:59Z</time>
      </trkpt>
      <trkpt lat="44.70565" lon="6.86412">
        <ele>2096</ele>
        <time>2021-12-19T09:39:00Z</time>
      </trkpt>
      <trkpt lat="44.70567" lon="6.86415">
        <ele>2097.2</ele>
        <time>2021-12-19T09:39:15Z</time>
      </trkpt>
      <trkpt lat="44.70567" lon="6.86415">
        <ele>2097.3</ele>
        <time>2021-12-19T09:39:16Z</time>
      </trkpt>
      <trkpt lat="44.70567" lon="6.86414">
        <ele>2097.5</ele>
        <time>2021-12-19T09:39:27Z</time>
      </trkpt>
      <trkpt lat="44.70569" lon="6.86419">
        <ele>2097.2</ele>
        <time>2021-12-19T09:39:28Z</time>
      </trkpt>
      <trkpt lat="44.70574" lon="6.86415">
        <ele>2097.4</ele>
        <time>2021-12-19T09:39:32Z</time>
      </trkpt>
      <trkpt lat="44.7058" lon="6.86409">
        <ele>2097.3</ele>
        <time>2021-12-19T09:39:34Z</time>
      </trkpt>
      <trkpt lat="44.70586" lon="6.86403">
        <ele>2097.1</ele>
        <time>2021-12-19T09:39:36Z</time>
      </trkpt>
      <trkpt lat="44.7059" lon="6.86399">
        <ele>2096.8</ele>
        <time>2021-12-19T09:39:38Z</time>
      </trkpt>
      <trkpt lat="44.70595" lon="6.86395">
        <ele>2095.8</ele>
        <time>2021-12-19T09:39:42Z</time>
      </trkpt>
      <trkpt lat="44.70599" lon="6.86391">
        <ele>2095.6</ele>
        <time>2021-12-19T09:39:45Z</time>
      </trkpt>
      <trkpt lat="44.70603" lon="6.86386">
        <ele>2094.9</ele>
        <time>2021-12-19T09:39:50Z</time>
      </trkpt>
      <trkpt lat="44.70606" lon="6.86382">
        <ele>2095.3</ele>
        <time>2021-12-19T09:39:55Z</time>
      </trkpt>
      <trkpt lat="44.70606" lon="6.86381">
        <ele>2095.1</ele>
        <time>2021-12-19T09:39:56Z</time>
      </trkpt>
      <trkpt lat="44.70606" lon="6.86381">
        <ele>2095.1</ele>
        <time>2021-12-19T09:39:57Z</time>
      </trkpt>
      <trkpt lat="44.70605" lon="6.86381">
        <ele>2094.9</ele>
        <time>2021-12-19T09:39:58Z</time>
      </trkpt>
      <trkpt lat="44.70605" lon="6.8638">
        <ele>2093.8</ele>
        <time>2021-12-19T09:40:03Z</time>
      </trkpt>
      <trkpt lat="44.70605" lon="6.8638">
        <ele>2093.7</ele>
        <time>2021-12-19T09:40:04Z</time>
      </trkpt>
      <trkpt lat="44.70605" lon="6.8638">
        <ele>2093.8</ele>
        <time>2021-12-19T09:40:05Z</time>
      </trkpt>
      <trkpt lat="44.70603" lon="6.86374">
        <ele>2093.8</ele>
        <time>2021-12-19T09:40:11Z</time>
      </trkpt>
      <trkpt lat="44.70605" lon="6.86368">
        <ele>2093.5</ele>
        <time>2021-12-19T09:40:15Z</time>
      </trkpt>
      <trkpt lat="44.70606" lon="6.86361">
        <ele>2093.7</ele>
        <time>2021-12-19T09:40:24Z</time>
      </trkpt>
      <trkpt lat="44.7061" lon="6.86358">
        <ele>2094</ele>
        <time>2021-12-19T09:40:29Z</time>
      </trkpt>
      <trkpt lat="44.7061" lon="6.86357">
        <ele>2094.1</ele>
        <time>2021-12-19T09:40:30Z</time>
      </trkpt>
      <trkpt lat="44.70611" lon="6.86357">
        <ele>2094.1</ele>
        <time>2021-12-19T09:40:31Z</time>
      </trkpt>
      <trkpt lat="44.70615" lon="6.86353">
        <ele>2094</ele>
        <time>2021-12-19T09:40:37Z</time>
      </trkpt>
      <trkpt lat="44.7062" lon="6.8635">
        <ele>2094</ele>
        <time>2021-12-19T09:40:42Z</time>
      </trkpt>
      <trkpt lat="44.70626" lon="6.86347">
        <ele>2094.3</ele>
        <time>2021-12-19T09:40:45Z</time>
      </trkpt>
      <trkpt lat="44.7063" lon="6.86343">
        <ele>2094.8</ele>
        <time>2021-12-19T09:40:49Z</time>
      </trkpt>
      <trkpt lat="44.70635" lon="6.86341">
        <ele>2095.1</ele>
        <time>2021-12-19T09:40:51Z</time>
      </trkpt>
      <trkpt lat="44.70639" lon="6.86338">
        <ele>2095.1</ele>
        <time>2021-12-19T09:40:53Z</time>
      </trkpt>
      <trkpt lat="44.70646" lon="6.86335">
        <ele>2095.1</ele>
        <time>2021-12-19T09:40:55Z</time>
      </trkpt>
      <trkpt lat="44.70654" lon="6.86331">
        <ele>2095.1</ele>
        <time>2021-12-19T09:40:57Z</time>
      </trkpt>
      <trkpt lat="44.7066" lon="6.86327">
        <ele>2094.7</ele>
        <time>2021-12-19T09:40:59Z</time>
      </trkpt>
      <trkpt lat="44.70664" lon="6.86326">
        <ele>2093.3</ele>
        <time>2021-12-19T09:41:02Z</time>
      </trkpt>
      <trkpt lat="44.70669" lon="6.86323">
        <ele>2091.9</ele>
        <time>2021-12-19T09:41:05Z</time>
      </trkpt>
      <trkpt lat="44.70675" lon="6.86318">
        <ele>2090.9</ele>
        <time>2021-12-19T09:41:08Z</time>
      </trkpt>
      <trkpt lat="44.70681" lon="6.86316">
        <ele>2089</ele>
        <time>2021-12-19T09:41:16Z</time>
      </trkpt>
      <trkpt lat="44.70685" lon="6.86312">
        <ele>2089</ele>
        <time>2021-12-19T09:41:19Z</time>
      </trkpt>
      <trkpt lat="44.70689" lon="6.86309">
        <ele>2087.7</ele>
        <time>2021-12-19T09:41:21Z</time>
      </trkpt>
      <trkpt lat="44.70694" lon="6.86307">
        <ele>2086.2</ele>
        <time>2021-12-19T09:41:23Z</time>
      </trkpt>
      <trkpt lat="44.70699" lon="6.86306">
        <ele>2085.4</ele>
        <time>2021-12-19T09:41:25Z</time>
      </trkpt>
      <trkpt lat="44.70705" lon="6.86303">
        <ele>2083</ele>
        <time>2021-12-19T09:41:27Z</time>
      </trkpt>
      <trkpt lat="44.7071" lon="6.86301">
        <ele>2079.6</ele>
        <time>2021-12-19T09:41:29Z</time>
      </trkpt>
      <trkpt lat="44.70714" lon="6.86303">
        <ele>2078.3</ele>
        <time>2021-12-19T09:41:33Z</time>
      </trkpt>
      <trkpt lat="44.70718" lon="6.86306">
        <ele>2077.3</ele>
        <time>2021-12-19T09:41:38Z</time>
      </trkpt>
      <trkpt lat="44.7072" lon="6.86306">
        <ele>2076.2</ele>
        <time>2021-12-19T09:41:41Z</time>
      </trkpt>
      <trkpt lat="44.70721" lon="6.86306">
        <ele>2075.9</ele>
        <time>2021-12-19T09:41:42Z</time>
      </trkpt>
      <trkpt lat="44.70724" lon="6.86314">
        <ele>2074.7</ele>
        <time>2021-12-19T09:41:47Z</time>
      </trkpt>
      <trkpt lat="44.70728" lon="6.86319">
        <ele>2074.4</ele>
        <time>2021-12-19T09:41:49Z</time>
      </trkpt>
      <trkpt lat="44.70733" lon="6.86321">
        <ele>2073.8</ele>
        <time>2021-12-19T09:41:51Z</time>
      </trkpt>
      <trkpt lat="44.70736" lon="6.86321">
        <ele>2073.5</ele>
        <time>2021-12-19T09:41:52Z</time>
      </trkpt>
      <trkpt lat="44.70738" lon="6.86321">
        <ele>2073.1</ele>
        <time>2021-12-19T09:41:53Z</time>
      </trkpt>
      <trkpt lat="44.70743" lon="6.8632">
        <ele>2072.5</ele>
        <time>2021-12-19T09:41:55Z</time>
      </trkpt>
      <trkpt lat="44.70748" lon="6.8632">
        <ele>2072.2</ele>
        <time>2021-12-19T09:41:57Z</time>
      </trkpt>
      <trkpt lat="44.70753" lon="6.86317">
        <ele>2071.2</ele>
        <time>2021-12-19T09:42:01Z</time>
      </trkpt>
      <trkpt lat="44.70756" lon="6.86313">
        <ele>2068.1</ele>
        <time>2021-12-19T09:42:09Z</time>
      </trkpt>
      <trkpt lat="44.7076" lon="6.86307">
        <ele>2067.7</ele>
        <time>2021-12-19T09:42:10Z</time>
      </trkpt>
      <trkpt lat="44.70764" lon="6.86302">
        <ele>2066.9</ele>
        <time>2021-12-19T09:42:13Z</time>
      </trkpt>
      <trkpt lat="44.70769" lon="6.86298">
        <ele>2066.3</ele>
        <time>2021-12-19T09:42:16Z</time>
      </trkpt>
      <trkpt lat="44.70773" lon="6.86294">
        <ele>2065.4</ele>
        <time>2021-12-19T09:42:19Z</time>
      </trkpt>
      <trkpt lat="44.70778" lon="6.86289">
        <ele>2064.5</ele>
        <time>2021-12-19T09:42:23Z</time>
      </trkpt>
      <trkpt lat="44.70782" lon="6.86286">
        <ele>2063.6</ele>
        <time>2021-12-19T09:42:28Z</time>
      </trkpt>
      <trkpt lat="44.70786" lon="6.86283">
        <ele>2062.9</ele>
        <time>2021-12-19T09:42:31Z</time>
      </trkpt>
      <trkpt lat="44.70792" lon="6.86279">
        <ele>2062.2</ele>
        <time>2021-12-19T09:42:35Z</time>
      </trkpt>
      <trkpt lat="44.70795" lon="6.86273">
        <ele>2062.1</ele>
        <time>2021-12-19T09:42:38Z</time>
      </trkpt>
      <trkpt lat="44.708" lon="6.86269">
        <ele>2061.6</ele>
        <time>2021-12-19T09:42:41Z</time>
      </trkpt>
      <trkpt lat="44.70805" lon="6.86265">
        <ele>2061.3</ele>
        <time>2021-12-19T09:42:44Z</time>
      </trkpt>
      <trkpt lat="44.70809" lon="6.8626">
        <ele>2061.5</ele>
        <time>2021-12-19T09:42:48Z</time>
      </trkpt>
      <trkpt lat="44.70813" lon="6.86258">
        <ele>2061.3</ele>
        <time>2021-12-19T09:42:53Z</time>
      </trkpt>
      <trkpt lat="44.70816" lon="6.86253">
        <ele>2061</ele>
        <time>2021-12-19T09:42:59Z</time>
      </trkpt>
      <trkpt lat="44.70822" lon="6.86248">
        <ele>2060.4</ele>
        <time>2021-12-19T09:43:03Z</time>
      </trkpt>
      <trkpt lat="44.70823" lon="6.86246">
        <ele>2060.5</ele>
        <time>2021-12-19T09:43:04Z</time>
      </trkpt>
      <trkpt lat="44.70825" lon="6.86245">
        <ele>2060.4</ele>
        <time>2021-12-19T09:43:05Z</time>
      </trkpt>
      <trkpt lat="44.70827" lon="6.86244">
        <ele>2060.3</ele>
        <time>2021-12-19T09:43:06Z</time>
      </trkpt>
      <trkpt lat="44.70831" lon="6.8624">
        <ele>2060.4</ele>
        <time>2021-12-19T09:43:08Z</time>
      </trkpt>
      <trkpt lat="44.70836" lon="6.86237">
        <ele>2060.7</ele>
        <time>2021-12-19T09:43:11Z</time>
      </trkpt>
      <trkpt lat="44.7084" lon="6.86233">
        <ele>2061.5</ele>
        <time>2021-12-19T09:43:15Z</time>
      </trkpt>
      <trkpt lat="44.70842" lon="6.86233">
        <ele>2063.4</ele>
        <time>2021-12-19T09:43:21Z</time>
      </trkpt>
      <trkpt lat="44.70842" lon="6.86234">
        <ele>2063.6</ele>
        <time>2021-12-19T09:43:22Z</time>
      </trkpt>
      <trkpt lat="44.70845" lon="6.86232">
        <ele>2063.9</ele>
        <time>2021-12-19T09:43:25Z</time>
      </trkpt>
      <trkpt lat="44.70846" lon="6.86231">
        <ele>2064.2</ele>
        <time>2021-12-19T09:43:26Z</time>
      </trkpt>
      <trkpt lat="44.70846" lon="6.86231">
        <ele>2064.7</ele>
        <time>2021-12-19T09:43:28Z</time>
      </trkpt>
      <trkpt lat="44.70846" lon="6.8623">
        <ele>2064.9</ele>
        <time>2021-12-19T09:43:29Z</time>
      </trkpt>
      <trkpt lat="44.70847" lon="6.8623">
        <ele>2064.9</ele>
        <time>2021-12-19T09:43:30Z</time>
      </trkpt>
      <trkpt lat="44.7085" lon="6.86228">
        <ele>2064.7</ele>
        <time>2021-12-19T09:43:33Z</time>
      </trkpt>
      <trkpt lat="44.70851" lon="6.86227">
        <ele>2064.7</ele>
        <time>2021-12-19T09:43:34Z</time>
      </trkpt>
      <trkpt lat="44.70852" lon="6.86227">
        <ele>2064.7</ele>
        <time>2021-12-19T09:43:35Z</time>
      </trkpt>
      <trkpt lat="44.70856" lon="6.86223">
        <ele>2065.1</ele>
        <time>2021-12-19T09:43:38Z</time>
      </trkpt>
      <trkpt lat="44.70857" lon="6.86222">
        <ele>2065.1</ele>
        <time>2021-12-19T09:43:39Z</time>
      </trkpt>
      <trkpt lat="44.70858" lon="6.86222">
        <ele>2065.2</ele>
        <time>2021-12-19T09:43:40Z</time>
      </trkpt>
      <trkpt lat="44.70859" lon="6.8622">
        <ele>2065.5</ele>
        <time>2021-12-19T09:43:41Z</time>
      </trkpt>
      <trkpt lat="44.70859" lon="6.8622">
        <ele>2065.5</ele>
        <time>2021-12-19T09:43:42Z</time>
      </trkpt>
      <trkpt lat="44.70859" lon="6.86219">
        <ele>2065.7</ele>
        <time>2021-12-19T09:43:43Z</time>
      </trkpt>
      <trkpt lat="44.70859" lon="6.86218">
        <ele>2065.8</ele>
        <time>2021-12-19T09:43:44Z</time>
      </trkpt>
      <trkpt lat="44.7086" lon="6.86218">
        <ele>2065.8</ele>
        <time>2021-12-19T09:43:45Z</time>
      </trkpt>
      <trkpt lat="44.70861" lon="6.86217">
        <ele>2065.8</ele>
        <time>2021-12-19T09:43:46Z</time>
      </trkpt>
      <trkpt lat="44.70862" lon="6.86217">
        <ele>2065.9</ele>
        <time>2021-12-19T09:43:47Z</time>
      </trkpt>
      <trkpt lat="44.70863" lon="6.86216">
        <ele>2066</ele>
        <time>2021-12-19T09:43:48Z</time>
      </trkpt>
      <trkpt lat="44.70864" lon="6.86215">
        <ele>2066.2</ele>
        <time>2021-12-19T09:43:49Z</time>
      </trkpt>
      <trkpt lat="44.70866" lon="6.86215">
        <ele>2066.1</ele>
        <time>2021-12-19T09:43:50Z</time>
      </trkpt>
      <trkpt lat="44.70867" lon="6.86214">
        <ele>2066.1</ele>
        <time>2021-12-19T09:43:51Z</time>
      </trkpt>
      <trkpt lat="44.70868" lon="6.86214">
        <ele>2066.2</ele>
        <time>2021-12-19T09:43:52Z</time>
      </trkpt>
      <trkpt lat="44.70869" lon="6.86214">
        <ele>2066.2</ele>
        <time>2021-12-19T09:43:53Z</time>
      </trkpt>
      <trkpt lat="44.70871" lon="6.86213">
        <ele>2066.4</ele>
        <time>2021-12-19T09:43:54Z</time>
      </trkpt>
      <trkpt lat="44.70875" lon="6.86211">
        <ele>2066.4</ele>
        <time>2021-12-19T09:43:57Z</time>
      </trkpt>
      <trkpt lat="44.70876" lon="6.86211">
        <ele>2066.4</ele>
        <time>2021-12-19T09:43:58Z</time>
      </trkpt>
      <trkpt lat="44.70877" lon="6.8621">
        <ele>2066.4</ele>
        <time>2021-12-19T09:43:59Z</time>
      </trkpt>
      <trkpt lat="44.70882" lon="6.86208">
        <ele>2064.4</ele>
        <time>2021-12-19T09:44:07Z</time>
      </trkpt>
      <trkpt lat="44.70888" lon="6.86207">
        <ele>2064.8</ele>
        <time>2021-12-19T09:44:11Z</time>
      </trkpt>
      <trkpt lat="44.70892" lon="6.86204">
        <ele>2065.3</ele>
        <time>2021-12-19T09:44:15Z</time>
      </trkpt>
      <trkpt lat="44.70896" lon="6.86201">
        <ele>2065.9</ele>
        <time>2021-12-19T09:44:18Z</time>
      </trkpt>
      <trkpt lat="44.70902" lon="6.86199">
        <ele>2066</ele>
        <time>2021-12-19T09:44:21Z</time>
      </trkpt>
      <trkpt lat="44.70908" lon="6.86198">
        <ele>2066.5</ele>
        <time>2021-12-19T09:44:23Z</time>
      </trkpt>
      <trkpt lat="44.70912" lon="6.86196">
        <ele>2066.5</ele>
        <time>2021-12-19T09:44:25Z</time>
      </trkpt>
      <trkpt lat="44.70917" lon="6.86194">
        <ele>2067.4</ele>
        <time>2021-12-19T09:44:29Z</time>
      </trkpt>
      <trkpt lat="44.70922" lon="6.86192">
        <ele>2069.1</ele>
        <time>2021-12-19T09:44:34Z</time>
      </trkpt>
      <trkpt lat="44.70925" lon="6.86192">
        <ele>2070.2</ele>
        <time>2021-12-19T09:44:36Z</time>
      </trkpt>
      <trkpt lat="44.70926" lon="6.86192">
        <ele>2070.5</ele>
        <time>2021-12-19T09:44:37Z</time>
      </trkpt>
      <trkpt lat="44.70927" lon="6.86192">
        <ele>2070.7</ele>
        <time>2021-12-19T09:44:38Z</time>
      </trkpt>
      <trkpt lat="44.70928" lon="6.86192">
        <ele>2070.8</ele>
        <time>2021-12-19T09:44:39Z</time>
      </trkpt>
      <trkpt lat="44.70928" lon="6.86192">
        <ele>2070.9</ele>
        <time>2021-12-19T09:44:40Z</time>
      </trkpt>
      <trkpt lat="44.70929" lon="6.86192">
        <ele>2071</ele>
        <time>2021-12-19T09:44:41Z</time>
      </trkpt>
      <trkpt lat="44.70931" lon="6.86191">
        <ele>2071.2</ele>
        <time>2021-12-19T09:44:43Z</time>
      </trkpt>
      <trkpt lat="44.70932" lon="6.86191">
        <ele>2071.2</ele>
        <time>2021-12-19T09:44:44Z</time>
      </trkpt>
      <trkpt lat="44.70933" lon="6.8619">
        <ele>2071.3</ele>
        <time>2021-12-19T09:44:45Z</time>
      </trkpt>
      <trkpt lat="44.70934" lon="6.86191">
        <ele>2071.5</ele>
        <time>2021-12-19T09:44:46Z</time>
      </trkpt>
      <trkpt lat="44.70935" lon="6.86191">
        <ele>2071.7</ele>
        <time>2021-12-19T09:44:48Z</time>
      </trkpt>
      <trkpt lat="44.70936" lon="6.8619">
        <ele>2071.7</ele>
        <time>2021-12-19T09:44:49Z</time>
      </trkpt>
      <trkpt lat="44.70936" lon="6.86191">
        <ele>2072</ele>
        <time>2021-12-19T09:44:50Z</time>
      </trkpt>
      <trkpt lat="44.70937" lon="6.8619">
        <ele>2072</ele>
        <time>2021-12-19T09:44:51Z</time>
      </trkpt>
      <trkpt lat="44.7094" lon="6.86192">
        <ele>2073.3</ele>
        <time>2021-12-19T09:44:58Z</time>
      </trkpt>
      <trkpt lat="44.7094" lon="6.86192">
        <ele>2073.3</ele>
        <time>2021-12-19T09:44:59Z</time>
      </trkpt>
      <trkpt lat="44.70941" lon="6.86191">
        <ele>2073.4</ele>
        <time>2021-12-19T09:45:00Z</time>
      </trkpt>
      <trkpt lat="44.70942" lon="6.86191">
        <ele>2073.4</ele>
        <time>2021-12-19T09:45:01Z</time>
      </trkpt>
      <trkpt lat="44.70943" lon="6.8619">
        <ele>2073.5</ele>
        <time>2021-12-19T09:45:02Z</time>
      </trkpt>
      <trkpt lat="44.70944" lon="6.8619">
        <ele>2073.5</ele>
        <time>2021-12-19T09:45:03Z</time>
      </trkpt>
      <trkpt lat="44.70945" lon="6.8619">
        <ele>2073.6</ele>
        <time>2021-12-19T09:45:04Z</time>
      </trkpt>
      <trkpt lat="44.70946" lon="6.86189">
        <ele>2073.6</ele>
        <time>2021-12-19T09:45:05Z</time>
      </trkpt>
      <trkpt lat="44.70951" lon="6.86187">
        <ele>2074.1</ele>
        <time>2021-12-19T09:45:09Z</time>
      </trkpt>
      <trkpt lat="44.70951" lon="6.86185">
        <ele>2073.3</ele>
        <time>2021-12-19T09:45:12Z</time>
      </trkpt>
      <trkpt lat="44.70951" lon="6.86185">
        <ele>2073</ele>
        <time>2021-12-19T09:45:13Z</time>
      </trkpt>
      <trkpt lat="44.70952" lon="6.86183">
        <ele>2073</ele>
        <time>2021-12-19T09:45:15Z</time>
      </trkpt>
      <trkpt lat="44.70952" lon="6.86183">
        <ele>2072.7</ele>
        <time>2021-12-19T09:45:16Z</time>
      </trkpt>
      <trkpt lat="44.70955" lon="6.86181">
        <ele>2072.4</ele>
        <time>2021-12-19T09:45:23Z</time>
      </trkpt>
      <trkpt lat="44.70956" lon="6.8618">
        <ele>2072.4</ele>
        <time>2021-12-19T09:45:24Z</time>
      </trkpt>
      <trkpt lat="44.70956" lon="6.86178">
        <ele>2072.7</ele>
        <time>2021-12-19T09:45:25Z</time>
      </trkpt>
      <trkpt lat="44.70958" lon="6.86175">
        <ele>2072.7</ele>
        <time>2021-12-19T09:45:29Z</time>
      </trkpt>
      <trkpt lat="44.7096" lon="6.86174">
        <ele>2072.6</ele>
        <time>2021-12-19T09:45:30Z</time>
      </trkpt>
      <trkpt lat="44.70961" lon="6.86173">
        <ele>2072.3</ele>
        <time>2021-12-19T09:45:31Z</time>
      </trkpt>
      <trkpt lat="44.70962" lon="6.86172">
        <ele>2072.2</ele>
        <time>2021-12-19T09:45:32Z</time>
      </trkpt>
      <trkpt lat="44.70963" lon="6.86172">
        <ele>2072.1</ele>
        <time>2021-12-19T09:45:33Z</time>
      </trkpt>
      <trkpt lat="44.70967" lon="6.8617">
        <ele>2072.3</ele>
        <time>2021-12-19T09:45:35Z</time>
      </trkpt>
      <trkpt lat="44.70969" lon="6.8617">
        <ele>2072.4</ele>
        <time>2021-12-19T09:45:36Z</time>
      </trkpt>
      <trkpt lat="44.70973" lon="6.86163">
        <ele>2071</ele>
        <time>2021-12-19T09:45:43Z</time>
      </trkpt>
      <trkpt lat="44.70975" lon="6.86161">
        <ele>2071.1</ele>
        <time>2021-12-19T09:45:44Z</time>
      </trkpt>
      <trkpt lat="44.70977" lon="6.86159">
        <ele>2071.2</ele>
        <time>2021-12-19T09:45:45Z</time>
      </trkpt>
      <trkpt lat="44.70978" lon="6.86157">
        <ele>2071.2</ele>
        <time>2021-12-19T09:45:49Z</time>
      </trkpt>
      <trkpt lat="44.70978" lon="6.86156">
        <ele>2071.3</ele>
        <time>2021-12-19T09:45:50Z</time>
      </trkpt>
      <trkpt lat="44.70979" lon="6.86156">
        <ele>2071.5</ele>
        <time>2021-12-19T09:46:19Z</time>
      </trkpt>
      <trkpt lat="44.70981" lon="6.86154">
        <ele>2072</ele>
        <time>2021-12-19T09:46:20Z</time>
      </trkpt>
      <trkpt lat="44.70986" lon="6.86153">
        <ele>2072.1</ele>
        <time>2021-12-19T09:46:25Z</time>
      </trkpt>
      <trkpt lat="44.70986" lon="6.86153">
        <ele>2072.1</ele>
        <time>2021-12-19T09:46:26Z</time>
      </trkpt>
      <trkpt lat="44.70987" lon="6.86152">
        <ele>2072.1</ele>
        <time>2021-12-19T09:46:27Z</time>
      </trkpt>
      <trkpt lat="44.70989" lon="6.86152">
        <ele>2072.1</ele>
        <time>2021-12-19T09:46:28Z</time>
      </trkpt>
      <trkpt lat="44.7099" lon="6.86151">
        <ele>2072.1</ele>
        <time>2021-12-19T09:46:29Z</time>
      </trkpt>
      <trkpt lat="44.70991" lon="6.86151">
        <ele>2072.1</ele>
        <time>2021-12-19T09:46:30Z</time>
      </trkpt>
      <trkpt lat="44.70993" lon="6.8615">
        <ele>2072.1</ele>
        <time>2021-12-19T09:46:31Z</time>
      </trkpt>
      <trkpt lat="44.70994" lon="6.86149">
        <ele>2072.2</ele>
        <time>2021-12-19T09:46:32Z</time>
      </trkpt>
      <trkpt lat="44.70995" lon="6.86148">
        <ele>2072.2</ele>
        <time>2021-12-19T09:46:33Z</time>
      </trkpt>
      <trkpt lat="44.70996" lon="6.86147">
        <ele>2072.2</ele>
        <time>2021-12-19T09:46:34Z</time>
      </trkpt>
      <trkpt lat="44.70997" lon="6.86146">
        <ele>2072.2</ele>
        <time>2021-12-19T09:46:35Z</time>
      </trkpt>
      <trkpt lat="44.71002" lon="6.86145">
        <ele>2072.2</ele>
        <time>2021-12-19T09:46:37Z</time>
      </trkpt>
      <trkpt lat="44.71006" lon="6.86145">
        <ele>2072.2</ele>
        <time>2021-12-19T09:46:39Z</time>
      </trkpt>
      <trkpt lat="44.71013" lon="6.86144">
        <ele>2072.1</ele>
        <time>2021-12-19T09:46:41Z</time>
      </trkpt>
      <trkpt lat="44.7102" lon="6.86143">
        <ele>2072.3</ele>
        <time>2021-12-19T09:46:43Z</time>
      </trkpt>
      <trkpt lat="44.71027" lon="6.86141">
        <ele>2072.4</ele>
        <time>2021-12-19T09:46:45Z</time>
      </trkpt>
      <trkpt lat="44.71034" lon="6.86139">
        <ele>2072.4</ele>
        <time>2021-12-19T09:46:47Z</time>
      </trkpt>
      <trkpt lat="44.71041" lon="6.86137">
        <ele>2072.4</ele>
        <time>2021-12-19T09:46:49Z</time>
      </trkpt>
      <trkpt lat="44.71048" lon="6.86136">
        <ele>2072.1</ele>
        <time>2021-12-19T09:46:51Z</time>
      </trkpt>
      <trkpt lat="44.71053" lon="6.86136">
        <ele>2071.5</ele>
        <time>2021-12-19T09:46:53Z</time>
      </trkpt>
      <trkpt lat="44.7106" lon="6.86132">
        <ele>2073.9</ele>
        <time>2021-12-19T09:46:56Z</time>
      </trkpt>
      <trkpt lat="44.71066" lon="6.86132">
        <ele>2074.8</ele>
        <time>2021-12-19T09:46:59Z</time>
      </trkpt>
      <trkpt lat="44.71071" lon="6.86131">
        <ele>2075.6</ele>
        <time>2021-12-19T09:47:02Z</time>
      </trkpt>
      <trkpt lat="44.71075" lon="6.86129">
        <ele>2076.9</ele>
        <time>2021-12-19T09:47:05Z</time>
      </trkpt>
      <trkpt lat="44.71081" lon="6.86129">
        <ele>2079.2</ele>
        <time>2021-12-19T09:47:08Z</time>
      </trkpt>
      <trkpt lat="44.71085" lon="6.86126">
        <ele>2081.4</ele>
        <time>2021-12-19T09:47:10Z</time>
      </trkpt>
      <trkpt lat="44.7109" lon="6.86124">
        <ele>2083.6</ele>
        <time>2021-12-19T09:47:15Z</time>
      </trkpt>
      <trkpt lat="44.71091" lon="6.86124">
        <ele>2083.8</ele>
        <time>2021-12-19T09:47:16Z</time>
      </trkpt>
      <trkpt lat="44.71093" lon="6.86123">
        <ele>2084.3</ele>
        <time>2021-12-19T09:47:18Z</time>
      </trkpt>
      <trkpt lat="44.71094" lon="6.86122">
        <ele>2084.5</ele>
        <time>2021-12-19T09:47:19Z</time>
      </trkpt>
      <trkpt lat="44.71095" lon="6.86122">
        <ele>2084.5</ele>
        <time>2021-12-19T09:47:20Z</time>
      </trkpt>
      <trkpt lat="44.71097" lon="6.86122">
        <ele>2084.5</ele>
        <time>2021-12-19T09:47:21Z</time>
      </trkpt>
      <trkpt lat="44.71098" lon="6.86121">
        <ele>2084.9</ele>
        <time>2021-12-19T09:47:22Z</time>
      </trkpt>
      <trkpt lat="44.71099" lon="6.86121">
        <ele>2085</ele>
        <time>2021-12-19T09:47:23Z</time>
      </trkpt>
      <trkpt lat="44.711" lon="6.86121">
        <ele>2085</ele>
        <time>2021-12-19T09:47:24Z</time>
      </trkpt>
      <trkpt lat="44.71105" lon="6.86122">
        <ele>2085.4</ele>
        <time>2021-12-19T09:47:27Z</time>
      </trkpt>
      <trkpt lat="44.71106" lon="6.86122">
        <ele>2085.5</ele>
        <time>2021-12-19T09:47:28Z</time>
      </trkpt>
      <trkpt lat="44.71108" lon="6.86122">
        <ele>2085.8</ele>
        <time>2021-12-19T09:47:29Z</time>
      </trkpt>
      <trkpt lat="44.71109" lon="6.86122">
        <ele>2085.8</ele>
        <time>2021-12-19T09:47:30Z</time>
      </trkpt>
      <trkpt lat="44.7111" lon="6.86122">
        <ele>2085.8</ele>
        <time>2021-12-19T09:47:31Z</time>
      </trkpt>
      <trkpt lat="44.71112" lon="6.86121">
        <ele>2086.5</ele>
        <time>2021-12-19T09:47:32Z</time>
      </trkpt>
      <trkpt lat="44.71113" lon="6.86122">
        <ele>2086.3</ele>
        <time>2021-12-19T09:47:33Z</time>
      </trkpt>
      <trkpt lat="44.71114" lon="6.86121">
        <ele>2086.6</ele>
        <time>2021-12-19T09:47:34Z</time>
      </trkpt>
      <trkpt lat="44.71115" lon="6.86121">
        <ele>2086.6</ele>
        <time>2021-12-19T09:47:35Z</time>
      </trkpt>
      <trkpt lat="44.71116" lon="6.8612">
        <ele>2086.9</ele>
        <time>2021-12-19T09:47:36Z</time>
      </trkpt>
      <trkpt lat="44.71117" lon="6.86119">
        <ele>2087.2</ele>
        <time>2021-12-19T09:47:38Z</time>
      </trkpt>
      <trkpt lat="44.71118" lon="6.86118">
        <ele>2087.6</ele>
        <time>2021-12-19T09:47:39Z</time>
      </trkpt>
      <trkpt lat="44.71118" lon="6.86117">
        <ele>2087.8</ele>
        <time>2021-12-19T09:47:40Z</time>
      </trkpt>
      <trkpt lat="44.71117" lon="6.86116">
        <ele>2087.3</ele>
        <time>2021-12-19T09:47:41Z</time>
      </trkpt>
      <trkpt lat="44.71116" lon="6.86115">
        <ele>2086.8</ele>
        <time>2021-12-19T09:47:42Z</time>
      </trkpt>
      <trkpt lat="44.71114" lon="6.86115">
        <ele>2086.6</ele>
        <time>2021-12-19T09:47:43Z</time>
      </trkpt>
      <trkpt lat="44.71114" lon="6.86115">
        <ele>2086.5</ele>
        <time>2021-12-19T09:47:44Z</time>
      </trkpt>
      <trkpt lat="44.71117" lon="6.86112">
        <ele>2086.8</ele>
        <time>2021-12-19T09:47:50Z</time>
      </trkpt>
      <trkpt lat="44.71119" lon="6.8611">
        <ele>2087.3</ele>
        <time>2021-12-19T09:47:51Z</time>
      </trkpt>
      <trkpt lat="44.71121" lon="6.8611">
        <ele>2087.4</ele>
        <time>2021-12-19T09:47:52Z</time>
      </trkpt>
      <trkpt lat="44.71124" lon="6.86106">
        <ele>2087.8</ele>
        <time>2021-12-19T09:47:56Z</time>
      </trkpt>
      <trkpt lat="44.71129" lon="6.86104">
        <ele>2088.2</ele>
        <time>2021-12-19T09:48:01Z</time>
      </trkpt>
      <trkpt lat="44.71132" lon="6.86105">
        <ele>2088.4</ele>
        <time>2021-12-19T09:48:04Z</time>
      </trkpt>
      <trkpt lat="44.71134" lon="6.86106">
        <ele>2088.5</ele>
        <time>2021-12-19T09:48:05Z</time>
      </trkpt>
      <trkpt lat="44.71135" lon="6.86107">
        <ele>2088.6</ele>
        <time>2021-12-19T09:48:06Z</time>
      </trkpt>
      <trkpt lat="44.71137" lon="6.86108">
        <ele>2089</ele>
        <time>2021-12-19T09:48:09Z</time>
      </trkpt>
      <trkpt lat="44.71138" lon="6.86108">
        <ele>2089.3</ele>
        <time>2021-12-19T09:48:10Z</time>
      </trkpt>
      <trkpt lat="44.71139" lon="6.86108">
        <ele>2089.3</ele>
        <time>2021-12-19T09:48:11Z</time>
      </trkpt>
      <trkpt lat="44.71142" lon="6.86113">
        <ele>2090</ele>
        <time>2021-12-19T09:48:17Z</time>
      </trkpt>
      <trkpt lat="44.71142" lon="6.86115">
        <ele>2090.8</ele>
        <time>2021-12-19T09:48:21Z</time>
      </trkpt>
      <trkpt lat="44.71143" lon="6.86118">
        <ele>2090.9</ele>
        <time>2021-12-19T09:48:22Z</time>
      </trkpt>
      <trkpt lat="44.71144" lon="6.86119">
        <ele>2091.4</ele>
        <time>2021-12-19T09:48:23Z</time>
      </trkpt>
      <trkpt lat="44.71145" lon="6.86121">
        <ele>2091.6</ele>
        <time>2021-12-19T09:48:26Z</time>
      </trkpt>
      <trkpt lat="44.71147" lon="6.86123">
        <ele>2092.1</ele>
        <time>2021-12-19T09:48:27Z</time>
      </trkpt>
      <trkpt lat="44.71148" lon="6.86122">
        <ele>2092.5</ele>
        <time>2021-12-19T09:48:28Z</time>
      </trkpt>
      <trkpt lat="44.71149" lon="6.86122">
        <ele>2092.7</ele>
        <time>2021-12-19T09:48:29Z</time>
      </trkpt>
      <trkpt lat="44.7115" lon="6.86123">
        <ele>2092.7</ele>
        <time>2021-12-19T09:48:30Z</time>
      </trkpt>
      <trkpt lat="44.71154" lon="6.86125">
        <ele>2093.4</ele>
        <time>2021-12-19T09:48:34Z</time>
      </trkpt>
      <trkpt lat="44.71157" lon="6.86131">
        <ele>2093.1</ele>
        <time>2021-12-19T09:48:40Z</time>
      </trkpt>
      <trkpt lat="44.71157" lon="6.86131">
        <ele>2093</ele>
        <time>2021-12-19T09:48:41Z</time>
      </trkpt>
      <trkpt lat="44.71158" lon="6.86132">
        <ele>2092.9</ele>
        <time>2021-12-19T09:48:42Z</time>
      </trkpt>
      <trkpt lat="44.71158" lon="6.86132">
        <ele>2092.9</ele>
        <time>2021-12-19T09:49:44Z</time>
      </trkpt>
      <trkpt lat="44.71161" lon="6.86135">
        <ele>2093.5</ele>
        <time>2021-12-19T09:49:45Z</time>
      </trkpt>
      <trkpt lat="44.71162" lon="6.86135">
        <ele>2093.6</ele>
        <time>2021-12-19T09:49:46Z</time>
      </trkpt>
      <trkpt lat="44.71163" lon="6.86135">
        <ele>2093.6</ele>
        <time>2021-12-19T09:49:47Z</time>
      </trkpt>
      <trkpt lat="44.71164" lon="6.86135">
        <ele>2093.7</ele>
        <time>2021-12-19T09:49:48Z</time>
      </trkpt>
      <trkpt lat="44.71165" lon="6.86135">
        <ele>2093.8</ele>
        <time>2021-12-19T09:49:49Z</time>
      </trkpt>
      <trkpt lat="44.71168" lon="6.86136">
        <ele>2094</ele>
        <time>2021-12-19T09:49:52Z</time>
      </trkpt>
      <trkpt lat="44.71169" lon="6.86137">
        <ele>2094</ele>
        <time>2021-12-19T09:49:53Z</time>
      </trkpt>
      <trkpt lat="44.7117" lon="6.86137">
        <ele>2094.1</ele>
        <time>2021-12-19T09:49:54Z</time>
      </trkpt>
      <trkpt lat="44.71171" lon="6.86138">
        <ele>2094.1</ele>
        <time>2021-12-19T09:49:55Z</time>
      </trkpt>
      <trkpt lat="44.71172" lon="6.86139">
        <ele>2094.2</ele>
        <time>2021-12-19T09:49:56Z</time>
      </trkpt>
      <trkpt lat="44.71173" lon="6.86139">
        <ele>2094.3</ele>
        <time>2021-12-19T09:49:57Z</time>
      </trkpt>
      <trkpt lat="44.71174" lon="6.8614">
        <ele>2094.4</ele>
        <time>2021-12-19T09:49:58Z</time>
      </trkpt>
      <trkpt lat="44.71179" lon="6.86141">
        <ele>2094.4</ele>
        <time>2021-12-19T09:50:02Z</time>
      </trkpt>
      <trkpt lat="44.71185" lon="6.86144">
        <ele>2093.8</ele>
        <time>2021-12-19T09:50:05Z</time>
      </trkpt>
      <trkpt lat="44.7119" lon="6.86146">
        <ele>2093.6</ele>
        <time>2021-12-19T09:50:08Z</time>
      </trkpt>
      <trkpt lat="44.71195" lon="6.86145">
        <ele>2093.4</ele>
        <time>2021-12-19T09:50:11Z</time>
      </trkpt>
      <trkpt lat="44.71201" lon="6.86146">
        <ele>2093.1</ele>
        <time>2021-12-19T09:50:14Z</time>
      </trkpt>
      <trkpt lat="44.71207" lon="6.86147">
        <ele>2092.8</ele>
        <time>2021-12-19T09:50:18Z</time>
      </trkpt>
      <trkpt lat="44.71212" lon="6.86146">
        <ele>2092.2</ele>
        <time>2021-12-19T09:50:21Z</time>
      </trkpt>
      <trkpt lat="44.71217" lon="6.86143">
        <ele>2091.6</ele>
        <time>2021-12-19T09:50:24Z</time>
      </trkpt>
      <trkpt lat="44.71221" lon="6.86141">
        <ele>2091.2</ele>
        <time>2021-12-19T09:50:27Z</time>
      </trkpt>
      <trkpt lat="44.71227" lon="6.86138">
        <ele>2090.8</ele>
        <time>2021-12-19T09:50:31Z</time>
      </trkpt>
      <trkpt lat="44.7123" lon="6.86135">
        <ele>2090.7</ele>
        <time>2021-12-19T09:50:34Z</time>
      </trkpt>
      <trkpt lat="44.71231" lon="6.86135">
        <ele>2090.7</ele>
        <time>2021-12-19T09:50:35Z</time>
      </trkpt>
      <trkpt lat="44.71233" lon="6.86134">
        <ele>2090.8</ele>
        <time>2021-12-19T09:50:36Z</time>
      </trkpt>
      <trkpt lat="44.71234" lon="6.86132">
        <ele>2091.1</ele>
        <time>2021-12-19T09:50:37Z</time>
      </trkpt>
      <trkpt lat="44.71235" lon="6.86131">
        <ele>2091.2</ele>
        <time>2021-12-19T09:50:38Z</time>
      </trkpt>
      <trkpt lat="44.71237" lon="6.8613">
        <ele>2091.1</ele>
        <time>2021-12-19T09:50:39Z</time>
      </trkpt>
      <trkpt lat="44.71239" lon="6.8613">
        <ele>2091.2</ele>
        <time>2021-12-19T09:50:40Z</time>
      </trkpt>
      <trkpt lat="44.7124" lon="6.8613">
        <ele>2091.1</ele>
        <time>2021-12-19T09:50:41Z</time>
      </trkpt>
      <trkpt lat="44.71242" lon="6.86131">
        <ele>2090.7</ele>
        <time>2021-12-19T09:50:42Z</time>
      </trkpt>
      <trkpt lat="44.71248" lon="6.86132">
        <ele>2090.4</ele>
        <time>2021-12-19T09:50:44Z</time>
      </trkpt>
      <trkpt lat="44.71254" lon="6.86134">
        <ele>2090.4</ele>
        <time>2021-12-19T09:50:46Z</time>
      </trkpt>
      <trkpt lat="44.7126" lon="6.86135">
        <ele>2090.6</ele>
        <time>2021-12-19T09:50:49Z</time>
      </trkpt>
      <trkpt lat="44.71265" lon="6.86136">
        <ele>2091.5</ele>
        <time>2021-12-19T09:50:52Z</time>
      </trkpt>
      <trkpt lat="44.71271" lon="6.86137">
        <ele>2092.7</ele>
        <time>2021-12-19T09:50:57Z</time>
      </trkpt>
      <trkpt lat="44.71271" lon="6.86135">
        <ele>2092.9</ele>
        <time>2021-12-19T09:51:02Z</time>
      </trkpt>
      <trkpt lat="44.7127" lon="6.86135">
        <ele>2092.9</ele>
        <time>2021-12-19T09:51:03Z</time>
      </trkpt>
      <trkpt lat="44.71272" lon="6.86136">
        <ele>2093.4</ele>
        <time>2021-12-19T09:51:09Z</time>
      </trkpt>
      <trkpt lat="44.71273" lon="6.86135">
        <ele>2093.8</ele>
        <time>2021-12-19T09:51:10Z</time>
      </trkpt>
      <trkpt lat="44.71274" lon="6.86135">
        <ele>2093.9</ele>
        <time>2021-12-19T09:51:11Z</time>
      </trkpt>
      <trkpt lat="44.71275" lon="6.86134">
        <ele>2093.7</ele>
        <time>2021-12-19T09:51:12Z</time>
      </trkpt>
      <trkpt lat="44.71279" lon="6.86133">
        <ele>2093.2</ele>
        <time>2021-12-19T09:51:15Z</time>
      </trkpt>
      <trkpt lat="44.7128" lon="6.86134">
        <ele>2093.2</ele>
        <time>2021-12-19T09:51:16Z</time>
      </trkpt>
      <trkpt lat="44.71284" lon="6.86134">
        <ele>2093.2</ele>
        <time>2021-12-19T09:51:17Z</time>
      </trkpt>
      <trkpt lat="44.71291" lon="6.86134">
        <ele>2092.9</ele>
        <time>2021-12-19T09:51:19Z</time>
      </trkpt>
      <trkpt lat="44.71295" lon="6.8613">
        <ele>2092.2</ele>
        <time>2021-12-19T09:51:21Z</time>
      </trkpt>
      <trkpt lat="44.71298" lon="6.86127">
        <ele>2092</ele>
        <time>2021-12-19T09:51:22Z</time>
      </trkpt>
      <trkpt lat="44.713" lon="6.86126">
        <ele>2091.7</ele>
        <time>2021-12-19T09:51:23Z</time>
      </trkpt>
      <trkpt lat="44.71306" lon="6.86123">
        <ele>2091.4</ele>
        <time>2021-12-19T09:51:25Z</time>
      </trkpt>
      <trkpt lat="44.71313" lon="6.8612">
        <ele>2090.2</ele>
        <time>2021-12-19T09:51:27Z</time>
      </trkpt>
      <trkpt lat="44.7132" lon="6.86114">
        <ele>2089.5</ele>
        <time>2021-12-19T09:51:29Z</time>
      </trkpt>
      <trkpt lat="44.71327" lon="6.86109">
        <ele>2089.3</ele>
        <time>2021-12-19T09:51:31Z</time>
      </trkpt>
      <trkpt lat="44.71333" lon="6.86107">
        <ele>2088</ele>
        <time>2021-12-19T09:51:33Z</time>
      </trkpt>
      <trkpt lat="44.7134" lon="6.86106">
        <ele>2087</ele>
        <time>2021-12-19T09:51:35Z</time>
      </trkpt>
      <trkpt lat="44.71346" lon="6.86105">
        <ele>2085.5</ele>
        <time>2021-12-19T09:51:37Z</time>
      </trkpt>
      <trkpt lat="44.71352" lon="6.86106">
        <ele>2083.6</ele>
        <time>2021-12-19T09:51:39Z</time>
      </trkpt>
      <trkpt lat="44.71358" lon="6.8611">
        <ele>2079.8</ele>
        <time>2021-12-19T09:51:41Z</time>
      </trkpt>
      <trkpt lat="44.71364" lon="6.86113">
        <ele>2070.2</ele>
        <time>2021-12-19T09:51:51Z</time>
      </trkpt>
      <trkpt lat="44.71365" lon="6.86112">
        <ele>2069.8</ele>
        <time>2021-12-19T09:51:52Z</time>
      </trkpt>
      <trkpt lat="44.71366" lon="6.86112">
        <ele>2069.4</ele>
        <time>2021-12-19T09:51:59Z</time>
      </trkpt>
      <trkpt lat="44.71367" lon="6.86113">
        <ele>2069.5</ele>
        <time>2021-12-19T09:52:00Z</time>
      </trkpt>
      <trkpt lat="44.71367" lon="6.86113">
        <ele>2069.4</ele>
        <time>2021-12-19T09:52:01Z</time>
      </trkpt>
      <trkpt lat="44.71367" lon="6.86113">
        <ele>2069.4</ele>
        <time>2021-12-19T09:52:02Z</time>
      </trkpt>
      <trkpt lat="44.71372" lon="6.86114">
        <ele>2069.6</ele>
        <time>2021-12-19T09:52:09Z</time>
      </trkpt>
      <trkpt lat="44.71373" lon="6.86115">
        <ele>2069.7</ele>
        <time>2021-12-19T09:52:10Z</time>
      </trkpt>
      <trkpt lat="44.71374" lon="6.86116">
        <ele>2069.7</ele>
        <time>2021-12-19T09:52:11Z</time>
      </trkpt>
      <trkpt lat="44.71378" lon="6.86119">
        <ele>2069.8</ele>
        <time>2021-12-19T09:52:14Z</time>
      </trkpt>
      <trkpt lat="44.71384" lon="6.86117">
        <ele>2069.6</ele>
        <time>2021-12-19T09:52:17Z</time>
      </trkpt>
      <trkpt lat="44.71386" lon="6.86116">
        <ele>2069.6</ele>
        <time>2021-12-19T09:52:18Z</time>
      </trkpt>
      <trkpt lat="44.7139" lon="6.86115">
        <ele>2069.5</ele>
        <time>2021-12-19T09:52:20Z</time>
      </trkpt>
      <trkpt lat="44.71397" lon="6.86112">
        <ele>2069</ele>
        <time>2021-12-19T09:52:22Z</time>
      </trkpt>
      <trkpt lat="44.71404" lon="6.86115">
        <ele>2068.4</ele>
        <time>2021-12-19T09:52:24Z</time>
      </trkpt>
      <trkpt lat="44.71409" lon="6.86119">
        <ele>2067.7</ele>
        <time>2021-12-19T09:52:26Z</time>
      </trkpt>
      <trkpt lat="44.71413" lon="6.86123">
        <ele>2066.2</ele>
        <time>2021-12-19T09:52:28Z</time>
      </trkpt>
      <trkpt lat="44.71418" lon="6.86123">
        <ele>2064.2</ele>
        <time>2021-12-19T09:52:31Z</time>
      </trkpt>
      <trkpt lat="44.71421" lon="6.86117">
        <ele>2061</ele>
        <time>2021-12-19T09:52:35Z</time>
      </trkpt>
      <trkpt lat="44.71424" lon="6.86112">
        <ele>2059.1</ele>
        <time>2021-12-19T09:52:37Z</time>
      </trkpt>
      <trkpt lat="44.71429" lon="6.86109">
        <ele>2057.6</ele>
        <time>2021-12-19T09:52:39Z</time>
      </trkpt>
      <trkpt lat="44.71436" lon="6.86108">
        <ele>2056.3</ele>
        <time>2021-12-19T09:52:41Z</time>
      </trkpt>
      <trkpt lat="44.7144" lon="6.8611">
        <ele>2055.6</ele>
        <time>2021-12-19T09:52:42Z</time>
      </trkpt>
      <trkpt lat="44.71445" lon="6.8611">
        <ele>2054.7</ele>
        <time>2021-12-19T09:52:43Z</time>
      </trkpt>
      <trkpt lat="44.7145" lon="6.86112">
        <ele>2053.6</ele>
        <time>2021-12-19T09:52:44Z</time>
      </trkpt>
      <trkpt lat="44.71453" lon="6.86103">
        <ele>2051.2</ele>
        <time>2021-12-19T09:52:47Z</time>
      </trkpt>
      <trkpt lat="44.71455" lon="6.86096">
        <ele>2049.7</ele>
        <time>2021-12-19T09:52:49Z</time>
      </trkpt>
      <trkpt lat="44.71457" lon="6.86087">
        <ele>2049</ele>
        <time>2021-12-19T09:52:51Z</time>
      </trkpt>
      <trkpt lat="44.7146" lon="6.86082">
        <ele>2048.1</ele>
        <time>2021-12-19T09:52:53Z</time>
      </trkpt>
      <trkpt lat="44.71466" lon="6.86083">
        <ele>2045.6</ele>
        <time>2021-12-19T09:52:57Z</time>
      </trkpt>
      <trkpt lat="44.71472" lon="6.86085">
        <ele>2045.2</ele>
        <time>2021-12-19T09:52:58Z</time>
      </trkpt>
      <trkpt lat="44.71478" lon="6.86086">
        <ele>2044.6</ele>
        <time>2021-12-19T09:52:59Z</time>
      </trkpt>
      <trkpt lat="44.71484" lon="6.8609">
        <ele>2043</ele>
        <time>2021-12-19T09:53:01Z</time>
      </trkpt>
      <trkpt lat="44.71488" lon="6.86091">
        <ele>2041.4</ele>
        <time>2021-12-19T09:53:03Z</time>
      </trkpt>
      <trkpt lat="44.71494" lon="6.8609">
        <ele>2039.6</ele>
        <time>2021-12-19T09:53:05Z</time>
      </trkpt>
      <trkpt lat="44.71499" lon="6.86083">
        <ele>2036.6</ele>
        <time>2021-12-19T09:53:09Z</time>
      </trkpt>
      <trkpt lat="44.71506" lon="6.86089">
        <ele>2033.3</ele>
        <time>2021-12-19T09:53:12Z</time>
      </trkpt>
      <trkpt lat="44.71511" lon="6.86093">
        <ele>2031.8</ele>
        <time>2021-12-19T09:53:14Z</time>
      </trkpt>
      <trkpt lat="44.71517" lon="6.86095">
        <ele>2029.6</ele>
        <time>2021-12-19T09:53:16Z</time>
      </trkpt>
      <trkpt lat="44.71522" lon="6.86093">
        <ele>2028</ele>
        <time>2021-12-19T09:53:18Z</time>
      </trkpt>
      <trkpt lat="44.71525" lon="6.86087">
        <ele>2025.4</ele>
        <time>2021-12-19T09:53:21Z</time>
      </trkpt>
      <trkpt lat="44.71528" lon="6.86081">
        <ele>2023.8</ele>
        <time>2021-12-19T09:53:23Z</time>
      </trkpt>
      <trkpt lat="44.71532" lon="6.86079">
        <ele>2022.2</ele>
        <time>2021-12-19T09:53:25Z</time>
      </trkpt>
      <trkpt lat="44.71538" lon="6.8608">
        <ele>2020.1</ele>
        <time>2021-12-19T09:53:27Z</time>
      </trkpt>
      <trkpt lat="44.71545" lon="6.86077">
        <ele>2018.1</ele>
        <time>2021-12-19T09:53:29Z</time>
      </trkpt>
      <trkpt lat="44.71548" lon="6.86072">
        <ele>2016.4</ele>
        <time>2021-12-19T09:53:31Z</time>
      </trkpt>
      <trkpt lat="44.71553" lon="6.8607">
        <ele>2014.1</ele>
        <time>2021-12-19T09:53:33Z</time>
      </trkpt>
      <trkpt lat="44.71558" lon="6.86068">
        <ele>2013.7</ele>
        <time>2021-12-19T09:53:34Z</time>
      </trkpt>
      <trkpt lat="44.71565" lon="6.8607">
        <ele>2011.3</ele>
        <time>2021-12-19T09:53:36Z</time>
      </trkpt>
      <trkpt lat="44.71571" lon="6.86069">
        <ele>2009.1</ele>
        <time>2021-12-19T09:53:39Z</time>
      </trkpt>
      <trkpt lat="44.71577" lon="6.86063">
        <ele>2005.9</ele>
        <time>2021-12-19T09:53:43Z</time>
      </trkpt>
      <trkpt lat="44.7158" lon="6.86059">
        <ele>2006.2</ele>
        <time>2021-12-19T09:53:45Z</time>
      </trkpt>
      <trkpt lat="44.71581" lon="6.86057">
        <ele>2006</ele>
        <time>2021-12-19T09:53:46Z</time>
      </trkpt>
      <trkpt lat="44.71583" lon="6.86049">
        <ele>2007.1</ele>
        <time>2021-12-19T09:53:50Z</time>
      </trkpt>
      <trkpt lat="44.71586" lon="6.86048">
        <ele>2007.4</ele>
        <time>2021-12-19T09:53:52Z</time>
      </trkpt>
      <trkpt lat="44.71595" lon="6.86049">
        <ele>2007.1</ele>
        <time>2021-12-19T09:53:53Z</time>
      </trkpt>
      <trkpt lat="44.71601" lon="6.86049">
        <ele>2006.7</ele>
        <time>2021-12-19T09:53:54Z</time>
      </trkpt>
      <trkpt lat="44.71608" lon="6.86047">
        <ele>2007.3</ele>
        <time>2021-12-19T09:53:55Z</time>
      </trkpt>
      <trkpt lat="44.71615" lon="6.86046">
        <ele>2005.9</ele>
        <time>2021-12-19T09:53:57Z</time>
      </trkpt>
      <trkpt lat="44.71621" lon="6.86048">
        <ele>2003.3</ele>
        <time>2021-12-19T09:53:59Z</time>
      </trkpt>
      <trkpt lat="44.71616" lon="6.86043">
        <ele>1996.8</ele>
        <time>2021-12-19T09:54:07Z</time>
      </trkpt>
      <trkpt lat="44.71612" lon="6.86038">
        <ele>1996.7</ele>
        <time>2021-12-19T09:54:08Z</time>
      </trkpt>
      <trkpt lat="44.71605" lon="6.86032">
        <ele>1996.7</ele>
        <time>2021-12-19T09:54:10Z</time>
      </trkpt>
      <trkpt lat="44.716" lon="6.86026">
        <ele>1998.5</ele>
        <time>2021-12-19T09:54:12Z</time>
      </trkpt>
      <trkpt lat="44.71602" lon="6.86028">
        <ele>1997.8</ele>
        <time>2021-12-19T09:54:15Z</time>
      </trkpt>
      <trkpt lat="44.71601" lon="6.86027">
        <ele>1997.8</ele>
        <time>2021-12-19T09:54:16Z</time>
      </trkpt>
      <trkpt lat="44.71601" lon="6.86027">
        <ele>1998</ele>
        <time>2021-12-19T09:54:28Z</time>
      </trkpt>
      <trkpt lat="44.71601" lon="6.86024">
        <ele>1998.2</ele>
        <time>2021-12-19T09:54:29Z</time>
      </trkpt>
      <trkpt lat="44.71602" lon="6.86023">
        <ele>1998.2</ele>
        <time>2021-12-19T09:54:30Z</time>
      </trkpt>
      <trkpt lat="44.71604" lon="6.86017">
        <ele>1998</ele>
        <time>2021-12-19T09:54:35Z</time>
      </trkpt>
      <trkpt lat="44.71605" lon="6.86014">
        <ele>1997.7</ele>
        <time>2021-12-19T09:54:39Z</time>
      </trkpt>
      <trkpt lat="44.71605" lon="6.86013">
        <ele>1997.6</ele>
        <time>2021-12-19T09:54:40Z</time>
      </trkpt>
      <trkpt lat="44.71605" lon="6.86012">
        <ele>1997.6</ele>
        <time>2021-12-19T09:54:41Z</time>
      </trkpt>
      <trkpt lat="44.71606" lon="6.86005">
        <ele>1997.7</ele>
        <time>2021-12-19T09:54:46Z</time>
      </trkpt>
      <trkpt lat="44.71605" lon="6.85998">
        <ele>1997.8</ele>
        <time>2021-12-19T09:54:48Z</time>
      </trkpt>
      <trkpt lat="44.71605" lon="6.85995">
        <ele>1997.8</ele>
        <time>2021-12-19T09:54:49Z</time>
      </trkpt>
      <trkpt lat="44.71603" lon="6.85991">
        <ele>1997.9</ele>
        <time>2021-12-19T09:54:50Z</time>
      </trkpt>
      <trkpt lat="44.71601" lon="6.85985">
        <ele>1997.9</ele>
        <time>2021-12-19T09:54:51Z</time>
      </trkpt>
      <trkpt lat="44.71599" lon="6.85981">
        <ele>1997.9</ele>
        <time>2021-12-19T09:54:52Z</time>
      </trkpt>
      <trkpt lat="44.71597" lon="6.85975">
        <ele>1998.1</ele>
        <time>2021-12-19T09:54:53Z</time>
      </trkpt>
      <trkpt lat="44.71594" lon="6.85967">
        <ele>1998.2</ele>
        <time>2021-12-19T09:54:55Z</time>
      </trkpt>
      <trkpt lat="44.71594" lon="6.85965">
        <ele>1998.1</ele>
        <time>2021-12-19T09:54:56Z</time>
      </trkpt>
      <trkpt lat="44.716" lon="6.85958">
        <ele>1998</ele>
        <time>2021-12-19T09:55:00Z</time>
      </trkpt>
      <trkpt lat="44.71605" lon="6.85954">
        <ele>1997.7</ele>
        <time>2021-12-19T09:55:02Z</time>
      </trkpt>
      <trkpt lat="44.71609" lon="6.8595">
        <ele>1997.4</ele>
        <time>2021-12-19T09:55:04Z</time>
      </trkpt>
      <trkpt lat="44.71611" lon="6.85943">
        <ele>1996.8</ele>
        <time>2021-12-19T09:55:07Z</time>
      </trkpt>
      <trkpt lat="44.71609" lon="6.85933">
        <ele>1996.7</ele>
        <time>2021-12-19T09:55:09Z</time>
      </trkpt>
      <trkpt lat="44.7161" lon="6.85925">
        <ele>1996.2</ele>
        <time>2021-12-19T09:55:11Z</time>
      </trkpt>
      <trkpt lat="44.71613" lon="6.8592">
        <ele>1996.1</ele>
        <time>2021-12-19T09:55:12Z</time>
      </trkpt>
      <trkpt lat="44.71612" lon="6.85911">
        <ele>1995.5</ele>
        <time>2021-12-19T09:55:14Z</time>
      </trkpt>
      <trkpt lat="44.71609" lon="6.85899">
        <ele>1995</ele>
        <time>2021-12-19T09:55:16Z</time>
      </trkpt>
      <trkpt lat="44.71609" lon="6.8589">
        <ele>1994.6</ele>
        <time>2021-12-19T09:55:17Z</time>
      </trkpt>
      <trkpt lat="44.71605" lon="6.85885">
        <ele>1994.4</ele>
        <time>2021-12-19T09:55:19Z</time>
      </trkpt>
      <trkpt lat="44.71601" lon="6.8588">
        <ele>1994.2</ele>
        <time>2021-12-19T09:55:22Z</time>
      </trkpt>
      <trkpt lat="44.71601" lon="6.8588">
        <ele>1994.2</ele>
        <time>2021-12-19T09:55:26Z</time>
      </trkpt>
      <trkpt lat="44.71601" lon="6.8588">
        <ele>1994.3</ele>
        <time>2021-12-19T09:55:27Z</time>
      </trkpt>
      <trkpt lat="44.71602" lon="6.85879">
        <ele>1994.3</ele>
        <time>2021-12-19T09:55:44Z</time>
      </trkpt>
      <trkpt lat="44.71603" lon="6.85876">
        <ele>1993.5</ele>
        <time>2021-12-19T09:55:45Z</time>
      </trkpt>
      <trkpt lat="44.71604" lon="6.85875">
        <ele>1993.4</ele>
        <time>2021-12-19T09:55:46Z</time>
      </trkpt>
      <trkpt lat="44.716" lon="6.85871">
        <ele>1993.2</ele>
        <time>2021-12-19T09:55:55Z</time>
      </trkpt>
      <trkpt lat="44.71597" lon="6.85871">
        <ele>1993.3</ele>
        <time>2021-12-19T09:56:02Z</time>
      </trkpt>
      <trkpt lat="44.71597" lon="6.85871">
        <ele>1993.2</ele>
        <time>2021-12-19T09:56:03Z</time>
      </trkpt>
      <trkpt lat="44.71598" lon="6.85871">
        <ele>1992.9</ele>
        <time>2021-12-19T09:56:04Z</time>
      </trkpt>
      <trkpt lat="44.71598" lon="6.85871">
        <ele>1992.8</ele>
        <time>2021-12-19T09:56:07Z</time>
      </trkpt>
      <trkpt lat="44.716" lon="6.8587">
        <ele>1992.7</ele>
        <time>2021-12-19T09:56:08Z</time>
      </trkpt>
      <trkpt lat="44.716" lon="6.8587">
        <ele>1992.8</ele>
        <time>2021-12-19T09:56:10Z</time>
      </trkpt>
      <trkpt lat="44.716" lon="6.8587">
        <ele>1992.9</ele>
        <time>2021-12-19T09:56:11Z</time>
      </trkpt>
      <trkpt lat="44.716" lon="6.85869">
        <ele>1993.2</ele>
        <time>2021-12-19T09:56:21Z</time>
      </trkpt>
      <trkpt lat="44.716" lon="6.85869">
        <ele>1993.2</ele>
        <time>2021-12-19T09:56:22Z</time>
      </trkpt>
      <trkpt lat="44.71596" lon="6.85873">
        <ele>1992.3</ele>
        <time>2021-12-19T09:56:25Z</time>
      </trkpt>
      <trkpt lat="44.71595" lon="6.85866">
        <ele>1990.1</ele>
        <time>2021-12-19T09:56:38Z</time>
      </trkpt>
      <trkpt lat="44.71596" lon="6.85864">
        <ele>1990.3</ele>
        <time>2021-12-19T09:56:40Z</time>
      </trkpt>
      <trkpt lat="44.71597" lon="6.85861">
        <ele>1990.5</ele>
        <time>2021-12-19T09:56:41Z</time>
      </trkpt>
      <trkpt lat="44.71598" lon="6.8586">
        <ele>1990.5</ele>
        <time>2021-12-19T09:56:42Z</time>
      </trkpt>
      <trkpt lat="44.71599" lon="6.85859">
        <ele>1990.6</ele>
        <time>2021-12-19T09:56:43Z</time>
      </trkpt>
      <trkpt lat="44.71605" lon="6.85853">
        <ele>1990.4</ele>
        <time>2021-12-19T09:56:46Z</time>
      </trkpt>
      <trkpt lat="44.71609" lon="6.85849">
        <ele>1990.5</ele>
        <time>2021-12-19T09:56:47Z</time>
      </trkpt>
      <trkpt lat="44.71613" lon="6.85845">
        <ele>1990.6</ele>
        <time>2021-12-19T09:56:48Z</time>
      </trkpt>
      <trkpt lat="44.7162" lon="6.85841">
        <ele>1990.9</ele>
        <time>2021-12-19T09:56:50Z</time>
      </trkpt>
      <trkpt lat="44.71626" lon="6.85839">
        <ele>1991.1</ele>
        <time>2021-12-19T09:56:52Z</time>
      </trkpt>
      <trkpt lat="44.71633" lon="6.85837">
        <ele>1991</ele>
        <time>2021-12-19T09:56:54Z</time>
      </trkpt>
      <trkpt lat="44.71637" lon="6.85836">
        <ele>1991.1</ele>
        <time>2021-12-19T09:56:56Z</time>
      </trkpt>
      <trkpt lat="44.71642" lon="6.85834">
        <ele>1991.7</ele>
        <time>2021-12-19T09:56:58Z</time>
      </trkpt>
      <trkpt lat="44.71647" lon="6.85834">
        <ele>1992.2</ele>
        <time>2021-12-19T09:57:00Z</time>
      </trkpt>
      <trkpt lat="44.71653" lon="6.85833">
        <ele>1992.1</ele>
        <time>2021-12-19T09:57:02Z</time>
      </trkpt>
      <trkpt lat="44.71659" lon="6.85832">
        <ele>1991.5</ele>
        <time>2021-12-19T09:57:04Z</time>
      </trkpt>
      <trkpt lat="44.71664" lon="6.85837">
        <ele>1984.8</ele>
        <time>2021-12-19T09:57:10Z</time>
      </trkpt>
      <trkpt lat="44.71671" lon="6.85839">
        <ele>1982.3</ele>
        <time>2021-12-19T09:57:14Z</time>
      </trkpt>
      <trkpt lat="44.71674" lon="6.85842">
        <ele>1980</ele>
        <time>2021-12-19T09:57:18Z</time>
      </trkpt>
      <trkpt lat="44.71678" lon="6.85846">
        <ele>1979.2</ele>
        <time>2021-12-19T09:57:19Z</time>
      </trkpt>
      <trkpt lat="44.71682" lon="6.85853">
        <ele>1977.8</ele>
        <time>2021-12-19T09:57:21Z</time>
      </trkpt>
      <trkpt lat="44.71682" lon="6.8586">
        <ele>1975.1</ele>
        <time>2021-12-19T09:57:23Z</time>
      </trkpt>
      <trkpt lat="44.7168" lon="6.85865">
        <ele>1972.6</ele>
        <time>2021-12-19T09:57:25Z</time>
      </trkpt>
      <trkpt lat="44.7168" lon="6.85867">
        <ele>1971.9</ele>
        <time>2021-12-19T09:57:26Z</time>
      </trkpt>
      <trkpt lat="44.71685" lon="6.85869">
        <ele>1971.1</ele>
        <time>2021-12-19T09:57:29Z</time>
      </trkpt>
      <trkpt lat="44.71689" lon="6.85866">
        <ele>1970.3</ele>
        <time>2021-12-19T09:57:31Z</time>
      </trkpt>
      <trkpt lat="44.71695" lon="6.85866">
        <ele>1970</ele>
        <time>2021-12-19T09:57:33Z</time>
      </trkpt>
      <trkpt lat="44.717" lon="6.85861">
        <ele>1970</ele>
        <time>2021-12-19T09:57:35Z</time>
      </trkpt>
      <trkpt lat="44.71703" lon="6.8586">
        <ele>1969.7</ele>
        <time>2021-12-19T09:57:36Z</time>
      </trkpt>
      <trkpt lat="44.71706" lon="6.85858">
        <ele>1969.6</ele>
        <time>2021-12-19T09:57:37Z</time>
      </trkpt>
      <trkpt lat="44.71712" lon="6.8586">
        <ele>1969.6</ele>
        <time>2021-12-19T09:57:39Z</time>
      </trkpt>
      <trkpt lat="44.71719" lon="6.85863">
        <ele>1969.1</ele>
        <time>2021-12-19T09:57:41Z</time>
      </trkpt>
      <trkpt lat="44.71724" lon="6.85861">
        <ele>1968.4</ele>
        <time>2021-12-19T09:57:43Z</time>
      </trkpt>
      <trkpt lat="44.71732" lon="6.85858">
        <ele>1967.6</ele>
        <time>2021-12-19T09:57:45Z</time>
      </trkpt>
      <trkpt lat="44.7174" lon="6.85857">
        <ele>1967</ele>
        <time>2021-12-19T09:57:47Z</time>
      </trkpt>
      <trkpt lat="44.71749" lon="6.85862">
        <ele>1966.2</ele>
        <time>2021-12-19T09:57:49Z</time>
      </trkpt>
      <trkpt lat="44.71753" lon="6.8586">
        <ele>1965.8</ele>
        <time>2021-12-19T09:57:50Z</time>
      </trkpt>
      <trkpt lat="44.71758" lon="6.85857">
        <ele>1965.9</ele>
        <time>2021-12-19T09:57:51Z</time>
      </trkpt>
      <trkpt lat="44.71766" lon="6.85854">
        <ele>1964.9</ele>
        <time>2021-12-19T09:57:53Z</time>
      </trkpt>
      <trkpt lat="44.71772" lon="6.85853">
        <ele>1963.2</ele>
        <time>2021-12-19T09:57:55Z</time>
      </trkpt>
      <trkpt lat="44.71779" lon="6.8585">
        <ele>1962.1</ele>
        <time>2021-12-19T09:57:57Z</time>
      </trkpt>
      <trkpt lat="44.71784" lon="6.85851">
        <ele>1961.2</ele>
        <time>2021-12-19T09:57:59Z</time>
      </trkpt>
      <trkpt lat="44.71791" lon="6.85852">
        <ele>1959.5</ele>
        <time>2021-12-19T09:58:01Z</time>
      </trkpt>
      <trkpt lat="44.71796" lon="6.85852">
        <ele>1958.1</ele>
        <time>2021-12-19T09:58:03Z</time>
      </trkpt>
      <trkpt lat="44.71804" lon="6.85855">
        <ele>1957</ele>
        <time>2021-12-19T09:58:05Z</time>
      </trkpt>
      <trkpt lat="44.7181" lon="6.85857">
        <ele>1957.3</ele>
        <time>2021-12-19T09:58:06Z</time>
      </trkpt>
      <trkpt lat="44.71816" lon="6.85859">
        <ele>1957.5</ele>
        <time>2021-12-19T09:58:07Z</time>
      </trkpt>
      <trkpt lat="44.71824" lon="6.85857">
        <ele>1958.3</ele>
        <time>2021-12-19T09:58:09Z</time>
      </trkpt>
      <trkpt lat="44.71827" lon="6.85856">
        <ele>1958.3</ele>
        <time>2021-12-19T09:58:10Z</time>
      </trkpt>
      <trkpt lat="44.71831" lon="6.85855">
        <ele>1958.5</ele>
        <time>2021-12-19T09:58:11Z</time>
      </trkpt>
      <trkpt lat="44.71837" lon="6.85854">
        <ele>1959.4</ele>
        <time>2021-12-19T09:58:12Z</time>
      </trkpt>
      <trkpt lat="44.71845" lon="6.8585">
        <ele>1960.5</ele>
        <time>2021-12-19T09:58:14Z</time>
      </trkpt>
      <trkpt lat="44.71849" lon="6.85847">
        <ele>1961</ele>
        <time>2021-12-19T09:58:16Z</time>
      </trkpt>
      <trkpt lat="44.7186" lon="6.8584">
        <ele>1962.2</ele>
        <time>2021-12-19T09:58:22Z</time>
      </trkpt>
      <trkpt lat="44.71862" lon="6.85834">
        <ele>1963.2</ele>
        <time>2021-12-19T09:58:25Z</time>
      </trkpt>
      <trkpt lat="44.71858" lon="6.85827">
        <ele>1962.8</ele>
        <time>2021-12-19T09:58:31Z</time>
      </trkpt>
      <trkpt lat="44.71857" lon="6.85824">
        <ele>1963.1</ele>
        <time>2021-12-19T09:58:32Z</time>
      </trkpt>
      <trkpt lat="44.71855" lon="6.85826">
        <ele>1962.5</ele>
        <time>2021-12-19T09:58:33Z</time>
      </trkpt>
      <trkpt lat="44.7185" lon="6.85824">
        <ele>1961.4</ele>
        <time>2021-12-19T09:58:34Z</time>
      </trkpt>
      <trkpt lat="44.71847" lon="6.85822">
        <ele>1961.2</ele>
        <time>2021-12-19T09:58:35Z</time>
      </trkpt>
      <trkpt lat="44.71844" lon="6.85816">
        <ele>1960.7</ele>
        <time>2021-12-19T09:58:37Z</time>
      </trkpt>
      <trkpt lat="44.71845" lon="6.8581">
        <ele>1960.3</ele>
        <time>2021-12-19T09:58:39Z</time>
      </trkpt>
      <trkpt lat="44.7185" lon="6.85805">
        <ele>1959.7</ele>
        <time>2021-12-19T09:58:42Z</time>
      </trkpt>
      <trkpt lat="44.71849" lon="6.85799">
        <ele>1957.6</ele>
        <time>2021-12-19T09:58:49Z</time>
      </trkpt>
      <trkpt lat="44.71849" lon="6.85806">
        <ele>1955.7</ele>
        <time>2021-12-19T09:58:52Z</time>
      </trkpt>
      <trkpt lat="44.71851" lon="6.85813">
        <ele>1954</ele>
        <time>2021-12-19T09:58:54Z</time>
      </trkpt>
      <trkpt lat="44.71854" lon="6.85819">
        <ele>1950.1</ele>
        <time>2021-12-19T09:58:57Z</time>
      </trkpt>
      <trkpt lat="44.71859" lon="6.8582">
        <ele>1947.6</ele>
        <time>2021-12-19T09:58:59Z</time>
      </trkpt>
      <trkpt lat="44.71866" lon="6.85822">
        <ele>1946</ele>
        <time>2021-12-19T09:59:01Z</time>
      </trkpt>
      <trkpt lat="44.71871" lon="6.85825">
        <ele>1945.3</ele>
        <time>2021-12-19T09:59:03Z</time>
      </trkpt>
      <trkpt lat="44.71877" lon="6.85828">
        <ele>1944.3</ele>
        <time>2021-12-19T09:59:05Z</time>
      </trkpt>
      <trkpt lat="44.71884" lon="6.85828">
        <ele>1942.3</ele>
        <time>2021-12-19T09:59:07Z</time>
      </trkpt>
      <trkpt lat="44.7189" lon="6.85831">
        <ele>1941</ele>
        <time>2021-12-19T09:59:09Z</time>
      </trkpt>
      <trkpt lat="44.71895" lon="6.85832">
        <ele>1939.3</ele>
        <time>2021-12-19T09:59:12Z</time>
      </trkpt>
      <trkpt lat="44.71901" lon="6.85831">
        <ele>1937.2</ele>
        <time>2021-12-19T09:59:15Z</time>
      </trkpt>
      <trkpt lat="44.71906" lon="6.85829">
        <ele>1936.4</ele>
        <time>2021-12-19T09:59:18Z</time>
      </trkpt>
      <trkpt lat="44.71912" lon="6.85827">
        <ele>1935.9</ele>
        <time>2021-12-19T09:59:20Z</time>
      </trkpt>
      <trkpt lat="44.71917" lon="6.85825">
        <ele>1932.6</ele>
        <time>2021-12-19T09:59:24Z</time>
      </trkpt>
      <trkpt lat="44.71918" lon="6.85826">
        <ele>1931.3</ele>
        <time>2021-12-19T09:59:25Z</time>
      </trkpt>
      <trkpt lat="44.71917" lon="6.85828">
        <ele>1929.1</ele>
        <time>2021-12-19T09:59:26Z</time>
      </trkpt>
      <trkpt lat="44.71918" lon="6.85828">
        <ele>1927.8</ele>
        <time>2021-12-19T09:59:27Z</time>
      </trkpt>
      <trkpt lat="44.71919" lon="6.85829">
        <ele>1925</ele>
        <time>2021-12-19T09:59:29Z</time>
      </trkpt>
      <trkpt lat="44.71921" lon="6.85832">
        <ele>1922.8</ele>
        <time>2021-12-19T09:59:30Z</time>
      </trkpt>
      <trkpt lat="44.71922" lon="6.85833">
        <ele>1921.1</ele>
        <time>2021-12-19T09:59:31Z</time>
      </trkpt>
      <trkpt lat="44.71925" lon="6.85838">
        <ele>1917.3</ele>
        <time>2021-12-19T09:59:34Z</time>
      </trkpt>
      <trkpt lat="44.71928" lon="6.85844">
        <ele>1912.9</ele>
        <time>2021-12-19T09:59:38Z</time>
      </trkpt>
      <trkpt lat="44.71931" lon="6.85849">
        <ele>1911.5</ele>
        <time>2021-12-19T09:59:41Z</time>
      </trkpt>
      <trkpt lat="44.71933" lon="6.85852">
        <ele>1912.2</ele>
        <time>2021-12-19T09:59:46Z</time>
      </trkpt>
      <trkpt lat="44.71934" lon="6.85853">
        <ele>1912.2</ele>
        <time>2021-12-19T09:59:47Z</time>
      </trkpt>
      <trkpt lat="44.71929" lon="6.85851">
        <ele>1911.7</ele>
        <time>2021-12-19T09:59:50Z</time>
      </trkpt>
      <trkpt lat="44.71905" lon="6.85836">
        <ele>1912</ele>
        <time>2021-12-19T09:59:52Z</time>
      </trkpt>
      <trkpt lat="44.71886" lon="6.85829">
        <ele>1912</ele>
        <time>2021-12-19T09:59:53Z</time>
      </trkpt>
      <trkpt lat="44.71854" lon="6.85829">
        <ele>1913</ele>
        <time>2021-12-19T09:59:54Z</time>
      </trkpt>
      <trkpt lat="44.7181" lon="6.85844">
        <ele>1913.2</ele>
        <time>2021-12-19T09:59:55Z</time>
      </trkpt>
      <trkpt lat="44.71788" lon="6.85866">
        <ele>1913.1</ele>
        <time>2021-12-19T09:59:56Z</time>
      </trkpt>
      <trkpt lat="44.71788" lon="6.85859">
        <ele>1911.6</ele>
        <time>2021-12-19T09:59:57Z</time>
      </trkpt>
      <trkpt lat="44.71793" lon="6.85867">
        <ele>1911.3</ele>
        <time>2021-12-19T09:59:58Z</time>
      </trkpt>
      <trkpt lat="44.71799" lon="6.85846">
        <ele>1912.3</ele>
        <time>2021-12-19T09:59:59Z</time>
      </trkpt>
      <trkpt lat="44.71819" lon="6.85824">
        <ele>1912.6</ele>
        <time>2021-12-19T10:00:00Z</time>
      </trkpt>
      <trkpt lat="44.71852" lon="6.85882">
        <ele>1911.8</ele>
        <time>2021-12-19T10:00:01Z</time>
      </trkpt>
      <trkpt lat="44.71875" lon="6.85874">
        <ele>1911.5</ele>
        <time>2021-12-19T10:00:02Z</time>
      </trkpt>
      <trkpt lat="44.71898" lon="6.85872">
        <ele>1911.6</ele>
        <time>2021-12-19T10:00:03Z</time>
      </trkpt>
      <trkpt lat="44.71907" lon="6.85874">
        <ele>1910.9</ele>
        <time>2021-12-19T10:00:04Z</time>
      </trkpt>
      <trkpt lat="44.71919" lon="6.85872">
        <ele>1910.5</ele>
        <time>2021-12-19T10:00:05Z</time>
      </trkpt>
      <trkpt lat="44.71935" lon="6.85872">
        <ele>1909.7</ele>
        <time>2021-12-19T10:00:06Z</time>
      </trkpt>
      <trkpt lat="44.71944" lon="6.85877">
        <ele>1909.3</ele>
        <time>2021-12-19T10:00:07Z</time>
      </trkpt>
      <trkpt lat="44.71954" lon="6.85885">
        <ele>1908.1</ele>
        <time>2021-12-19T10:00:08Z</time>
      </trkpt>
      <trkpt lat="44.71966" lon="6.85891">
        <ele>1908.2</ele>
        <time>2021-12-19T10:00:09Z</time>
      </trkpt>
      <trkpt lat="44.71977" lon="6.85896">
        <ele>1908.1</ele>
        <time>2021-12-19T10:00:10Z</time>
      </trkpt>
      <trkpt lat="44.71989" lon="6.85909">
        <ele>1909.5</ele>
        <time>2021-12-19T10:00:11Z</time>
      </trkpt>
      <trkpt lat="44.72007" lon="6.85925">
        <ele>1910.3</ele>
        <time>2021-12-19T10:00:12Z</time>
      </trkpt>
      <trkpt lat="44.72012" lon="6.85934">
        <ele>1910.5</ele>
        <time>2021-12-19T10:00:13Z</time>
      </trkpt>
      <trkpt lat="44.7202" lon="6.85942">
        <ele>1910.4</ele>
        <time>2021-12-19T10:00:14Z</time>
      </trkpt>
      <trkpt lat="44.72031" lon="6.85952">
        <ele>1911.6</ele>
        <time>2021-12-19T10:00:15Z</time>
      </trkpt>
      <trkpt lat="44.72038" lon="6.85959">
        <ele>1912.5</ele>
        <time>2021-12-19T10:00:16Z</time>
      </trkpt>
      <trkpt lat="44.72043" lon="6.85965">
        <ele>1913.2</ele>
        <time>2021-12-19T10:00:17Z</time>
      </trkpt>
      <trkpt lat="44.72049" lon="6.8597">
        <ele>1914.4</ele>
        <time>2021-12-19T10:00:18Z</time>
      </trkpt>
      <trkpt lat="44.72053" lon="6.85973">
        <ele>1915.4</ele>
        <time>2021-12-19T10:00:19Z</time>
      </trkpt>
      <trkpt lat="44.72059" lon="6.85978">
        <ele>1917.6</ele>
        <time>2021-12-19T10:00:20Z</time>
      </trkpt>
      <trkpt lat="44.72064" lon="6.85976">
        <ele>1923.4</ele>
        <time>2021-12-19T10:00:27Z</time>
      </trkpt>
      <trkpt lat="44.72069" lon="6.85978">
        <ele>1926.2</ele>
        <time>2021-12-19T10:00:30Z</time>
      </trkpt>
      <trkpt lat="44.72076" lon="6.85981">
        <ele>1928.7</ele>
        <time>2021-12-19T10:00:31Z</time>
      </trkpt>
      <trkpt lat="44.7208" lon="6.85994">
        <ele>1934.4</ele>
        <time>2021-12-19T10:00:55Z</time>
      </trkpt>
      <trkpt lat="44.72086" lon="6.86008">
        <ele>1935.9</ele>
        <time>2021-12-19T10:01:15Z</time>
      </trkpt>
      <trkpt lat="44.72089" lon="6.86022">
        <ele>1937.4</ele>
        <time>2021-12-19T10:01:34Z</time>
      </trkpt>
      <trkpt lat="44.72092" lon="6.86039">
        <ele>1936.4</ele>
        <time>2021-12-19T10:01:47Z</time>
      </trkpt>
      <trkpt lat="44.72092" lon="6.86059">
        <ele>1937.4</ele>
        <time>2021-12-19T10:02:00Z</time>
      </trkpt>
      <trkpt lat="44.72103" lon="6.86069">
        <ele>1939.8</ele>
        <time>2021-12-19T10:02:08Z</time>
      </trkpt>
      <trkpt lat="44.72114" lon="6.8608">
        <ele>1941.8</ele>
        <time>2021-12-19T10:02:18Z</time>
      </trkpt>
      <trkpt lat="44.72118" lon="6.86085">
        <ele>1942.4</ele>
        <time>2021-12-19T10:02:21Z</time>
      </trkpt>
      <trkpt lat="44.72124" lon="6.86096">
        <ele>1944.7</ele>
        <time>2021-12-19T10:02:33Z</time>
      </trkpt>
      <trkpt lat="44.72131" lon="6.86108">
        <ele>1945.8</ele>
        <time>2021-12-19T10:02:49Z</time>
      </trkpt>
      <trkpt lat="44.72137" lon="6.8612">
        <ele>1946</ele>
        <time>2021-12-19T10:03:02Z</time>
      </trkpt>
      <trkpt lat="44.7214" lon="6.86132">
        <ele>1946.4</ele>
        <time>2021-12-19T10:03:11Z</time>
      </trkpt>
      <trkpt lat="44.72142" lon="6.86139">
        <ele>1946.1</ele>
        <time>2021-12-19T10:03:14Z</time>
      </trkpt>
      <trkpt lat="44.72144" lon="6.86141">
        <ele>1946</ele>
        <time>2021-12-19T10:03:15Z</time>
      </trkpt>
      <trkpt lat="44.72145" lon="6.86144">
        <ele>1946</ele>
        <time>2021-12-19T10:03:16Z</time>
      </trkpt>
      <trkpt lat="44.72145" lon="6.86146">
        <ele>1946.2</ele>
        <time>2021-12-19T10:03:17Z</time>
      </trkpt>
      <trkpt lat="44.72145" lon="6.86148">
        <ele>1946</ele>
        <time>2021-12-19T10:03:18Z</time>
      </trkpt>
      <trkpt lat="44.72146" lon="6.86151">
        <ele>1946.1</ele>
        <time>2021-12-19T10:03:21Z</time>
      </trkpt>
      <trkpt lat="44.72149" lon="6.86156">
        <ele>1945.7</ele>
        <time>2021-12-19T10:03:22Z</time>
      </trkpt>
      <trkpt lat="44.72151" lon="6.86163">
        <ele>1945.4</ele>
        <time>2021-12-19T10:03:25Z</time>
      </trkpt>
      <trkpt lat="44.72153" lon="6.86169">
        <ele>1945.3</ele>
        <time>2021-12-19T10:03:28Z</time>
      </trkpt>
      <trkpt lat="44.72153" lon="6.86171">
        <ele>1945.2</ele>
        <time>2021-12-19T10:03:29Z</time>
      </trkpt>
      <trkpt lat="44.72155" lon="6.86174">
        <ele>1945.5</ele>
        <time>2021-12-19T10:03:30Z</time>
      </trkpt>
      <trkpt lat="44.72155" lon="6.86177">
        <ele>1945.7</ele>
        <time>2021-12-19T10:03:33Z</time>
      </trkpt>
      <trkpt lat="44.72156" lon="6.8618">
        <ele>1945.5</ele>
        <time>2021-12-19T10:03:34Z</time>
      </trkpt>
      <trkpt lat="44.72157" lon="6.86181">
        <ele>1945.5</ele>
        <time>2021-12-19T10:03:35Z</time>
      </trkpt>
      <trkpt lat="44.72157" lon="6.86183">
        <ele>1945.6</ele>
        <time>2021-12-19T10:03:36Z</time>
      </trkpt>
      <trkpt lat="44.72163" lon="6.86196">
        <ele>1945.1</ele>
        <time>2021-12-19T10:03:46Z</time>
      </trkpt>
      <trkpt lat="44.72168" lon="6.86213">
        <ele>1943.5</ele>
        <time>2021-12-19T10:03:57Z</time>
      </trkpt>
      <trkpt lat="44.7217" lon="6.86222">
        <ele>1941</ele>
        <time>2021-12-19T10:04:01Z</time>
      </trkpt>
      <trkpt lat="44.7217" lon="6.86224">
        <ele>1940.1</ele>
        <time>2021-12-19T10:04:02Z</time>
      </trkpt>
      <trkpt lat="44.72171" lon="6.8623">
        <ele>1940</ele>
        <time>2021-12-19T10:04:05Z</time>
      </trkpt>
      <trkpt lat="44.72173" lon="6.86238">
        <ele>1939.6</ele>
        <time>2021-12-19T10:04:08Z</time>
      </trkpt>
      <trkpt lat="44.72174" lon="6.86247">
        <ele>1939.3</ele>
        <time>2021-12-19T10:04:12Z</time>
      </trkpt>
      <trkpt lat="44.72177" lon="6.86253">
        <ele>1939.1</ele>
        <time>2021-12-19T10:04:15Z</time>
      </trkpt>
      <trkpt lat="44.72178" lon="6.86259">
        <ele>1938.3</ele>
        <time>2021-12-19T10:04:18Z</time>
      </trkpt>
      <trkpt lat="44.72178" lon="6.8626">
        <ele>1938.2</ele>
        <time>2021-12-19T10:04:19Z</time>
      </trkpt>
      <trkpt lat="44.7218" lon="6.8627">
        <ele>1936.8</ele>
        <time>2021-12-19T10:04:26Z</time>
      </trkpt>
      <trkpt lat="44.72181" lon="6.86276">
        <ele>1935.6</ele>
        <time>2021-12-19T10:04:28Z</time>
      </trkpt>
      <trkpt lat="44.72181" lon="6.86279">
        <ele>1934.7</ele>
        <time>2021-12-19T10:04:29Z</time>
      </trkpt>
      <trkpt lat="44.72181" lon="6.86287">
        <ele>1932.4</ele>
        <time>2021-12-19T10:04:32Z</time>
      </trkpt>
      <trkpt lat="44.72181" lon="6.8629">
        <ele>1932.1</ele>
        <time>2021-12-19T10:04:33Z</time>
      </trkpt>
      <trkpt lat="44.72181" lon="6.86292">
        <ele>1931.9</ele>
        <time>2021-12-19T10:04:34Z</time>
      </trkpt>
      <trkpt lat="44.72181" lon="6.86296">
        <ele>1931.3</ele>
        <time>2021-12-19T10:04:37Z</time>
      </trkpt>
      <trkpt lat="44.72182" lon="6.863">
        <ele>1930.4</ele>
        <time>2021-12-19T10:04:38Z</time>
      </trkpt>
      <trkpt lat="44.72184" lon="6.86306">
        <ele>1929.9</ele>
        <time>2021-12-19T10:04:40Z</time>
      </trkpt>
      <trkpt lat="44.72187" lon="6.86314">
        <ele>1928.4</ele>
        <time>2021-12-19T10:04:43Z</time>
      </trkpt>
      <trkpt lat="44.72188" lon="6.86322">
        <ele>1927.7</ele>
        <time>2021-12-19T10:04:45Z</time>
      </trkpt>
      <trkpt lat="44.72189" lon="6.86329">
        <ele>1927.2</ele>
        <time>2021-12-19T10:04:48Z</time>
      </trkpt>
      <trkpt lat="44.7219" lon="6.86338">
        <ele>1927.2</ele>
        <time>2021-12-19T10:04:50Z</time>
      </trkpt>
      <trkpt lat="44.72192" lon="6.86346">
        <ele>1927</ele>
        <time>2021-12-19T10:04:52Z</time>
      </trkpt>
      <trkpt lat="44.72192" lon="6.86352">
        <ele>1927</ele>
        <time>2021-12-19T10:04:54Z</time>
      </trkpt>
      <trkpt lat="44.72192" lon="6.86354">
        <ele>1926.8</ele>
        <time>2021-12-19T10:04:55Z</time>
      </trkpt>
      <trkpt lat="44.72198" lon="6.86369">
        <ele>1924.6</ele>
        <time>2021-12-19T10:05:07Z</time>
      </trkpt>
      <trkpt lat="44.72202" lon="6.86377">
        <ele>1923.3</ele>
        <time>2021-12-19T10:05:14Z</time>
      </trkpt>
      <trkpt lat="44.72208" lon="6.86394">
        <ele>1921.9</ele>
        <time>2021-12-19T10:05:24Z</time>
      </trkpt>
      <trkpt lat="44.7221" lon="6.86401">
        <ele>1921.3</ele>
        <time>2021-12-19T10:05:28Z</time>
      </trkpt>
      <trkpt lat="44.72213" lon="6.86409">
        <ele>1920.9</ele>
        <time>2021-12-19T10:05:31Z</time>
      </trkpt>
      <trkpt lat="44.72214" lon="6.86414">
        <ele>1920.5</ele>
        <time>2021-12-19T10:05:33Z</time>
      </trkpt>
      <trkpt lat="44.72215" lon="6.86415">
        <ele>1920.3</ele>
        <time>2021-12-19T10:05:34Z</time>
      </trkpt>
      <trkpt lat="44.72217" lon="6.86423">
        <ele>1919.5</ele>
        <time>2021-12-19T10:05:37Z</time>
      </trkpt>
      <trkpt lat="44.72219" lon="6.8643">
        <ele>1918.9</ele>
        <time>2021-12-19T10:05:40Z</time>
      </trkpt>
      <trkpt lat="44.72219" lon="6.86439">
        <ele>1918.5</ele>
        <time>2021-12-19T10:05:43Z</time>
      </trkpt>
      <trkpt lat="44.7222" lon="6.86448">
        <ele>1917.6</ele>
        <time>2021-12-19T10:05:46Z</time>
      </trkpt>
      <trkpt lat="44.7222" lon="6.86454">
        <ele>1917.3</ele>
        <time>2021-12-19T10:05:48Z</time>
      </trkpt>
      <trkpt lat="44.72219" lon="6.86456">
        <ele>1917.3</ele>
        <time>2021-12-19T10:05:49Z</time>
      </trkpt>
      <trkpt lat="44.72217" lon="6.86471">
        <ele>1915.7</ele>
        <time>2021-12-19T10:05:59Z</time>
      </trkpt>
      <trkpt lat="44.72219" lon="6.8649">
        <ele>1913.1</ele>
        <time>2021-12-19T10:06:11Z</time>
      </trkpt>
      <trkpt lat="44.72222" lon="6.86508">
        <ele>1910.7</ele>
        <time>2021-12-19T10:06:23Z</time>
      </trkpt>
      <trkpt lat="44.72223" lon="6.86524">
        <ele>1909.8</ele>
        <time>2021-12-19T10:06:37Z</time>
      </trkpt>
      <trkpt lat="44.72222" lon="6.86527">
        <ele>1909.9</ele>
        <time>2021-12-19T10:06:46Z</time>
      </trkpt>
      <trkpt lat="44.72221" lon="6.8654">
        <ele>1910.4</ele>
        <time>2021-12-19T10:06:47Z</time>
      </trkpt>
      <trkpt lat="44.7222" lon="6.86541">
        <ele>1910.3</ele>
        <time>2021-12-19T10:06:48Z</time>
      </trkpt>
      <trkpt lat="44.72219" lon="6.86559">
        <ele>1910.6</ele>
        <time>2021-12-19T10:06:58Z</time>
      </trkpt>
      <trkpt lat="44.72223" lon="6.86577">
        <ele>1910.5</ele>
        <time>2021-12-19T10:07:09Z</time>
      </trkpt>
      <trkpt lat="44.72223" lon="6.86596">
        <ele>1911.1</ele>
        <time>2021-12-19T10:07:19Z</time>
      </trkpt>
      <trkpt lat="44.72224" lon="6.86604">
        <ele>1911.6</ele>
        <time>2021-12-19T10:07:22Z</time>
      </trkpt>
      <trkpt lat="44.72222" lon="6.86617">
        <ele>1912.6</ele>
        <time>2021-12-19T10:07:28Z</time>
      </trkpt>
      <trkpt lat="44.72223" lon="6.86624">
        <ele>1912.5</ele>
        <time>2021-12-19T10:07:31Z</time>
      </trkpt>
      <trkpt lat="44.72227" lon="6.86636">
        <ele>1911.5</ele>
        <time>2021-12-19T10:07:38Z</time>
      </trkpt>
      <trkpt lat="44.72229" lon="6.86654">
        <ele>1910.9</ele>
        <time>2021-12-19T10:07:48Z</time>
      </trkpt>
      <trkpt lat="44.72232" lon="6.86671">
        <ele>1909.2</ele>
        <time>2021-12-19T10:08:00Z</time>
      </trkpt>
      <trkpt lat="44.72235" lon="6.86678">
        <ele>1908.9</ele>
        <time>2021-12-19T10:08:03Z</time>
      </trkpt>
      <trkpt lat="44.72234" lon="6.86691">
        <ele>1909.2</ele>
        <time>2021-12-19T10:08:08Z</time>
      </trkpt>
      <trkpt lat="44.7223" lon="6.86709">
        <ele>1909.4</ele>
        <time>2021-12-19T10:08:20Z</time>
      </trkpt>
      <trkpt lat="44.72227" lon="6.86726">
        <ele>1912</ele>
        <time>2021-12-19T10:08:34Z</time>
      </trkpt>
      <trkpt lat="44.72228" lon="6.86743">
        <ele>1913.4</ele>
        <time>2021-12-19T10:08:45Z</time>
      </trkpt>
      <trkpt lat="44.7223" lon="6.86762">
        <ele>1915.1</ele>
        <time>2021-12-19T10:08:54Z</time>
      </trkpt>
      <trkpt lat="44.72229" lon="6.86779">
        <ele>1917.6</ele>
        <time>2021-12-19T10:09:05Z</time>
      </trkpt>
      <trkpt lat="44.72228" lon="6.86797">
        <ele>1919.6</ele>
        <time>2021-12-19T10:09:21Z</time>
      </trkpt>
      <trkpt lat="44.72227" lon="6.86813">
        <ele>1922.3</ele>
        <time>2021-12-19T10:09:32Z</time>
      </trkpt>
      <trkpt lat="44.72231" lon="6.8686">
        <ele>1950.2</ele>
        <time>2021-12-19T10:10:40Z</time>
      </trkpt>
      <trkpt lat="44.7224" lon="6.86851">
        <ele>1970.7</ele>
        <time>2021-12-19T10:10:43Z</time>
      </trkpt>
      <trkpt lat="44.72234" lon="6.86859">
        <ele>1961.3</ele>
        <time>2021-12-19T10:11:04Z</time>
      </trkpt>
      <trkpt lat="44.72232" lon="6.86871">
        <ele>1953.8</ele>
        <time>2021-12-19T10:12:07Z</time>
      </trkpt>
      <trkpt lat="44.72238" lon="6.86888">
        <ele>1953.6</ele>
        <time>2021-12-19T10:12:22Z</time>
      </trkpt>
      <trkpt lat="44.72189" lon="6.86925">
        <ele>1899.3</ele>
        <time>2021-12-19T10:12:46Z</time>
      </trkpt>
      <trkpt lat="44.72198" lon="6.86922">
        <ele>1914</ele>
        <time>2021-12-19T10:12:47Z</time>
      </trkpt>
      <trkpt lat="44.72204" lon="6.8692">
        <ele>1923.6</ele>
        <time>2021-12-19T10:12:49Z</time>
      </trkpt>
      <trkpt lat="44.72215" lon="6.8692">
        <ele>1937.3</ele>
        <time>2021-12-19T10:12:52Z</time>
      </trkpt>
      <trkpt lat="44.7222" lon="6.8692">
        <ele>1943.2</ele>
        <time>2021-12-19T10:12:53Z</time>
      </trkpt>
      <trkpt lat="44.72225" lon="6.86924">
        <ele>1945.8</ele>
        <time>2021-12-19T10:12:54Z</time>
      </trkpt>
      <trkpt lat="44.7223" lon="6.86928">
        <ele>1948.5</ele>
        <time>2021-12-19T10:12:56Z</time>
      </trkpt>
      <trkpt lat="44.72236" lon="6.86932">
        <ele>1951.6</ele>
        <time>2021-12-19T10:12:57Z</time>
      </trkpt>
      <trkpt lat="44.72238" lon="6.86935">
        <ele>1952</ele>
        <time>2021-12-19T10:12:58Z</time>
      </trkpt>
      <trkpt lat="44.72241" lon="6.86938">
        <ele>1952.2</ele>
        <time>2021-12-19T10:12:59Z</time>
      </trkpt>
      <trkpt lat="44.72246" lon="6.86943">
        <ele>1954.1</ele>
        <time>2021-12-19T10:13:00Z</time>
      </trkpt>
      <trkpt lat="44.72249" lon="6.86951">
        <ele>1956.3</ele>
        <time>2021-12-19T10:13:02Z</time>
      </trkpt>
      <trkpt lat="44.7225" lon="6.86959">
        <ele>1953.8</ele>
        <time>2021-12-19T10:13:04Z</time>
      </trkpt>
      <trkpt lat="44.72251" lon="6.86966">
        <ele>1953.2</ele>
        <time>2021-12-19T10:13:06Z</time>
      </trkpt>
      <trkpt lat="44.72254" lon="6.86972">
        <ele>1951.4</ele>
        <time>2021-12-19T10:13:09Z</time>
      </trkpt>
      <trkpt lat="44.72256" lon="6.8698">
        <ele>1949.8</ele>
        <time>2021-12-19T10:13:12Z</time>
      </trkpt>
      <trkpt lat="44.72256" lon="6.86987">
        <ele>1948</ele>
        <time>2021-12-19T10:13:14Z</time>
      </trkpt>
      <trkpt lat="44.72257" lon="6.86996">
        <ele>1946.4</ele>
        <time>2021-12-19T10:13:16Z</time>
      </trkpt>
      <trkpt lat="44.72257" lon="6.87005">
        <ele>1944.6</ele>
        <time>2021-12-19T10:13:18Z</time>
      </trkpt>
      <trkpt lat="44.72262" lon="6.87016">
        <ele>1946.5</ele>
        <time>2021-12-19T10:13:20Z</time>
      </trkpt>
      <trkpt lat="44.72261" lon="6.87022">
        <ele>1944.4</ele>
        <time>2021-12-19T10:13:23Z</time>
      </trkpt>
      <trkpt lat="44.7226" lon="6.87023">
        <ele>1942.6</ele>
        <time>2021-12-19T10:13:24Z</time>
      </trkpt>
      <trkpt lat="44.72257" lon="6.87034">
        <ele>1935.8</ele>
        <time>2021-12-19T10:13:35Z</time>
      </trkpt>
      <trkpt lat="44.72255" lon="6.87036">
        <ele>1934.9</ele>
        <time>2021-12-19T10:13:36Z</time>
      </trkpt>
      <trkpt lat="44.72253" lon="6.87037">
        <ele>1934</ele>
        <time>2021-12-19T10:13:37Z</time>
      </trkpt>
      <trkpt lat="44.72249" lon="6.8704">
        <ele>1932.4</ele>
        <time>2021-12-19T10:13:40Z</time>
      </trkpt>
      <trkpt lat="44.72248" lon="6.87042">
        <ele>1932</ele>
        <time>2021-12-19T10:13:42Z</time>
      </trkpt>
      <trkpt lat="44.72247" lon="6.87048">
        <ele>1930.6</ele>
        <time>2021-12-19T10:13:43Z</time>
      </trkpt>
      <trkpt lat="44.72247" lon="6.87054">
        <ele>1929.2</ele>
        <time>2021-12-19T10:13:45Z</time>
      </trkpt>
      <trkpt lat="44.72246" lon="6.87062">
        <ele>1927.7</ele>
        <time>2021-12-19T10:13:47Z</time>
      </trkpt>
      <trkpt lat="44.72243" lon="6.8707">
        <ele>1925.9</ele>
        <time>2021-12-19T10:13:49Z</time>
      </trkpt>
      <trkpt lat="44.72242" lon="6.87078">
        <ele>1924.7</ele>
        <time>2021-12-19T10:13:51Z</time>
      </trkpt>
      <trkpt lat="44.72242" lon="6.87083">
        <ele>1923.1</ele>
        <time>2021-12-19T10:13:53Z</time>
      </trkpt>
      <trkpt lat="44.72242" lon="6.87085">
        <ele>1922.2</ele>
        <time>2021-12-19T10:13:54Z</time>
      </trkpt>
      <trkpt lat="44.72241" lon="6.87089">
        <ele>1920.6</ele>
        <time>2021-12-19T10:13:56Z</time>
      </trkpt>
      <trkpt lat="44.72241" lon="6.87093">
        <ele>1920.6</ele>
        <time>2021-12-19T10:13:57Z</time>
      </trkpt>
      <trkpt lat="44.72242" lon="6.871">
        <ele>1920.5</ele>
        <time>2021-12-19T10:13:59Z</time>
      </trkpt>
      <trkpt lat="44.72243" lon="6.87107">
        <ele>1920.9</ele>
        <time>2021-12-19T10:14:00Z</time>
      </trkpt>
      <trkpt lat="44.7224" lon="6.87109">
        <ele>1920.8</ele>
        <time>2021-12-19T10:14:01Z</time>
      </trkpt>
      <trkpt lat="44.72241" lon="6.87125">
        <ele>1922.1</ele>
        <time>2021-12-19T10:14:11Z</time>
      </trkpt>
      <trkpt lat="44.72242" lon="6.87134">
        <ele>1922.3</ele>
        <time>2021-12-19T10:14:14Z</time>
      </trkpt>
      <trkpt lat="44.72244" lon="6.87144">
        <ele>1923.8</ele>
        <time>2021-12-19T10:14:16Z</time>
      </trkpt>
      <trkpt lat="44.72244" lon="6.87149">
        <ele>1924.3</ele>
        <time>2021-12-19T10:14:17Z</time>
      </trkpt>
      <trkpt lat="44.72243" lon="6.87151">
        <ele>1924.7</ele>
        <time>2021-12-19T10:14:18Z</time>
      </trkpt>
      <trkpt lat="44.72243" lon="6.87155">
        <ele>1924.5</ele>
        <time>2021-12-19T10:14:19Z</time>
      </trkpt>
      <trkpt lat="44.72244" lon="6.87173">
        <ele>1924.5</ele>
        <time>2021-12-19T10:14:29Z</time>
      </trkpt>
      <trkpt lat="44.72244" lon="6.87179">
        <ele>1924.8</ele>
        <time>2021-12-19T10:14:39Z</time>
      </trkpt>
      <trkpt lat="44.72243" lon="6.87193">
        <ele>1926.2</ele>
        <time>2021-12-19T10:14:40Z</time>
      </trkpt>
      <trkpt lat="44.72247" lon="6.87201">
        <ele>1927.2</ele>
        <time>2021-12-19T10:14:41Z</time>
      </trkpt>
      <trkpt lat="44.72247" lon="6.87208">
        <ele>1927</ele>
        <time>2021-12-19T10:14:44Z</time>
      </trkpt>
      <trkpt lat="44.72248" lon="6.87215">
        <ele>1926.6</ele>
        <time>2021-12-19T10:14:46Z</time>
      </trkpt>
      <trkpt lat="44.72249" lon="6.87217">
        <ele>1926.4</ele>
        <time>2021-12-19T10:14:58Z</time>
      </trkpt>
      <trkpt lat="44.72251" lon="6.8723">
        <ele>1926.2</ele>
        <time>2021-12-19T10:14:59Z</time>
      </trkpt>
      <trkpt lat="44.72251" lon="6.87232">
        <ele>1926.6</ele>
        <time>2021-12-19T10:15:00Z</time>
      </trkpt>
      <trkpt lat="44.72251" lon="6.87247">
        <ele>1928.3</ele>
        <time>2021-12-19T10:15:12Z</time>
      </trkpt>
      <trkpt lat="44.72248" lon="6.87263">
        <ele>1930.3</ele>
        <time>2021-12-19T10:15:32Z</time>
      </trkpt>
      <trkpt lat="44.72244" lon="6.87266">
        <ele>1930.4</ele>
        <time>2021-12-19T10:15:35Z</time>
      </trkpt>
      <trkpt lat="44.7224" lon="6.87278">
        <ele>1929.1</ele>
        <time>2021-12-19T10:15:57Z</time>
      </trkpt>
      <trkpt lat="44.72235" lon="6.87292">
        <ele>1927.6</ele>
        <time>2021-12-19T10:16:14Z</time>
      </trkpt>
      <trkpt lat="44.72229" lon="6.87307">
        <ele>1925.9</ele>
        <time>2021-12-19T10:16:24Z</time>
      </trkpt>
      <trkpt lat="44.72228" lon="6.8731">
        <ele>1925.7</ele>
        <time>2021-12-19T10:16:25Z</time>
      </trkpt>
      <trkpt lat="44.72227" lon="6.87312">
        <ele>1925.7</ele>
        <time>2021-12-19T10:16:26Z</time>
      </trkpt>
      <trkpt lat="44.72222" lon="6.87319">
        <ele>1925.7</ele>
        <time>2021-12-19T10:16:29Z</time>
      </trkpt>
      <trkpt lat="44.72219" lon="6.87325">
        <ele>1925.6</ele>
        <time>2021-12-19T10:16:31Z</time>
      </trkpt>
      <trkpt lat="44.7222" lon="6.87326">
        <ele>1925.5</ele>
        <time>2021-12-19T10:16:32Z</time>
      </trkpt>
      <trkpt lat="44.7222" lon="6.87329">
        <ele>1925.2</ele>
        <time>2021-12-19T10:16:33Z</time>
      </trkpt>
      <trkpt lat="44.72221" lon="6.87331">
        <ele>1925.1</ele>
        <time>2021-12-19T10:16:34Z</time>
      </trkpt>
      <trkpt lat="44.72221" lon="6.87334">
        <ele>1924.9</ele>
        <time>2021-12-19T10:16:35Z</time>
      </trkpt>
      <trkpt lat="44.72222" lon="6.87338">
        <ele>1924.6</ele>
        <time>2021-12-19T10:16:42Z</time>
      </trkpt>
      <trkpt lat="44.72218" lon="6.87354">
        <ele>1923.7</ele>
        <time>2021-12-19T10:16:43Z</time>
      </trkpt>
      <trkpt lat="44.72217" lon="6.87361">
        <ele>1923.2</ele>
        <time>2021-12-19T10:16:44Z</time>
      </trkpt>
      <trkpt lat="44.72218" lon="6.8737">
        <ele>1922.6</ele>
        <time>2021-12-19T10:16:47Z</time>
      </trkpt>
      <trkpt lat="44.72218" lon="6.87374">
        <ele>1922.2</ele>
        <time>2021-12-19T10:16:48Z</time>
      </trkpt>
      <trkpt lat="44.72219" lon="6.87384">
        <ele>1921.6</ele>
        <time>2021-12-19T10:16:50Z</time>
      </trkpt>
      <trkpt lat="44.72219" lon="6.87387">
        <ele>1921.4</ele>
        <time>2021-12-19T10:16:51Z</time>
      </trkpt>
      <trkpt lat="44.72219" lon="6.87405">
        <ele>1918.8</ele>
        <time>2021-12-19T10:17:00Z</time>
      </trkpt>
      <trkpt lat="44.72215" lon="6.87425">
        <ele>1916.2</ele>
        <time>2021-12-19T10:17:10Z</time>
      </trkpt>
      <trkpt lat="44.72216" lon="6.87431">
        <ele>1916.1</ele>
        <time>2021-12-19T10:17:11Z</time>
      </trkpt>
      <trkpt lat="44.72216" lon="6.87435">
        <ele>1916.1</ele>
        <time>2021-12-19T10:17:12Z</time>
      </trkpt>
      <trkpt lat="44.72216" lon="6.87439">
        <ele>1916.5</ele>
        <time>2021-12-19T10:17:13Z</time>
      </trkpt>
      <trkpt lat="44.72216" lon="6.87446">
        <ele>1915.9</ele>
        <time>2021-12-19T10:17:15Z</time>
      </trkpt>
      <trkpt lat="44.72216" lon="6.87454">
        <ele>1914.6</ele>
        <time>2021-12-19T10:17:19Z</time>
      </trkpt>
      <trkpt lat="44.72218" lon="6.87461">
        <ele>1914.5</ele>
        <time>2021-12-19T10:17:21Z</time>
      </trkpt>
      <trkpt lat="44.72218" lon="6.87464">
        <ele>1914.3</ele>
        <time>2021-12-19T10:17:22Z</time>
      </trkpt>
      <trkpt lat="44.72217" lon="6.87467">
        <ele>1913.9</ele>
        <time>2021-12-19T10:17:23Z</time>
      </trkpt>
      <trkpt lat="44.72216" lon="6.87472">
        <ele>1913.3</ele>
        <time>2021-12-19T10:17:30Z</time>
      </trkpt>
      <trkpt lat="44.72215" lon="6.87487">
        <ele>1913</ele>
        <time>2021-12-19T10:17:31Z</time>
      </trkpt>
      <trkpt lat="44.72216" lon="6.87489">
        <ele>1912.8</ele>
        <time>2021-12-19T10:17:32Z</time>
      </trkpt>
      <trkpt lat="44.72216" lon="6.87496">
        <ele>1911.6</ele>
        <time>2021-12-19T10:17:35Z</time>
      </trkpt>
      <trkpt lat="44.72215" lon="6.87511">
        <ele>1909.1</ele>
        <time>2021-12-19T10:17:44Z</time>
      </trkpt>
      <trkpt lat="44.72219" lon="6.87529">
        <ele>1908</ele>
        <time>2021-12-19T10:17:55Z</time>
      </trkpt>
      <trkpt lat="44.72217" lon="6.87545">
        <ele>1905.8</ele>
        <time>2021-12-19T10:18:04Z</time>
      </trkpt>
      <trkpt lat="44.72218" lon="6.87553">
        <ele>1906</ele>
        <time>2021-12-19T10:18:07Z</time>
      </trkpt>
      <trkpt lat="44.72219" lon="6.87567">
        <ele>1904.2</ele>
        <time>2021-12-19T10:18:14Z</time>
      </trkpt>
      <trkpt lat="44.72219" lon="6.87572">
        <ele>1903.5</ele>
        <time>2021-12-19T10:18:25Z</time>
      </trkpt>
      <trkpt lat="44.72223" lon="6.87585">
        <ele>1901.6</ele>
        <time>2021-12-19T10:18:26Z</time>
      </trkpt>
      <trkpt lat="44.72223" lon="6.87586">
        <ele>1901.5</ele>
        <time>2021-12-19T10:18:27Z</time>
      </trkpt>
      <trkpt lat="44.72229" lon="6.876">
        <ele>1902.1</ele>
        <time>2021-12-19T10:18:36Z</time>
      </trkpt>
      <trkpt lat="44.72231" lon="6.87604">
        <ele>1901.7</ele>
        <time>2021-12-19T10:18:48Z</time>
      </trkpt>
      <trkpt lat="44.72229" lon="6.87617">
        <ele>1899</ele>
        <time>2021-12-19T10:18:49Z</time>
      </trkpt>
      <trkpt lat="44.72227" lon="6.87617">
        <ele>1898.9</ele>
        <time>2021-12-19T10:18:50Z</time>
      </trkpt>
      <trkpt lat="44.72226" lon="6.87618">
        <ele>1898.4</ele>
        <time>2021-12-19T10:19:01Z</time>
      </trkpt>
      <trkpt lat="44.72222" lon="6.87631">
        <ele>1896</ele>
        <time>2021-12-19T10:19:02Z</time>
      </trkpt>
      <trkpt lat="44.72221" lon="6.87634">
        <ele>1895.9</ele>
        <time>2021-12-19T10:19:03Z</time>
      </trkpt>
      <trkpt lat="44.72221" lon="6.87642">
        <ele>1896.9</ele>
        <time>2021-12-19T10:19:04Z</time>
      </trkpt>
      <trkpt lat="44.72216" lon="6.87649">
        <ele>1897.9</ele>
        <time>2021-12-19T10:19:06Z</time>
      </trkpt>
      <trkpt lat="44.72212" lon="6.87657">
        <ele>1898.8</ele>
        <time>2021-12-19T10:19:08Z</time>
      </trkpt>
      <trkpt lat="44.72213" lon="6.87662">
        <ele>1899.5</ele>
        <time>2021-12-19T10:19:09Z</time>
      </trkpt>
      <trkpt lat="44.72214" lon="6.87666">
        <ele>1900</ele>
        <time>2021-12-19T10:19:10Z</time>
      </trkpt>
      <trkpt lat="44.72214" lon="6.87672">
        <ele>1900.2</ele>
        <time>2021-12-19T10:19:12Z</time>
      </trkpt>
      <trkpt lat="44.72214" lon="6.87672">
        <ele>1900.2</ele>
        <time>2021-12-19T10:19:17Z</time>
      </trkpt>
      <trkpt lat="44.72213" lon="6.87685">
        <ele>1899.3</ele>
        <time>2021-12-19T10:19:18Z</time>
      </trkpt>
      <trkpt lat="44.72213" lon="6.87687">
        <ele>1899</ele>
        <time>2021-12-19T10:19:19Z</time>
      </trkpt>
      <trkpt lat="44.72212" lon="6.87705">
        <ele>1898.7</ele>
        <time>2021-12-19T10:19:26Z</time>
      </trkpt>
      <trkpt lat="44.72213" lon="6.87712">
        <ele>1898.9</ele>
        <time>2021-12-19T10:19:29Z</time>
      </trkpt>
      <trkpt lat="44.72213" lon="6.87712">
        <ele>1898.9</ele>
        <time>2021-12-19T10:19:34Z</time>
      </trkpt>
      <trkpt lat="44.72209" lon="6.87724">
        <ele>1898.9</ele>
        <time>2021-12-19T10:19:35Z</time>
      </trkpt>
      <trkpt lat="44.7221" lon="6.87726">
        <ele>1898.9</ele>
        <time>2021-12-19T10:19:36Z</time>
      </trkpt>
      <trkpt lat="44.72211" lon="6.87742">
        <ele>1898.8</ele>
        <time>2021-12-19T10:19:46Z</time>
      </trkpt>
      <trkpt lat="44.72212" lon="6.87759">
        <ele>1897.6</ele>
        <time>2021-12-19T10:20:00Z</time>
      </trkpt>
      <trkpt lat="44.72214" lon="6.87778">
        <ele>1898.3</ele>
        <time>2021-12-19T10:20:09Z</time>
      </trkpt>
      <trkpt lat="44.72208" lon="6.87795">
        <ele>1895.7</ele>
        <time>2021-12-19T10:20:21Z</time>
      </trkpt>
      <trkpt lat="44.72207" lon="6.87808">
        <ele>1895.2</ele>
        <time>2021-12-19T10:20:24Z</time>
      </trkpt>
      <trkpt lat="44.72204" lon="6.8781">
        <ele>1895.1</ele>
        <time>2021-12-19T10:20:25Z</time>
      </trkpt>
      <trkpt lat="44.72202" lon="6.87813">
        <ele>1894.9</ele>
        <time>2021-12-19T10:20:26Z</time>
      </trkpt>
      <trkpt lat="44.72202" lon="6.87816">
        <ele>1894.7</ele>
        <time>2021-12-19T10:20:27Z</time>
      </trkpt>
      <trkpt lat="44.72201" lon="6.87819">
        <ele>1894.6</ele>
        <time>2021-12-19T10:20:28Z</time>
      </trkpt>
      <trkpt lat="44.72199" lon="6.8782">
        <ele>1894.5</ele>
        <time>2021-12-19T10:20:29Z</time>
      </trkpt>
      <trkpt lat="44.72197" lon="6.87823">
        <ele>1894.6</ele>
        <time>2021-12-19T10:20:30Z</time>
      </trkpt>
      <trkpt lat="44.72196" lon="6.8784">
        <ele>1894.1</ele>
        <time>2021-12-19T10:20:38Z</time>
      </trkpt>
      <trkpt lat="44.72198" lon="6.87848">
        <ele>1893.9</ele>
        <time>2021-12-19T10:20:41Z</time>
      </trkpt>
      <trkpt lat="44.72201" lon="6.87862">
        <ele>1891.3</ele>
        <time>2021-12-19T10:20:49Z</time>
      </trkpt>
      <trkpt lat="44.72202" lon="6.87872">
        <ele>1891.4</ele>
        <time>2021-12-19T10:20:52Z</time>
      </trkpt>
      <trkpt lat="44.72203" lon="6.87887">
        <ele>1890.2</ele>
        <time>2021-12-19T10:20:59Z</time>
      </trkpt>
      <trkpt lat="44.72202" lon="6.87905">
        <ele>1890.6</ele>
        <time>2021-12-19T10:21:14Z</time>
      </trkpt>
      <trkpt lat="44.72201" lon="6.87918">
        <ele>1891.5</ele>
        <time>2021-12-19T10:21:24Z</time>
      </trkpt>
      <trkpt lat="44.72202" lon="6.87925">
        <ele>1891.6</ele>
        <time>2021-12-19T10:21:30Z</time>
      </trkpt>
      <trkpt lat="44.72202" lon="6.87926">
        <ele>1891.6</ele>
        <time>2021-12-19T10:21:31Z</time>
      </trkpt>
      <trkpt lat="44.72201" lon="6.87928">
        <ele>1891.5</ele>
        <time>2021-12-19T10:21:32Z</time>
      </trkpt>
      <trkpt lat="44.722" lon="6.87931">
        <ele>1891.9</ele>
        <time>2021-12-19T10:21:33Z</time>
      </trkpt>
      <trkpt lat="44.72193" lon="6.87954">
        <ele>1895.7</ele>
        <time>2021-12-19T10:21:39Z</time>
      </trkpt>
      <trkpt lat="44.72195" lon="6.87964">
        <ele>1897.7</ele>
        <time>2021-12-19T10:21:46Z</time>
      </trkpt>
      <trkpt lat="44.72198" lon="6.87971">
        <ele>1900.6</ele>
        <time>2021-12-19T10:21:50Z</time>
      </trkpt>
      <trkpt lat="44.72199" lon="6.87982">
        <ele>1902.1</ele>
        <time>2021-12-19T10:21:56Z</time>
      </trkpt>
      <trkpt lat="44.72199" lon="6.87991">
        <ele>1904.5</ele>
        <time>2021-12-19T10:21:57Z</time>
      </trkpt>
      <trkpt lat="44.7219" lon="6.88005">
        <ele>1910.1</ele>
        <time>2021-12-19T10:22:15Z</time>
      </trkpt>
      <trkpt lat="44.7219" lon="6.88024">
        <ele>1913.9</ele>
        <time>2021-12-19T10:22:26Z</time>
      </trkpt>
      <trkpt lat="44.7219" lon="6.88032">
        <ele>1916.2</ele>
        <time>2021-12-19T10:22:29Z</time>
      </trkpt>
      <trkpt lat="44.72187" lon="6.88045">
        <ele>1920.6</ele>
        <time>2021-12-19T10:22:37Z</time>
      </trkpt>
      <trkpt lat="44.72178" lon="6.88056">
        <ele>1926.9</ele>
        <time>2021-12-19T10:22:54Z</time>
      </trkpt>
      <trkpt lat="44.72178" lon="6.88076">
        <ele>1931</ele>
        <time>2021-12-19T10:23:06Z</time>
      </trkpt>
      <trkpt lat="44.72172" lon="6.88092">
        <ele>1932.7</ele>
        <time>2021-12-19T10:23:20Z</time>
      </trkpt>
      <trkpt lat="44.72169" lon="6.88108">
        <ele>1934.8</ele>
        <time>2021-12-19T10:23:45Z</time>
      </trkpt>
      <trkpt lat="44.72169" lon="6.8811">
        <ele>1934.7</ele>
        <time>2021-12-19T10:24:06Z</time>
      </trkpt>
      <trkpt lat="44.72167" lon="6.88123">
        <ele>1934.8</ele>
        <time>2021-12-19T10:24:07Z</time>
      </trkpt>
      <trkpt lat="44.72167" lon="6.88124">
        <ele>1934.8</ele>
        <time>2021-12-19T10:24:08Z</time>
      </trkpt>
      <trkpt lat="44.7217" lon="6.88139">
        <ele>1935.4</ele>
        <time>2021-12-19T10:24:18Z</time>
      </trkpt>
      <trkpt lat="44.72169" lon="6.88157">
        <ele>1935.4</ele>
        <time>2021-12-19T10:24:33Z</time>
      </trkpt>
      <trkpt lat="44.72169" lon="6.88175">
        <ele>1935.4</ele>
        <time>2021-12-19T10:24:43Z</time>
      </trkpt>
      <trkpt lat="44.72168" lon="6.88191">
        <ele>1936</ele>
        <time>2021-12-19T10:24:58Z</time>
      </trkpt>
      <trkpt lat="44.72164" lon="6.88208">
        <ele>1935.8</ele>
        <time>2021-12-19T10:25:09Z</time>
      </trkpt>
      <trkpt lat="44.72161" lon="6.88226">
        <ele>1936.8</ele>
        <time>2021-12-19T10:25:23Z</time>
      </trkpt>
      <trkpt lat="44.7216" lon="6.8823">
        <ele>1937</ele>
        <time>2021-12-19T10:25:37Z</time>
      </trkpt>
      <trkpt lat="44.72163" lon="6.88243">
        <ele>1937.3</ele>
        <time>2021-12-19T10:25:38Z</time>
      </trkpt>
      <trkpt lat="44.72163" lon="6.88244">
        <ele>1937.4</ele>
        <time>2021-12-19T10:25:39Z</time>
      </trkpt>
      <trkpt lat="44.72163" lon="6.88248">
        <ele>1937.4</ele>
        <time>2021-12-19T10:25:52Z</time>
      </trkpt>
      <trkpt lat="44.72166" lon="6.8826">
        <ele>1937.7</ele>
        <time>2021-12-19T10:25:53Z</time>
      </trkpt>
      <trkpt lat="44.72166" lon="6.88261">
        <ele>1937.8</ele>
        <time>2021-12-19T10:25:54Z</time>
      </trkpt>
      <trkpt lat="44.7217" lon="6.88275">
        <ele>1940</ele>
        <time>2021-12-19T10:26:14Z</time>
      </trkpt>
      <trkpt lat="44.72178" lon="6.88287">
        <ele>1941.1</ele>
        <time>2021-12-19T10:26:31Z</time>
      </trkpt>
      <trkpt lat="44.72177" lon="6.88302">
        <ele>1942.9</ele>
        <time>2021-12-19T10:26:45Z</time>
      </trkpt>
      <trkpt lat="44.72178" lon="6.88305">
        <ele>1943.7</ele>
        <time>2021-12-19T10:26:59Z</time>
      </trkpt>
      <trkpt lat="44.7218" lon="6.88317">
        <ele>1946.3</ele>
        <time>2021-12-19T10:27:00Z</time>
      </trkpt>
      <trkpt lat="44.7218" lon="6.88318">
        <ele>1946.6</ele>
        <time>2021-12-19T10:27:01Z</time>
      </trkpt>
      <trkpt lat="44.72179" lon="6.88333">
        <ele>1948.6</ele>
        <time>2021-12-19T10:27:20Z</time>
      </trkpt>
      <trkpt lat="44.72172" lon="6.88344">
        <ele>1949.1</ele>
        <time>2021-12-19T10:27:35Z</time>
      </trkpt>
      <trkpt lat="44.72167" lon="6.88358">
        <ele>1949.5</ele>
        <time>2021-12-19T10:27:49Z</time>
      </trkpt>
      <trkpt lat="44.72165" lon="6.88377">
        <ele>1950.7</ele>
        <time>2021-12-19T10:28:03Z</time>
      </trkpt>
      <trkpt lat="44.72162" lon="6.88382">
        <ele>1950.6</ele>
        <time>2021-12-19T10:28:07Z</time>
      </trkpt>
      <trkpt lat="44.7216" lon="6.88388">
        <ele>1951</ele>
        <time>2021-12-19T10:28:10Z</time>
      </trkpt>
      <trkpt lat="44.72154" lon="6.88401">
        <ele>1951.7</ele>
        <time>2021-12-19T10:28:23Z</time>
      </trkpt>
      <trkpt lat="44.7215" lon="6.88413">
        <ele>1951.9</ele>
        <time>2021-12-19T10:28:32Z</time>
      </trkpt>
      <trkpt lat="44.72149" lon="6.88415">
        <ele>1952.1</ele>
        <time>2021-12-19T10:28:34Z</time>
      </trkpt>
      <trkpt lat="44.72149" lon="6.88417">
        <ele>1952.3</ele>
        <time>2021-12-19T10:28:35Z</time>
      </trkpt>
      <trkpt lat="44.72149" lon="6.88418">
        <ele>1952.3</ele>
        <time>2021-12-19T10:28:36Z</time>
      </trkpt>
      <trkpt lat="44.72149" lon="6.88419">
        <ele>1952.3</ele>
        <time>2021-12-19T10:28:37Z</time>
      </trkpt>
      <trkpt lat="44.7215" lon="6.8842">
        <ele>1952.7</ele>
        <time>2021-12-19T10:28:38Z</time>
      </trkpt>
      <trkpt lat="44.72148" lon="6.88431">
        <ele>1953</ele>
        <time>2021-12-19T10:28:45Z</time>
      </trkpt>
      <trkpt lat="44.72149" lon="6.88433">
        <ele>1953.1</ele>
        <time>2021-12-19T10:28:46Z</time>
      </trkpt>
      <trkpt lat="44.72147" lon="6.88437">
        <ele>1954.3</ele>
        <time>2021-12-19T10:28:47Z</time>
      </trkpt>
      <trkpt lat="44.72147" lon="6.88439">
        <ele>1954.3</ele>
        <time>2021-12-19T10:28:48Z</time>
      </trkpt>
      <trkpt lat="44.72147" lon="6.8844">
        <ele>1954.3</ele>
        <time>2021-12-19T10:28:49Z</time>
      </trkpt>
      <trkpt lat="44.7214" lon="6.88449">
        <ele>1952.8</ele>
        <time>2021-12-19T10:29:04Z</time>
      </trkpt>
      <trkpt lat="44.72139" lon="6.88464">
        <ele>1952.1</ele>
        <time>2021-12-19T10:29:15Z</time>
      </trkpt>
      <trkpt lat="44.7214" lon="6.88482">
        <ele>1951.8</ele>
        <time>2021-12-19T10:29:27Z</time>
      </trkpt>
      <trkpt lat="44.72139" lon="6.88499">
        <ele>1951.9</ele>
        <time>2021-12-19T10:29:43Z</time>
      </trkpt>
      <trkpt lat="44.72141" lon="6.88503">
        <ele>1951.7</ele>
        <time>2021-12-19T10:29:53Z</time>
      </trkpt>
      <trkpt lat="44.72144" lon="6.88515">
        <ele>1951.5</ele>
        <time>2021-12-19T10:29:54Z</time>
      </trkpt>
      <trkpt lat="44.72144" lon="6.88516">
        <ele>1951.6</ele>
        <time>2021-12-19T10:29:55Z</time>
      </trkpt>
      <trkpt lat="44.72142" lon="6.88531">
        <ele>1949.2</ele>
        <time>2021-12-19T10:30:13Z</time>
      </trkpt>
      <trkpt lat="44.72142" lon="6.8855">
        <ele>1949.2</ele>
        <time>2021-12-19T10:30:26Z</time>
      </trkpt>
      <trkpt lat="44.72136" lon="6.88566">
        <ele>1950.3</ele>
        <time>2021-12-19T10:30:39Z</time>
      </trkpt>
      <trkpt lat="44.72129" lon="6.88579">
        <ele>1948.8</ele>
        <time>2021-12-19T10:30:53Z</time>
      </trkpt>
      <trkpt lat="44.7212" lon="6.88592">
        <ele>1948.8</ele>
        <time>2021-12-19T10:31:06Z</time>
      </trkpt>
      <trkpt lat="44.7211" lon="6.88604">
        <ele>1948.5</ele>
        <time>2021-12-19T10:31:20Z</time>
      </trkpt>
      <trkpt lat="44.72104" lon="6.88619">
        <ele>1947.9</ele>
        <time>2021-12-19T10:31:33Z</time>
      </trkpt>
      <trkpt lat="44.72101" lon="6.88624">
        <ele>1948.6</ele>
        <time>2021-12-19T10:31:36Z</time>
      </trkpt>
      <trkpt lat="44.72096" lon="6.88636">
        <ele>1950.8</ele>
        <time>2021-12-19T10:31:43Z</time>
      </trkpt>
      <trkpt lat="44.72092" lon="6.88654">
        <ele>1954.5</ele>
        <time>2021-12-19T10:31:52Z</time>
      </trkpt>
      <trkpt lat="44.72087" lon="6.88671">
        <ele>1956.1</ele>
        <time>2021-12-19T10:32:02Z</time>
      </trkpt>
      <trkpt lat="44.72081" lon="6.88674">
        <ele>1956.4</ele>
        <time>2021-12-19T10:32:05Z</time>
      </trkpt>
      <trkpt lat="44.72076" lon="6.88676">
        <ele>1956.7</ele>
        <time>2021-12-19T10:32:07Z</time>
      </trkpt>
      <trkpt lat="44.72074" lon="6.88678">
        <ele>1957</ele>
        <time>2021-12-19T10:32:13Z</time>
      </trkpt>
      <trkpt lat="44.72068" lon="6.88686">
        <ele>1957.3</ele>
        <time>2021-12-19T10:32:14Z</time>
      </trkpt>
      <trkpt lat="44.72068" lon="6.88692">
        <ele>1956.9</ele>
        <time>2021-12-19T10:32:16Z</time>
      </trkpt>
      <trkpt lat="44.72068" lon="6.88699">
        <ele>1957.6</ele>
        <time>2021-12-19T10:32:17Z</time>
      </trkpt>
      <trkpt lat="44.72067" lon="6.88705">
        <ele>1957.9</ele>
        <time>2021-12-19T10:32:19Z</time>
      </trkpt>
      <trkpt lat="44.72067" lon="6.88706">
        <ele>1957.9</ele>
        <time>2021-12-19T10:32:20Z</time>
      </trkpt>
      <trkpt lat="44.72066" lon="6.88709">
        <ele>1957.7</ele>
        <time>2021-12-19T10:32:22Z</time>
      </trkpt>
      <trkpt lat="44.72067" lon="6.88711">
        <ele>1957.7</ele>
        <time>2021-12-19T10:32:23Z</time>
      </trkpt>
      <trkpt lat="44.72068" lon="6.88719">
        <ele>1956.7</ele>
        <time>2021-12-19T10:32:26Z</time>
      </trkpt>
      <trkpt lat="44.72067" lon="6.88727">
        <ele>1956.8</ele>
        <time>2021-12-19T10:32:29Z</time>
      </trkpt>
      <trkpt lat="44.72068" lon="6.88734">
        <ele>1957.4</ele>
        <time>2021-12-19T10:32:31Z</time>
      </trkpt>
      <trkpt lat="44.72069" lon="6.88735">
        <ele>1957.5</ele>
        <time>2021-12-19T10:32:32Z</time>
      </trkpt>
      <trkpt lat="44.7207" lon="6.88737">
        <ele>1957.7</ele>
        <time>2021-12-19T10:32:33Z</time>
      </trkpt>
      <trkpt lat="44.72071" lon="6.88751">
        <ele>1957.6</ele>
        <time>2021-12-19T10:32:45Z</time>
      </trkpt>
      <trkpt lat="44.72067" lon="6.88766">
        <ele>1957.1</ele>
        <time>2021-12-19T10:33:03Z</time>
      </trkpt>
      <trkpt lat="44.72059" lon="6.88779">
        <ele>1953.5</ele>
        <time>2021-12-19T10:33:17Z</time>
      </trkpt>
      <trkpt lat="44.72053" lon="6.88794">
        <ele>1955.7</ele>
        <time>2021-12-19T10:33:32Z</time>
      </trkpt>
      <trkpt lat="44.72052" lon="6.88797">
        <ele>1955.8</ele>
        <time>2021-12-19T10:33:43Z</time>
      </trkpt>
      <trkpt lat="44.7205" lon="6.8881">
        <ele>1956.8</ele>
        <time>2021-12-19T10:33:44Z</time>
      </trkpt>
      <trkpt lat="44.7205" lon="6.88811">
        <ele>1957.2</ele>
        <time>2021-12-19T10:33:45Z</time>
      </trkpt>
      <trkpt lat="44.7205" lon="6.88827">
        <ele>1959.8</ele>
        <time>2021-12-19T10:33:59Z</time>
      </trkpt>
      <trkpt lat="44.7205" lon="6.88845">
        <ele>1962.1</ele>
        <time>2021-12-19T10:34:11Z</time>
      </trkpt>
      <trkpt lat="44.72046" lon="6.88849">
        <ele>1962.8</ele>
        <time>2021-12-19T10:34:14Z</time>
      </trkpt>
      <trkpt lat="44.72046" lon="6.88849">
        <ele>1962.8</ele>
        <time>2021-12-19T10:34:33Z</time>
      </trkpt>
      <trkpt lat="44.72046" lon="6.88862">
        <ele>1965</ele>
        <time>2021-12-19T10:34:34Z</time>
      </trkpt>
      <trkpt lat="44.72046" lon="6.88862">
        <ele>1965</ele>
        <time>2021-12-19T10:34:35Z</time>
      </trkpt>
      <trkpt lat="44.72049" lon="6.88875">
        <ele>1965.9</ele>
        <time>2021-12-19T10:35:27Z</time>
      </trkpt>
      <trkpt lat="44.72049" lon="6.88878">
        <ele>1966.1</ele>
        <time>2021-12-19T10:35:46Z</time>
      </trkpt>
      <trkpt lat="44.72047" lon="6.88891">
        <ele>1966.9</ele>
        <time>2021-12-19T10:35:47Z</time>
      </trkpt>
      <trkpt lat="44.72047" lon="6.88892">
        <ele>1967</ele>
        <time>2021-12-19T10:35:48Z</time>
      </trkpt>
      <trkpt lat="44.72043" lon="6.88907">
        <ele>1967.5</ele>
        <time>2021-12-19T10:35:59Z</time>
      </trkpt>
      <trkpt lat="44.72037" lon="6.88922">
        <ele>1967.8</ele>
        <time>2021-12-19T10:36:14Z</time>
      </trkpt>
      <trkpt lat="44.72033" lon="6.88926">
        <ele>1967.9</ele>
        <time>2021-12-19T10:36:17Z</time>
      </trkpt>
      <trkpt lat="44.72033" lon="6.88929">
        <ele>1967.9</ele>
        <time>2021-12-19T10:36:18Z</time>
      </trkpt>
      <trkpt lat="44.72034" lon="6.8893">
        <ele>1967.9</ele>
        <time>2021-12-19T10:36:19Z</time>
      </trkpt>
      <trkpt lat="44.72028" lon="6.88945">
        <ele>1968.1</ele>
        <time>2021-12-19T10:36:33Z</time>
      </trkpt>
      <trkpt lat="44.72027" lon="6.88947">
        <ele>1968.1</ele>
        <time>2021-12-19T10:36:35Z</time>
      </trkpt>
      <trkpt lat="44.72026" lon="6.88948">
        <ele>1968</ele>
        <time>2021-12-19T10:36:36Z</time>
      </trkpt>
      <trkpt lat="44.72025" lon="6.88953">
        <ele>1967.8</ele>
        <time>2021-12-19T10:36:38Z</time>
      </trkpt>
      <trkpt lat="44.72025" lon="6.88954">
        <ele>1967.8</ele>
        <time>2021-12-19T10:36:39Z</time>
      </trkpt>
      <trkpt lat="44.72024" lon="6.88956">
        <ele>1967.7</ele>
        <time>2021-12-19T10:36:40Z</time>
      </trkpt>
      <trkpt lat="44.72022" lon="6.88958">
        <ele>1968.1</ele>
        <time>2021-12-19T10:36:41Z</time>
      </trkpt>
      <trkpt lat="44.7202" lon="6.88962">
        <ele>1967.9</ele>
        <time>2021-12-19T10:36:43Z</time>
      </trkpt>
      <trkpt lat="44.72019" lon="6.88964">
        <ele>1967.9</ele>
        <time>2021-12-19T10:36:44Z</time>
      </trkpt>
      <trkpt lat="44.72018" lon="6.88966">
        <ele>1967.8</ele>
        <time>2021-12-19T10:36:45Z</time>
      </trkpt>
      <trkpt lat="44.72017" lon="6.88969">
        <ele>1967.9</ele>
        <time>2021-12-19T10:36:46Z</time>
      </trkpt>
      <trkpt lat="44.72018" lon="6.88975">
        <ele>1967.8</ele>
        <time>2021-12-19T10:36:48Z</time>
      </trkpt>
      <trkpt lat="44.72018" lon="6.88977">
        <ele>1967.8</ele>
        <time>2021-12-19T10:36:49Z</time>
      </trkpt>
      <trkpt lat="44.72017" lon="6.88981">
        <ele>1968.1</ele>
        <time>2021-12-19T10:36:52Z</time>
      </trkpt>
      <trkpt lat="44.72013" lon="6.88986">
        <ele>1968.9</ele>
        <time>2021-12-19T10:36:53Z</time>
      </trkpt>
      <trkpt lat="44.72012" lon="6.88989">
        <ele>1969.1</ele>
        <time>2021-12-19T10:36:54Z</time>
      </trkpt>
      <trkpt lat="44.72009" lon="6.88998">
        <ele>1970</ele>
        <time>2021-12-19T10:36:58Z</time>
      </trkpt>
      <trkpt lat="44.72007" lon="6.89">
        <ele>1970.3</ele>
        <time>2021-12-19T10:36:59Z</time>
      </trkpt>
      <trkpt lat="44.72007" lon="6.89005">
        <ele>1970.2</ele>
        <time>2021-12-19T10:37:02Z</time>
      </trkpt>
      <trkpt lat="44.72008" lon="6.89006">
        <ele>1970</ele>
        <time>2021-12-19T10:37:03Z</time>
      </trkpt>
      <trkpt lat="44.7201" lon="6.89024">
        <ele>1968.7</ele>
        <time>2021-12-19T10:37:12Z</time>
      </trkpt>
      <trkpt lat="44.7201" lon="6.8903">
        <ele>1968.9</ele>
        <time>2021-12-19T10:37:14Z</time>
      </trkpt>
      <trkpt lat="44.7201" lon="6.89034">
        <ele>1969</ele>
        <time>2021-12-19T10:37:21Z</time>
      </trkpt>
      <trkpt lat="44.72008" lon="6.89046">
        <ele>1968.6</ele>
        <time>2021-12-19T10:37:22Z</time>
      </trkpt>
      <trkpt lat="44.72008" lon="6.89048">
        <ele>1968.5</ele>
        <time>2021-12-19T10:37:23Z</time>
      </trkpt>
      <trkpt lat="44.72008" lon="6.89065">
        <ele>1969</ele>
        <time>2021-12-19T10:37:33Z</time>
      </trkpt>
      <trkpt lat="44.72003" lon="6.8907">
        <ele>1969.5</ele>
        <time>2021-12-19T10:37:36Z</time>
      </trkpt>
      <trkpt lat="44.71995" lon="6.89078">
        <ele>1970.1</ele>
        <time>2021-12-19T10:37:42Z</time>
      </trkpt>
      <trkpt lat="44.71995" lon="6.89086">
        <ele>1970.3</ele>
        <time>2021-12-19T10:37:46Z</time>
      </trkpt>
      <trkpt lat="44.71996" lon="6.89093">
        <ele>1970.2</ele>
        <time>2021-12-19T10:37:49Z</time>
      </trkpt>
      <trkpt lat="44.71988" lon="6.89107">
        <ele>1970.5</ele>
        <time>2021-12-19T10:38:06Z</time>
      </trkpt>
      <trkpt lat="44.71982" lon="6.8911">
        <ele>1970.8</ele>
        <time>2021-12-19T10:38:14Z</time>
      </trkpt>
      <trkpt lat="44.7198" lon="6.89106">
        <ele>1971</ele>
        <time>2021-12-19T10:38:15Z</time>
      </trkpt>
      <trkpt lat="44.71978" lon="6.89103">
        <ele>1971.7</ele>
        <time>2021-12-19T10:38:17Z</time>
      </trkpt>
      <trkpt lat="44.71977" lon="6.89106">
        <ele>1972.4</ele>
        <time>2021-12-19T10:38:18Z</time>
      </trkpt>
      <trkpt lat="44.71978" lon="6.8911">
        <ele>1972.3</ele>
        <time>2021-12-19T10:38:20Z</time>
      </trkpt>
      <trkpt lat="44.71978" lon="6.89111">
        <ele>1972.5</ele>
        <time>2021-12-19T10:38:21Z</time>
      </trkpt>
      <trkpt lat="44.71979" lon="6.89114">
        <ele>1972.4</ele>
        <time>2021-12-19T10:38:22Z</time>
      </trkpt>
      <trkpt lat="44.7198" lon="6.89116">
        <ele>1972.3</ele>
        <time>2021-12-19T10:38:23Z</time>
      </trkpt>
      <trkpt lat="44.7198" lon="6.89119">
        <ele>1972.3</ele>
        <time>2021-12-19T10:38:24Z</time>
      </trkpt>
      <trkpt lat="44.71979" lon="6.89126">
        <ele>1973.7</ele>
        <time>2021-12-19T10:38:26Z</time>
      </trkpt>
      <trkpt lat="44.7198" lon="6.89137">
        <ele>1976.1</ele>
        <time>2021-12-19T10:38:28Z</time>
      </trkpt>
      <trkpt lat="44.71981" lon="6.89142">
        <ele>1976.1</ele>
        <time>2021-12-19T10:38:30Z</time>
      </trkpt>
      <trkpt lat="44.71982" lon="6.89145">
        <ele>1976.3</ele>
        <time>2021-12-19T10:38:31Z</time>
      </trkpt>
      <trkpt lat="44.71983" lon="6.89161">
        <ele>1978.9</ele>
        <time>2021-12-19T10:38:43Z</time>
      </trkpt>
      <trkpt lat="44.71983" lon="6.89165">
        <ele>1980</ele>
        <time>2021-12-19T10:38:55Z</time>
      </trkpt>
      <trkpt lat="44.71981" lon="6.89179">
        <ele>1982.3</ele>
        <time>2021-12-19T10:38:56Z</time>
      </trkpt>
      <trkpt lat="44.71981" lon="6.8918">
        <ele>1982.6</ele>
        <time>2021-12-19T10:38:57Z</time>
      </trkpt>
      <trkpt lat="44.71982" lon="6.89182">
        <ele>1982.8</ele>
        <time>2021-12-19T10:39:10Z</time>
      </trkpt>
      <trkpt lat="44.71973" lon="6.89191">
        <ele>1983.5</ele>
        <time>2021-12-19T10:39:11Z</time>
      </trkpt>
      <trkpt lat="44.71972" lon="6.89192">
        <ele>1983.4</ele>
        <time>2021-12-19T10:39:12Z</time>
      </trkpt>
      <trkpt lat="44.71971" lon="6.89203">
        <ele>1983.6</ele>
        <time>2021-12-19T10:39:17Z</time>
      </trkpt>
      <trkpt lat="44.71975" lon="6.8922">
        <ele>1984.5</ele>
        <time>2021-12-19T10:39:33Z</time>
      </trkpt>
      <trkpt lat="44.71976" lon="6.89223">
        <ele>1984.7</ele>
        <time>2021-12-19T10:39:45Z</time>
      </trkpt>
      <trkpt lat="44.71979" lon="6.89235">
        <ele>1985</ele>
        <time>2021-12-19T10:39:46Z</time>
      </trkpt>
      <trkpt lat="44.71979" lon="6.89237">
        <ele>1984.9</ele>
        <time>2021-12-19T10:39:47Z</time>
      </trkpt>
      <trkpt lat="44.71976" lon="6.89238">
        <ele>1984.7</ele>
        <time>2021-12-19T10:40:07Z</time>
      </trkpt>
      <trkpt lat="44.71975" lon="6.89251">
        <ele>1984.3</ele>
        <time>2021-12-19T10:40:08Z</time>
      </trkpt>
      <trkpt lat="44.71974" lon="6.89253">
        <ele>1984.3</ele>
        <time>2021-12-19T10:40:09Z</time>
      </trkpt>
      <trkpt lat="44.71973" lon="6.89268">
        <ele>1983.5</ele>
        <time>2021-12-19T10:40:24Z</time>
      </trkpt>
      <trkpt lat="44.71973" lon="6.89273">
        <ele>1983.5</ele>
        <time>2021-12-19T10:40:32Z</time>
      </trkpt>
      <trkpt lat="44.71971" lon="6.89287">
        <ele>1983.6</ele>
        <time>2021-12-19T10:40:33Z</time>
      </trkpt>
      <trkpt lat="44.71971" lon="6.89291">
        <ele>1983.3</ele>
        <time>2021-12-19T10:40:34Z</time>
      </trkpt>
      <trkpt lat="44.71972" lon="6.89295">
        <ele>1982.8</ele>
        <time>2021-12-19T10:40:35Z</time>
      </trkpt>
      <trkpt lat="44.71973" lon="6.89297">
        <ele>1982.6</ele>
        <time>2021-12-19T10:40:36Z</time>
      </trkpt>
      <trkpt lat="44.71973" lon="6.89298">
        <ele>1982.5</ele>
        <time>2021-12-19T10:40:37Z</time>
      </trkpt>
      <trkpt lat="44.71973" lon="6.89299">
        <ele>1982.4</ele>
        <time>2021-12-19T10:40:38Z</time>
      </trkpt>
      <trkpt lat="44.71973" lon="6.89301">
        <ele>1982.4</ele>
        <time>2021-12-19T10:40:43Z</time>
      </trkpt>
      <trkpt lat="44.71973" lon="6.89308">
        <ele>1982.2</ele>
        <time>2021-12-19T10:40:44Z</time>
      </trkpt>
      <trkpt lat="44.71972" lon="6.89311">
        <ele>1982.2</ele>
        <time>2021-12-19T10:40:45Z</time>
      </trkpt>
      <trkpt lat="44.71972" lon="6.89314">
        <ele>1982.5</ele>
        <time>2021-12-19T10:40:55Z</time>
      </trkpt>
      <trkpt lat="44.7197" lon="6.89327">
        <ele>1984.1</ele>
        <time>2021-12-19T10:40:56Z</time>
      </trkpt>
      <trkpt lat="44.71969" lon="6.89328">
        <ele>1984.3</ele>
        <time>2021-12-19T10:40:57Z</time>
      </trkpt>
      <trkpt lat="44.71969" lon="6.89331">
        <ele>1984.4</ele>
        <time>2021-12-19T10:41:05Z</time>
      </trkpt>
      <trkpt lat="44.71971" lon="6.89343">
        <ele>1985.7</ele>
        <time>2021-12-19T10:41:06Z</time>
      </trkpt>
      <trkpt lat="44.71972" lon="6.89345">
        <ele>1985.9</ele>
        <time>2021-12-19T10:41:07Z</time>
      </trkpt>
      <trkpt lat="44.71973" lon="6.89347">
        <ele>1985.9</ele>
        <time>2021-12-19T10:41:08Z</time>
      </trkpt>
      <trkpt lat="44.71973" lon="6.89349">
        <ele>1985.9</ele>
        <time>2021-12-19T10:41:09Z</time>
      </trkpt>
      <trkpt lat="44.71973" lon="6.8935">
        <ele>1986</ele>
        <time>2021-12-19T10:41:10Z</time>
      </trkpt>
      <trkpt lat="44.71971" lon="6.89352">
        <ele>1986.2</ele>
        <time>2021-12-19T10:41:28Z</time>
      </trkpt>
      <trkpt lat="44.71971" lon="6.89365">
        <ele>1988.7</ele>
        <time>2021-12-19T10:41:29Z</time>
      </trkpt>
      <trkpt lat="44.71972" lon="6.89367">
        <ele>1988.9</ele>
        <time>2021-12-19T10:41:30Z</time>
      </trkpt>
      <trkpt lat="44.71972" lon="6.89383">
        <ele>1990.1</ele>
        <time>2021-12-19T10:41:39Z</time>
      </trkpt>
      <trkpt lat="44.71973" lon="6.89385">
        <ele>1990.2</ele>
        <time>2021-12-19T10:41:40Z</time>
      </trkpt>
      <trkpt lat="44.71972" lon="6.89387">
        <ele>1990.3</ele>
        <time>2021-12-19T10:41:41Z</time>
      </trkpt>
      <trkpt lat="44.71971" lon="6.89389">
        <ele>1990.4</ele>
        <time>2021-12-19T10:41:42Z</time>
      </trkpt>
      <trkpt lat="44.71969" lon="6.89394">
        <ele>1990.8</ele>
        <time>2021-12-19T10:41:45Z</time>
      </trkpt>
      <trkpt lat="44.71969" lon="6.89395">
        <ele>1990.8</ele>
        <time>2021-12-19T10:41:46Z</time>
      </trkpt>
      <trkpt lat="44.71969" lon="6.89397">
        <ele>1990.9</ele>
        <time>2021-12-19T10:41:54Z</time>
      </trkpt>
      <trkpt lat="44.71969" lon="6.89408">
        <ele>1990.6</ele>
        <time>2021-12-19T10:41:55Z</time>
      </trkpt>
      <trkpt lat="44.71969" lon="6.8941">
        <ele>1990.7</ele>
        <time>2021-12-19T10:41:56Z</time>
      </trkpt>
      <trkpt lat="44.71969" lon="6.89412">
        <ele>1990.6</ele>
        <time>2021-12-19T10:41:57Z</time>
      </trkpt>
      <trkpt lat="44.71969" lon="6.89414">
        <ele>1990.6</ele>
        <time>2021-12-19T10:42:02Z</time>
      </trkpt>
      <trkpt lat="44.71968" lon="6.8942">
        <ele>1990.8</ele>
        <time>2021-12-19T10:42:03Z</time>
      </trkpt>
      <trkpt lat="44.71966" lon="6.89426">
        <ele>1990.6</ele>
        <time>2021-12-19T10:42:06Z</time>
      </trkpt>
      <trkpt lat="44.71966" lon="6.89429">
        <ele>1991.3</ele>
        <time>2021-12-19T10:42:07Z</time>
      </trkpt>
      <trkpt lat="44.71966" lon="6.89432">
        <ele>1991.3</ele>
        <time>2021-12-19T10:42:09Z</time>
      </trkpt>
      <trkpt lat="44.71964" lon="6.89434">
        <ele>1991.2</ele>
        <time>2021-12-19T10:42:10Z</time>
      </trkpt>
      <trkpt lat="44.71964" lon="6.89435">
        <ele>1991.2</ele>
        <time>2021-12-19T10:42:11Z</time>
      </trkpt>
      <trkpt lat="44.71965" lon="6.89437">
        <ele>1991.1</ele>
        <time>2021-12-19T10:42:12Z</time>
      </trkpt>
      <trkpt lat="44.71965" lon="6.8944">
        <ele>1991.4</ele>
        <time>2021-12-19T10:42:17Z</time>
      </trkpt>
      <trkpt lat="44.71965" lon="6.89446">
        <ele>1991.4</ele>
        <time>2021-12-19T10:42:18Z</time>
      </trkpt>
      <trkpt lat="44.71964" lon="6.89454">
        <ele>1991</ele>
        <time>2021-12-19T10:42:23Z</time>
      </trkpt>
      <trkpt lat="44.71963" lon="6.8946">
        <ele>1990.5</ele>
        <time>2021-12-19T10:42:27Z</time>
      </trkpt>
      <trkpt lat="44.71964" lon="6.89467">
        <ele>1990.7</ele>
        <time>2021-12-19T10:42:30Z</time>
      </trkpt>
      <trkpt lat="44.71963" lon="6.89468">
        <ele>1990.6</ele>
        <time>2021-12-19T10:42:31Z</time>
      </trkpt>
      <trkpt lat="44.71961" lon="6.89484">
        <ele>1991.2</ele>
        <time>2021-12-19T10:42:42Z</time>
      </trkpt>
      <trkpt lat="44.71959" lon="6.89488">
        <ele>1991.5</ele>
        <time>2021-12-19T10:42:49Z</time>
      </trkpt>
      <trkpt lat="44.71955" lon="6.89497">
        <ele>1991.4</ele>
        <time>2021-12-19T10:42:50Z</time>
      </trkpt>
      <trkpt lat="44.71955" lon="6.89502">
        <ele>1991.2</ele>
        <time>2021-12-19T10:42:52Z</time>
      </trkpt>
      <trkpt lat="44.71955" lon="6.89503">
        <ele>1991.1</ele>
        <time>2021-12-19T10:42:53Z</time>
      </trkpt>
      <trkpt lat="44.71954" lon="6.89504">
        <ele>1991.1</ele>
        <time>2021-12-19T10:42:54Z</time>
      </trkpt>
      <trkpt lat="44.71954" lon="6.89505">
        <ele>1991</ele>
        <time>2021-12-19T10:42:55Z</time>
      </trkpt>
      <trkpt lat="44.71954" lon="6.89506">
        <ele>1990.9</ele>
        <time>2021-12-19T10:42:56Z</time>
      </trkpt>
      <trkpt lat="44.71953" lon="6.89508">
        <ele>1990.8</ele>
        <time>2021-12-19T10:42:59Z</time>
      </trkpt>
      <trkpt lat="44.71952" lon="6.89511">
        <ele>1990.8</ele>
        <time>2021-12-19T10:43:00Z</time>
      </trkpt>
      <trkpt lat="44.71952" lon="6.89513">
        <ele>1990.5</ele>
        <time>2021-12-19T10:43:01Z</time>
      </trkpt>
      <trkpt lat="44.71953" lon="6.89514">
        <ele>1990.4</ele>
        <time>2021-12-19T10:43:02Z</time>
      </trkpt>
      <trkpt lat="44.71953" lon="6.89517">
        <ele>1990.7</ele>
        <time>2021-12-19T10:43:59Z</time>
      </trkpt>
      <trkpt lat="44.71945" lon="6.89524">
        <ele>1991.3</ele>
        <time>2021-12-19T10:44:00Z</time>
      </trkpt>
      <trkpt lat="44.71944" lon="6.89526">
        <ele>1991.2</ele>
        <time>2021-12-19T10:44:01Z</time>
      </trkpt>
      <trkpt lat="44.71942" lon="6.89528">
        <ele>1990.9</ele>
        <time>2021-12-19T10:44:02Z</time>
      </trkpt>
      <trkpt lat="44.71938" lon="6.89533">
        <ele>1990.4</ele>
        <time>2021-12-19T10:44:04Z</time>
      </trkpt>
      <trkpt lat="44.71934" lon="6.89538">
        <ele>1990.1</ele>
        <time>2021-12-19T10:44:06Z</time>
      </trkpt>
      <trkpt lat="44.7193" lon="6.89542">
        <ele>1989.6</ele>
        <time>2021-12-19T10:44:08Z</time>
      </trkpt>
      <trkpt lat="44.71925" lon="6.89547">
        <ele>1988.7</ele>
        <time>2021-12-19T10:44:11Z</time>
      </trkpt>
      <trkpt lat="44.71922" lon="6.89553">
        <ele>1987.8</ele>
        <time>2021-12-19T10:44:14Z</time>
      </trkpt>
      <trkpt lat="44.71917" lon="6.89559">
        <ele>1986.7</ele>
        <time>2021-12-19T10:44:17Z</time>
      </trkpt>
      <trkpt lat="44.71912" lon="6.89564">
        <ele>1985.2</ele>
        <time>2021-12-19T10:44:20Z</time>
      </trkpt>
      <trkpt lat="44.71906" lon="6.89566">
        <ele>1983.7</ele>
        <time>2021-12-19T10:44:23Z</time>
      </trkpt>
      <trkpt lat="44.71903" lon="6.8957">
        <ele>1982.2</ele>
        <time>2021-12-19T10:44:27Z</time>
      </trkpt>
      <trkpt lat="44.71903" lon="6.89571">
        <ele>1981.8</ele>
        <time>2021-12-19T10:44:28Z</time>
      </trkpt>
      <trkpt lat="44.71902" lon="6.89572">
        <ele>1981</ele>
        <time>2021-12-19T10:44:34Z</time>
      </trkpt>
      <trkpt lat="44.71898" lon="6.89576">
        <ele>1978.9</ele>
        <time>2021-12-19T10:44:35Z</time>
      </trkpt>
      <trkpt lat="44.71897" lon="6.89577">
        <ele>1978.5</ele>
        <time>2021-12-19T10:44:36Z</time>
      </trkpt>
      <trkpt lat="44.71896" lon="6.8958">
        <ele>1978.3</ele>
        <time>2021-12-19T10:44:37Z</time>
      </trkpt>
      <trkpt lat="44.71895" lon="6.89582">
        <ele>1978</ele>
        <time>2021-12-19T10:44:38Z</time>
      </trkpt>
      <trkpt lat="44.71894" lon="6.89583">
        <ele>1977.7</ele>
        <time>2021-12-19T10:44:39Z</time>
      </trkpt>
      <trkpt lat="44.71892" lon="6.89586">
        <ele>1977.1</ele>
        <time>2021-12-19T10:44:41Z</time>
      </trkpt>
      <trkpt lat="44.71891" lon="6.89588">
        <ele>1976.9</ele>
        <time>2021-12-19T10:44:42Z</time>
      </trkpt>
      <trkpt lat="44.71885" lon="6.89602">
        <ele>1975.1</ele>
        <time>2021-12-19T10:45:06Z</time>
      </trkpt>
      <trkpt lat="44.71883" lon="6.89604">
        <ele>1975.4</ele>
        <time>2021-12-19T10:45:22Z</time>
      </trkpt>
      <trkpt lat="44.71881" lon="6.89617">
        <ele>1976.6</ele>
        <time>2021-12-19T10:45:23Z</time>
      </trkpt>
      <trkpt lat="44.7188" lon="6.89618">
        <ele>1976.6</ele>
        <time>2021-12-19T10:45:24Z</time>
      </trkpt>
      <trkpt lat="44.71875" lon="6.89632">
        <ele>1977.5</ele>
        <time>2021-12-19T10:45:36Z</time>
      </trkpt>
      <trkpt lat="44.71867" lon="6.89644">
        <ele>1978.1</ele>
        <time>2021-12-19T10:45:46Z</time>
      </trkpt>
      <trkpt lat="44.71856" lon="6.89654">
        <ele>1980</ele>
        <time>2021-12-19T10:45:58Z</time>
      </trkpt>
      <trkpt lat="44.71848" lon="6.89648">
        <ele>1980.4</ele>
        <time>2021-12-19T10:46:04Z</time>
      </trkpt>
      <trkpt lat="44.71844" lon="6.8964">
        <ele>1980.5</ele>
        <time>2021-12-19T10:46:06Z</time>
      </trkpt>
      <trkpt lat="44.71841" lon="6.89633">
        <ele>1980.6</ele>
        <time>2021-12-19T10:46:08Z</time>
      </trkpt>
      <trkpt lat="44.71837" lon="6.89634">
        <ele>1980.7</ele>
        <time>2021-12-19T10:46:09Z</time>
      </trkpt>
      <trkpt lat="44.71833" lon="6.89635">
        <ele>1980.8</ele>
        <time>2021-12-19T10:46:10Z</time>
      </trkpt>
      <trkpt lat="44.71828" lon="6.89632">
        <ele>1980.9</ele>
        <time>2021-12-19T10:46:11Z</time>
      </trkpt>
      <trkpt lat="44.71821" lon="6.89637">
        <ele>1981.1</ele>
        <time>2021-12-19T10:46:12Z</time>
      </trkpt>
      <trkpt lat="44.71813" lon="6.89644">
        <ele>1981.3</ele>
        <time>2021-12-19T10:46:13Z</time>
      </trkpt>
      <trkpt lat="44.71811" lon="6.89652">
        <ele>1981.8</ele>
        <time>2021-12-19T10:46:16Z</time>
      </trkpt>
      <trkpt lat="44.71817" lon="6.89659">
        <ele>1982.4</ele>
        <time>2021-12-19T10:46:17Z</time>
      </trkpt>
      <trkpt lat="44.7182" lon="6.89667">
        <ele>1982.6</ele>
        <time>2021-12-19T10:46:18Z</time>
      </trkpt>
      <trkpt lat="44.71844" lon="6.89683">
        <ele>1983.5</ele>
        <time>2021-12-19T10:46:19Z</time>
      </trkpt>
      <trkpt lat="44.71857" lon="6.89691">
        <ele>1984.4</ele>
        <time>2021-12-19T10:46:20Z</time>
      </trkpt>
      <trkpt lat="44.71864" lon="6.89691">
        <ele>1985.5</ele>
        <time>2021-12-19T10:46:22Z</time>
      </trkpt>
      <trkpt lat="44.71866" lon="6.89691">
        <ele>1986</ele>
        <time>2021-12-19T10:46:23Z</time>
      </trkpt>
      <trkpt lat="44.71866" lon="6.89697">
        <ele>1988.5</ele>
        <time>2021-12-19T10:46:35Z</time>
      </trkpt>
      <trkpt lat="44.71861" lon="6.89702">
        <ele>1989.1</ele>
        <time>2021-12-19T10:46:38Z</time>
      </trkpt>
      <trkpt lat="44.71861" lon="6.89706">
        <ele>1990</ele>
        <time>2021-12-19T10:46:43Z</time>
      </trkpt>
      <trkpt lat="44.71862" lon="6.89711">
        <ele>1991.1</ele>
        <time>2021-12-19T10:46:44Z</time>
      </trkpt>
      <trkpt lat="44.71862" lon="6.89713">
        <ele>1991.4</ele>
        <time>2021-12-19T10:46:45Z</time>
      </trkpt>
      <trkpt lat="44.71862" lon="6.89715">
        <ele>1991.9</ele>
        <time>2021-12-19T10:46:46Z</time>
      </trkpt>
      <trkpt lat="44.7186" lon="6.89722">
        <ele>1993.6</ele>
        <time>2021-12-19T10:46:49Z</time>
      </trkpt>
      <trkpt lat="44.71859" lon="6.89723">
        <ele>1993.8</ele>
        <time>2021-12-19T10:46:50Z</time>
      </trkpt>
      <trkpt lat="44.71858" lon="6.89724">
        <ele>1994.2</ele>
        <time>2021-12-19T10:46:51Z</time>
      </trkpt>
      <trkpt lat="44.71858" lon="6.89727">
        <ele>1994.8</ele>
        <time>2021-12-19T10:46:52Z</time>
      </trkpt>
      <trkpt lat="44.71857" lon="6.89729">
        <ele>1995.3</ele>
        <time>2021-12-19T10:46:53Z</time>
      </trkpt>
      <trkpt lat="44.71857" lon="6.89731">
        <ele>1995.7</ele>
        <time>2021-12-19T10:46:54Z</time>
      </trkpt>
      <trkpt lat="44.71857" lon="6.89734">
        <ele>1996</ele>
        <time>2021-12-19T10:46:55Z</time>
      </trkpt>
      <trkpt lat="44.71858" lon="6.89737">
        <ele>1996.1</ele>
        <time>2021-12-19T10:46:56Z</time>
      </trkpt>
      <trkpt lat="44.71858" lon="6.89744">
        <ele>1996.6</ele>
        <time>2021-12-19T10:46:58Z</time>
      </trkpt>
      <trkpt lat="44.71858" lon="6.8975">
        <ele>1997.6</ele>
        <time>2021-12-19T10:47:00Z</time>
      </trkpt>
      <trkpt lat="44.71858" lon="6.89758">
        <ele>1998.3</ele>
        <time>2021-12-19T10:47:03Z</time>
      </trkpt>
      <trkpt lat="44.71858" lon="6.89765">
        <ele>1999.3</ele>
        <time>2021-12-19T10:47:05Z</time>
      </trkpt>
      <trkpt lat="44.7186" lon="6.89773">
        <ele>1999.7</ele>
        <time>2021-12-19T10:47:09Z</time>
      </trkpt>
      <trkpt lat="44.71861" lon="6.89781">
        <ele>2000.4</ele>
        <time>2021-12-19T10:47:13Z</time>
      </trkpt>
      <trkpt lat="44.71863" lon="6.89787">
        <ele>2001.4</ele>
        <time>2021-12-19T10:47:16Z</time>
      </trkpt>
      <trkpt lat="44.71863" lon="6.89794">
        <ele>2002.1</ele>
        <time>2021-12-19T10:47:20Z</time>
      </trkpt>
      <trkpt lat="44.71864" lon="6.89796">
        <ele>2002.4</ele>
        <time>2021-12-19T10:47:21Z</time>
      </trkpt>
      <trkpt lat="44.71863" lon="6.89798">
        <ele>2002.7</ele>
        <time>2021-12-19T10:47:22Z</time>
      </trkpt>
      <trkpt lat="44.71863" lon="6.89799">
        <ele>2002.8</ele>
        <time>2021-12-19T10:47:23Z</time>
      </trkpt>
      <trkpt lat="44.71863" lon="6.898">
        <ele>2003.1</ele>
        <time>2021-12-19T10:47:24Z</time>
      </trkpt>
      <trkpt lat="44.71863" lon="6.89801">
        <ele>2003.4</ele>
        <time>2021-12-19T10:47:25Z</time>
      </trkpt>
      <trkpt lat="44.71863" lon="6.89803">
        <ele>2003.6</ele>
        <time>2021-12-19T10:47:26Z</time>
      </trkpt>
      <trkpt lat="44.71863" lon="6.89804">
        <ele>2003.9</ele>
        <time>2021-12-19T10:47:27Z</time>
      </trkpt>
      <trkpt lat="44.71861" lon="6.89812">
        <ele>2003.9</ele>
        <time>2021-12-19T10:47:31Z</time>
      </trkpt>
      <trkpt lat="44.71862" lon="6.89814">
        <ele>2004</ele>
        <time>2021-12-19T10:47:32Z</time>
      </trkpt>
      <trkpt lat="44.71862" lon="6.89817">
        <ele>2004</ele>
        <time>2021-12-19T10:47:41Z</time>
      </trkpt>
      <trkpt lat="44.71861" lon="6.89828">
        <ele>2005.1</ele>
        <time>2021-12-19T10:47:42Z</time>
      </trkpt>
      <trkpt lat="44.71861" lon="6.89831">
        <ele>2005.3</ele>
        <time>2021-12-19T10:47:44Z</time>
      </trkpt>
      <trkpt lat="44.7186" lon="6.89834">
        <ele>2005.5</ele>
        <time>2021-12-19T10:47:45Z</time>
      </trkpt>
      <trkpt lat="44.7186" lon="6.89835">
        <ele>2005.6</ele>
        <time>2021-12-19T10:47:46Z</time>
      </trkpt>
      <trkpt lat="44.71859" lon="6.89842">
        <ele>2006.2</ele>
        <time>2021-12-19T10:47:50Z</time>
      </trkpt>
      <trkpt lat="44.71859" lon="6.89845">
        <ele>2006.7</ele>
        <time>2021-12-19T10:47:51Z</time>
      </trkpt>
      <trkpt lat="44.71858" lon="6.89846">
        <ele>2006.7</ele>
        <time>2021-12-19T10:47:52Z</time>
      </trkpt>
      <trkpt lat="44.71858" lon="6.89848">
        <ele>2006.9</ele>
        <time>2021-12-19T10:47:53Z</time>
      </trkpt>
      <trkpt lat="44.71857" lon="6.8985">
        <ele>2007.2</ele>
        <time>2021-12-19T10:47:54Z</time>
      </trkpt>
      <trkpt lat="44.71857" lon="6.89852">
        <ele>2007.3</ele>
        <time>2021-12-19T10:47:55Z</time>
      </trkpt>
      <trkpt lat="44.71856" lon="6.89854">
        <ele>2007.4</ele>
        <time>2021-12-19T10:47:57Z</time>
      </trkpt>
      <trkpt lat="44.71856" lon="6.89856">
        <ele>2007.4</ele>
        <time>2021-12-19T10:47:58Z</time>
      </trkpt>
      <trkpt lat="44.71855" lon="6.89862">
        <ele>2007.4</ele>
        <time>2021-12-19T10:48:01Z</time>
      </trkpt>
      <trkpt lat="44.71854" lon="6.89863">
        <ele>2007.1</ele>
        <time>2021-12-19T10:48:02Z</time>
      </trkpt>
      <trkpt lat="44.71854" lon="6.89871">
        <ele>2007</ele>
        <time>2021-12-19T10:48:07Z</time>
      </trkpt>
      <trkpt lat="44.71853" lon="6.89872">
        <ele>2006.7</ele>
        <time>2021-12-19T10:48:08Z</time>
      </trkpt>
      <trkpt lat="44.71853" lon="6.89874">
        <ele>2006.5</ele>
        <time>2021-12-19T10:48:09Z</time>
      </trkpt>
      <trkpt lat="44.71853" lon="6.89878">
        <ele>2006.3</ele>
        <time>2021-12-19T10:48:11Z</time>
      </trkpt>
      <trkpt lat="44.71852" lon="6.89879">
        <ele>2006.2</ele>
        <time>2021-12-19T10:48:12Z</time>
      </trkpt>
      <trkpt lat="44.71852" lon="6.89887">
        <ele>2006.1</ele>
        <time>2021-12-19T10:48:16Z</time>
      </trkpt>
      <trkpt lat="44.71849" lon="6.89893">
        <ele>2005.6</ele>
        <time>2021-12-19T10:48:19Z</time>
      </trkpt>
      <trkpt lat="44.71849" lon="6.89897">
        <ele>2005.5</ele>
        <time>2021-12-19T10:48:21Z</time>
      </trkpt>
      <trkpt lat="44.71848" lon="6.89899">
        <ele>2005.3</ele>
        <time>2021-12-19T10:48:22Z</time>
      </trkpt>
      <trkpt lat="44.71848" lon="6.89902">
        <ele>2005.3</ele>
        <time>2021-12-19T10:48:24Z</time>
      </trkpt>
      <trkpt lat="44.71848" lon="6.89903">
        <ele>2005.3</ele>
        <time>2021-12-19T10:48:25Z</time>
      </trkpt>
      <trkpt lat="44.71848" lon="6.89907">
        <ele>2005.2</ele>
        <time>2021-12-19T10:48:27Z</time>
      </trkpt>
      <trkpt lat="44.71848" lon="6.89909">
        <ele>2005</ele>
        <time>2021-12-19T10:48:28Z</time>
      </trkpt>
      <trkpt lat="44.71847" lon="6.89911">
        <ele>2005</ele>
        <time>2021-12-19T10:48:40Z</time>
      </trkpt>
      <trkpt lat="44.71847" lon="6.89924">
        <ele>2005.3</ele>
        <time>2021-12-19T10:48:41Z</time>
      </trkpt>
      <trkpt lat="44.71847" lon="6.89926">
        <ele>2005.5</ele>
        <time>2021-12-19T10:48:42Z</time>
      </trkpt>
      <trkpt lat="44.71847" lon="6.89942">
        <ele>2005.9</ele>
        <time>2021-12-19T10:48:52Z</time>
      </trkpt>
      <trkpt lat="44.71846" lon="6.89946">
        <ele>2005.9</ele>
        <time>2021-12-19T10:49:00Z</time>
      </trkpt>
      <trkpt lat="44.7185" lon="6.8996">
        <ele>2006.1</ele>
        <time>2021-12-19T10:49:01Z</time>
      </trkpt>
      <trkpt lat="44.71851" lon="6.89962">
        <ele>2006.1</ele>
        <time>2021-12-19T10:49:02Z</time>
      </trkpt>
      <trkpt lat="44.71852" lon="6.89965">
        <ele>2006.2</ele>
        <time>2021-12-19T10:49:12Z</time>
      </trkpt>
      <trkpt lat="44.71857" lon="6.89976">
        <ele>2006</ele>
        <time>2021-12-19T10:49:13Z</time>
      </trkpt>
      <trkpt lat="44.71857" lon="6.89977">
        <ele>2006</ele>
        <time>2021-12-19T10:49:14Z</time>
      </trkpt>
      <trkpt lat="44.71859" lon="6.89981">
        <ele>2006</ele>
        <time>2021-12-19T10:49:16Z</time>
      </trkpt>
      <trkpt lat="44.7186" lon="6.89984">
        <ele>2006.3</ele>
        <time>2021-12-19T10:49:17Z</time>
      </trkpt>
      <trkpt lat="44.71862" lon="6.89987">
        <ele>2006.5</ele>
        <time>2021-12-19T10:49:18Z</time>
      </trkpt>
      <trkpt lat="44.71862" lon="6.8999">
        <ele>2006.7</ele>
        <time>2021-12-19T10:49:19Z</time>
      </trkpt>
      <trkpt lat="44.71864" lon="6.89992">
        <ele>2006.8</ele>
        <time>2021-12-19T10:49:20Z</time>
      </trkpt>
      <trkpt lat="44.71865" lon="6.89994">
        <ele>2007</ele>
        <time>2021-12-19T10:49:21Z</time>
      </trkpt>
      <trkpt lat="44.71865" lon="6.89997">
        <ele>2007.1</ele>
        <time>2021-12-19T10:49:22Z</time>
      </trkpt>
      <trkpt lat="44.71866" lon="6.90004">
        <ele>2008.6</ele>
        <time>2021-12-19T10:49:23Z</time>
      </trkpt>
      <trkpt lat="44.71868" lon="6.9001">
        <ele>2008.7</ele>
        <time>2021-12-19T10:49:25Z</time>
      </trkpt>
      <trkpt lat="44.7187" lon="6.90018">
        <ele>2008.5</ele>
        <time>2021-12-19T10:49:29Z</time>
      </trkpt>
      <trkpt lat="44.71871" lon="6.90025">
        <ele>2008.7</ele>
        <time>2021-12-19T10:49:33Z</time>
      </trkpt>
      <trkpt lat="44.71871" lon="6.90029">
        <ele>2008.5</ele>
        <time>2021-12-19T10:49:35Z</time>
      </trkpt>
      <trkpt lat="44.71871" lon="6.9003">
        <ele>2008.4</ele>
        <time>2021-12-19T10:49:36Z</time>
      </trkpt>
      <trkpt lat="44.71872" lon="6.90033">
        <ele>2008.4</ele>
        <time>2021-12-19T10:49:44Z</time>
      </trkpt>
      <trkpt lat="44.71875" lon="6.90046">
        <ele>2008.5</ele>
        <time>2021-12-19T10:49:45Z</time>
      </trkpt>
      <trkpt lat="44.71876" lon="6.90049">
        <ele>2008.7</ele>
        <time>2021-12-19T10:49:46Z</time>
      </trkpt>
      <trkpt lat="44.71877" lon="6.90051">
        <ele>2009</ele>
        <time>2021-12-19T10:49:47Z</time>
      </trkpt>
      <trkpt lat="44.71878" lon="6.90053">
        <ele>2009.2</ele>
        <time>2021-12-19T10:49:48Z</time>
      </trkpt>
      <trkpt lat="44.71879" lon="6.90058">
        <ele>2009.4</ele>
        <time>2021-12-19T10:49:50Z</time>
      </trkpt>
      <trkpt lat="44.71879" lon="6.9006">
        <ele>2009.4</ele>
        <time>2021-12-19T10:49:51Z</time>
      </trkpt>
      <trkpt lat="44.71881" lon="6.90068">
        <ele>2009.4</ele>
        <time>2021-12-19T10:49:54Z</time>
      </trkpt>
      <trkpt lat="44.71879" lon="6.90074">
        <ele>2009.6</ele>
        <time>2021-12-19T10:49:57Z</time>
      </trkpt>
      <trkpt lat="44.71879" lon="6.90075">
        <ele>2009.5</ele>
        <time>2021-12-19T10:49:58Z</time>
      </trkpt>
      <trkpt lat="44.71879" lon="6.90077">
        <ele>2009.5</ele>
        <time>2021-12-19T10:50:03Z</time>
      </trkpt>
      <trkpt lat="44.71881" lon="6.90084">
        <ele>2009.8</ele>
        <time>2021-12-19T10:50:04Z</time>
      </trkpt>
      <trkpt lat="44.71881" lon="6.90086">
        <ele>2009.8</ele>
        <time>2021-12-19T10:50:05Z</time>
      </trkpt>
      <trkpt lat="44.71882" lon="6.90088">
        <ele>2009.8</ele>
        <time>2021-12-19T10:50:06Z</time>
      </trkpt>
      <trkpt lat="44.71882" lon="6.9009">
        <ele>2009.9</ele>
        <time>2021-12-19T10:50:07Z</time>
      </trkpt>
      <trkpt lat="44.71883" lon="6.90092">
        <ele>2009.9</ele>
        <time>2021-12-19T10:50:08Z</time>
      </trkpt>
      <trkpt lat="44.71883" lon="6.90094">
        <ele>2009.9</ele>
        <time>2021-12-19T10:50:09Z</time>
      </trkpt>
      <trkpt lat="44.71885" lon="6.901">
        <ele>2010.3</ele>
        <time>2021-12-19T10:50:12Z</time>
      </trkpt>
      <trkpt lat="44.71883" lon="6.90105">
        <ele>2010.5</ele>
        <time>2021-12-19T10:50:15Z</time>
      </trkpt>
      <trkpt lat="44.71883" lon="6.90107">
        <ele>2010.5</ele>
        <time>2021-12-19T10:50:16Z</time>
      </trkpt>
      <trkpt lat="44.71883" lon="6.90109">
        <ele>2010.4</ele>
        <time>2021-12-19T10:50:23Z</time>
      </trkpt>
      <trkpt lat="44.71881" lon="6.90117">
        <ele>2010.4</ele>
        <time>2021-12-19T10:50:24Z</time>
      </trkpt>
      <trkpt lat="44.71881" lon="6.90119">
        <ele>2010.4</ele>
        <time>2021-12-19T10:50:25Z</time>
      </trkpt>
      <trkpt lat="44.71881" lon="6.9012">
        <ele>2010.2</ele>
        <time>2021-12-19T10:50:26Z</time>
      </trkpt>
      <trkpt lat="44.71881" lon="6.90136">
        <ele>2010.6</ele>
        <time>2021-12-19T10:50:37Z</time>
      </trkpt>
      <trkpt lat="44.71881" lon="6.9014">
        <ele>2010.6</ele>
        <time>2021-12-19T10:50:42Z</time>
      </trkpt>
      <trkpt lat="44.71881" lon="6.90145">
        <ele>2010.2</ele>
        <time>2021-12-19T10:50:43Z</time>
      </trkpt>
      <trkpt lat="44.7188" lon="6.90147">
        <ele>2010.3</ele>
        <time>2021-12-19T10:50:44Z</time>
      </trkpt>
      <trkpt lat="44.7188" lon="6.90149">
        <ele>2010.2</ele>
        <time>2021-12-19T10:50:45Z</time>
      </trkpt>
      <trkpt lat="44.71879" lon="6.9015">
        <ele>2010.5</ele>
        <time>2021-12-19T10:50:46Z</time>
      </trkpt>
      <trkpt lat="44.71879" lon="6.90152">
        <ele>2010.6</ele>
        <time>2021-12-19T10:50:47Z</time>
      </trkpt>
      <trkpt lat="44.71879" lon="6.90153">
        <ele>2010.8</ele>
        <time>2021-12-19T10:50:48Z</time>
      </trkpt>
      <trkpt lat="44.71879" lon="6.90155">
        <ele>2011</ele>
        <time>2021-12-19T10:50:49Z</time>
      </trkpt>
      <trkpt lat="44.71879" lon="6.90156">
        <ele>2011</ele>
        <time>2021-12-19T10:50:50Z</time>
      </trkpt>
      <trkpt lat="44.71879" lon="6.90159">
        <ele>2011.1</ele>
        <time>2021-12-19T10:51:01Z</time>
      </trkpt>
      <trkpt lat="44.71877" lon="6.90172">
        <ele>2011.5</ele>
        <time>2021-12-19T10:51:02Z</time>
      </trkpt>
      <trkpt lat="44.71877" lon="6.90172">
        <ele>2011.5</ele>
        <time>2021-12-19T10:51:03Z</time>
      </trkpt>
      <trkpt lat="44.71874" lon="6.90188">
        <ele>2012.2</ele>
        <time>2021-12-19T10:51:13Z</time>
      </trkpt>
      <trkpt lat="44.71873" lon="6.90193">
        <ele>2011.5</ele>
        <time>2021-12-19T10:51:23Z</time>
      </trkpt>
      <trkpt lat="44.71874" lon="6.90206">
        <ele>2011.4</ele>
        <time>2021-12-19T10:51:24Z</time>
      </trkpt>
      <trkpt lat="44.71874" lon="6.90207">
        <ele>2011.4</ele>
        <time>2021-12-19T10:51:25Z</time>
      </trkpt>
      <trkpt lat="44.71873" lon="6.90211">
        <ele>2011.3</ele>
        <time>2021-12-19T10:51:34Z</time>
      </trkpt>
      <trkpt lat="44.71874" lon="6.90224">
        <ele>2011.8</ele>
        <time>2021-12-19T10:51:35Z</time>
      </trkpt>
      <trkpt lat="44.71874" lon="6.90225">
        <ele>2011.9</ele>
        <time>2021-12-19T10:51:36Z</time>
      </trkpt>
      <trkpt lat="44.71876" lon="6.90241">
        <ele>2012.2</ele>
        <time>2021-12-19T10:51:48Z</time>
      </trkpt>
      <trkpt lat="44.71875" lon="6.90248">
        <ele>2011.9</ele>
        <time>2021-12-19T10:51:51Z</time>
      </trkpt>
      <trkpt lat="44.71875" lon="6.90261">
        <ele>2012.6</ele>
        <time>2021-12-19T10:52:06Z</time>
      </trkpt>
      <trkpt lat="44.71875" lon="6.90265">
        <ele>2012.9</ele>
        <time>2021-12-19T10:52:18Z</time>
      </trkpt>
      <trkpt lat="44.7188" lon="6.90277">
        <ele>2013.1</ele>
        <time>2021-12-19T10:52:19Z</time>
      </trkpt>
      <trkpt lat="44.7188" lon="6.90278">
        <ele>2013.1</ele>
        <time>2021-12-19T10:52:20Z</time>
      </trkpt>
      <trkpt lat="44.71882" lon="6.90295">
        <ele>2013.1</ele>
        <time>2021-12-19T10:52:31Z</time>
      </trkpt>
      <trkpt lat="44.71884" lon="6.90301">
        <ele>2013.6</ele>
        <time>2021-12-19T10:52:34Z</time>
      </trkpt>
      <trkpt lat="44.71885" lon="6.90303">
        <ele>2013.7</ele>
        <time>2021-12-19T10:52:35Z</time>
      </trkpt>
      <trkpt lat="44.71885" lon="6.90311">
        <ele>2014.3</ele>
        <time>2021-12-19T10:52:39Z</time>
      </trkpt>
      <trkpt lat="44.71884" lon="6.90314">
        <ele>2015</ele>
        <time>2021-12-19T10:52:41Z</time>
      </trkpt>
      <trkpt lat="44.71883" lon="6.90315">
        <ele>2014.9</ele>
        <time>2021-12-19T10:52:42Z</time>
      </trkpt>
      <trkpt lat="44.7188" lon="6.90321">
        <ele>2015.4</ele>
        <time>2021-12-19T10:52:48Z</time>
      </trkpt>
      <trkpt lat="44.71876" lon="6.90337">
        <ele>2016.5</ele>
        <time>2021-12-19T10:53:04Z</time>
      </trkpt>
      <trkpt lat="44.71877" lon="6.90339">
        <ele>2016.7</ele>
        <time>2021-12-19T10:53:34Z</time>
      </trkpt>
      <trkpt lat="44.71872" lon="6.9035">
        <ele>2017.2</ele>
        <time>2021-12-19T10:53:35Z</time>
      </trkpt>
      <trkpt lat="44.71871" lon="6.9035">
        <ele>2017.3</ele>
        <time>2021-12-19T10:53:36Z</time>
      </trkpt>
      <trkpt lat="44.71875" lon="6.90357">
        <ele>2016.9</ele>
        <time>2021-12-19T10:54:40Z</time>
      </trkpt>
      <trkpt lat="44.71877" lon="6.90359">
        <ele>2016.7</ele>
        <time>2021-12-19T10:54:41Z</time>
      </trkpt>
      <trkpt lat="44.71878" lon="6.90362">
        <ele>2016.8</ele>
        <time>2021-12-19T10:54:42Z</time>
      </trkpt>
      <trkpt lat="44.7188" lon="6.90363">
        <ele>2016.6</ele>
        <time>2021-12-19T10:54:43Z</time>
      </trkpt>
      <trkpt lat="44.71881" lon="6.90363">
        <ele>2016.5</ele>
        <time>2021-12-19T10:54:45Z</time>
      </trkpt>
      <trkpt lat="44.71883" lon="6.90364">
        <ele>2016.4</ele>
        <time>2021-12-19T10:54:46Z</time>
      </trkpt>
      <trkpt lat="44.71888" lon="6.90366">
        <ele>2016.2</ele>
        <time>2021-12-19T10:54:49Z</time>
      </trkpt>
      <trkpt lat="44.71889" lon="6.90367">
        <ele>2016.1</ele>
        <time>2021-12-19T10:54:50Z</time>
      </trkpt>
      <trkpt lat="44.7189" lon="6.90368">
        <ele>2015.8</ele>
        <time>2021-12-19T10:55:08Z</time>
      </trkpt>
      <trkpt lat="44.71897" lon="6.90377">
        <ele>2014.5</ele>
        <time>2021-12-19T10:55:09Z</time>
      </trkpt>
      <trkpt lat="44.71896" lon="6.90377">
        <ele>2014.6</ele>
        <time>2021-12-19T10:55:10Z</time>
      </trkpt>
      <trkpt lat="44.71897" lon="6.90378">
        <ele>2014.6</ele>
        <time>2021-12-19T10:55:27Z</time>
      </trkpt>
      <trkpt lat="44.71906" lon="6.90376">
        <ele>2015.1</ele>
        <time>2021-12-19T10:55:28Z</time>
      </trkpt>
      <trkpt lat="44.71906" lon="6.90376">
        <ele>2015.2</ele>
        <time>2021-12-19T10:55:29Z</time>
      </trkpt>
      <trkpt lat="44.71905" lon="6.90375">
        <ele>2015.2</ele>
        <time>2021-12-19T10:56:21Z</time>
      </trkpt>
      <trkpt lat="44.71907" lon="6.90388">
        <ele>2014.9</ele>
        <time>2021-12-19T10:56:22Z</time>
      </trkpt>
      <trkpt lat="44.71906" lon="6.90388">
        <ele>2014.8</ele>
        <time>2021-12-19T10:56:23Z</time>
      </trkpt>
      <trkpt lat="44.71906" lon="6.90389">
        <ele>2014.7</ele>
        <time>2021-12-19T10:56:38Z</time>
      </trkpt>
      <trkpt lat="44.719" lon="6.90401">
        <ele>2014.1</ele>
        <time>2021-12-19T10:56:39Z</time>
      </trkpt>
      <trkpt lat="44.719" lon="6.90402">
        <ele>2014</ele>
        <time>2021-12-19T10:56:40Z</time>
      </trkpt>
      <trkpt lat="44.719" lon="6.90404">
        <ele>2014</ele>
        <time>2021-12-19T10:56:50Z</time>
      </trkpt>
      <trkpt lat="44.71898" lon="6.90417">
        <ele>2013.6</ele>
        <time>2021-12-19T10:56:51Z</time>
      </trkpt>
      <trkpt lat="44.71898" lon="6.90418">
        <ele>2013.5</ele>
        <time>2021-12-19T10:56:52Z</time>
      </trkpt>
      <trkpt lat="44.71898" lon="6.9042">
        <ele>2013.3</ele>
        <time>2021-12-19T10:57:04Z</time>
      </trkpt>
      <trkpt lat="44.71896" lon="6.90433">
        <ele>2012.8</ele>
        <time>2021-12-19T10:57:05Z</time>
      </trkpt>
      <trkpt lat="44.71895" lon="6.90434">
        <ele>2012.7</ele>
        <time>2021-12-19T10:57:06Z</time>
      </trkpt>
      <trkpt lat="44.71895" lon="6.90437">
        <ele>2012.5</ele>
        <time>2021-12-19T10:57:33Z</time>
      </trkpt>
      <trkpt lat="44.71899" lon="6.90449">
        <ele>2012.4</ele>
        <time>2021-12-19T10:57:34Z</time>
      </trkpt>
      <trkpt lat="44.719" lon="6.90449">
        <ele>2012.4</ele>
        <time>2021-12-19T10:57:35Z</time>
      </trkpt>
      <trkpt lat="44.719" lon="6.9045">
        <ele>2012.4</ele>
        <time>2021-12-19T10:58:54Z</time>
      </trkpt>
      <trkpt lat="44.71907" lon="6.90442">
        <ele>2011.5</ele>
        <time>2021-12-19T10:58:55Z</time>
      </trkpt>
      <trkpt lat="44.71908" lon="6.90442">
        <ele>2011.5</ele>
        <time>2021-12-19T10:58:56Z</time>
      </trkpt>
      <trkpt lat="44.7191" lon="6.90427">
        <ele>2011.2</ele>
        <time>2021-12-19T10:59:26Z</time>
      </trkpt>
      <trkpt lat="44.71914" lon="6.90414">
        <ele>2012.8</ele>
        <time>2021-12-19T10:59:36Z</time>
      </trkpt>
      <trkpt lat="44.71919" lon="6.90411">
        <ele>2013.2</ele>
        <time>2021-12-19T10:59:38Z</time>
      </trkpt>
      <trkpt lat="44.71921" lon="6.90407">
        <ele>2013.4</ele>
        <time>2021-12-19T10:59:40Z</time>
      </trkpt>
      <trkpt lat="44.71921" lon="6.90405">
        <ele>2013.6</ele>
        <time>2021-12-19T10:59:41Z</time>
      </trkpt>
      <trkpt lat="44.71921" lon="6.90403">
        <ele>2013.6</ele>
        <time>2021-12-19T10:59:42Z</time>
      </trkpt>
      <trkpt lat="44.71921" lon="6.90402">
        <ele>2013.8</ele>
        <time>2021-12-19T11:00:02Z</time>
      </trkpt>
      <trkpt lat="44.71918" lon="6.90418">
        <ele>2012.2</ele>
        <time>2021-12-19T11:00:03Z</time>
      </trkpt>
      <trkpt lat="44.71918" lon="6.90419">
        <ele>2012.1</ele>
        <time>2021-12-19T11:00:04Z</time>
      </trkpt>
      <trkpt lat="44.71927" lon="6.90421">
        <ele>2009.5</ele>
        <time>2021-12-19T11:01:12Z</time>
      </trkpt>
      <trkpt lat="44.71936" lon="6.90435">
        <ele>2008.2</ele>
        <time>2021-12-19T11:01:21Z</time>
      </trkpt>
      <trkpt lat="44.71939" lon="6.90451">
        <ele>2005.1</ele>
        <time>2021-12-19T11:01:41Z</time>
      </trkpt>
      <trkpt lat="44.71937" lon="6.90453">
        <ele>2004.9</ele>
        <time>2021-12-19T11:02:03Z</time>
      </trkpt>
      <trkpt lat="44.71928" lon="6.90447">
        <ele>2003.8</ele>
        <time>2021-12-19T11:02:04Z</time>
      </trkpt>
      <trkpt lat="44.71927" lon="6.90447">
        <ele>2004</ele>
        <time>2021-12-19T11:02:05Z</time>
      </trkpt>
      <trkpt lat="44.71916" lon="6.90443">
        <ele>2006.4</ele>
        <time>2021-12-19T11:02:16Z</time>
      </trkpt>
      <trkpt lat="44.71913" lon="6.90438">
        <ele>2006.1</ele>
        <time>2021-12-19T11:02:19Z</time>
      </trkpt>
      <trkpt lat="44.71905" lon="6.9043">
        <ele>2005</ele>
        <time>2021-12-19T11:02:27Z</time>
      </trkpt>
      <trkpt lat="44.71914" lon="6.9043">
        <ele>2004</ele>
        <time>2021-12-19T11:02:46Z</time>
      </trkpt>
      <trkpt lat="44.71925" lon="6.90441">
        <ele>2003.8</ele>
        <time>2021-12-19T11:02:59Z</time>
      </trkpt>
      <trkpt lat="44.71917" lon="6.90431">
        <ele>2003</ele>
        <time>2021-12-19T11:03:34Z</time>
      </trkpt>
      <trkpt lat="44.71915" lon="6.90418">
        <ele>2004.6</ele>
        <time>2021-12-19T11:04:18Z</time>
      </trkpt>
      <trkpt lat="44.71909" lon="6.90424">
        <ele>2003.3</ele>
        <time>2021-12-19T11:06:34Z</time>
      </trkpt>
      <trkpt lat="44.71916" lon="6.90434">
        <ele>2005.7</ele>
        <time>2021-12-19T11:07:29Z</time>
      </trkpt>
      <trkpt lat="44.71916" lon="6.90428">
        <ele>2005.9</ele>
        <time>2021-12-19T11:08:40Z</time>
      </trkpt>
      <trkpt lat="44.71907" lon="6.90431">
        <ele>2005.6</ele>
        <time>2021-12-19T11:10:54Z</time>
      </trkpt>
      <trkpt lat="44.71905" lon="6.90417">
        <ele>2001.1</ele>
        <time>2021-12-19T11:12:36Z</time>
      </trkpt>
      <trkpt lat="44.71911" lon="6.90427">
        <ele>1999.4</ele>
        <time>2021-12-19T11:14:07Z</time>
      </trkpt>
      <trkpt lat="44.71912" lon="6.90412">
        <ele>2007.1</ele>
        <time>2021-12-19T11:16:29Z</time>
      </trkpt>
      <trkpt lat="44.71915" lon="6.90405">
        <ele>2006.9</ele>
        <time>2021-12-19T11:16:34Z</time>
      </trkpt>
      <trkpt lat="44.71913" lon="6.90405">
        <ele>2004.9</ele>
        <time>2021-12-19T11:16:35Z</time>
      </trkpt>
      <trkpt lat="44.71912" lon="6.90405">
        <ele>2003.3</ele>
        <time>2021-12-19T11:16:36Z</time>
      </trkpt>
      <trkpt lat="44.71913" lon="6.90409">
        <ele>2002.7</ele>
        <time>2021-12-19T11:16:37Z</time>
      </trkpt>
      <trkpt lat="44.71913" lon="6.90409">
        <ele>2002.4</ele>
        <time>2021-12-19T11:16:55Z</time>
      </trkpt>
      <trkpt lat="44.71916" lon="6.90396">
        <ele>1994.8</ele>
        <time>2021-12-19T11:16:56Z</time>
      </trkpt>
      <trkpt lat="44.71916" lon="6.90396">
        <ele>1994.6</ele>
        <time>2021-12-19T11:16:57Z</time>
      </trkpt>
      <trkpt lat="44.71916" lon="6.90408">
        <ele>1993.8</ele>
        <time>2021-12-19T11:17:51Z</time>
      </trkpt>
      <trkpt lat="44.71913" lon="6.90421">
        <ele>1993.8</ele>
        <time>2021-12-19T11:18:50Z</time>
      </trkpt>
      <trkpt lat="44.71911" lon="6.90415">
        <ele>1995.8</ele>
        <time>2021-12-19T11:21:05Z</time>
      </trkpt>
      <trkpt lat="44.7191" lon="6.90412">
        <ele>1995.2</ele>
        <time>2021-12-19T11:21:06Z</time>
      </trkpt>
      <trkpt lat="44.71911" lon="6.9041">
        <ele>1994.7</ele>
        <time>2021-12-19T11:21:07Z</time>
      </trkpt>
      <trkpt lat="44.71911" lon="6.90408">
        <ele>1994.2</ele>
        <time>2021-12-19T11:21:08Z</time>
      </trkpt>
      <trkpt lat="44.71913" lon="6.90419">
        <ele>1992.3</ele>
        <time>2021-12-19T11:23:48Z</time>
      </trkpt>
      <trkpt lat="44.71913" lon="6.90422">
        <ele>1992.5</ele>
        <time>2021-12-19T11:24:58Z</time>
      </trkpt>
      <trkpt lat="44.71922" lon="6.90424">
        <ele>1994.4</ele>
        <time>2021-12-19T11:24:59Z</time>
      </trkpt>
      <trkpt lat="44.71923" lon="6.90425">
        <ele>1994.4</ele>
        <time>2021-12-19T11:25:00Z</time>
      </trkpt>
      <trkpt lat="44.71923" lon="6.90425">
        <ele>1994.4</ele>
        <time>2021-12-19T11:26:06Z</time>
      </trkpt>
      <trkpt lat="44.71933" lon="6.90416">
        <ele>1992.4</ele>
        <time>2021-12-19T11:26:07Z</time>
      </trkpt>
      <trkpt lat="44.71941" lon="6.90426">
        <ele>1992.2</ele>
        <time>2021-12-19T11:26:08Z</time>
      </trkpt>
      <trkpt lat="44.7193" lon="6.90423">
        <ele>1992.4</ele>
        <time>2021-12-19T11:26:10Z</time>
      </trkpt>
      <trkpt lat="44.71923" lon="6.90422">
        <ele>1992.7</ele>
        <time>2021-12-19T11:26:12Z</time>
      </trkpt>
      <trkpt lat="44.7192" lon="6.90422">
        <ele>1993.1</ele>
        <time>2021-12-19T11:26:13Z</time>
      </trkpt>
      <trkpt lat="44.71921" lon="6.90424">
        <ele>1993.4</ele>
        <time>2021-12-19T11:26:14Z</time>
      </trkpt>
      <trkpt lat="44.71921" lon="6.90425">
        <ele>1993.2</ele>
        <time>2021-12-19T11:28:09Z</time>
      </trkpt>
      <trkpt lat="44.71915" lon="6.90435">
        <ele>1995.3</ele>
        <time>2021-12-19T11:28:10Z</time>
      </trkpt>
      <trkpt lat="44.71914" lon="6.90435">
        <ele>1995.4</ele>
        <time>2021-12-19T11:28:11Z</time>
      </trkpt>
      <trkpt lat="44.71906" lon="6.90443">
        <ele>1996.4</ele>
        <time>2021-12-19T11:28:32Z</time>
      </trkpt>
      <trkpt lat="44.71899" lon="6.9045">
        <ele>1996.7</ele>
        <time>2021-12-19T11:28:42Z</time>
      </trkpt>
      <trkpt lat="44.71898" lon="6.90451">
        <ele>1996.8</ele>
        <time>2021-12-19T11:28:43Z</time>
      </trkpt>
      <trkpt lat="44.71894" lon="6.90454">
        <ele>1997.1</ele>
        <time>2021-12-19T11:28:45Z</time>
      </trkpt>
      <trkpt lat="44.71894" lon="6.90456">
        <ele>1997.2</ele>
        <time>2021-12-19T11:28:46Z</time>
      </trkpt>
      <trkpt lat="44.71892" lon="6.90457">
        <ele>1997.6</ele>
        <time>2021-12-19T11:28:56Z</time>
      </trkpt>
      <trkpt lat="44.71884" lon="6.90458">
        <ele>1998.7</ele>
        <time>2021-12-19T11:28:57Z</time>
      </trkpt>
      <trkpt lat="44.71883" lon="6.90459">
        <ele>1998.9</ele>
        <time>2021-12-19T11:28:58Z</time>
      </trkpt>
      <trkpt lat="44.71882" lon="6.9046">
        <ele>1999.2</ele>
        <time>2021-12-19T11:28:59Z</time>
      </trkpt>
      <trkpt lat="44.7188" lon="6.90461">
        <ele>1999.5</ele>
        <time>2021-12-19T11:29:00Z</time>
      </trkpt>
      <trkpt lat="44.71879" lon="6.90461">
        <ele>1999.8</ele>
        <time>2021-12-19T11:29:01Z</time>
      </trkpt>
      <trkpt lat="44.71875" lon="6.90464">
        <ele>2000.6</ele>
        <time>2021-12-19T11:29:11Z</time>
      </trkpt>
      <trkpt lat="44.71868" lon="6.90462">
        <ele>2002.7</ele>
        <time>2021-12-19T11:29:12Z</time>
      </trkpt>
      <trkpt lat="44.71866" lon="6.90462">
        <ele>2003.1</ele>
        <time>2021-12-19T11:29:13Z</time>
      </trkpt>
      <trkpt lat="44.71865" lon="6.90462">
        <ele>2003.5</ele>
        <time>2021-12-19T11:29:14Z</time>
      </trkpt>
      <trkpt lat="44.71863" lon="6.9046">
        <ele>2004.1</ele>
        <time>2021-12-19T11:29:15Z</time>
      </trkpt>
      <trkpt lat="44.71862" lon="6.90459">
        <ele>2004.7</ele>
        <time>2021-12-19T11:29:16Z</time>
      </trkpt>
      <trkpt lat="44.71861" lon="6.90456">
        <ele>2005.2</ele>
        <time>2021-12-19T11:29:17Z</time>
      </trkpt>
      <trkpt lat="44.71856" lon="6.90452">
        <ele>2007.2</ele>
        <time>2021-12-19T11:29:20Z</time>
      </trkpt>
      <trkpt lat="44.71855" lon="6.9045">
        <ele>2007.6</ele>
        <time>2021-12-19T11:29:21Z</time>
      </trkpt>
      <trkpt lat="44.71854" lon="6.9045">
        <ele>2008.2</ele>
        <time>2021-12-19T11:29:22Z</time>
      </trkpt>
      <trkpt lat="44.7185" lon="6.90444">
        <ele>2011.5</ele>
        <time>2021-12-19T11:29:32Z</time>
      </trkpt>
      <trkpt lat="44.71848" lon="6.90444">
        <ele>2012.8</ele>
        <time>2021-12-19T11:29:33Z</time>
      </trkpt>
      <trkpt lat="44.71847" lon="6.90442">
        <ele>2013.5</ele>
        <time>2021-12-19T11:29:34Z</time>
      </trkpt>
      <trkpt lat="44.71847" lon="6.9044">
        <ele>2014</ele>
        <time>2021-12-19T11:29:35Z</time>
      </trkpt>
      <trkpt lat="44.71847" lon="6.90437">
        <ele>2014.2</ele>
        <time>2021-12-19T11:29:36Z</time>
      </trkpt>
      <trkpt lat="44.71847" lon="6.90435">
        <ele>2014.2</ele>
        <time>2021-12-19T11:29:37Z</time>
      </trkpt>
      <trkpt lat="44.7185" lon="6.90427">
        <ele>2014.5</ele>
        <time>2021-12-19T11:29:40Z</time>
      </trkpt>
      <trkpt lat="44.71854" lon="6.90421">
        <ele>2016.7</ele>
        <time>2021-12-19T11:29:43Z</time>
      </trkpt>
      <trkpt lat="44.71858" lon="6.90415">
        <ele>2018.9</ele>
        <time>2021-12-19T11:29:47Z</time>
      </trkpt>
      <trkpt lat="44.71862" lon="6.9041">
        <ele>2020.4</ele>
        <time>2021-12-19T11:29:50Z</time>
      </trkpt>
      <trkpt lat="44.71866" lon="6.90404">
        <ele>2021.8</ele>
        <time>2021-12-19T11:29:53Z</time>
      </trkpt>
      <trkpt lat="44.71869" lon="6.90397">
        <ele>2024.3</ele>
        <time>2021-12-19T11:29:57Z</time>
      </trkpt>
      <trkpt lat="44.71872" lon="6.90393">
        <ele>2026.1</ele>
        <time>2021-12-19T11:30:00Z</time>
      </trkpt>
      <trkpt lat="44.71874" lon="6.90392">
        <ele>2026.4</ele>
        <time>2021-12-19T11:30:01Z</time>
      </trkpt>
      <trkpt lat="44.71875" lon="6.90391">
        <ele>2026.6</ele>
        <time>2021-12-19T11:30:02Z</time>
      </trkpt>
      <trkpt lat="44.71877" lon="6.9039">
        <ele>2027.3</ele>
        <time>2021-12-19T11:30:10Z</time>
      </trkpt>
      <trkpt lat="44.71884" lon="6.90385">
        <ele>2029.9</ele>
        <time>2021-12-19T11:30:11Z</time>
      </trkpt>
      <trkpt lat="44.71884" lon="6.90383">
        <ele>2030</ele>
        <time>2021-12-19T11:30:12Z</time>
      </trkpt>
      <trkpt lat="44.71886" lon="6.90377">
        <ele>2031.4</ele>
        <time>2021-12-19T11:30:16Z</time>
      </trkpt>
      <trkpt lat="44.71879" lon="6.90369">
        <ele>2032.2</ele>
        <time>2021-12-19T11:31:29Z</time>
      </trkpt>
      <trkpt lat="44.71879" lon="6.90367">
        <ele>2032</ele>
        <time>2021-12-19T11:32:19Z</time>
      </trkpt>
      <trkpt lat="44.71886" lon="6.90378">
        <ele>2030.7</ele>
        <time>2021-12-19T11:32:20Z</time>
      </trkpt>
      <trkpt lat="44.71892" lon="6.90381">
        <ele>2030.7</ele>
        <time>2021-12-19T11:32:21Z</time>
      </trkpt>
      <trkpt lat="44.71901" lon="6.9039">
        <ele>2030.7</ele>
        <time>2021-12-19T11:32:22Z</time>
      </trkpt>
      <trkpt lat="44.71915" lon="6.90383">
        <ele>2030.6</ele>
        <time>2021-12-19T11:32:23Z</time>
      </trkpt>
      <trkpt lat="44.71926" lon="6.90379">
        <ele>2030.7</ele>
        <time>2021-12-19T11:32:24Z</time>
      </trkpt>
      <trkpt lat="44.71948" lon="6.90362">
        <ele>2030.6</ele>
        <time>2021-12-19T11:32:25Z</time>
      </trkpt>
      <trkpt lat="44.71976" lon="6.90339">
        <ele>2030.4</ele>
        <time>2021-12-19T11:32:26Z</time>
      </trkpt>
      <trkpt lat="44.72" lon="6.90324">
        <ele>2030.3</ele>
        <time>2021-12-19T11:32:27Z</time>
      </trkpt>
      <trkpt lat="44.72023" lon="6.90313">
        <ele>2030.3</ele>
        <time>2021-12-19T11:32:28Z</time>
      </trkpt>
      <trkpt lat="44.71985" lon="6.90355">
        <ele>2030.6</ele>
        <time>2021-12-19T11:32:29Z</time>
      </trkpt>
      <trkpt lat="44.71975" lon="6.90365">
        <ele>2030.7</ele>
        <time>2021-12-19T11:32:30Z</time>
      </trkpt>
      <trkpt lat="44.7198" lon="6.90359">
        <ele>2030.3</ele>
        <time>2021-12-19T11:32:34Z</time>
      </trkpt>
      <trkpt lat="44.71981" lon="6.90356">
        <ele>2030.2</ele>
        <time>2021-12-19T11:32:35Z</time>
      </trkpt>
      <trkpt lat="44.71973" lon="6.90354">
        <ele>2030.2</ele>
        <time>2021-12-19T11:32:36Z</time>
      </trkpt>
      <trkpt lat="44.71967" lon="6.90354">
        <ele>2030.3</ele>
        <time>2021-12-19T11:32:37Z</time>
      </trkpt>
      <trkpt lat="44.71961" lon="6.90354">
        <ele>2030.3</ele>
        <time>2021-12-19T11:32:38Z</time>
      </trkpt>
      <trkpt lat="44.71961" lon="6.90354">
        <ele>2030.3</ele>
        <time>2021-12-19T11:32:39Z</time>
      </trkpt>
      <trkpt lat="44.71933" lon="6.90359">
        <ele>2030.4</ele>
        <time>2021-12-19T11:32:40Z</time>
      </trkpt>
      <trkpt lat="44.71928" lon="6.90357">
        <ele>2030.4</ele>
        <time>2021-12-19T11:32:41Z</time>
      </trkpt>
      <trkpt lat="44.71923" lon="6.90355">
        <ele>2030.4</ele>
        <time>2021-12-19T11:32:42Z</time>
      </trkpt>
      <trkpt lat="44.71915" lon="6.90351">
        <ele>2030.5</ele>
        <time>2021-12-19T11:32:44Z</time>
      </trkpt>
      <trkpt lat="44.71908" lon="6.90349">
        <ele>2030.6</ele>
        <time>2021-12-19T11:32:46Z</time>
      </trkpt>
      <trkpt lat="44.71901" lon="6.90348">
        <ele>2030.7</ele>
        <time>2021-12-19T11:32:48Z</time>
      </trkpt>
      <trkpt lat="44.71896" lon="6.9035">
        <ele>2030.9</ele>
        <time>2021-12-19T11:32:51Z</time>
      </trkpt>
      <trkpt lat="44.71905" lon="6.90347">
        <ele>2030.9</ele>
        <time>2021-12-19T11:32:54Z</time>
      </trkpt>
      <trkpt lat="44.7191" lon="6.90345">
        <ele>2031</ele>
        <time>2021-12-19T11:32:55Z</time>
      </trkpt>
      <trkpt lat="44.71915" lon="6.90336">
        <ele>2031.1</ele>
        <time>2021-12-19T11:32:59Z</time>
      </trkpt>
      <trkpt lat="44.71918" lon="6.90326">
        <ele>2031.1</ele>
        <time>2021-12-19T11:33:00Z</time>
      </trkpt>
      <trkpt lat="44.71909" lon="6.90333">
        <ele>2031.5</ele>
        <time>2021-12-19T11:33:04Z</time>
      </trkpt>
      <trkpt lat="44.71904" lon="6.90336">
        <ele>2031.9</ele>
        <time>2021-12-19T11:33:07Z</time>
      </trkpt>
      <trkpt lat="44.71903" lon="6.90338">
        <ele>2032</ele>
        <time>2021-12-19T11:33:08Z</time>
      </trkpt>
      <trkpt lat="44.71902" lon="6.90333">
        <ele>2032.1</ele>
        <time>2021-12-19T11:33:09Z</time>
      </trkpt>
      <trkpt lat="44.71901" lon="6.90334">
        <ele>2032.2</ele>
        <time>2021-12-19T11:33:13Z</time>
      </trkpt>
      <trkpt lat="44.71896" lon="6.90341">
        <ele>2032.6</ele>
        <time>2021-12-19T11:33:14Z</time>
      </trkpt>
      <trkpt lat="44.71892" lon="6.90345">
        <ele>2032.8</ele>
        <time>2021-12-19T11:33:15Z</time>
      </trkpt>
      <trkpt lat="44.71893" lon="6.90348">
        <ele>2033.1</ele>
        <time>2021-12-19T11:33:33Z</time>
      </trkpt>
      <trkpt lat="44.71894" lon="6.90359">
        <ele>2032.3</ele>
        <time>2021-12-19T11:33:34Z</time>
      </trkpt>
      <trkpt lat="44.71894" lon="6.90361">
        <ele>2032.2</ele>
        <time>2021-12-19T11:33:35Z</time>
      </trkpt>
      <trkpt lat="44.71894" lon="6.90363">
        <ele>2032</ele>
        <time>2021-12-19T11:33:36Z</time>
      </trkpt>
      <trkpt lat="44.71893" lon="6.90366">
        <ele>2031.8</ele>
        <time>2021-12-19T11:35:08Z</time>
      </trkpt>
      <trkpt lat="44.71885" lon="6.90372">
        <ele>2033.2</ele>
        <time>2021-12-19T11:35:09Z</time>
      </trkpt>
      <trkpt lat="44.71885" lon="6.90372">
        <ele>2033.3</ele>
        <time>2021-12-19T11:35:10Z</time>
      </trkpt>
      <trkpt lat="44.71885" lon="6.9037">
        <ele>2033.1</ele>
        <time>2021-12-19T11:36:03Z</time>
      </trkpt>
      <trkpt lat="44.71885" lon="6.90358">
        <ele>2033.2</ele>
        <time>2021-12-19T11:36:04Z</time>
      </trkpt>
      <trkpt lat="44.71885" lon="6.90358">
        <ele>2033.1</ele>
        <time>2021-12-19T11:36:05Z</time>
      </trkpt>
      <trkpt lat="44.71885" lon="6.90357">
        <ele>2033.1</ele>
        <time>2021-12-19T11:38:07Z</time>
      </trkpt>
      <trkpt lat="44.71876" lon="6.9036">
        <ele>2029.2</ele>
        <time>2021-12-19T11:38:08Z</time>
      </trkpt>
      <trkpt lat="44.71875" lon="6.90361">
        <ele>2029.1</ele>
        <time>2021-12-19T11:38:09Z</time>
      </trkpt>
      <trkpt lat="44.71874" lon="6.90362">
        <ele>2029</ele>
        <time>2021-12-19T11:38:25Z</time>
      </trkpt>
      <trkpt lat="44.71865" lon="6.90365">
        <ele>2026.5</ele>
        <time>2021-12-19T11:38:26Z</time>
      </trkpt>
      <trkpt lat="44.71865" lon="6.90365">
        <ele>2026.5</ele>
        <time>2021-12-19T11:38:27Z</time>
      </trkpt>
      <trkpt lat="44.71864" lon="6.90366">
        <ele>2026.5</ele>
        <time>2021-12-19T11:38:37Z</time>
      </trkpt>
      <trkpt lat="44.71857" lon="6.90373">
        <ele>2026.5</ele>
        <time>2021-12-19T11:38:38Z</time>
      </trkpt>
      <trkpt lat="44.71856" lon="6.90374">
        <ele>2026.6</ele>
        <time>2021-12-19T11:38:39Z</time>
      </trkpt>
      <trkpt lat="44.71855" lon="6.90376">
        <ele>2026.8</ele>
        <time>2021-12-19T11:38:45Z</time>
      </trkpt>
      <trkpt lat="44.7185" lon="6.90384">
        <ele>2026.7</ele>
        <time>2021-12-19T11:38:46Z</time>
      </trkpt>
      <trkpt lat="44.71849" lon="6.90385">
        <ele>2026.7</ele>
        <time>2021-12-19T11:38:47Z</time>
      </trkpt>
      <trkpt lat="44.71848" lon="6.90386">
        <ele>2026.5</ele>
        <time>2021-12-19T11:38:48Z</time>
      </trkpt>
      <trkpt lat="44.71846" lon="6.90387">
        <ele>2026.6</ele>
        <time>2021-12-19T11:38:49Z</time>
      </trkpt>
      <trkpt lat="44.71845" lon="6.90388">
        <ele>2026.8</ele>
        <time>2021-12-19T11:39:05Z</time>
      </trkpt>
      <trkpt lat="44.71837" lon="6.90393">
        <ele>2026.2</ele>
        <time>2021-12-19T11:39:06Z</time>
      </trkpt>
      <trkpt lat="44.71836" lon="6.90393">
        <ele>2026</ele>
        <time>2021-12-19T11:39:07Z</time>
      </trkpt>
      <trkpt lat="44.71834" lon="6.90394">
        <ele>2025.7</ele>
        <time>2021-12-19T11:39:16Z</time>
      </trkpt>
      <trkpt lat="44.71828" lon="6.90403">
        <ele>2025.1</ele>
        <time>2021-12-19T11:39:17Z</time>
      </trkpt>
      <trkpt lat="44.71827" lon="6.90404">
        <ele>2024.9</ele>
        <time>2021-12-19T11:39:18Z</time>
      </trkpt>
      <trkpt lat="44.71819" lon="6.90417">
        <ele>2024.7</ele>
        <time>2021-12-19T11:39:29Z</time>
      </trkpt>
      <trkpt lat="44.71812" lon="6.9043">
        <ele>2024.6</ele>
        <time>2021-12-19T11:39:42Z</time>
      </trkpt>
      <trkpt lat="44.71804" lon="6.90442">
        <ele>2024.2</ele>
        <time>2021-12-19T11:39:54Z</time>
      </trkpt>
      <trkpt lat="44.71801" lon="6.90445">
        <ele>2023.8</ele>
        <time>2021-12-19T11:40:06Z</time>
      </trkpt>
      <trkpt lat="44.71793" lon="6.90454">
        <ele>2023.2</ele>
        <time>2021-12-19T11:40:07Z</time>
      </trkpt>
      <trkpt lat="44.71792" lon="6.90454">
        <ele>2023.1</ele>
        <time>2021-12-19T11:40:08Z</time>
      </trkpt>
      <trkpt lat="44.71782" lon="6.90466">
        <ele>2022.5</ele>
        <time>2021-12-19T11:40:19Z</time>
      </trkpt>
      <trkpt lat="44.71778" lon="6.9047">
        <ele>2022.6</ele>
        <time>2021-12-19T11:40:22Z</time>
      </trkpt>
      <trkpt lat="44.71771" lon="6.90479">
        <ele>2022.3</ele>
        <time>2021-12-19T11:40:30Z</time>
      </trkpt>
      <trkpt lat="44.71766" lon="6.90483">
        <ele>2022.9</ele>
        <time>2021-12-19T11:40:31Z</time>
      </trkpt>
      <trkpt lat="44.71765" lon="6.90485">
        <ele>2023.1</ele>
        <time>2021-12-19T11:40:32Z</time>
      </trkpt>
      <trkpt lat="44.71762" lon="6.90485">
        <ele>2023.6</ele>
        <time>2021-12-19T11:40:33Z</time>
      </trkpt>
      <trkpt lat="44.71758" lon="6.90489">
        <ele>2023.9</ele>
        <time>2021-12-19T11:40:35Z</time>
      </trkpt>
      <trkpt lat="44.71757" lon="6.90491">
        <ele>2023.9</ele>
        <time>2021-12-19T11:40:36Z</time>
      </trkpt>
      <trkpt lat="44.71756" lon="6.90493">
        <ele>2024</ele>
        <time>2021-12-19T11:40:37Z</time>
      </trkpt>
      <trkpt lat="44.71754" lon="6.90494">
        <ele>2023.9</ele>
        <time>2021-12-19T11:40:38Z</time>
      </trkpt>
      <trkpt lat="44.71749" lon="6.905">
        <ele>2023.7</ele>
        <time>2021-12-19T11:40:41Z</time>
      </trkpt>
      <trkpt lat="44.71746" lon="6.90506">
        <ele>2023.5</ele>
        <time>2021-12-19T11:40:43Z</time>
      </trkpt>
      <trkpt lat="44.71742" lon="6.90511">
        <ele>2024.1</ele>
        <time>2021-12-19T11:40:46Z</time>
      </trkpt>
      <trkpt lat="44.71737" lon="6.90515">
        <ele>2024.7</ele>
        <time>2021-12-19T11:40:49Z</time>
      </trkpt>
      <trkpt lat="44.71735" lon="6.90523">
        <ele>2025.1</ele>
        <time>2021-12-19T11:40:52Z</time>
      </trkpt>
      <trkpt lat="44.71733" lon="6.9053">
        <ele>2024.9</ele>
        <time>2021-12-19T11:40:55Z</time>
      </trkpt>
      <trkpt lat="44.71732" lon="6.90537">
        <ele>2024.6</ele>
        <time>2021-12-19T11:40:58Z</time>
      </trkpt>
      <trkpt lat="44.71731" lon="6.90545">
        <ele>2024.8</ele>
        <time>2021-12-19T11:41:01Z</time>
      </trkpt>
      <trkpt lat="44.71729" lon="6.90552">
        <ele>2024.3</ele>
        <time>2021-12-19T11:41:04Z</time>
      </trkpt>
      <trkpt lat="44.71727" lon="6.90561">
        <ele>2024.2</ele>
        <time>2021-12-19T11:41:07Z</time>
      </trkpt>
      <trkpt lat="44.71725" lon="6.90568">
        <ele>2023.7</ele>
        <time>2021-12-19T11:41:09Z</time>
      </trkpt>
      <trkpt lat="44.71723" lon="6.90575">
        <ele>2023.7</ele>
        <time>2021-12-19T11:41:12Z</time>
      </trkpt>
      <trkpt lat="44.71722" lon="6.90577">
        <ele>2023.6</ele>
        <time>2021-12-19T11:41:13Z</time>
      </trkpt>
      <trkpt lat="44.71722" lon="6.90578">
        <ele>2023.4</ele>
        <time>2021-12-19T11:41:14Z</time>
      </trkpt>
      <trkpt lat="44.71721" lon="6.9058">
        <ele>2023.3</ele>
        <time>2021-12-19T11:41:29Z</time>
      </trkpt>
      <trkpt lat="44.71717" lon="6.90592">
        <ele>2022.7</ele>
        <time>2021-12-19T11:41:30Z</time>
      </trkpt>
      <trkpt lat="44.71717" lon="6.90593">
        <ele>2022.6</ele>
        <time>2021-12-19T11:41:31Z</time>
      </trkpt>
      <trkpt lat="44.71717" lon="6.90595">
        <ele>2022.6</ele>
        <time>2021-12-19T11:42:21Z</time>
      </trkpt>
      <trkpt lat="44.7171" lon="6.90604">
        <ele>2023.2</ele>
        <time>2021-12-19T11:42:22Z</time>
      </trkpt>
      <trkpt lat="44.7171" lon="6.90604">
        <ele>2023.2</ele>
        <time>2021-12-19T11:42:23Z</time>
      </trkpt>
      <trkpt lat="44.7171" lon="6.90604">
        <ele>2023.2</ele>
        <time>2021-12-19T11:43:39Z</time>
      </trkpt>
      <trkpt lat="44.7171" lon="6.90606">
        <ele>2022.1</ele>
        <time>2021-12-19T11:43:40Z</time>
      </trkpt>
      <trkpt lat="44.71715" lon="6.90601">
        <ele>2022.1</ele>
        <time>2021-12-19T11:43:42Z</time>
      </trkpt>
      <trkpt lat="44.71719" lon="6.90595">
        <ele>2022.3</ele>
        <time>2021-12-19T11:43:44Z</time>
      </trkpt>
      <trkpt lat="44.71722" lon="6.90587">
        <ele>2022.9</ele>
        <time>2021-12-19T11:43:46Z</time>
      </trkpt>
      <trkpt lat="44.71725" lon="6.90581">
        <ele>2023.6</ele>
        <time>2021-12-19T11:43:48Z</time>
      </trkpt>
      <trkpt lat="44.71726" lon="6.90574">
        <ele>2025.8</ele>
        <time>2021-12-19T11:43:52Z</time>
      </trkpt>
      <trkpt lat="44.71728" lon="6.90567">
        <ele>2028.9</ele>
        <time>2021-12-19T11:43:57Z</time>
      </trkpt>
      <trkpt lat="44.7173" lon="6.9056">
        <ele>2030.8</ele>
        <time>2021-12-19T11:44:00Z</time>
      </trkpt>
      <trkpt lat="44.71731" lon="6.90553">
        <ele>2032.2</ele>
        <time>2021-12-19T11:44:03Z</time>
      </trkpt>
      <trkpt lat="44.71734" lon="6.90546">
        <ele>2033.4</ele>
        <time>2021-12-19T11:44:06Z</time>
      </trkpt>
      <trkpt lat="44.71736" lon="6.90539">
        <ele>2035.4</ele>
        <time>2021-12-19T11:44:09Z</time>
      </trkpt>
      <trkpt lat="44.71738" lon="6.90534">
        <ele>2036.9</ele>
        <time>2021-12-19T11:44:12Z</time>
      </trkpt>
      <trkpt lat="44.71741" lon="6.90527">
        <ele>2038.3</ele>
        <time>2021-12-19T11:44:15Z</time>
      </trkpt>
      <trkpt lat="44.71743" lon="6.90521">
        <ele>2039.7</ele>
        <time>2021-12-19T11:44:18Z</time>
      </trkpt>
      <trkpt lat="44.71745" lon="6.90514">
        <ele>2040.7</ele>
        <time>2021-12-19T11:44:21Z</time>
      </trkpt>
      <trkpt lat="44.71748" lon="6.90507">
        <ele>2041.8</ele>
        <time>2021-12-19T11:44:24Z</time>
      </trkpt>
      <trkpt lat="44.71754" lon="6.90501">
        <ele>2042.6</ele>
        <time>2021-12-19T11:44:27Z</time>
      </trkpt>
      <trkpt lat="44.71757" lon="6.90495">
        <ele>2043.1</ele>
        <time>2021-12-19T11:44:30Z</time>
      </trkpt>
      <trkpt lat="44.71763" lon="6.90492">
        <ele>2043.1</ele>
        <time>2021-12-19T11:44:33Z</time>
      </trkpt>
      <trkpt lat="44.71767" lon="6.90492">
        <ele>2043.2</ele>
        <time>2021-12-19T11:44:35Z</time>
      </trkpt>
      <trkpt lat="44.71773" lon="6.90488">
        <ele>2043.2</ele>
        <time>2021-12-19T11:44:38Z</time>
      </trkpt>
      <trkpt lat="44.71778" lon="6.90482">
        <ele>2043.2</ele>
        <time>2021-12-19T11:44:41Z</time>
      </trkpt>
      <trkpt lat="44.71783" lon="6.90477">
        <ele>2042.5</ele>
        <time>2021-12-19T11:44:43Z</time>
      </trkpt>
      <trkpt lat="44.71788" lon="6.90472">
        <ele>2041.9</ele>
        <time>2021-12-19T11:44:45Z</time>
      </trkpt>
      <trkpt lat="44.71791" lon="6.90467">
        <ele>2041.7</ele>
        <time>2021-12-19T11:44:47Z</time>
      </trkpt>
      <trkpt lat="44.71796" lon="6.90461">
        <ele>2041.3</ele>
        <time>2021-12-19T11:44:50Z</time>
      </trkpt>
      <trkpt lat="44.71799" lon="6.90456">
        <ele>2039.3</ele>
        <time>2021-12-19T11:44:52Z</time>
      </trkpt>
      <trkpt lat="44.71804" lon="6.90453">
        <ele>2037.9</ele>
        <time>2021-12-19T11:44:54Z</time>
      </trkpt>
      <trkpt lat="44.71809" lon="6.9045">
        <ele>2036.8</ele>
        <time>2021-12-19T11:44:56Z</time>
      </trkpt>
      <trkpt lat="44.71813" lon="6.90444">
        <ele>2036.1</ele>
        <time>2021-12-19T11:44:58Z</time>
      </trkpt>
      <trkpt lat="44.71817" lon="6.90438">
        <ele>2035.7</ele>
        <time>2021-12-19T11:45:00Z</time>
      </trkpt>
      <trkpt lat="44.71822" lon="6.90431">
        <ele>2035.4</ele>
        <time>2021-12-19T11:45:02Z</time>
      </trkpt>
      <trkpt lat="44.71828" lon="6.90424">
        <ele>2035.1</ele>
        <time>2021-12-19T11:45:04Z</time>
      </trkpt>
      <trkpt lat="44.71834" lon="6.90417">
        <ele>2034.4</ele>
        <time>2021-12-19T11:45:06Z</time>
      </trkpt>
      <trkpt lat="44.7184" lon="6.90411">
        <ele>2033</ele>
        <time>2021-12-19T11:45:08Z</time>
      </trkpt>
      <trkpt lat="44.71844" lon="6.90407">
        <ele>2032.6</ele>
        <time>2021-12-19T11:45:09Z</time>
      </trkpt>
      <trkpt lat="44.7185" lon="6.90402">
        <ele>2030.7</ele>
        <time>2021-12-19T11:45:11Z</time>
      </trkpt>
      <trkpt lat="44.71856" lon="6.90399">
        <ele>2030</ele>
        <time>2021-12-19T11:45:13Z</time>
      </trkpt>
      <trkpt lat="44.71861" lon="6.90395">
        <ele>2029.7</ele>
        <time>2021-12-19T11:45:15Z</time>
      </trkpt>
      <trkpt lat="44.71865" lon="6.90391">
        <ele>2029.5</ele>
        <time>2021-12-19T11:45:17Z</time>
      </trkpt>
      <trkpt lat="44.71868" lon="6.90385">
        <ele>2029</ele>
        <time>2021-12-19T11:45:20Z</time>
      </trkpt>
      <trkpt lat="44.71869" lon="6.90384">
        <ele>2028.8</ele>
        <time>2021-12-19T11:45:21Z</time>
      </trkpt>
      <trkpt lat="44.7187" lon="6.90383">
        <ele>2029</ele>
        <time>2021-12-19T11:45:22Z</time>
      </trkpt>
      <trkpt lat="44.71871" lon="6.90382">
        <ele>2028.8</ele>
        <time>2021-12-19T11:45:42Z</time>
      </trkpt>
      <trkpt lat="44.71879" lon="6.90377">
        <ele>2028.1</ele>
        <time>2021-12-19T11:45:43Z</time>
      </trkpt>
      <trkpt lat="44.7188" lon="6.90377">
        <ele>2027.9</ele>
        <time>2021-12-19T11:45:44Z</time>
      </trkpt>
      <trkpt lat="44.71882" lon="6.90377">
        <ele>2027.8</ele>
        <time>2021-12-19T11:45:47Z</time>
      </trkpt>
      <trkpt lat="44.71884" lon="6.90379">
        <ele>2027.5</ele>
        <time>2021-12-19T11:45:48Z</time>
      </trkpt>
      <trkpt lat="44.71884" lon="6.90385">
        <ele>2027</ele>
        <time>2021-12-19T11:45:55Z</time>
      </trkpt>
      <trkpt lat="44.7188" lon="6.90391">
        <ele>2026.7</ele>
        <time>2021-12-19T11:45:59Z</time>
      </trkpt>
      <trkpt lat="44.71877" lon="6.90396">
        <ele>2026.4</ele>
        <time>2021-12-19T11:46:02Z</time>
      </trkpt>
      <trkpt lat="44.71873" lon="6.904">
        <ele>2026.2</ele>
        <time>2021-12-19T11:46:05Z</time>
      </trkpt>
      <trkpt lat="44.7187" lon="6.90406">
        <ele>2025.9</ele>
        <time>2021-12-19T11:46:09Z</time>
      </trkpt>
      <trkpt lat="44.71867" lon="6.9041">
        <ele>2024.9</ele>
        <time>2021-12-19T11:46:14Z</time>
      </trkpt>
      <trkpt lat="44.71866" lon="6.90411">
        <ele>2024.7</ele>
        <time>2021-12-19T11:46:15Z</time>
      </trkpt>
      <trkpt lat="44.71865" lon="6.90413">
        <ele>2024.4</ele>
        <time>2021-12-19T11:46:17Z</time>
      </trkpt>
      <trkpt lat="44.71865" lon="6.90413">
        <ele>2023.8</ele>
        <time>2021-12-19T11:46:18Z</time>
      </trkpt>
      <trkpt lat="44.7186" lon="6.90416">
        <ele>2023.2</ele>
        <time>2021-12-19T11:46:22Z</time>
      </trkpt>
      <trkpt lat="44.71856" lon="6.90418">
        <ele>2022.9</ele>
        <time>2021-12-19T11:46:25Z</time>
      </trkpt>
      <trkpt lat="44.71852" lon="6.90421">
        <ele>2022.1</ele>
        <time>2021-12-19T11:46:28Z</time>
      </trkpt>
      <trkpt lat="44.71846" lon="6.90424">
        <ele>2021.5</ele>
        <time>2021-12-19T11:46:31Z</time>
      </trkpt>
      <trkpt lat="44.71841" lon="6.90428">
        <ele>2021.1</ele>
        <time>2021-12-19T11:46:34Z</time>
      </trkpt>
      <trkpt lat="44.71836" lon="6.90432">
        <ele>2020.2</ele>
        <time>2021-12-19T11:46:37Z</time>
      </trkpt>
      <trkpt lat="44.71831" lon="6.90433">
        <ele>2019.1</ele>
        <time>2021-12-19T11:46:40Z</time>
      </trkpt>
      <trkpt lat="44.71826" lon="6.90436">
        <ele>2017</ele>
        <time>2021-12-19T11:46:44Z</time>
      </trkpt>
      <trkpt lat="44.71826" lon="6.90436">
        <ele>2016.8</ele>
        <time>2021-12-19T11:46:45Z</time>
      </trkpt>
      <trkpt lat="44.71825" lon="6.90437">
        <ele>2016.5</ele>
        <time>2021-12-19T11:46:52Z</time>
      </trkpt>
      <trkpt lat="44.7182" lon="6.90441">
        <ele>2015.6</ele>
        <time>2021-12-19T11:46:53Z</time>
      </trkpt>
      <trkpt lat="44.71818" lon="6.90443">
        <ele>2015.4</ele>
        <time>2021-12-19T11:46:55Z</time>
      </trkpt>
      <trkpt lat="44.71818" lon="6.90443">
        <ele>2015.2</ele>
        <time>2021-12-19T11:46:56Z</time>
      </trkpt>
      <trkpt lat="44.71816" lon="6.90445">
        <ele>2015</ele>
        <time>2021-12-19T11:47:09Z</time>
      </trkpt>
      <trkpt lat="44.71809" lon="6.90453">
        <ele>2012.8</ele>
        <time>2021-12-19T11:47:10Z</time>
      </trkpt>
      <trkpt lat="44.71808" lon="6.90454">
        <ele>2012.7</ele>
        <time>2021-12-19T11:47:11Z</time>
      </trkpt>
      <trkpt lat="44.71807" lon="6.90458">
        <ele>2012.4</ele>
        <time>2021-12-19T11:47:16Z</time>
      </trkpt>
      <trkpt lat="44.71803" lon="6.90469">
        <ele>2012.1</ele>
        <time>2021-12-19T11:47:17Z</time>
      </trkpt>
      <trkpt lat="44.71802" lon="6.90471">
        <ele>2011.9</ele>
        <time>2021-12-19T11:47:18Z</time>
      </trkpt>
      <trkpt lat="44.71802" lon="6.90473">
        <ele>2011.9</ele>
        <time>2021-12-19T11:47:19Z</time>
      </trkpt>
      <trkpt lat="44.718" lon="6.90476">
        <ele>2012.2</ele>
        <time>2021-12-19T11:47:20Z</time>
      </trkpt>
      <trkpt lat="44.71799" lon="6.90478">
        <ele>2011.8</ele>
        <time>2021-12-19T11:47:21Z</time>
      </trkpt>
      <trkpt lat="44.71798" lon="6.9048">
        <ele>2011.6</ele>
        <time>2021-12-19T11:47:29Z</time>
      </trkpt>
      <trkpt lat="44.71793" lon="6.90487">
        <ele>2010.3</ele>
        <time>2021-12-19T11:47:30Z</time>
      </trkpt>
      <trkpt lat="44.71791" lon="6.90488">
        <ele>2010</ele>
        <time>2021-12-19T11:47:31Z</time>
      </trkpt>
      <trkpt lat="44.71791" lon="6.90489">
        <ele>2009.9</ele>
        <time>2021-12-19T11:47:32Z</time>
      </trkpt>
      <trkpt lat="44.7179" lon="6.90491">
        <ele>2009.6</ele>
        <time>2021-12-19T11:47:36Z</time>
      </trkpt>
      <trkpt lat="44.71787" lon="6.90494">
        <ele>2009</ele>
        <time>2021-12-19T11:47:37Z</time>
      </trkpt>
      <trkpt lat="44.71786" lon="6.90495">
        <ele>2009</ele>
        <time>2021-12-19T11:47:38Z</time>
      </trkpt>
      <trkpt lat="44.71785" lon="6.90497">
        <ele>2008.9</ele>
        <time>2021-12-19T11:47:39Z</time>
      </trkpt>
      <trkpt lat="44.71783" lon="6.905">
        <ele>2009.6</ele>
        <time>2021-12-19T11:47:40Z</time>
      </trkpt>
      <trkpt lat="44.71782" lon="6.90504">
        <ele>2009.8</ele>
        <time>2021-12-19T11:47:41Z</time>
      </trkpt>
      <trkpt lat="44.71781" lon="6.90505">
        <ele>2009.6</ele>
        <time>2021-12-19T11:47:42Z</time>
      </trkpt>
      <trkpt lat="44.7178" lon="6.90507">
        <ele>2009.6</ele>
        <time>2021-12-19T11:47:43Z</time>
      </trkpt>
      <trkpt lat="44.71779" lon="6.9051">
        <ele>2009.7</ele>
        <time>2021-12-19T11:47:44Z</time>
      </trkpt>
      <trkpt lat="44.71776" lon="6.90517">
        <ele>2009.8</ele>
        <time>2021-12-19T11:47:47Z</time>
      </trkpt>
      <trkpt lat="44.71775" lon="6.90518">
        <ele>2009.7</ele>
        <time>2021-12-19T11:47:48Z</time>
      </trkpt>
      <trkpt lat="44.71767" lon="6.9053">
        <ele>2008.3</ele>
        <time>2021-12-19T11:48:01Z</time>
      </trkpt>
      <trkpt lat="44.71766" lon="6.90533">
        <ele>2008.1</ele>
        <time>2021-12-19T11:48:11Z</time>
      </trkpt>
      <trkpt lat="44.71761" lon="6.90548">
        <ele>2008.2</ele>
        <time>2021-12-19T11:48:12Z</time>
      </trkpt>
      <trkpt lat="44.71759" lon="6.90555">
        <ele>2008.8</ele>
        <time>2021-12-19T11:48:14Z</time>
      </trkpt>
      <trkpt lat="44.71757" lon="6.90562">
        <ele>2010.5</ele>
        <time>2021-12-19T11:48:16Z</time>
      </trkpt>
      <trkpt lat="44.71756" lon="6.90569">
        <ele>2011.7</ele>
        <time>2021-12-19T11:48:20Z</time>
      </trkpt>
      <trkpt lat="44.71755" lon="6.90574">
        <ele>2012.7</ele>
        <time>2021-12-19T11:48:23Z</time>
      </trkpt>
      <trkpt lat="44.71754" lon="6.90575">
        <ele>2012.7</ele>
        <time>2021-12-19T11:48:24Z</time>
      </trkpt>
      <trkpt lat="44.71753" lon="6.90577">
        <ele>2012.8</ele>
        <time>2021-12-19T11:51:40Z</time>
      </trkpt>
      <trkpt lat="44.71759" lon="6.90575">
        <ele>2013.6</ele>
        <time>2021-12-19T11:51:41Z</time>
      </trkpt>
      <trkpt lat="44.71759" lon="6.90574">
        <ele>2013.3</ele>
        <time>2021-12-19T11:51:42Z</time>
      </trkpt>
      <trkpt lat="44.71757" lon="6.90573">
        <ele>2013.1</ele>
        <time>2021-12-19T11:51:43Z</time>
      </trkpt>
      <trkpt lat="44.71756" lon="6.90572">
        <ele>2012.5</ele>
        <time>2021-12-19T11:54:38Z</time>
      </trkpt>
      <trkpt lat="44.7175" lon="6.90562">
        <ele>2010.8</ele>
        <time>2021-12-19T11:54:39Z</time>
      </trkpt>
      <trkpt lat="44.71747" lon="6.90555">
        <ele>2009.2</ele>
        <time>2021-12-19T11:54:42Z</time>
      </trkpt>
      <trkpt lat="44.71746" lon="6.90549">
        <ele>2008.1</ele>
        <time>2021-12-19T11:54:44Z</time>
      </trkpt>
      <trkpt lat="44.71745" lon="6.90551">
        <ele>2007.4</ele>
        <time>2021-12-19T11:54:45Z</time>
      </trkpt>
      <trkpt lat="44.7174" lon="6.90562">
        <ele>2009.3</ele>
        <time>2021-12-19T11:55:26Z</time>
      </trkpt>
      <trkpt lat="44.71738" lon="6.90563">
        <ele>2009</ele>
        <time>2021-12-19T11:55:38Z</time>
      </trkpt>
      <trkpt lat="44.71731" lon="6.90572">
        <ele>2008.1</ele>
        <time>2021-12-19T11:55:39Z</time>
      </trkpt>
      <trkpt lat="44.71731" lon="6.90572">
        <ele>2008</ele>
        <time>2021-12-19T11:55:40Z</time>
      </trkpt>
      <trkpt lat="44.7173" lon="6.90576">
        <ele>2007.9</ele>
        <time>2021-12-19T11:55:49Z</time>
      </trkpt>
      <trkpt lat="44.71723" lon="6.90586">
        <ele>2007.4</ele>
        <time>2021-12-19T11:55:50Z</time>
      </trkpt>
      <trkpt lat="44.71722" lon="6.90587">
        <ele>2007.4</ele>
        <time>2021-12-19T11:55:51Z</time>
      </trkpt>
      <trkpt lat="44.71719" lon="6.90591">
        <ele>2007.8</ele>
        <time>2021-12-19T11:56:04Z</time>
      </trkpt>
      <trkpt lat="44.71711" lon="6.90598">
        <ele>2007.6</ele>
        <time>2021-12-19T11:56:05Z</time>
      </trkpt>
      <trkpt lat="44.7171" lon="6.90599">
        <ele>2007.6</ele>
        <time>2021-12-19T11:56:06Z</time>
      </trkpt>
      <trkpt lat="44.71704" lon="6.90589">
        <ele>2003.9</ele>
        <time>2021-12-19T11:56:41Z</time>
      </trkpt>
      <trkpt lat="44.71703" lon="6.90583">
        <ele>2003.4</ele>
        <time>2021-12-19T11:56:44Z</time>
      </trkpt>
      <trkpt lat="44.71702" lon="6.90574">
        <ele>2002.2</ele>
        <time>2021-12-19T11:56:49Z</time>
      </trkpt>
      <trkpt lat="44.71701" lon="6.90572">
        <ele>2002.1</ele>
        <time>2021-12-19T11:56:50Z</time>
      </trkpt>
      <trkpt lat="44.71697" lon="6.90565">
        <ele>2001.8</ele>
        <time>2021-12-19T11:56:52Z</time>
      </trkpt>
      <trkpt lat="44.71692" lon="6.90557">
        <ele>2001.5</ele>
        <time>2021-12-19T11:56:54Z</time>
      </trkpt>
      <trkpt lat="44.71689" lon="6.90552">
        <ele>2001.3</ele>
        <time>2021-12-19T11:56:55Z</time>
      </trkpt>
      <trkpt lat="44.71684" lon="6.90542">
        <ele>2001.2</ele>
        <time>2021-12-19T11:56:56Z</time>
      </trkpt>
      <trkpt lat="44.71677" lon="6.9053">
        <ele>2001.2</ele>
        <time>2021-12-19T11:56:57Z</time>
      </trkpt>
      <trkpt lat="44.71672" lon="6.90526">
        <ele>2001.1</ele>
        <time>2021-12-19T11:56:58Z</time>
      </trkpt>
      <trkpt lat="44.71668" lon="6.90522">
        <ele>2000.9</ele>
        <time>2021-12-19T11:56:59Z</time>
      </trkpt>
      <trkpt lat="44.7167" lon="6.90514">
        <ele>2000.2</ele>
        <time>2021-12-19T11:57:02Z</time>
      </trkpt>
      <trkpt lat="44.71674" lon="6.90515">
        <ele>1999.8</ele>
        <time>2021-12-19T11:57:03Z</time>
      </trkpt>
      <trkpt lat="44.71678" lon="6.90516">
        <ele>1999.5</ele>
        <time>2021-12-19T11:57:04Z</time>
      </trkpt>
      <trkpt lat="44.71679" lon="6.90514">
        <ele>1999.3</ele>
        <time>2021-12-19T11:57:05Z</time>
      </trkpt>
      <trkpt lat="44.71682" lon="6.90512">
        <ele>1999</ele>
        <time>2021-12-19T11:57:06Z</time>
      </trkpt>
      <trkpt lat="44.71686" lon="6.90512">
        <ele>1998.4</ele>
        <time>2021-12-19T11:57:08Z</time>
      </trkpt>
      <trkpt lat="44.71692" lon="6.90507">
        <ele>1997.8</ele>
        <time>2021-12-19T11:57:10Z</time>
      </trkpt>
      <trkpt lat="44.71697" lon="6.90504">
        <ele>1997.1</ele>
        <time>2021-12-19T11:57:12Z</time>
      </trkpt>
      <trkpt lat="44.71699" lon="6.90499">
        <ele>1995.9</ele>
        <time>2021-12-19T11:57:15Z</time>
      </trkpt>
      <trkpt lat="44.71701" lon="6.90504">
        <ele>1994.1</ele>
        <time>2021-12-19T11:57:19Z</time>
      </trkpt>
      <trkpt lat="44.71701" lon="6.90505">
        <ele>1993.7</ele>
        <time>2021-12-19T11:57:20Z</time>
      </trkpt>
      <trkpt lat="44.71701" lon="6.90521">
        <ele>1991.3</ele>
        <time>2021-12-19T11:57:33Z</time>
      </trkpt>
      <trkpt lat="44.71699" lon="6.9054">
        <ele>1991.6</ele>
        <time>2021-12-19T11:57:44Z</time>
      </trkpt>
      <trkpt lat="44.717" lon="6.9055">
        <ele>1991.9</ele>
        <time>2021-12-19T11:57:46Z</time>
      </trkpt>
      <trkpt lat="44.717" lon="6.90559">
        <ele>1992.3</ele>
        <time>2021-12-19T11:57:47Z</time>
      </trkpt>
      <trkpt lat="44.717" lon="6.90575">
        <ele>1993.6</ele>
        <time>2021-12-19T11:57:49Z</time>
      </trkpt>
      <trkpt lat="44.71701" lon="6.90583">
        <ele>1994.2</ele>
        <time>2021-12-19T11:57:50Z</time>
      </trkpt>
      <trkpt lat="44.71702" lon="6.9059">
        <ele>1994.8</ele>
        <time>2021-12-19T11:57:52Z</time>
      </trkpt>
      <trkpt lat="44.71698" lon="6.90604">
        <ele>1998.2</ele>
        <time>2021-12-19T11:58:07Z</time>
      </trkpt>
      <trkpt lat="44.71689" lon="6.90605">
        <ele>2000.3</ele>
        <time>2021-12-19T11:58:09Z</time>
      </trkpt>
      <trkpt lat="44.71686" lon="6.90605">
        <ele>2001.2</ele>
        <time>2021-12-19T11:58:10Z</time>
      </trkpt>
      <trkpt lat="44.7168" lon="6.90605">
        <ele>2003.9</ele>
        <time>2021-12-19T11:58:13Z</time>
      </trkpt>
      <trkpt lat="44.71679" lon="6.90605">
        <ele>2004.6</ele>
        <time>2021-12-19T11:58:14Z</time>
      </trkpt>
      <trkpt lat="44.71678" lon="6.90604">
        <ele>2005.1</ele>
        <time>2021-12-19T11:58:15Z</time>
      </trkpt>
      <trkpt lat="44.71678" lon="6.90601">
        <ele>2005.5</ele>
        <time>2021-12-19T11:58:16Z</time>
      </trkpt>
      <trkpt lat="44.71678" lon="6.90596">
        <ele>2007</ele>
        <time>2021-12-19T11:58:18Z</time>
      </trkpt>
      <trkpt lat="44.71679" lon="6.90595">
        <ele>2007.2</ele>
        <time>2021-12-19T11:58:19Z</time>
      </trkpt>
      <trkpt lat="44.71678" lon="6.90587">
        <ele>2009.9</ele>
        <time>2021-12-19T11:58:27Z</time>
      </trkpt>
      <trkpt lat="44.71672" lon="6.90599">
        <ele>2011.4</ele>
        <time>2021-12-19T11:58:36Z</time>
      </trkpt>
      <trkpt lat="44.71665" lon="6.90603">
        <ele>2011.7</ele>
        <time>2021-12-19T11:58:39Z</time>
      </trkpt>
      <trkpt lat="44.71662" lon="6.90603">
        <ele>2011.7</ele>
        <time>2021-12-19T11:58:40Z</time>
      </trkpt>
      <trkpt lat="44.71658" lon="6.90605">
        <ele>2011.8</ele>
        <time>2021-12-19T11:58:41Z</time>
      </trkpt>
      <trkpt lat="44.71654" lon="6.90607">
        <ele>2011.8</ele>
        <time>2021-12-19T11:58:42Z</time>
      </trkpt>
      <trkpt lat="44.71649" lon="6.90607">
        <ele>2011.9</ele>
        <time>2021-12-19T11:58:43Z</time>
      </trkpt>
      <trkpt lat="44.71648" lon="6.90606">
        <ele>2011.6</ele>
        <time>2021-12-19T11:58:45Z</time>
      </trkpt>
      <trkpt lat="44.71652" lon="6.90606">
        <ele>2011.4</ele>
        <time>2021-12-19T11:58:46Z</time>
      </trkpt>
      <trkpt lat="44.71668" lon="6.90603">
        <ele>2010.7</ele>
        <time>2021-12-19T11:58:52Z</time>
      </trkpt>
      <trkpt lat="44.71673" lon="6.90601">
        <ele>2010.4</ele>
        <time>2021-12-19T11:58:53Z</time>
      </trkpt>
      <trkpt lat="44.71687" lon="6.90597">
        <ele>2009</ele>
        <time>2021-12-19T11:58:54Z</time>
      </trkpt>
      <trkpt lat="44.71693" lon="6.90596">
        <ele>2008.5</ele>
        <time>2021-12-19T11:58:55Z</time>
      </trkpt>
      <trkpt lat="44.71699" lon="6.906">
        <ele>2008</ele>
        <time>2021-12-19T11:58:57Z</time>
      </trkpt>
      <trkpt lat="44.717" lon="6.90606">
        <ele>2007.8</ele>
        <time>2021-12-19T11:59:00Z</time>
      </trkpt>
      <trkpt lat="44.71699" lon="6.9061">
        <ele>2008.2</ele>
        <time>2021-12-19T11:59:01Z</time>
      </trkpt>
      <trkpt lat="44.71692" lon="6.90621">
        <ele>2006.3</ele>
        <time>2021-12-19T12:00:54Z</time>
      </trkpt>
      <trkpt lat="44.71692" lon="6.90635">
        <ele>2005.5</ele>
        <time>2021-12-19T12:01:29Z</time>
      </trkpt>
      <trkpt lat="44.71686" lon="6.90647">
        <ele>2006.6</ele>
        <time>2021-12-19T12:01:47Z</time>
      </trkpt>
      <trkpt lat="44.71679" lon="6.90659">
        <ele>2007.4</ele>
        <time>2021-12-19T12:02:10Z</time>
      </trkpt>
      <trkpt lat="44.71678" lon="6.90662">
        <ele>2007.7</ele>
        <time>2021-12-19T12:02:22Z</time>
      </trkpt>
      <trkpt lat="44.71675" lon="6.90675">
        <ele>2008.6</ele>
        <time>2021-12-19T12:02:23Z</time>
      </trkpt>
      <trkpt lat="44.71675" lon="6.90676">
        <ele>2008.7</ele>
        <time>2021-12-19T12:02:24Z</time>
      </trkpt>
      <trkpt lat="44.71675" lon="6.90677">
        <ele>2008.8</ele>
        <time>2021-12-19T12:02:36Z</time>
      </trkpt>
      <trkpt lat="44.71671" lon="6.90689">
        <ele>2010.1</ele>
        <time>2021-12-19T12:02:37Z</time>
      </trkpt>
      <trkpt lat="44.71671" lon="6.90691">
        <ele>2010.2</ele>
        <time>2021-12-19T12:02:38Z</time>
      </trkpt>
      <trkpt lat="44.71671" lon="6.90692">
        <ele>2010.5</ele>
        <time>2021-12-19T12:02:49Z</time>
      </trkpt>
      <trkpt lat="44.71667" lon="6.90704">
        <ele>2011.5</ele>
        <time>2021-12-19T12:02:50Z</time>
      </trkpt>
      <trkpt lat="44.71667" lon="6.90706">
        <ele>2011.5</ele>
        <time>2021-12-19T12:02:51Z</time>
      </trkpt>
      <trkpt lat="44.71666" lon="6.90707">
        <ele>2011.6</ele>
        <time>2021-12-19T12:03:02Z</time>
      </trkpt>
      <trkpt lat="44.71662" lon="6.90718">
        <ele>2012</ele>
        <time>2021-12-19T12:03:03Z</time>
      </trkpt>
      <trkpt lat="44.71662" lon="6.90719">
        <ele>2012.1</ele>
        <time>2021-12-19T12:03:04Z</time>
      </trkpt>
      <trkpt lat="44.7166" lon="6.90735">
        <ele>2013.3</ele>
        <time>2021-12-19T12:03:16Z</time>
      </trkpt>
      <trkpt lat="44.71659" lon="6.9074">
        <ele>2013.6</ele>
        <time>2021-12-19T12:03:30Z</time>
      </trkpt>
      <trkpt lat="44.71654" lon="6.90751">
        <ele>2015</ele>
        <time>2021-12-19T12:03:31Z</time>
      </trkpt>
      <trkpt lat="44.71653" lon="6.90751">
        <ele>2015.1</ele>
        <time>2021-12-19T12:03:32Z</time>
      </trkpt>
      <trkpt lat="44.71652" lon="6.90752">
        <ele>2015.4</ele>
        <time>2021-12-19T12:03:41Z</time>
      </trkpt>
      <trkpt lat="44.71645" lon="6.90761">
        <ele>2016</ele>
        <time>2021-12-19T12:03:42Z</time>
      </trkpt>
      <trkpt lat="44.71644" lon="6.90762">
        <ele>2016</ele>
        <time>2021-12-19T12:03:43Z</time>
      </trkpt>
      <trkpt lat="44.71638" lon="6.90775">
        <ele>2016.8</ele>
        <time>2021-12-19T12:03:55Z</time>
      </trkpt>
      <trkpt lat="44.71631" lon="6.90786">
        <ele>2017</ele>
        <time>2021-12-19T12:04:09Z</time>
      </trkpt>
      <trkpt lat="44.71625" lon="6.90803">
        <ele>2018.6</ele>
        <time>2021-12-19T12:04:22Z</time>
      </trkpt>
      <trkpt lat="44.71618" lon="6.90817">
        <ele>2020</ele>
        <time>2021-12-19T12:04:36Z</time>
      </trkpt>
      <trkpt lat="44.7161" lon="6.90831">
        <ele>2022.9</ele>
        <time>2021-12-19T12:04:53Z</time>
      </trkpt>
      <trkpt lat="44.71605" lon="6.90846">
        <ele>2021.7</ele>
        <time>2021-12-19T12:05:04Z</time>
      </trkpt>
      <trkpt lat="44.71603" lon="6.90852">
        <ele>2020.6</ele>
        <time>2021-12-19T12:05:07Z</time>
      </trkpt>
      <trkpt lat="44.71598" lon="6.90862">
        <ele>2020.8</ele>
        <time>2021-12-19T12:05:19Z</time>
      </trkpt>
      <trkpt lat="44.71595" lon="6.90866">
        <ele>2021.9</ele>
        <time>2021-12-19T12:05:21Z</time>
      </trkpt>
      <trkpt lat="44.71587" lon="6.90878">
        <ele>2025.7</ele>
        <time>2021-12-19T12:05:32Z</time>
      </trkpt>
      <trkpt lat="44.71586" lon="6.90894">
        <ele>2030.8</ele>
        <time>2021-12-19T12:05:51Z</time>
      </trkpt>
      <trkpt lat="44.71582" lon="6.90906">
        <ele>2031.5</ele>
        <time>2021-12-19T12:06:06Z</time>
      </trkpt>
      <trkpt lat="44.71584" lon="6.90906">
        <ele>2030.9</ele>
        <time>2021-12-19T12:06:21Z</time>
      </trkpt>
      <trkpt lat="44.71582" lon="6.90918">
        <ele>2032.1</ele>
        <time>2021-12-19T12:06:22Z</time>
      </trkpt>
      <trkpt lat="44.71581" lon="6.90919">
        <ele>2032.1</ele>
        <time>2021-12-19T12:06:23Z</time>
      </trkpt>
      <trkpt lat="44.7158" lon="6.9092">
        <ele>2032.7</ele>
        <time>2021-12-19T12:06:32Z</time>
      </trkpt>
      <trkpt lat="44.71572" lon="6.90928">
        <ele>2034.6</ele>
        <time>2021-12-19T12:06:33Z</time>
      </trkpt>
      <trkpt lat="44.71571" lon="6.90929">
        <ele>2034.8</ele>
        <time>2021-12-19T12:06:34Z</time>
      </trkpt>
      <trkpt lat="44.71563" lon="6.90941">
        <ele>2034.4</ele>
        <time>2021-12-19T12:06:43Z</time>
      </trkpt>
      <trkpt lat="44.71558" lon="6.90954">
        <ele>2039.2</ele>
        <time>2021-12-19T12:07:00Z</time>
      </trkpt>
      <trkpt lat="44.71554" lon="6.9097">
        <ele>2044.4</ele>
        <time>2021-12-19T12:07:25Z</time>
      </trkpt>
      <trkpt lat="44.71554" lon="6.9097">
        <ele>2044.2</ele>
        <time>2021-12-19T12:07:45Z</time>
      </trkpt>
      <trkpt lat="44.71544" lon="6.90977">
        <ele>2043.7</ele>
        <time>2021-12-19T12:07:46Z</time>
      </trkpt>
      <trkpt lat="44.71543" lon="6.90978">
        <ele>2043.8</ele>
        <time>2021-12-19T12:07:47Z</time>
      </trkpt>
      <trkpt lat="44.71541" lon="6.9098">
        <ele>2044</ele>
        <time>2021-12-19T12:08:09Z</time>
      </trkpt>
      <trkpt lat="44.71538" lon="6.90992">
        <ele>2044.5</ele>
        <time>2021-12-19T12:08:10Z</time>
      </trkpt>
      <trkpt lat="44.71538" lon="6.90994">
        <ele>2044.6</ele>
        <time>2021-12-19T12:08:11Z</time>
      </trkpt>
      <trkpt lat="44.71538" lon="6.90996">
        <ele>2044.7</ele>
        <time>2021-12-19T12:08:25Z</time>
      </trkpt>
      <trkpt lat="44.71532" lon="6.91008">
        <ele>2045.2</ele>
        <time>2021-12-19T12:08:26Z</time>
      </trkpt>
      <trkpt lat="44.71532" lon="6.9101">
        <ele>2045.2</ele>
        <time>2021-12-19T12:08:27Z</time>
      </trkpt>
      <trkpt lat="44.71526" lon="6.91023">
        <ele>2045.6</ele>
        <time>2021-12-19T12:08:46Z</time>
      </trkpt>
      <trkpt lat="44.7152" lon="6.91038">
        <ele>2047.3</ele>
        <time>2021-12-19T12:09:05Z</time>
      </trkpt>
      <trkpt lat="44.71514" lon="6.91049">
        <ele>2046.9</ele>
        <time>2021-12-19T12:09:26Z</time>
      </trkpt>
      <trkpt lat="44.71505" lon="6.91059">
        <ele>2046.7</ele>
        <time>2021-12-19T12:09:43Z</time>
      </trkpt>
      <trkpt lat="44.71496" lon="6.91073">
        <ele>2046.8</ele>
        <time>2021-12-19T12:09:52Z</time>
      </trkpt>
      <trkpt lat="44.71488" lon="6.9108">
        <ele>2047.2</ele>
        <time>2021-12-19T12:10:21Z</time>
      </trkpt>
      <trkpt lat="44.71477" lon="6.91082">
        <ele>2048.1</ele>
        <time>2021-12-19T12:10:38Z</time>
      </trkpt>
      <trkpt lat="44.71464" lon="6.91088">
        <ele>2051.5</ele>
        <time>2021-12-19T12:10:51Z</time>
      </trkpt>
      <trkpt lat="44.71452" lon="6.91087">
        <ele>2054.6</ele>
        <time>2021-12-19T12:11:24Z</time>
      </trkpt>
      <trkpt lat="44.7144" lon="6.91096">
        <ele>2056.4</ele>
        <time>2021-12-19T12:11:36Z</time>
      </trkpt>
      <trkpt lat="44.71433" lon="6.91107">
        <ele>2056.3</ele>
        <time>2021-12-19T12:11:56Z</time>
      </trkpt>
      <trkpt lat="44.71423" lon="6.91118">
        <ele>2057.1</ele>
        <time>2021-12-19T12:12:10Z</time>
      </trkpt>
      <trkpt lat="44.71419" lon="6.91125">
        <ele>2058.1</ele>
        <time>2021-12-19T12:12:13Z</time>
      </trkpt>
      <trkpt lat="44.71413" lon="6.91134">
        <ele>2060</ele>
        <time>2021-12-19T12:12:19Z</time>
      </trkpt>
      <trkpt lat="44.71401" lon="6.91142">
        <ele>2061</ele>
        <time>2021-12-19T12:12:28Z</time>
      </trkpt>
      <trkpt lat="44.71398" lon="6.91147">
        <ele>2061.3</ele>
        <time>2021-12-19T12:12:31Z</time>
      </trkpt>
      <trkpt lat="44.71389" lon="6.91154">
        <ele>2061.6</ele>
        <time>2021-12-19T12:12:37Z</time>
      </trkpt>
      <trkpt lat="44.71377" lon="6.91164">
        <ele>2063.4</ele>
        <time>2021-12-19T12:12:50Z</time>
      </trkpt>
      <trkpt lat="44.7137" lon="6.91179">
        <ele>2064.9</ele>
        <time>2021-12-19T12:13:03Z</time>
      </trkpt>
      <trkpt lat="44.7137" lon="6.91183">
        <ele>2065.6</ele>
        <time>2021-12-19T12:13:24Z</time>
      </trkpt>
      <trkpt lat="44.71375" lon="6.91194">
        <ele>2068.9</ele>
        <time>2021-12-19T12:13:25Z</time>
      </trkpt>
      <trkpt lat="44.71375" lon="6.91194">
        <ele>2069</ele>
        <time>2021-12-19T12:13:26Z</time>
      </trkpt>
      <trkpt lat="44.71377" lon="6.91209">
        <ele>2069.8</ele>
        <time>2021-12-19T12:13:55Z</time>
      </trkpt>
      <trkpt lat="44.7137" lon="6.91218">
        <ele>2069.2</ele>
        <time>2021-12-19T12:14:21Z</time>
      </trkpt>
      <trkpt lat="44.71364" lon="6.91231">
        <ele>2069.4</ele>
        <time>2021-12-19T12:14:33Z</time>
      </trkpt>
      <trkpt lat="44.71356" lon="6.91223">
        <ele>2069.6</ele>
        <time>2021-12-19T12:14:42Z</time>
      </trkpt>
      <trkpt lat="44.71352" lon="6.91217">
        <ele>2069.7</ele>
        <time>2021-12-19T12:14:44Z</time>
      </trkpt>
      <trkpt lat="44.71351" lon="6.91217">
        <ele>2069.8</ele>
        <time>2021-12-19T12:15:06Z</time>
      </trkpt>
      <trkpt lat="44.71342" lon="6.91221">
        <ele>2070.7</ele>
        <time>2021-12-19T12:15:07Z</time>
      </trkpt>
      <trkpt lat="44.71342" lon="6.91223">
        <ele>2070.9</ele>
        <time>2021-12-19T12:15:08Z</time>
      </trkpt>
      <trkpt lat="44.71332" lon="6.91227">
        <ele>2072.5</ele>
        <time>2021-12-19T12:15:34Z</time>
      </trkpt>
      <trkpt lat="44.71326" lon="6.91242">
        <ele>2074.3</ele>
        <time>2021-12-19T12:15:52Z</time>
      </trkpt>
      <trkpt lat="44.71323" lon="6.9125">
        <ele>2075</ele>
        <time>2021-12-19T12:15:55Z</time>
      </trkpt>
      <trkpt lat="44.71315" lon="6.91255">
        <ele>2080.1</ele>
        <time>2021-12-19T12:16:16Z</time>
      </trkpt>
      <trkpt lat="44.71306" lon="6.91249">
        <ele>2079.9</ele>
        <time>2021-12-19T12:16:50Z</time>
      </trkpt>
      <trkpt lat="44.71297" lon="6.91255">
        <ele>2082.3</ele>
        <time>2021-12-19T12:17:34Z</time>
      </trkpt>
      <trkpt lat="44.71289" lon="6.91242">
        <ele>2083.1</ele>
        <time>2021-12-19T12:17:43Z</time>
      </trkpt>
      <trkpt lat="44.71286" lon="6.91237">
        <ele>2083.4</ele>
        <time>2021-12-19T12:17:45Z</time>
      </trkpt>
      <trkpt lat="44.71276" lon="6.91237">
        <ele>2085.7</ele>
        <time>2021-12-19T12:17:58Z</time>
      </trkpt>
      <trkpt lat="44.71265" lon="6.91242">
        <ele>2088.3</ele>
        <time>2021-12-19T12:18:14Z</time>
      </trkpt>
      <trkpt lat="44.71256" lon="6.9125">
        <ele>2091.2</ele>
        <time>2021-12-19T12:18:43Z</time>
      </trkpt>
      <trkpt lat="44.71245" lon="6.91259">
        <ele>2094.5</ele>
        <time>2021-12-19T12:18:59Z</time>
      </trkpt>
      <trkpt lat="44.71236" lon="6.91268">
        <ele>2096.8</ele>
        <time>2021-12-19T12:19:10Z</time>
      </trkpt>
      <trkpt lat="44.71239" lon="6.91273">
        <ele>2096.1</ele>
        <time>2021-12-19T12:19:13Z</time>
      </trkpt>
      <trkpt lat="44.71231" lon="6.91278">
        <ele>2097.5</ele>
        <time>2021-12-19T12:19:27Z</time>
      </trkpt>
      <trkpt lat="44.7122" lon="6.91274">
        <ele>2099</ele>
        <time>2021-12-19T12:19:40Z</time>
      </trkpt>
      <trkpt lat="44.71209" lon="6.91265">
        <ele>2099.9</ele>
        <time>2021-12-19T12:19:50Z</time>
      </trkpt>
      <trkpt lat="44.71203" lon="6.91276">
        <ele>2098.8</ele>
        <time>2021-12-19T12:20:09Z</time>
      </trkpt>
      <trkpt lat="44.71193" lon="6.91272">
        <ele>2098.7</ele>
        <time>2021-12-19T12:20:24Z</time>
      </trkpt>
      <trkpt lat="44.71186" lon="6.91263">
        <ele>2098.7</ele>
        <time>2021-12-19T12:20:33Z</time>
      </trkpt>
      <trkpt lat="44.71183" lon="6.91258">
        <ele>2099</ele>
        <time>2021-12-19T12:20:35Z</time>
      </trkpt>
      <trkpt lat="44.71182" lon="6.91251">
        <ele>2098.4</ele>
        <time>2021-12-19T12:20:40Z</time>
      </trkpt>
      <trkpt lat="44.71182" lon="6.91235">
        <ele>2094.5</ele>
        <time>2021-12-19T12:20:54Z</time>
      </trkpt>
      <trkpt lat="44.71172" lon="6.91229">
        <ele>2090.1</ele>
        <time>2021-12-19T12:21:10Z</time>
      </trkpt>
      <trkpt lat="44.7116" lon="6.9123">
        <ele>2090.5</ele>
        <time>2021-12-19T12:21:24Z</time>
      </trkpt>
      <trkpt lat="44.71148" lon="6.91233">
        <ele>2090.3</ele>
        <time>2021-12-19T12:22:02Z</time>
      </trkpt>
      <trkpt lat="44.71139" lon="6.91228">
        <ele>2090.1</ele>
        <time>2021-12-19T12:22:17Z</time>
      </trkpt>
      <trkpt lat="44.71129" lon="6.91217">
        <ele>2090</ele>
        <time>2021-12-19T12:22:33Z</time>
      </trkpt>
      <trkpt lat="44.7112" lon="6.91223">
        <ele>2089.8</ele>
        <time>2021-12-19T12:22:46Z</time>
      </trkpt>
      <trkpt lat="44.71113" lon="6.91233">
        <ele>2090.1</ele>
        <time>2021-12-19T12:23:12Z</time>
      </trkpt>
      <trkpt lat="44.71116" lon="6.91235">
        <ele>2089.9</ele>
        <time>2021-12-19T12:23:14Z</time>
      </trkpt>
      <trkpt lat="44.7112" lon="6.91237">
        <ele>2089.9</ele>
        <time>2021-12-19T12:23:15Z</time>
      </trkpt>
      <trkpt lat="44.71126" lon="6.91238">
        <ele>2089.8</ele>
        <time>2021-12-19T12:23:16Z</time>
      </trkpt>
      <trkpt lat="44.71134" lon="6.91239">
        <ele>2089.7</ele>
        <time>2021-12-19T12:23:17Z</time>
      </trkpt>
      <trkpt lat="44.71144" lon="6.91233">
        <ele>2089.5</ele>
        <time>2021-12-19T12:23:18Z</time>
      </trkpt>
      <trkpt lat="44.71159" lon="6.91231">
        <ele>2089.4</ele>
        <time>2021-12-19T12:23:19Z</time>
      </trkpt>
      <trkpt lat="44.71177" lon="6.9123">
        <ele>2089.3</ele>
        <time>2021-12-19T12:23:20Z</time>
      </trkpt>
      <trkpt lat="44.71197" lon="6.91231">
        <ele>2089.3</ele>
        <time>2021-12-19T12:23:21Z</time>
      </trkpt>
      <trkpt lat="44.71222" lon="6.91231">
        <ele>2089.2</ele>
        <time>2021-12-19T12:23:22Z</time>
      </trkpt>
      <trkpt lat="44.71253" lon="6.9123">
        <ele>2089.2</ele>
        <time>2021-12-19T12:23:23Z</time>
      </trkpt>
      <trkpt lat="44.71287" lon="6.91224">
        <ele>2089.1</ele>
        <time>2021-12-19T12:23:24Z</time>
      </trkpt>
      <trkpt lat="44.71312" lon="6.91223">
        <ele>2089</ele>
        <time>2021-12-19T12:23:25Z</time>
      </trkpt>
      <trkpt lat="44.71338" lon="6.91219">
        <ele>2088.9</ele>
        <time>2021-12-19T12:23:26Z</time>
      </trkpt>
      <trkpt lat="44.71348" lon="6.91223">
        <ele>2088.8</ele>
        <time>2021-12-19T12:23:27Z</time>
      </trkpt>
      <trkpt lat="44.71355" lon="6.91225">
        <ele>2088.6</ele>
        <time>2021-12-19T12:23:28Z</time>
      </trkpt>
      <trkpt lat="44.71352" lon="6.91237">
        <ele>2087.8</ele>
        <time>2021-12-19T12:23:31Z</time>
      </trkpt>
      <trkpt lat="44.71339" lon="6.91244">
        <ele>2087.6</ele>
        <time>2021-12-19T12:23:32Z</time>
      </trkpt>
      <trkpt lat="44.71315" lon="6.91246">
        <ele>2087.4</ele>
        <time>2021-12-19T12:23:33Z</time>
      </trkpt>
      <trkpt lat="44.71276" lon="6.91254">
        <ele>2087.2</ele>
        <time>2021-12-19T12:23:34Z</time>
      </trkpt>
      <trkpt lat="44.71222" lon="6.91259">
        <ele>2087.4</ele>
        <time>2021-12-19T12:23:35Z</time>
      </trkpt>
      <trkpt lat="44.71213" lon="6.91253">
        <ele>2087.4</ele>
        <time>2021-12-19T12:23:36Z</time>
      </trkpt>
      <trkpt lat="44.71201" lon="6.91247">
        <ele>2087.5</ele>
        <time>2021-12-19T12:23:37Z</time>
      </trkpt>
      <trkpt lat="44.71177" lon="6.91241">
        <ele>2087.6</ele>
        <time>2021-12-19T12:23:38Z</time>
      </trkpt>
      <trkpt lat="44.71157" lon="6.91242">
        <ele>2087.5</ele>
        <time>2021-12-19T12:23:39Z</time>
      </trkpt>
      <trkpt lat="44.71142" lon="6.9124">
        <ele>2087.5</ele>
        <time>2021-12-19T12:23:40Z</time>
      </trkpt>
      <trkpt lat="44.71123" lon="6.91226">
        <ele>2087.7</ele>
        <time>2021-12-19T12:23:41Z</time>
      </trkpt>
      <trkpt lat="44.71108" lon="6.91214">
        <ele>2087.8</ele>
        <time>2021-12-19T12:23:42Z</time>
      </trkpt>
      <trkpt lat="44.71096" lon="6.91205">
        <ele>2087.9</ele>
        <time>2021-12-19T12:23:43Z</time>
      </trkpt>
      <trkpt lat="44.71086" lon="6.91202">
        <ele>2088.1</ele>
        <time>2021-12-19T12:23:44Z</time>
      </trkpt>
      <trkpt lat="44.71074" lon="6.91196">
        <ele>2088.4</ele>
        <time>2021-12-19T12:23:45Z</time>
      </trkpt>
      <trkpt lat="44.71081" lon="6.91199">
        <ele>2088.8</ele>
        <time>2021-12-19T12:23:46Z</time>
      </trkpt>
      <trkpt lat="44.71078" lon="6.91191">
        <ele>2089</ele>
        <time>2021-12-19T12:23:47Z</time>
      </trkpt>
      <trkpt lat="44.71073" lon="6.91185">
        <ele>2089.2</ele>
        <time>2021-12-19T12:23:48Z</time>
      </trkpt>
      <trkpt lat="44.7107" lon="6.91179">
        <ele>2089.3</ele>
        <time>2021-12-19T12:23:49Z</time>
      </trkpt>
      <trkpt lat="44.71066" lon="6.91173">
        <ele>2089.6</ele>
        <time>2021-12-19T12:23:50Z</time>
      </trkpt>
      <trkpt lat="44.71063" lon="6.91167">
        <ele>2090</ele>
        <time>2021-12-19T12:23:52Z</time>
      </trkpt>
      <trkpt lat="44.71071" lon="6.91182">
        <ele>2091.6</ele>
        <time>2021-12-19T12:23:55Z</time>
      </trkpt>
      <trkpt lat="44.71069" lon="6.91171">
        <ele>2093.4</ele>
        <time>2021-12-19T12:23:58Z</time>
      </trkpt>
      <trkpt lat="44.71068" lon="6.9117">
        <ele>2096.7</ele>
        <time>2021-12-19T12:24:00Z</time>
      </trkpt>
      <trkpt lat="44.71068" lon="6.91172">
        <ele>2098.6</ele>
        <time>2021-12-19T12:24:01Z</time>
      </trkpt>
      <trkpt lat="44.71059" lon="6.91169">
        <ele>2130</ele>
        <time>2021-12-19T12:25:03Z</time>
      </trkpt>
      <trkpt lat="44.71054" lon="6.91157">
        <ele>2130.8</ele>
        <time>2021-12-19T12:25:08Z</time>
      </trkpt>
      <trkpt lat="44.71049" lon="6.91155">
        <ele>2129.1</ele>
        <time>2021-12-19T12:25:29Z</time>
      </trkpt>
      <trkpt lat="44.71048" lon="6.91157">
        <ele>2129.1</ele>
        <time>2021-12-19T12:25:49Z</time>
      </trkpt>
      <trkpt lat="44.71039" lon="6.91149">
        <ele>2130.3</ele>
        <time>2021-12-19T12:25:50Z</time>
      </trkpt>
      <trkpt lat="44.71039" lon="6.91148">
        <ele>2130.4</ele>
        <time>2021-12-19T12:25:51Z</time>
      </trkpt>
      <trkpt lat="44.7103" lon="6.91153">
        <ele>2135</ele>
        <time>2021-12-19T12:26:24Z</time>
      </trkpt>
      <trkpt lat="44.71029" lon="6.91153">
        <ele>2135.2</ele>
        <time>2021-12-19T12:26:44Z</time>
      </trkpt>
      <trkpt lat="44.71021" lon="6.91156">
        <ele>2136.9</ele>
        <time>2021-12-19T12:26:45Z</time>
      </trkpt>
      <trkpt lat="44.71019" lon="6.91155">
        <ele>2137.2</ele>
        <time>2021-12-19T12:26:46Z</time>
      </trkpt>
      <trkpt lat="44.71016" lon="6.91148">
        <ele>2138.9</ele>
        <time>2021-12-19T12:26:49Z</time>
      </trkpt>
      <trkpt lat="44.71009" lon="6.9114">
        <ele>2141.2</ele>
        <time>2021-12-19T12:26:55Z</time>
      </trkpt>
      <trkpt lat="44.70996" lon="6.91139">
        <ele>2148.4</ele>
        <time>2021-12-19T12:27:14Z</time>
      </trkpt>
      <trkpt lat="44.70987" lon="6.91137">
        <ele>2153.8</ele>
        <time>2021-12-19T12:27:35Z</time>
      </trkpt>
      <trkpt lat="44.70975" lon="6.91141">
        <ele>2156.8</ele>
        <time>2021-12-19T12:28:14Z</time>
      </trkpt>
      <trkpt lat="44.70969" lon="6.91131">
        <ele>2157.9</ele>
        <time>2021-12-19T12:28:23Z</time>
      </trkpt>
      <trkpt lat="44.7096" lon="6.91125">
        <ele>2161.4</ele>
        <time>2021-12-19T12:28:39Z</time>
      </trkpt>
      <trkpt lat="44.70955" lon="6.91136">
        <ele>2168.4</ele>
        <time>2021-12-19T12:28:57Z</time>
      </trkpt>
      <trkpt lat="44.70944" lon="6.91143">
        <ele>2172.1</ele>
        <time>2021-12-19T12:29:12Z</time>
      </trkpt>
      <trkpt lat="44.70936" lon="6.91132">
        <ele>2175.3</ele>
        <time>2021-12-19T12:29:35Z</time>
      </trkpt>
      <trkpt lat="44.70932" lon="6.91121">
        <ele>2182.5</ele>
        <time>2021-12-19T12:29:56Z</time>
      </trkpt>
      <trkpt lat="44.70925" lon="6.9113">
        <ele>2190.4</ele>
        <time>2021-12-19T12:30:43Z</time>
      </trkpt>
      <trkpt lat="44.70923" lon="6.91137">
        <ele>2193.6</ele>
        <time>2021-12-19T12:30:46Z</time>
      </trkpt>
      <trkpt lat="44.70933" lon="6.91141">
        <ele>2196.7</ele>
        <time>2021-12-19T12:31:14Z</time>
      </trkpt>
      <trkpt lat="44.70938" lon="6.91137">
        <ele>2194.8</ele>
        <time>2021-12-19T12:31:17Z</time>
      </trkpt>
      <trkpt lat="44.70947" lon="6.91141">
        <ele>2191.7</ele>
        <time>2021-12-19T12:31:26Z</time>
      </trkpt>
      <trkpt lat="44.70949" lon="6.91141">
        <ele>2190.9</ele>
        <time>2021-12-19T12:32:28Z</time>
      </trkpt>
      <trkpt lat="44.70947" lon="6.91126">
        <ele>2192.7</ele>
        <time>2021-12-19T12:32:29Z</time>
      </trkpt>
      <trkpt lat="44.70947" lon="6.91123">
        <ele>2192.4</ele>
        <time>2021-12-19T12:32:30Z</time>
      </trkpt>
      <trkpt lat="44.70937" lon="6.91116">
        <ele>2190.2</ele>
        <time>2021-12-19T12:33:38Z</time>
      </trkpt>
      <trkpt lat="44.70924" lon="6.91119">
        <ele>2190.3</ele>
        <time>2021-12-19T12:33:51Z</time>
      </trkpt>
      <trkpt lat="44.70919" lon="6.91132">
        <ele>2191.1</ele>
        <time>2021-12-19T12:34:08Z</time>
      </trkpt>
      <trkpt lat="44.70926" lon="6.91124">
        <ele>2192.1</ele>
        <time>2021-12-19T12:34:35Z</time>
      </trkpt>
      <trkpt lat="44.70928" lon="6.91137">
        <ele>2192</ele>
        <time>2021-12-19T12:35:03Z</time>
      </trkpt>
      <trkpt lat="44.70924" lon="6.91124">
        <ele>2192.9</ele>
        <time>2021-12-19T12:35:58Z</time>
      </trkpt>
      <trkpt lat="44.70922" lon="6.91131">
        <ele>2201.5</ele>
        <time>2021-12-19T12:37:17Z</time>
      </trkpt>
      <trkpt lat="44.7092" lon="6.9112">
        <ele>2203.4</ele>
        <time>2021-12-19T12:37:28Z</time>
      </trkpt>
      <trkpt lat="44.70922" lon="6.91113">
        <ele>2203.9</ele>
        <time>2021-12-19T12:37:31Z</time>
      </trkpt>
      <trkpt lat="44.70931" lon="6.91118">
        <ele>2203.3</ele>
        <time>2021-12-19T12:38:00Z</time>
      </trkpt>
      <trkpt lat="44.70926" lon="6.9113">
        <ele>2203</ele>
        <time>2021-12-19T12:38:50Z</time>
      </trkpt>
      <trkpt lat="44.70915" lon="6.91125">
        <ele>2203.6</ele>
        <time>2021-12-19T12:39:07Z</time>
      </trkpt>
      <trkpt lat="44.70904" lon="6.91127">
        <ele>2204.7</ele>
        <time>2021-12-19T12:39:29Z</time>
      </trkpt>
      <trkpt lat="44.70894" lon="6.91123">
        <ele>2206.8</ele>
        <time>2021-12-19T12:39:45Z</time>
      </trkpt>
      <trkpt lat="44.70884" lon="6.91121">
        <ele>2207.4</ele>
        <time>2021-12-19T12:40:09Z</time>
      </trkpt>
      <trkpt lat="44.70876" lon="6.91113">
        <ele>2208.3</ele>
        <time>2021-12-19T12:40:31Z</time>
      </trkpt>
      <trkpt lat="44.70868" lon="6.91105">
        <ele>2207.9</ele>
        <time>2021-12-19T12:40:51Z</time>
      </trkpt>
      <trkpt lat="44.70857" lon="6.91103">
        <ele>2208.2</ele>
        <time>2021-12-19T12:41:12Z</time>
      </trkpt>
      <trkpt lat="44.70854" lon="6.91098">
        <ele>2209.1</ele>
        <time>2021-12-19T12:41:15Z</time>
      </trkpt>
      <trkpt lat="44.70846" lon="6.91091">
        <ele>2212</ele>
        <time>2021-12-19T12:41:39Z</time>
      </trkpt>
      <trkpt lat="44.70838" lon="6.91088">
        <ele>2210.2</ele>
        <time>2021-12-19T12:42:11Z</time>
      </trkpt>
      <trkpt lat="44.70833" lon="6.91103">
        <ele>2210.7</ele>
        <time>2021-12-19T12:42:27Z</time>
      </trkpt>
      <trkpt lat="44.70822" lon="6.91108">
        <ele>2210.9</ele>
        <time>2021-12-19T12:42:47Z</time>
      </trkpt>
      <trkpt lat="44.7081" lon="6.91108">
        <ele>2212.9</ele>
        <time>2021-12-19T12:43:05Z</time>
      </trkpt>
      <trkpt lat="44.70797" lon="6.91107">
        <ele>2216.7</ele>
        <time>2021-12-19T12:43:21Z</time>
      </trkpt>
      <trkpt lat="44.70787" lon="6.91109">
        <ele>2217.7</ele>
        <time>2021-12-19T12:43:49Z</time>
      </trkpt>
      <trkpt lat="44.70781" lon="6.91122">
        <ele>2218.8</ele>
        <time>2021-12-19T12:44:08Z</time>
      </trkpt>
      <trkpt lat="44.7077" lon="6.91123">
        <ele>2219</ele>
        <time>2021-12-19T12:44:31Z</time>
      </trkpt>
      <trkpt lat="44.70759" lon="6.91119">
        <ele>2218.9</ele>
        <time>2021-12-19T12:44:50Z</time>
      </trkpt>
      <trkpt lat="44.70748" lon="6.91112">
        <ele>2219.4</ele>
        <time>2021-12-19T12:45:06Z</time>
      </trkpt>
      <trkpt lat="44.70738" lon="6.91121">
        <ele>2220</ele>
        <time>2021-12-19T12:45:35Z</time>
      </trkpt>
      <trkpt lat="44.70731" lon="6.91134">
        <ele>2219.7</ele>
        <time>2021-12-19T12:45:53Z</time>
      </trkpt>
      <trkpt lat="44.70726" lon="6.91149">
        <ele>2220.1</ele>
        <time>2021-12-19T12:46:08Z</time>
      </trkpt>
      <trkpt lat="44.70718" lon="6.91164">
        <ele>2221.5</ele>
        <time>2021-12-19T12:46:22Z</time>
      </trkpt>
      <trkpt lat="44.70707" lon="6.91169">
        <ele>2222</ele>
        <time>2021-12-19T12:46:42Z</time>
      </trkpt>
      <trkpt lat="44.70697" lon="6.91172">
        <ele>2221.5</ele>
        <time>2021-12-19T12:47:11Z</time>
      </trkpt>
      <trkpt lat="44.70685" lon="6.91169">
        <ele>2223.4</ele>
        <time>2021-12-19T12:47:26Z</time>
      </trkpt>
      <trkpt lat="44.7068" lon="6.91157">
        <ele>2223.5</ele>
        <time>2021-12-19T12:47:48Z</time>
      </trkpt>
      <trkpt lat="44.70671" lon="6.91163">
        <ele>2224.4</ele>
        <time>2021-12-19T12:48:06Z</time>
      </trkpt>
      <trkpt lat="44.70664" lon="6.91174">
        <ele>2225.5</ele>
        <time>2021-12-19T12:48:22Z</time>
      </trkpt>
      <trkpt lat="44.70662" lon="6.91171">
        <ele>2226.2</ele>
        <time>2021-12-19T12:48:44Z</time>
      </trkpt>
      <trkpt lat="44.70653" lon="6.91176">
        <ele>2228.4</ele>
        <time>2021-12-19T12:48:45Z</time>
      </trkpt>
      <trkpt lat="44.70652" lon="6.91176">
        <ele>2228.5</ele>
        <time>2021-12-19T12:48:46Z</time>
      </trkpt>
      <trkpt lat="44.70642" lon="6.91175">
        <ele>2228.6</ele>
        <time>2021-12-19T12:49:14Z</time>
      </trkpt>
      <trkpt lat="44.70632" lon="6.91166">
        <ele>2228.8</ele>
        <time>2021-12-19T12:49:34Z</time>
      </trkpt>
      <trkpt lat="44.70626" lon="6.91178">
        <ele>2228.7</ele>
        <time>2021-12-19T12:49:58Z</time>
      </trkpt>
      <trkpt lat="44.70615" lon="6.91185">
        <ele>2228.7</ele>
        <time>2021-12-19T12:50:16Z</time>
      </trkpt>
      <trkpt lat="44.70603" lon="6.91184">
        <ele>2231</ele>
        <time>2021-12-19T12:50:29Z</time>
      </trkpt>
      <trkpt lat="44.70594" lon="6.91196">
        <ele>2234.1</ele>
        <time>2021-12-19T12:51:09Z</time>
      </trkpt>
      <trkpt lat="44.70586" lon="6.91202">
        <ele>2231.3</ele>
        <time>2021-12-19T12:51:32Z</time>
      </trkpt>
      <trkpt lat="44.70574" lon="6.91204">
        <ele>2230.1</ele>
        <time>2021-12-19T12:51:46Z</time>
      </trkpt>
      <trkpt lat="44.70562" lon="6.91204">
        <ele>2230.7</ele>
        <time>2021-12-19T12:52:00Z</time>
      </trkpt>
      <trkpt lat="44.7055" lon="6.91202">
        <ele>2233.2</ele>
        <time>2021-12-19T12:52:19Z</time>
      </trkpt>
      <trkpt lat="44.70541" lon="6.91213">
        <ele>2234.7</ele>
        <time>2021-12-19T12:52:34Z</time>
      </trkpt>
      <trkpt lat="44.7054" lon="6.91214">
        <ele>2234.8</ele>
        <time>2021-12-19T12:53:02Z</time>
      </trkpt>
      <trkpt lat="44.70531" lon="6.91212">
        <ele>2236.3</ele>
        <time>2021-12-19T12:53:03Z</time>
      </trkpt>
      <trkpt lat="44.7053" lon="6.91212">
        <ele>2236.4</ele>
        <time>2021-12-19T12:53:04Z</time>
      </trkpt>
      <trkpt lat="44.70522" lon="6.91221">
        <ele>2238.1</ele>
        <time>2021-12-19T12:53:27Z</time>
      </trkpt>
      <trkpt lat="44.7051" lon="6.91231">
        <ele>2240.6</ele>
        <time>2021-12-19T12:53:49Z</time>
      </trkpt>
      <trkpt lat="44.705" lon="6.91239">
        <ele>2246</ele>
        <time>2021-12-19T12:54:10Z</time>
      </trkpt>
      <trkpt lat="44.70491" lon="6.91247">
        <ele>2249</ele>
        <time>2021-12-19T12:54:37Z</time>
      </trkpt>
      <trkpt lat="44.70488" lon="6.91255">
        <ele>2250.2</ele>
        <time>2021-12-19T12:54:39Z</time>
      </trkpt>
      <trkpt lat="44.70481" lon="6.91269">
        <ele>2252.9</ele>
        <time>2021-12-19T12:54:47Z</time>
      </trkpt>
      <trkpt lat="44.70475" lon="6.91284">
        <ele>2258.2</ele>
        <time>2021-12-19T12:55:12Z</time>
      </trkpt>
      <trkpt lat="44.70471" lon="6.913">
        <ele>2261.3</ele>
        <time>2021-12-19T12:55:28Z</time>
      </trkpt>
      <trkpt lat="44.70463" lon="6.9131">
        <ele>2268.2</ele>
        <time>2021-12-19T12:55:55Z</time>
      </trkpt>
      <trkpt lat="44.70453" lon="6.91305">
        <ele>2274.1</ele>
        <time>2021-12-19T12:56:16Z</time>
      </trkpt>
      <trkpt lat="44.70446" lon="6.91316">
        <ele>2279.1</ele>
        <time>2021-12-19T12:56:42Z</time>
      </trkpt>
      <trkpt lat="44.70439" lon="6.91328">
        <ele>2283.2</ele>
        <time>2021-12-19T12:57:01Z</time>
      </trkpt>
      <trkpt lat="44.70437" lon="6.91329">
        <ele>2283.8</ele>
        <time>2021-12-19T12:57:27Z</time>
      </trkpt>
      <trkpt lat="44.70431" lon="6.91338">
        <ele>2286.7</ele>
        <time>2021-12-19T12:57:28Z</time>
      </trkpt>
      <trkpt lat="44.7043" lon="6.91338">
        <ele>2286.8</ele>
        <time>2021-12-19T12:57:29Z</time>
      </trkpt>
      <trkpt lat="44.70421" lon="6.91337">
        <ele>2287.6</ele>
        <time>2021-12-19T12:57:59Z</time>
      </trkpt>
      <trkpt lat="44.70419" lon="6.91338">
        <ele>2287.7</ele>
        <time>2021-12-19T12:58:17Z</time>
      </trkpt>
      <trkpt lat="44.7041" lon="6.91343">
        <ele>2289</ele>
        <time>2021-12-19T12:58:18Z</time>
      </trkpt>
      <trkpt lat="44.7041" lon="6.91344">
        <ele>2289</ele>
        <time>2021-12-19T12:58:19Z</time>
      </trkpt>
      <trkpt lat="44.70402" lon="6.91349">
        <ele>2288.5</ele>
        <time>2021-12-19T12:59:28Z</time>
      </trkpt>
      <trkpt lat="44.70392" lon="6.91353">
        <ele>2288.9</ele>
        <time>2021-12-19T12:59:40Z</time>
      </trkpt>
      <trkpt lat="44.70383" lon="6.91364">
        <ele>2289.8</ele>
        <time>2021-12-19T13:00:07Z</time>
      </trkpt>
      <trkpt lat="44.70374" lon="6.91378">
        <ele>2291</ele>
        <time>2021-12-19T13:00:39Z</time>
      </trkpt>
      <trkpt lat="44.70363" lon="6.91372">
        <ele>2294</ele>
        <time>2021-12-19T13:01:01Z</time>
      </trkpt>
      <trkpt lat="44.70355" lon="6.91376">
        <ele>2295.9</ele>
        <time>2021-12-19T13:01:28Z</time>
      </trkpt>
      <trkpt lat="44.70345" lon="6.91366">
        <ele>2300.5</ele>
        <time>2021-12-19T13:01:54Z</time>
      </trkpt>
      <trkpt lat="44.70336" lon="6.91372">
        <ele>2303.6</ele>
        <time>2021-12-19T13:02:18Z</time>
      </trkpt>
      <trkpt lat="44.70327" lon="6.91379">
        <ele>2305.7</ele>
        <time>2021-12-19T13:02:42Z</time>
      </trkpt>
      <trkpt lat="44.70325" lon="6.91381">
        <ele>2306</ele>
        <time>2021-12-19T13:03:52Z</time>
      </trkpt>
      <trkpt lat="44.70318" lon="6.9139">
        <ele>2310.8</ele>
        <time>2021-12-19T13:03:53Z</time>
      </trkpt>
      <trkpt lat="44.70318" lon="6.91391">
        <ele>2310.9</ele>
        <time>2021-12-19T13:03:54Z</time>
      </trkpt>
      <trkpt lat="44.70318" lon="6.91392">
        <ele>2311.9</ele>
        <time>2021-12-19T13:06:19Z</time>
      </trkpt>
      <trkpt lat="44.70311" lon="6.914">
        <ele>2317</ele>
        <time>2021-12-19T13:06:20Z</time>
      </trkpt>
      <trkpt lat="44.70311" lon="6.91401">
        <ele>2316.9</ele>
        <time>2021-12-19T13:06:21Z</time>
      </trkpt>
      <trkpt lat="44.70301" lon="6.91399">
        <ele>2319</ele>
        <time>2021-12-19T13:06:42Z</time>
      </trkpt>
      <trkpt lat="44.70306" lon="6.9141">
        <ele>2321.4</ele>
        <time>2021-12-19T13:07:03Z</time>
      </trkpt>
      <trkpt lat="44.70305" lon="6.91412">
        <ele>2321.9</ele>
        <time>2021-12-19T13:07:28Z</time>
      </trkpt>
      <trkpt lat="44.70301" lon="6.91423">
        <ele>2324</ele>
        <time>2021-12-19T13:07:29Z</time>
      </trkpt>
      <trkpt lat="44.703" lon="6.91424">
        <ele>2324.1</ele>
        <time>2021-12-19T13:07:30Z</time>
      </trkpt>
      <trkpt lat="44.70299" lon="6.91425">
        <ele>2324.3</ele>
        <time>2021-12-19T13:07:47Z</time>
      </trkpt>
      <trkpt lat="44.70292" lon="6.91435">
        <ele>2326.1</ele>
        <time>2021-12-19T13:07:48Z</time>
      </trkpt>
      <trkpt lat="44.70291" lon="6.91436">
        <ele>2326.3</ele>
        <time>2021-12-19T13:07:49Z</time>
      </trkpt>
      <trkpt lat="44.70289" lon="6.91436">
        <ele>2326.4</ele>
        <time>2021-12-19T13:08:14Z</time>
      </trkpt>
      <trkpt lat="44.70282" lon="6.91443">
        <ele>2328.3</ele>
        <time>2021-12-19T13:08:15Z</time>
      </trkpt>
      <trkpt lat="44.70281" lon="6.91443">
        <ele>2328.4</ele>
        <time>2021-12-19T13:08:16Z</time>
      </trkpt>
      <trkpt lat="44.7028" lon="6.91443">
        <ele>2328.5</ele>
        <time>2021-12-19T13:08:38Z</time>
      </trkpt>
      <trkpt lat="44.7027" lon="6.91441">
        <ele>2330.8</ele>
        <time>2021-12-19T13:08:39Z</time>
      </trkpt>
      <trkpt lat="44.7027" lon="6.9144">
        <ele>2331.4</ele>
        <time>2021-12-19T13:08:40Z</time>
      </trkpt>
      <trkpt lat="44.70259" lon="6.91443">
        <ele>2336.1</ele>
        <time>2021-12-19T13:09:10Z</time>
      </trkpt>
      <trkpt lat="44.70248" lon="6.91444">
        <ele>2340.5</ele>
        <time>2021-12-19T13:09:29Z</time>
      </trkpt>
      <trkpt lat="44.70246" lon="6.91445">
        <ele>2341</ele>
        <time>2021-12-19T13:09:42Z</time>
      </trkpt>
      <trkpt lat="44.70238" lon="6.91452">
        <ele>2344</ele>
        <time>2021-12-19T13:09:43Z</time>
      </trkpt>
      <trkpt lat="44.70238" lon="6.91453">
        <ele>2344.1</ele>
        <time>2021-12-19T13:09:44Z</time>
      </trkpt>
      <trkpt lat="44.70228" lon="6.91458">
        <ele>2347.5</ele>
        <time>2021-12-19T13:10:02Z</time>
      </trkpt>
      <trkpt lat="44.70218" lon="6.91466">
        <ele>2351.9</ele>
        <time>2021-12-19T13:10:30Z</time>
      </trkpt>
      <trkpt lat="44.70208" lon="6.91472">
        <ele>2353.5</ele>
        <time>2021-12-19T13:10:49Z</time>
      </trkpt>
      <trkpt lat="44.70197" lon="6.91477">
        <ele>2355.3</ele>
        <time>2021-12-19T13:11:05Z</time>
      </trkpt>
      <trkpt lat="44.70187" lon="6.91481">
        <ele>2357.6</ele>
        <time>2021-12-19T13:11:23Z</time>
      </trkpt>
      <trkpt lat="44.70177" lon="6.91477">
        <ele>2360.4</ele>
        <time>2021-12-19T13:12:02Z</time>
      </trkpt>
      <trkpt lat="44.70175" lon="6.91477">
        <ele>2360.2</ele>
        <time>2021-12-19T13:12:15Z</time>
      </trkpt>
      <trkpt lat="44.70166" lon="6.91478">
        <ele>2359.4</ele>
        <time>2021-12-19T13:12:16Z</time>
      </trkpt>
      <trkpt lat="44.70165" lon="6.91479">
        <ele>2359.3</ele>
        <time>2021-12-19T13:12:17Z</time>
      </trkpt>
      <trkpt lat="44.70164" lon="6.91479">
        <ele>2359.1</ele>
        <time>2021-12-19T13:12:33Z</time>
      </trkpt>
      <trkpt lat="44.70155" lon="6.91484">
        <ele>2359.8</ele>
        <time>2021-12-19T13:12:34Z</time>
      </trkpt>
      <trkpt lat="44.70154" lon="6.91484">
        <ele>2359.9</ele>
        <time>2021-12-19T13:12:35Z</time>
      </trkpt>
      <trkpt lat="44.70147" lon="6.91495">
        <ele>2360.2</ele>
        <time>2021-12-19T13:12:58Z</time>
      </trkpt>
      <trkpt lat="44.70135" lon="6.91496">
        <ele>2360.4</ele>
        <time>2021-12-19T13:13:17Z</time>
      </trkpt>
      <trkpt lat="44.70133" lon="6.91498">
        <ele>2360.4</ele>
        <time>2021-12-19T13:13:29Z</time>
      </trkpt>
      <trkpt lat="44.70124" lon="6.915">
        <ele>2360.4</ele>
        <time>2021-12-19T13:13:30Z</time>
      </trkpt>
      <trkpt lat="44.70123" lon="6.91501">
        <ele>2360.5</ele>
        <time>2021-12-19T13:13:31Z</time>
      </trkpt>
      <trkpt lat="44.70122" lon="6.91502">
        <ele>2360.5</ele>
        <time>2021-12-19T13:13:45Z</time>
      </trkpt>
      <trkpt lat="44.70115" lon="6.91511">
        <ele>2361.1</ele>
        <time>2021-12-19T13:13:46Z</time>
      </trkpt>
      <trkpt lat="44.70114" lon="6.91511">
        <ele>2361.1</ele>
        <time>2021-12-19T13:13:47Z</time>
      </trkpt>
      <trkpt lat="44.70113" lon="6.91511">
        <ele>2361.1</ele>
        <time>2021-12-19T13:14:04Z</time>
      </trkpt>
      <trkpt lat="44.70105" lon="6.91515">
        <ele>2363.2</ele>
        <time>2021-12-19T13:14:05Z</time>
      </trkpt>
      <trkpt lat="44.70104" lon="6.91516">
        <ele>2363.3</ele>
        <time>2021-12-19T13:14:06Z</time>
      </trkpt>
      <trkpt lat="44.70096" lon="6.91525">
        <ele>2365.5</ele>
        <time>2021-12-19T13:14:25Z</time>
      </trkpt>
      <trkpt lat="44.70088" lon="6.91532">
        <ele>2365.7</ele>
        <time>2021-12-19T13:14:47Z</time>
      </trkpt>
      <trkpt lat="44.70087" lon="6.91534">
        <ele>2365.8</ele>
        <time>2021-12-19T13:14:57Z</time>
      </trkpt>
      <trkpt lat="44.70078" lon="6.91538">
        <ele>2367</ele>
        <time>2021-12-19T13:14:58Z</time>
      </trkpt>
      <trkpt lat="44.70078" lon="6.91539">
        <ele>2367.2</ele>
        <time>2021-12-19T13:14:59Z</time>
      </trkpt>
      <trkpt lat="44.70077" lon="6.91541">
        <ele>2367.4</ele>
        <time>2021-12-19T13:15:16Z</time>
      </trkpt>
      <trkpt lat="44.70069" lon="6.91547">
        <ele>2368.9</ele>
        <time>2021-12-19T13:15:17Z</time>
      </trkpt>
      <trkpt lat="44.70068" lon="6.91547">
        <ele>2369.1</ele>
        <time>2021-12-19T13:15:18Z</time>
      </trkpt>
      <trkpt lat="44.70059" lon="6.91556">
        <ele>2369.4</ele>
        <time>2021-12-19T13:15:31Z</time>
      </trkpt>
      <trkpt lat="44.70057" lon="6.91559">
        <ele>2369.1</ele>
        <time>2021-12-19T13:15:57Z</time>
      </trkpt>
      <trkpt lat="44.70053" lon="6.9157">
        <ele>2370.2</ele>
        <time>2021-12-19T13:15:58Z</time>
      </trkpt>
      <trkpt lat="44.70053" lon="6.91569">
        <ele>2370.1</ele>
        <time>2021-12-19T13:15:59Z</time>
      </trkpt>
      <trkpt lat="44.70052" lon="6.91569">
        <ele>2370</ele>
        <time>2021-12-19T13:16:17Z</time>
      </trkpt>
      <trkpt lat="44.70045" lon="6.91578">
        <ele>2369.9</ele>
        <time>2021-12-19T13:16:18Z</time>
      </trkpt>
      <trkpt lat="44.70045" lon="6.91579">
        <ele>2369.9</ele>
        <time>2021-12-19T13:16:19Z</time>
      </trkpt>
      <trkpt lat="44.70044" lon="6.9158">
        <ele>2369.9</ele>
        <time>2021-12-19T13:16:34Z</time>
      </trkpt>
      <trkpt lat="44.70037" lon="6.91588">
        <ele>2369.9</ele>
        <time>2021-12-19T13:16:35Z</time>
      </trkpt>
      <trkpt lat="44.70036" lon="6.91589">
        <ele>2369.9</ele>
        <time>2021-12-19T13:16:36Z</time>
      </trkpt>
      <trkpt lat="44.70027" lon="6.91598">
        <ele>2369.5</ele>
        <time>2021-12-19T13:16:57Z</time>
      </trkpt>
      <trkpt lat="44.70026" lon="6.91599">
        <ele>2369.6</ele>
        <time>2021-12-19T13:17:07Z</time>
      </trkpt>
      <trkpt lat="44.7002" lon="6.91608">
        <ele>2370.1</ele>
        <time>2021-12-19T13:17:08Z</time>
      </trkpt>
      <trkpt lat="44.70019" lon="6.91609">
        <ele>2370.1</ele>
        <time>2021-12-19T13:17:09Z</time>
      </trkpt>
      <trkpt lat="44.70018" lon="6.9161">
        <ele>2370.3</ele>
        <time>2021-12-19T13:17:38Z</time>
      </trkpt>
      <trkpt lat="44.70011" lon="6.91619">
        <ele>2372.4</ele>
        <time>2021-12-19T13:17:39Z</time>
      </trkpt>
      <trkpt lat="44.70011" lon="6.91619">
        <ele>2372.4</ele>
        <time>2021-12-19T13:17:40Z</time>
      </trkpt>
      <trkpt lat="44.7001" lon="6.91621">
        <ele>2372.6</ele>
        <time>2021-12-19T13:18:10Z</time>
      </trkpt>
      <trkpt lat="44.70002" lon="6.91629">
        <ele>2373</ele>
        <time>2021-12-19T13:18:11Z</time>
      </trkpt>
      <trkpt lat="44.70001" lon="6.91629">
        <ele>2373</ele>
        <time>2021-12-19T13:18:12Z</time>
      </trkpt>
      <trkpt lat="44.69993" lon="6.91639">
        <ele>2372.5</ele>
        <time>2021-12-19T13:18:32Z</time>
      </trkpt>
      <trkpt lat="44.69992" lon="6.91639">
        <ele>2372.6</ele>
        <time>2021-12-19T13:19:14Z</time>
      </trkpt>
      <trkpt lat="44.69986" lon="6.9165">
        <ele>2373.5</ele>
        <time>2021-12-19T13:19:15Z</time>
      </trkpt>
      <trkpt lat="44.69986" lon="6.91651">
        <ele>2373.6</ele>
        <time>2021-12-19T13:19:16Z</time>
      </trkpt>
      <trkpt lat="44.69986" lon="6.91651">
        <ele>2373.8</ele>
        <time>2021-12-19T13:19:42Z</time>
      </trkpt>
      <trkpt lat="44.6998" lon="6.91661">
        <ele>2374.1</ele>
        <time>2021-12-19T13:19:43Z</time>
      </trkpt>
      <trkpt lat="44.6998" lon="6.91661">
        <ele>2374.1</ele>
        <time>2021-12-19T13:19:44Z</time>
      </trkpt>
      <trkpt lat="44.69979" lon="6.91661">
        <ele>2374</ele>
        <time>2021-12-19T13:20:08Z</time>
      </trkpt>
      <trkpt lat="44.6997" lon="6.91666">
        <ele>2374</ele>
        <time>2021-12-19T13:20:09Z</time>
      </trkpt>
      <trkpt lat="44.69969" lon="6.91667">
        <ele>2374</ele>
        <time>2021-12-19T13:20:10Z</time>
      </trkpt>
      <trkpt lat="44.69968" lon="6.91668">
        <ele>2374</ele>
        <time>2021-12-19T13:20:28Z</time>
      </trkpt>
      <trkpt lat="44.69961" lon="6.91674">
        <ele>2375.1</ele>
        <time>2021-12-19T13:20:29Z</time>
      </trkpt>
      <trkpt lat="44.6996" lon="6.91674">
        <ele>2375.2</ele>
        <time>2021-12-19T13:20:30Z</time>
      </trkpt>
      <trkpt lat="44.69951" lon="6.91679">
        <ele>2376.4</ele>
        <time>2021-12-19T13:20:51Z</time>
      </trkpt>
      <trkpt lat="44.6994" lon="6.91681">
        <ele>2376.8</ele>
        <time>2021-12-19T13:21:24Z</time>
      </trkpt>
      <trkpt lat="44.69929" lon="6.9168">
        <ele>2377.5</ele>
        <time>2021-12-19T13:21:59Z</time>
      </trkpt>
      <trkpt lat="44.69927" lon="6.91679">
        <ele>2377.5</ele>
        <time>2021-12-19T13:22:18Z</time>
      </trkpt>
      <trkpt lat="44.69918" lon="6.91681">
        <ele>2377.9</ele>
        <time>2021-12-19T13:22:19Z</time>
      </trkpt>
      <trkpt lat="44.69919" lon="6.91681">
        <ele>2377.8</ele>
        <time>2021-12-19T13:22:20Z</time>
      </trkpt>
      <trkpt lat="44.69915" lon="6.91693">
        <ele>2379.1</ele>
        <time>2021-12-19T13:22:54Z</time>
      </trkpt>
      <trkpt lat="44.69914" lon="6.91695">
        <ele>2379.2</ele>
        <time>2021-12-19T13:24:06Z</time>
      </trkpt>
      <trkpt lat="44.69907" lon="6.91687">
        <ele>2385.1</ele>
        <time>2021-12-19T13:24:07Z</time>
      </trkpt>
      <trkpt lat="44.69906" lon="6.91685">
        <ele>2385.2</ele>
        <time>2021-12-19T13:24:08Z</time>
      </trkpt>
      <trkpt lat="44.69905" lon="6.91683">
        <ele>2385.5</ele>
        <time>2021-12-19T13:24:10Z</time>
      </trkpt>
      <trkpt lat="44.69904" lon="6.91679">
        <ele>2385.5</ele>
        <time>2021-12-19T13:24:11Z</time>
      </trkpt>
      <trkpt lat="44.69904" lon="6.91677">
        <ele>2385.5</ele>
        <time>2021-12-19T13:24:12Z</time>
      </trkpt>
      <trkpt lat="44.69904" lon="6.91675">
        <ele>2385.6</ele>
        <time>2021-12-19T13:24:13Z</time>
      </trkpt>
      <trkpt lat="44.69895" lon="6.91667">
        <ele>2385</ele>
        <time>2021-12-19T13:24:27Z</time>
      </trkpt>
      <trkpt lat="44.69893" lon="6.91666">
        <ele>2385.4</ele>
        <time>2021-12-19T13:24:43Z</time>
      </trkpt>
      <trkpt lat="44.69888" lon="6.91654">
        <ele>2387.1</ele>
        <time>2021-12-19T13:24:44Z</time>
      </trkpt>
      <trkpt lat="44.69887" lon="6.91655">
        <ele>2387.1</ele>
        <time>2021-12-19T13:24:45Z</time>
      </trkpt>
      <trkpt lat="44.69886" lon="6.91655">
        <ele>2387.1</ele>
        <time>2021-12-19T13:25:03Z</time>
      </trkpt>
      <trkpt lat="44.69877" lon="6.91655">
        <ele>2387.8</ele>
        <time>2021-12-19T13:25:04Z</time>
      </trkpt>
      <trkpt lat="44.69876" lon="6.91653">
        <ele>2388</ele>
        <time>2021-12-19T13:25:05Z</time>
      </trkpt>
      <trkpt lat="44.69877" lon="6.91654">
        <ele>2388.1</ele>
        <time>2021-12-19T13:25:54Z</time>
      </trkpt>
      <trkpt lat="44.69867" lon="6.91656">
        <ele>2388.4</ele>
        <time>2021-12-19T13:25:55Z</time>
      </trkpt>
      <trkpt lat="44.69867" lon="6.91656">
        <ele>2388.5</ele>
        <time>2021-12-19T13:25:56Z</time>
      </trkpt>
      <trkpt lat="44.69866" lon="6.91656">
        <ele>2388.6</ele>
        <time>2021-12-19T13:26:27Z</time>
      </trkpt>
      <trkpt lat="44.69856" lon="6.91656">
        <ele>2388.8</ele>
        <time>2021-12-19T13:26:28Z</time>
      </trkpt>
      <trkpt lat="44.69856" lon="6.91656">
        <ele>2388.8</ele>
        <time>2021-12-19T13:26:29Z</time>
      </trkpt>
      <trkpt lat="44.69855" lon="6.91657">
        <ele>2388.8</ele>
        <time>2021-12-19T13:26:50Z</time>
      </trkpt>
      <trkpt lat="44.69845" lon="6.9166">
        <ele>2390.8</ele>
        <time>2021-12-19T13:26:51Z</time>
      </trkpt>
      <trkpt lat="44.69845" lon="6.9166">
        <ele>2390.9</ele>
        <time>2021-12-19T13:26:52Z</time>
      </trkpt>
      <trkpt lat="44.69835" lon="6.91665">
        <ele>2393.1</ele>
        <time>2021-12-19T13:27:20Z</time>
      </trkpt>
      <trkpt lat="44.69826" lon="6.91672">
        <ele>2393.2</ele>
        <time>2021-12-19T13:27:46Z</time>
      </trkpt>
      <trkpt lat="44.69816" lon="6.91675">
        <ele>2393.6</ele>
        <time>2021-12-19T13:28:09Z</time>
      </trkpt>
      <trkpt lat="44.69806" lon="6.91678">
        <ele>2393.8</ele>
        <time>2021-12-19T13:28:41Z</time>
      </trkpt>
      <trkpt lat="44.69804" lon="6.91677">
        <ele>2393.8</ele>
        <time>2021-12-19T13:29:10Z</time>
      </trkpt>
      <trkpt lat="44.69796" lon="6.91683">
        <ele>2395</ele>
        <time>2021-12-19T13:29:11Z</time>
      </trkpt>
      <trkpt lat="44.69796" lon="6.91684">
        <ele>2395</ele>
        <time>2021-12-19T13:29:12Z</time>
      </trkpt>
      <trkpt lat="44.69795" lon="6.91685">
        <ele>2395.2</ele>
        <time>2021-12-19T13:29:27Z</time>
      </trkpt>
      <trkpt lat="44.69786" lon="6.91691">
        <ele>2396.6</ele>
        <time>2021-12-19T13:29:28Z</time>
      </trkpt>
      <trkpt lat="44.69786" lon="6.91691">
        <ele>2396.6</ele>
        <time>2021-12-19T13:29:29Z</time>
      </trkpt>
      <trkpt lat="44.69784" lon="6.91691">
        <ele>2396.9</ele>
        <time>2021-12-19T13:29:58Z</time>
      </trkpt>
      <trkpt lat="44.69777" lon="6.917">
        <ele>2397.3</ele>
        <time>2021-12-19T13:29:59Z</time>
      </trkpt>
      <trkpt lat="44.69777" lon="6.917">
        <ele>2397.3</ele>
        <time>2021-12-19T13:30:00Z</time>
      </trkpt>
      <trkpt lat="44.69776" lon="6.917">
        <ele>2397.4</ele>
        <time>2021-12-19T13:30:22Z</time>
      </trkpt>
      <trkpt lat="44.69767" lon="6.91702">
        <ele>2397</ele>
        <time>2021-12-19T13:30:23Z</time>
      </trkpt>
      <trkpt lat="44.69767" lon="6.91702">
        <ele>2397</ele>
        <time>2021-12-19T13:30:24Z</time>
      </trkpt>
      <trkpt lat="44.69757" lon="6.91702">
        <ele>2397.5</ele>
        <time>2021-12-19T13:31:04Z</time>
      </trkpt>
      <trkpt lat="44.69755" lon="6.91703">
        <ele>2397.7</ele>
        <time>2021-12-19T13:31:25Z</time>
      </trkpt>
      <trkpt lat="44.69746" lon="6.91704">
        <ele>2397.7</ele>
        <time>2021-12-19T13:31:26Z</time>
      </trkpt>
      <trkpt lat="44.69746" lon="6.91704">
        <ele>2397.7</ele>
        <time>2021-12-19T13:31:27Z</time>
      </trkpt>
      <trkpt lat="44.69745" lon="6.91705">
        <ele>2397.8</ele>
        <time>2021-12-19T13:31:43Z</time>
      </trkpt>
      <trkpt lat="44.69736" lon="6.91705">
        <ele>2397.6</ele>
        <time>2021-12-19T13:31:44Z</time>
      </trkpt>
      <trkpt lat="44.69735" lon="6.91705">
        <ele>2397.7</ele>
        <time>2021-12-19T13:31:45Z</time>
      </trkpt>
      <trkpt lat="44.69735" lon="6.91705">
        <ele>2397.7</ele>
        <time>2021-12-19T13:32:07Z</time>
      </trkpt>
      <trkpt lat="44.69726" lon="6.91702">
        <ele>2397.6</ele>
        <time>2021-12-19T13:32:08Z</time>
      </trkpt>
      <trkpt lat="44.69725" lon="6.91702">
        <ele>2397.6</ele>
        <time>2021-12-19T13:32:09Z</time>
      </trkpt>
      <trkpt lat="44.69717" lon="6.9171">
        <ele>2398.2</ele>
        <time>2021-12-19T13:32:34Z</time>
      </trkpt>
      <trkpt lat="44.69704" lon="6.91708">
        <ele>2403.8</ele>
        <time>2021-12-19T13:32:55Z</time>
      </trkpt>
      <trkpt lat="44.69702" lon="6.91706">
        <ele>2404.5</ele>
        <time>2021-12-19T13:33:11Z</time>
      </trkpt>
      <trkpt lat="44.69693" lon="6.91702">
        <ele>2407.6</ele>
        <time>2021-12-19T13:33:12Z</time>
      </trkpt>
      <trkpt lat="44.69693" lon="6.91702">
        <ele>2408.3</ele>
        <time>2021-12-19T13:33:13Z</time>
      </trkpt>
      <trkpt lat="44.69692" lon="6.91702">
        <ele>2409.5</ele>
        <time>2021-12-19T13:35:26Z</time>
      </trkpt>
      <trkpt lat="44.697" lon="6.91707">
        <ele>2412.8</ele>
        <time>2021-12-19T13:35:27Z</time>
      </trkpt>
      <trkpt lat="44.697" lon="6.91707">
        <ele>2412.8</ele>
        <time>2021-12-19T13:35:28Z</time>
      </trkpt>
      <trkpt lat="44.697" lon="6.91708">
        <ele>2412.9</ele>
        <time>2021-12-19T13:37:26Z</time>
      </trkpt>
      <trkpt lat="44.69709" lon="6.91711">
        <ele>2412.8</ele>
        <time>2021-12-19T13:37:27Z</time>
      </trkpt>
      <trkpt lat="44.69709" lon="6.91711">
        <ele>2412.8</ele>
        <time>2021-12-19T13:37:28Z</time>
      </trkpt>
      <trkpt lat="44.6971" lon="6.91711">
        <ele>2412.8</ele>
        <time>2021-12-19T13:43:26Z</time>
      </trkpt>
      <trkpt lat="44.697" lon="6.91707">
        <ele>2413.8</ele>
        <time>2021-12-19T13:43:27Z</time>
      </trkpt>
      <trkpt lat="44.697" lon="6.91707">
        <ele>2413.8</ele>
        <time>2021-12-19T13:43:28Z</time>
      </trkpt>
      <trkpt lat="44.69691" lon="6.91702">
        <ele>2413.7</ele>
        <time>2021-12-19T13:44:03Z</time>
      </trkpt>
      <trkpt lat="44.6969" lon="6.91702">
        <ele>2413.5</ele>
        <time>2021-12-19T13:44:24Z</time>
      </trkpt>
      <trkpt lat="44.69681" lon="6.91702">
        <ele>2413.4</ele>
        <time>2021-12-19T13:44:25Z</time>
      </trkpt>
      <trkpt lat="44.6968" lon="6.91702">
        <ele>2413.3</ele>
        <time>2021-12-19T13:44:26Z</time>
      </trkpt>
      <trkpt lat="44.69671" lon="6.91701">
        <ele>2413.4</ele>
        <time>2021-12-19T13:44:46Z</time>
      </trkpt>
      <trkpt lat="44.69669" lon="6.91701">
        <ele>2413.5</ele>
        <time>2021-12-19T13:44:58Z</time>
      </trkpt>
      <trkpt lat="44.6966" lon="6.91698">
        <ele>2413.8</ele>
        <time>2021-12-19T13:44:59Z</time>
      </trkpt>
      <trkpt lat="44.69658" lon="6.91698">
        <ele>2413.7</ele>
        <time>2021-12-19T13:45:00Z</time>
      </trkpt>
      <trkpt lat="44.69657" lon="6.91697">
        <ele>2413.7</ele>
        <time>2021-12-19T13:45:12Z</time>
      </trkpt>
      <trkpt lat="44.69647" lon="6.91701">
        <ele>2412.9</ele>
        <time>2021-12-19T13:45:13Z</time>
      </trkpt>
      <trkpt lat="44.69645" lon="6.917">
        <ele>2412.9</ele>
        <time>2021-12-19T13:45:14Z</time>
      </trkpt>
      <trkpt lat="44.69644" lon="6.91699">
        <ele>2412.8</ele>
        <time>2021-12-19T13:45:24Z</time>
      </trkpt>
      <trkpt lat="44.69635" lon="6.91702">
        <ele>2411.9</ele>
        <time>2021-12-19T13:45:25Z</time>
      </trkpt>
      <trkpt lat="44.69634" lon="6.91705">
        <ele>2411.7</ele>
        <time>2021-12-19T13:45:26Z</time>
      </trkpt>
      <trkpt lat="44.69629" lon="6.91704">
        <ele>2411.5</ele>
        <time>2021-12-19T13:45:28Z</time>
      </trkpt>
      <trkpt lat="44.69629" lon="6.91704">
        <ele>2411.5</ele>
        <time>2021-12-19T13:45:38Z</time>
      </trkpt>
      <trkpt lat="44.6962" lon="6.91704">
        <ele>2411.1</ele>
        <time>2021-12-19T13:45:39Z</time>
      </trkpt>
      <trkpt lat="44.6962" lon="6.91704">
        <ele>2411.1</ele>
        <time>2021-12-19T13:45:40Z</time>
      </trkpt>
      <trkpt lat="44.69618" lon="6.91705">
        <ele>2411</ele>
        <time>2021-12-19T13:45:54Z</time>
      </trkpt>
      <trkpt lat="44.69609" lon="6.91707">
        <ele>2411.3</ele>
        <time>2021-12-19T13:45:55Z</time>
      </trkpt>
      <trkpt lat="44.69608" lon="6.91707">
        <ele>2411.3</ele>
        <time>2021-12-19T13:45:56Z</time>
      </trkpt>
      <trkpt lat="44.69607" lon="6.91707">
        <ele>2411.5</ele>
        <time>2021-12-19T13:46:08Z</time>
      </trkpt>
      <trkpt lat="44.69597" lon="6.91708">
        <ele>2412.5</ele>
        <time>2021-12-19T13:46:09Z</time>
      </trkpt>
      <trkpt lat="44.69596" lon="6.91708">
        <ele>2412.6</ele>
        <time>2021-12-19T13:46:10Z</time>
      </trkpt>
      <trkpt lat="44.69586" lon="6.91708">
        <ele>2414.3</ele>
        <time>2021-12-19T13:46:24Z</time>
      </trkpt>
      <trkpt lat="44.69574" lon="6.91707">
        <ele>2414.3</ele>
        <time>2021-12-19T13:46:55Z</time>
      </trkpt>
      <trkpt lat="44.69572" lon="6.91707">
        <ele>2414.5</ele>
        <time>2021-12-19T13:47:19Z</time>
      </trkpt>
      <trkpt lat="44.69563" lon="6.91706">
        <ele>2415.8</ele>
        <time>2021-12-19T13:47:20Z</time>
      </trkpt>
      <trkpt lat="44.69561" lon="6.91706">
        <ele>2415.8</ele>
        <time>2021-12-19T13:47:21Z</time>
      </trkpt>
      <trkpt lat="44.6956" lon="6.91707">
        <ele>2415.9</ele>
        <time>2021-12-19T13:47:45Z</time>
      </trkpt>
      <trkpt lat="44.69554" lon="6.91717">
        <ele>2418.4</ele>
        <time>2021-12-19T13:47:46Z</time>
      </trkpt>
      <trkpt lat="44.69553" lon="6.91717">
        <ele>2418.7</ele>
        <time>2021-12-19T13:47:47Z</time>
      </trkpt>
      <trkpt lat="44.69553" lon="6.91719">
        <ele>2419.1</ele>
        <time>2021-12-19T13:48:07Z</time>
      </trkpt>
      <trkpt lat="44.69547" lon="6.9173">
        <ele>2421.6</ele>
        <time>2021-12-19T13:48:08Z</time>
      </trkpt>
      <trkpt lat="44.69547" lon="6.91731">
        <ele>2421.7</ele>
        <time>2021-12-19T13:48:09Z</time>
      </trkpt>
      <trkpt lat="44.6954" lon="6.91741">
        <ele>2425</ele>
        <time>2021-12-19T13:48:38Z</time>
      </trkpt>
      <trkpt lat="44.69539" lon="6.91742">
        <ele>2425.3</ele>
        <time>2021-12-19T13:48:57Z</time>
      </trkpt>
      <trkpt lat="44.69531" lon="6.91747">
        <ele>2425.6</ele>
        <time>2021-12-19T13:48:58Z</time>
      </trkpt>
      <trkpt lat="44.6953" lon="6.91748">
        <ele>2425.6</ele>
        <time>2021-12-19T13:48:59Z</time>
      </trkpt>
      <trkpt lat="44.69529" lon="6.91748">
        <ele>2425.7</ele>
        <time>2021-12-19T13:49:27Z</time>
      </trkpt>
      <trkpt lat="44.69519" lon="6.91751">
        <ele>2426.4</ele>
        <time>2021-12-19T13:49:28Z</time>
      </trkpt>
      <trkpt lat="44.69519" lon="6.9175">
        <ele>2426.6</ele>
        <time>2021-12-19T13:49:29Z</time>
      </trkpt>
      <trkpt lat="44.69518" lon="6.9175">
        <ele>2426.8</ele>
        <time>2021-12-19T13:49:43Z</time>
      </trkpt>
      <trkpt lat="44.69509" lon="6.91754">
        <ele>2426.9</ele>
        <time>2021-12-19T13:49:44Z</time>
      </trkpt>
      <trkpt lat="44.69508" lon="6.91754">
        <ele>2426.8</ele>
        <time>2021-12-19T13:49:45Z</time>
      </trkpt>
      <trkpt lat="44.69506" lon="6.91754">
        <ele>2427</ele>
        <time>2021-12-19T13:49:54Z</time>
      </trkpt>
      <trkpt lat="44.69497" lon="6.91763">
        <ele>2426.4</ele>
        <time>2021-12-19T13:49:55Z</time>
      </trkpt>
      <trkpt lat="44.69496" lon="6.91763">
        <ele>2426.6</ele>
        <time>2021-12-19T13:49:56Z</time>
      </trkpt>
      <trkpt lat="44.69496" lon="6.91763">
        <ele>2426.6</ele>
        <time>2021-12-19T13:50:29Z</time>
      </trkpt>
      <trkpt lat="44.69487" lon="6.91767">
        <ele>2427.4</ele>
        <time>2021-12-19T13:50:30Z</time>
      </trkpt>
      <trkpt lat="44.69487" lon="6.91767">
        <ele>2427.5</ele>
        <time>2021-12-19T13:50:31Z</time>
      </trkpt>
      <trkpt lat="44.69487" lon="6.91768">
        <ele>2427.5</ele>
        <time>2021-12-19T13:50:49Z</time>
      </trkpt>
      <trkpt lat="44.69478" lon="6.91765">
        <ele>2427.7</ele>
        <time>2021-12-19T13:50:50Z</time>
      </trkpt>
      <trkpt lat="44.69477" lon="6.91765">
        <ele>2427.6</ele>
        <time>2021-12-19T13:50:51Z</time>
      </trkpt>
      <trkpt lat="44.69466" lon="6.91766">
        <ele>2427.3</ele>
        <time>2021-12-19T13:51:06Z</time>
      </trkpt>
      <trkpt lat="44.69454" lon="6.91772">
        <ele>2427.5</ele>
        <time>2021-12-19T13:51:26Z</time>
      </trkpt>
      <trkpt lat="44.69452" lon="6.91772">
        <ele>2427.9</ele>
        <time>2021-12-19T13:51:37Z</time>
      </trkpt>
      <trkpt lat="44.69442" lon="6.91775">
        <ele>2428.6</ele>
        <time>2021-12-19T13:51:38Z</time>
      </trkpt>
      <trkpt lat="44.69442" lon="6.91775">
        <ele>2428.7</ele>
        <time>2021-12-19T13:51:39Z</time>
      </trkpt>
      <trkpt lat="44.6944" lon="6.91775">
        <ele>2429.1</ele>
        <time>2021-12-19T13:51:51Z</time>
      </trkpt>
      <trkpt lat="44.69432" lon="6.91781">
        <ele>2429.6</ele>
        <time>2021-12-19T13:51:52Z</time>
      </trkpt>
      <trkpt lat="44.69432" lon="6.91782">
        <ele>2429.7</ele>
        <time>2021-12-19T13:51:53Z</time>
      </trkpt>
      <trkpt lat="44.69431" lon="6.91782">
        <ele>2430</ele>
        <time>2021-12-19T13:52:12Z</time>
      </trkpt>
      <trkpt lat="44.69422" lon="6.91785">
        <ele>2431.2</ele>
        <time>2021-12-19T13:52:13Z</time>
      </trkpt>
      <trkpt lat="44.69421" lon="6.91786">
        <ele>2431.3</ele>
        <time>2021-12-19T13:52:14Z</time>
      </trkpt>
      <trkpt lat="44.6942" lon="6.91786">
        <ele>2431.5</ele>
        <time>2021-12-19T13:52:30Z</time>
      </trkpt>
      <trkpt lat="44.69411" lon="6.91792">
        <ele>2434.4</ele>
        <time>2021-12-19T13:52:31Z</time>
      </trkpt>
      <trkpt lat="44.6941" lon="6.91792">
        <ele>2434.8</ele>
        <time>2021-12-19T13:52:32Z</time>
      </trkpt>
      <trkpt lat="44.69401" lon="6.91795">
        <ele>2438.1</ele>
        <time>2021-12-19T13:52:57Z</time>
      </trkpt>
      <trkpt lat="44.694" lon="6.91795">
        <ele>2438.1</ele>
        <time>2021-12-19T13:53:30Z</time>
      </trkpt>
      <trkpt lat="44.69392" lon="6.91801">
        <ele>2438.1</ele>
        <time>2021-12-19T13:53:31Z</time>
      </trkpt>
      <trkpt lat="44.69391" lon="6.91801">
        <ele>2438.1</ele>
        <time>2021-12-19T13:53:32Z</time>
      </trkpt>
      <trkpt lat="44.69392" lon="6.91801">
        <ele>2438</ele>
        <time>2021-12-19T13:54:04Z</time>
      </trkpt>
      <trkpt lat="44.69383" lon="6.91805">
        <ele>2438.2</ele>
        <time>2021-12-19T13:54:05Z</time>
      </trkpt>
      <trkpt lat="44.69382" lon="6.91805">
        <ele>2438.3</ele>
        <time>2021-12-19T13:54:06Z</time>
      </trkpt>
      <trkpt lat="44.69381" lon="6.91805">
        <ele>2438.4</ele>
        <time>2021-12-19T13:54:25Z</time>
      </trkpt>
      <trkpt lat="44.69373" lon="6.9181">
        <ele>2438.8</ele>
        <time>2021-12-19T13:54:26Z</time>
      </trkpt>
      <trkpt lat="44.69372" lon="6.9181">
        <ele>2438.8</ele>
        <time>2021-12-19T13:54:27Z</time>
      </trkpt>
      <trkpt lat="44.69372" lon="6.91811">
        <ele>2438.8</ele>
        <time>2021-12-19T13:54:43Z</time>
      </trkpt>
      <trkpt lat="44.69366" lon="6.9182">
        <ele>2439</ele>
        <time>2021-12-19T13:54:44Z</time>
      </trkpt>
      <trkpt lat="44.69365" lon="6.91821">
        <ele>2439.1</ele>
        <time>2021-12-19T13:54:45Z</time>
      </trkpt>
      <trkpt lat="44.69364" lon="6.91822">
        <ele>2439.3</ele>
        <time>2021-12-19T13:54:59Z</time>
      </trkpt>
      <trkpt lat="44.69355" lon="6.91828">
        <ele>2441.3</ele>
        <time>2021-12-19T13:55:00Z</time>
      </trkpt>
      <trkpt lat="44.69354" lon="6.91829">
        <ele>2441.4</ele>
        <time>2021-12-19T13:55:01Z</time>
      </trkpt>
      <trkpt lat="44.69353" lon="6.9183">
        <ele>2441.7</ele>
        <time>2021-12-19T13:55:12Z</time>
      </trkpt>
      <trkpt lat="44.69345" lon="6.91833">
        <ele>2443.1</ele>
        <time>2021-12-19T13:55:13Z</time>
      </trkpt>
      <trkpt lat="44.69344" lon="6.91835">
        <ele>2443.3</ele>
        <time>2021-12-19T13:55:14Z</time>
      </trkpt>
      <trkpt lat="44.69342" lon="6.91836">
        <ele>2443.7</ele>
        <time>2021-12-19T13:55:29Z</time>
      </trkpt>
      <trkpt lat="44.69334" lon="6.91842">
        <ele>2445.3</ele>
        <time>2021-12-19T13:55:30Z</time>
      </trkpt>
      <trkpt lat="44.69333" lon="6.91841">
        <ele>2445.4</ele>
        <time>2021-12-19T13:55:31Z</time>
      </trkpt>
      <trkpt lat="44.69332" lon="6.91842">
        <ele>2445.5</ele>
        <time>2021-12-19T13:55:49Z</time>
      </trkpt>
      <trkpt lat="44.69323" lon="6.91849">
        <ele>2446</ele>
        <time>2021-12-19T13:55:50Z</time>
      </trkpt>
      <trkpt lat="44.69323" lon="6.91849">
        <ele>2446</ele>
        <time>2021-12-19T13:55:51Z</time>
      </trkpt>
      <trkpt lat="44.69321" lon="6.91849">
        <ele>2446.1</ele>
        <time>2021-12-19T13:56:03Z</time>
      </trkpt>
      <trkpt lat="44.69313" lon="6.91847">
        <ele>2447.7</ele>
        <time>2021-12-19T13:56:04Z</time>
      </trkpt>
      <trkpt lat="44.69311" lon="6.91847">
        <ele>2447.8</ele>
        <time>2021-12-19T13:56:05Z</time>
      </trkpt>
      <trkpt lat="44.69301" lon="6.91851">
        <ele>2448.7</ele>
        <time>2021-12-19T13:56:38Z</time>
      </trkpt>
      <trkpt lat="44.69299" lon="6.91851">
        <ele>2448.8</ele>
        <time>2021-12-19T13:56:58Z</time>
      </trkpt>
      <trkpt lat="44.69288" lon="6.91849">
        <ele>2449.6</ele>
        <time>2021-12-19T13:56:59Z</time>
      </trkpt>
      <trkpt lat="44.69288" lon="6.91849">
        <ele>2449.6</ele>
        <time>2021-12-19T13:57:00Z</time>
      </trkpt>
      <trkpt lat="44.69279" lon="6.91853">
        <ele>2451</ele>
        <time>2021-12-19T13:57:47Z</time>
      </trkpt>
      <trkpt lat="44.69271" lon="6.9186">
        <ele>2451.5</ele>
        <time>2021-12-19T13:58:12Z</time>
      </trkpt>
      <trkpt lat="44.6927" lon="6.9186">
        <ele>2451.5</ele>
        <time>2021-12-19T13:58:27Z</time>
      </trkpt>
      <trkpt lat="44.69263" lon="6.9187">
        <ele>2450.9</ele>
        <time>2021-12-19T13:58:28Z</time>
      </trkpt>
      <trkpt lat="44.69262" lon="6.9187">
        <ele>2450.9</ele>
        <time>2021-12-19T13:58:29Z</time>
      </trkpt>
      <trkpt lat="44.6926" lon="6.9187">
        <ele>2451</ele>
        <time>2021-12-19T13:58:47Z</time>
      </trkpt>
      <trkpt lat="44.69251" lon="6.91872">
        <ele>2451.8</ele>
        <time>2021-12-19T13:58:48Z</time>
      </trkpt>
      <trkpt lat="44.69251" lon="6.91872">
        <ele>2451.8</ele>
        <time>2021-12-19T13:58:49Z</time>
      </trkpt>
      <trkpt lat="44.6925" lon="6.91873">
        <ele>2451.9</ele>
        <time>2021-12-19T13:59:06Z</time>
      </trkpt>
      <trkpt lat="44.69241" lon="6.91877">
        <ele>2452.6</ele>
        <time>2021-12-19T13:59:07Z</time>
      </trkpt>
      <trkpt lat="44.6924" lon="6.91878">
        <ele>2452.6</ele>
        <time>2021-12-19T13:59:08Z</time>
      </trkpt>
      <trkpt lat="44.69238" lon="6.91878">
        <ele>2452.5</ele>
        <time>2021-12-19T13:59:28Z</time>
      </trkpt>
      <trkpt lat="44.69229" lon="6.91881">
        <ele>2452.5</ele>
        <time>2021-12-19T13:59:29Z</time>
      </trkpt>
      <trkpt lat="44.69228" lon="6.91881">
        <ele>2452.6</ele>
        <time>2021-12-19T13:59:30Z</time>
      </trkpt>
      <trkpt lat="44.69226" lon="6.91881">
        <ele>2452.6</ele>
        <time>2021-12-19T13:59:45Z</time>
      </trkpt>
      <trkpt lat="44.69218" lon="6.91888">
        <ele>2452.7</ele>
        <time>2021-12-19T13:59:46Z</time>
      </trkpt>
      <trkpt lat="44.69217" lon="6.91888">
        <ele>2452.8</ele>
        <time>2021-12-19T13:59:47Z</time>
      </trkpt>
      <trkpt lat="44.69216" lon="6.91888">
        <ele>2453</ele>
        <time>2021-12-19T14:00:00Z</time>
      </trkpt>
      <trkpt lat="44.6921" lon="6.91899">
        <ele>2453.4</ele>
        <time>2021-12-19T14:00:01Z</time>
      </trkpt>
      <trkpt lat="44.69211" lon="6.91899">
        <ele>2453.3</ele>
        <time>2021-12-19T14:00:02Z</time>
      </trkpt>
      <trkpt lat="44.6921" lon="6.919">
        <ele>2453.2</ele>
        <time>2021-12-19T14:00:28Z</time>
      </trkpt>
      <trkpt lat="44.69211" lon="6.91913">
        <ele>2453.4</ele>
        <time>2021-12-19T14:00:29Z</time>
      </trkpt>
      <trkpt lat="44.69211" lon="6.91914">
        <ele>2453.4</ele>
        <time>2021-12-19T14:00:30Z</time>
      </trkpt>
      <trkpt lat="44.69211" lon="6.91916">
        <ele>2453.2</ele>
        <time>2021-12-19T14:00:33Z</time>
      </trkpt>
      <trkpt lat="44.69193" lon="6.91927">
        <ele>2443.7</ele>
        <time>2021-12-19T14:00:34Z</time>
      </trkpt>
      <trkpt lat="44.69198" lon="6.91931">
        <ele>2440.9</ele>
        <time>2021-12-19T14:00:35Z</time>
      </trkpt>
      <trkpt lat="44.69193" lon="6.91948">
        <ele>2428.2</ele>
        <time>2021-12-19T14:00:36Z</time>
      </trkpt>
      <trkpt lat="44.69187" lon="6.91973">
        <ele>2424.4</ele>
        <time>2021-12-19T14:00:37Z</time>
      </trkpt>
      <trkpt lat="44.69197" lon="6.91973">
        <ele>2432.8</ele>
        <time>2021-12-19T14:00:39Z</time>
      </trkpt>
      <trkpt lat="44.69201" lon="6.91977">
        <ele>2439.7</ele>
        <time>2021-12-19T14:00:42Z</time>
      </trkpt>
      <trkpt lat="44.69201" lon="6.91977">
        <ele>2439.7</ele>
        <time>2021-12-19T14:01:22Z</time>
      </trkpt>
      <trkpt lat="44.69199" lon="6.91989">
        <ele>2452</ele>
        <time>2021-12-19T14:01:23Z</time>
      </trkpt>
      <trkpt lat="44.69202" lon="6.91992">
        <ele>2452.2</ele>
        <time>2021-12-19T14:01:24Z</time>
      </trkpt>
      <trkpt lat="44.692" lon="6.91992">
        <ele>2452.2</ele>
        <time>2021-12-19T14:01:32Z</time>
      </trkpt>
      <trkpt lat="44.69202" lon="6.92006">
        <ele>2452.7</ele>
        <time>2021-12-19T14:01:33Z</time>
      </trkpt>
      <trkpt lat="44.69203" lon="6.92011">
        <ele>2452.9</ele>
        <time>2021-12-19T14:01:34Z</time>
      </trkpt>
      <trkpt lat="44.69199" lon="6.92011">
        <ele>2452.9</ele>
        <time>2021-12-19T14:02:25Z</time>
      </trkpt>
      <trkpt lat="44.69193" lon="6.92002">
        <ele>2453.2</ele>
        <time>2021-12-19T14:02:26Z</time>
      </trkpt>
      <trkpt lat="44.69193" lon="6.92001">
        <ele>2453.3</ele>
        <time>2021-12-19T14:02:27Z</time>
      </trkpt>
      <trkpt lat="44.69192" lon="6.92001">
        <ele>2453.3</ele>
        <time>2021-12-19T14:03:10Z</time>
      </trkpt>
      <trkpt lat="44.69187" lon="6.9199">
        <ele>2453.7</ele>
        <time>2021-12-19T14:03:11Z</time>
      </trkpt>
      <trkpt lat="44.69187" lon="6.91989">
        <ele>2453.7</ele>
        <time>2021-12-19T14:03:12Z</time>
      </trkpt>
      <trkpt lat="44.69186" lon="6.91988">
        <ele>2453.8</ele>
        <time>2021-12-19T14:03:42Z</time>
      </trkpt>
      <trkpt lat="44.69177" lon="6.91984">
        <ele>2454.1</ele>
        <time>2021-12-19T14:03:43Z</time>
      </trkpt>
      <trkpt lat="44.69176" lon="6.91984">
        <ele>2454.1</ele>
        <time>2021-12-19T14:03:44Z</time>
      </trkpt>
      <trkpt lat="44.69174" lon="6.91982">
        <ele>2454.2</ele>
        <time>2021-12-19T14:03:53Z</time>
      </trkpt>
      <trkpt lat="44.69167" lon="6.91973">
        <ele>2454.6</ele>
        <time>2021-12-19T14:03:54Z</time>
      </trkpt>
      <trkpt lat="44.69167" lon="6.91972">
        <ele>2454.7</ele>
        <time>2021-12-19T14:03:55Z</time>
      </trkpt>
      <trkpt lat="44.69166" lon="6.9197">
        <ele>2454.7</ele>
        <time>2021-12-19T14:04:04Z</time>
      </trkpt>
      <trkpt lat="44.6916" lon="6.91957">
        <ele>2455.1</ele>
        <time>2021-12-19T14:04:05Z</time>
      </trkpt>
      <trkpt lat="44.69159" lon="6.91955">
        <ele>2455.2</ele>
        <time>2021-12-19T14:04:06Z</time>
      </trkpt>
      <trkpt lat="44.69153" lon="6.9194">
        <ele>2457.1</ele>
        <time>2021-12-19T14:04:56Z</time>
      </trkpt>
      <trkpt lat="44.69151" lon="6.91938">
        <ele>2457.4</ele>
        <time>2021-12-19T14:05:23Z</time>
      </trkpt>
      <trkpt lat="44.69145" lon="6.91928">
        <ele>2459.9</ele>
        <time>2021-12-19T14:05:24Z</time>
      </trkpt>
      <trkpt lat="44.69144" lon="6.91928">
        <ele>2460.2</ele>
        <time>2021-12-19T14:05:25Z</time>
      </trkpt>
      <trkpt lat="44.69142" lon="6.9194">
        <ele>2464.2</ele>
        <time>2021-12-19T14:05:43Z</time>
      </trkpt>
      <trkpt lat="44.69146" lon="6.91945">
        <ele>2464.6</ele>
        <time>2021-12-19T14:05:44Z</time>
      </trkpt>
      <trkpt lat="44.6915" lon="6.91947">
        <ele>2465</ele>
        <time>2021-12-19T14:05:46Z</time>
      </trkpt>
      <trkpt lat="44.69154" lon="6.91991">
        <ele>2466</ele>
        <time>2021-12-19T14:05:48Z</time>
      </trkpt>
      <trkpt lat="44.69164" lon="6.92007">
        <ele>2466.8</ele>
        <time>2021-12-19T14:05:50Z</time>
      </trkpt>
      <trkpt lat="44.69165" lon="6.92004">
        <ele>2467.1</ele>
        <time>2021-12-19T14:05:52Z</time>
      </trkpt>
      <trkpt lat="44.69179" lon="6.91998">
        <ele>2468.4</ele>
        <time>2021-12-19T14:05:53Z</time>
      </trkpt>
      <trkpt lat="44.69183" lon="6.9199">
        <ele>2468.8</ele>
        <time>2021-12-19T14:05:54Z</time>
      </trkpt>
      <trkpt lat="44.69191" lon="6.91994">
        <ele>2469.3</ele>
        <time>2021-12-19T14:05:55Z</time>
      </trkpt>
      <trkpt lat="44.69192" lon="6.91977">
        <ele>2470.2</ele>
        <time>2021-12-19T14:06:00Z</time>
      </trkpt>
      <trkpt lat="44.69198" lon="6.91983">
        <ele>2471.2</ele>
        <time>2021-12-19T14:06:03Z</time>
      </trkpt>
      <trkpt lat="44.69192" lon="6.91972">
        <ele>2470.7</ele>
        <time>2021-12-19T14:06:05Z</time>
      </trkpt>
      <trkpt lat="44.69193" lon="6.91974">
        <ele>2470.9</ele>
        <time>2021-12-19T14:06:33Z</time>
      </trkpt>
      <trkpt lat="44.69184" lon="6.91974">
        <ele>2471.4</ele>
        <time>2021-12-19T14:06:34Z</time>
      </trkpt>
      <trkpt lat="44.69183" lon="6.91973">
        <ele>2471.4</ele>
        <time>2021-12-19T14:06:35Z</time>
      </trkpt>
      <trkpt lat="44.69133" lon="6.91927">
        <ele>2457.2</ele>
        <time>2021-12-19T14:06:39Z</time>
      </trkpt>
      <trkpt lat="44.69127" lon="6.91931">
        <ele>2462.6</ele>
        <time>2021-12-19T14:06:40Z</time>
      </trkpt>
      <trkpt lat="44.69113" lon="6.91942">
        <ele>2464</ele>
        <time>2021-12-19T14:06:41Z</time>
      </trkpt>
      <trkpt lat="44.69101" lon="6.91954">
        <ele>2463.8</ele>
        <time>2021-12-19T14:06:42Z</time>
      </trkpt>
      <trkpt lat="44.69101" lon="6.91954">
        <ele>2463.8</ele>
        <time>2021-12-19T14:06:43Z</time>
      </trkpt>
      <trkpt lat="44.69088" lon="6.91964">
        <ele>2465.7</ele>
        <time>2021-12-19T14:06:44Z</time>
      </trkpt>
      <trkpt lat="44.69085" lon="6.91965">
        <ele>2468</ele>
        <time>2021-12-19T14:06:45Z</time>
      </trkpt>
      <trkpt lat="44.6908" lon="6.91968">
        <ele>2468.3</ele>
        <time>2021-12-19T14:06:46Z</time>
      </trkpt>
      <trkpt lat="44.69074" lon="6.91972">
        <ele>2470.1</ele>
        <time>2021-12-19T14:06:47Z</time>
      </trkpt>
      <trkpt lat="44.69074" lon="6.91972">
        <ele>2470.1</ele>
        <time>2021-12-19T14:07:17Z</time>
      </trkpt>
      <trkpt lat="44.69084" lon="6.91967">
        <ele>2470.9</ele>
        <time>2021-12-19T14:07:18Z</time>
      </trkpt>
      <trkpt lat="44.69086" lon="6.91965">
        <ele>2471.1</ele>
        <time>2021-12-19T14:07:19Z</time>
      </trkpt>
      <trkpt lat="44.69091" lon="6.91962">
        <ele>2471.8</ele>
        <time>2021-12-19T14:07:21Z</time>
      </trkpt>
      <trkpt lat="44.69091" lon="6.91962">
        <ele>2471.8</ele>
        <time>2021-12-19T14:07:27Z</time>
      </trkpt>
      <trkpt lat="44.691" lon="6.91962">
        <ele>2474.6</ele>
        <time>2021-12-19T14:07:28Z</time>
      </trkpt>
      <trkpt lat="44.69101" lon="6.91961">
        <ele>2474.9</ele>
        <time>2021-12-19T14:07:29Z</time>
      </trkpt>
      <trkpt lat="44.69096" lon="6.91955">
        <ele>2476.4</ele>
        <time>2021-12-19T14:07:53Z</time>
      </trkpt>
      <trkpt lat="44.69092" lon="6.91959">
        <ele>2476.3</ele>
        <time>2021-12-19T14:07:57Z</time>
      </trkpt>
      <trkpt lat="44.6909" lon="6.9196">
        <ele>2476.3</ele>
        <time>2021-12-19T14:07:58Z</time>
      </trkpt>
      <trkpt lat="44.68966" lon="6.92058">
        <ele>2485.4</ele>
        <time>2021-12-19T14:08:00Z</time>
      </trkpt>
      <trkpt lat="44.68984" lon="6.92066">
        <ele>2488.7</ele>
        <time>2021-12-19T14:08:01Z</time>
      </trkpt>
      <trkpt lat="44.68994" lon="6.92071">
        <ele>2496.7</ele>
        <time>2021-12-19T14:08:02Z</time>
      </trkpt>
      <trkpt lat="44.68999" lon="6.92071">
        <ele>2500.8</ele>
        <time>2021-12-19T14:08:03Z</time>
      </trkpt>
      <trkpt lat="44.69011" lon="6.92072">
        <ele>2506.6</ele>
        <time>2021-12-19T14:08:05Z</time>
      </trkpt>
      <trkpt lat="44.69017" lon="6.92071">
        <ele>2516.7</ele>
        <time>2021-12-19T14:08:07Z</time>
      </trkpt>
      <trkpt lat="44.69014" lon="6.92073">
        <ele>2512</ele>
        <time>2021-12-19T14:09:13Z</time>
      </trkpt>
      <trkpt lat="44.69023" lon="6.92072">
        <ele>2517</ele>
        <time>2021-12-19T14:09:14Z</time>
      </trkpt>
      <trkpt lat="44.69025" lon="6.92072">
        <ele>2517.1</ele>
        <time>2021-12-19T14:09:15Z</time>
      </trkpt>
      <trkpt lat="44.69029" lon="6.92073">
        <ele>2517.5</ele>
        <time>2021-12-19T14:09:21Z</time>
      </trkpt>
      <trkpt lat="44.69039" lon="6.92078">
        <ele>2518.9</ele>
        <time>2021-12-19T14:09:22Z</time>
      </trkpt>
      <trkpt lat="44.69041" lon="6.92079">
        <ele>2519.3</ele>
        <time>2021-12-19T14:09:23Z</time>
      </trkpt>
      <trkpt lat="44.69044" lon="6.92081">
        <ele>2520</ele>
        <time>2021-12-19T14:09:31Z</time>
      </trkpt>
      <trkpt lat="44.69053" lon="6.92086">
        <ele>2522.1</ele>
        <time>2021-12-19T14:09:32Z</time>
      </trkpt>
      <trkpt lat="44.69054" lon="6.92087">
        <ele>2522.6</ele>
        <time>2021-12-19T14:09:33Z</time>
      </trkpt>
      <trkpt lat="44.69055" lon="6.92088">
        <ele>2523.6</ele>
        <time>2021-12-19T14:10:05Z</time>
      </trkpt>
      <trkpt lat="44.69064" lon="6.92085">
        <ele>2526.9</ele>
        <time>2021-12-19T14:10:06Z</time>
      </trkpt>
      <trkpt lat="44.69065" lon="6.92084">
        <ele>2527</ele>
        <time>2021-12-19T14:10:07Z</time>
      </trkpt>
      <trkpt lat="44.69066" lon="6.92081">
        <ele>2527.1</ele>
        <time>2021-12-19T14:10:12Z</time>
      </trkpt>
      <trkpt lat="44.69072" lon="6.92071">
        <ele>2527.8</ele>
        <time>2021-12-19T14:10:13Z</time>
      </trkpt>
      <trkpt lat="44.69073" lon="6.92069">
        <ele>2527.9</ele>
        <time>2021-12-19T14:10:14Z</time>
      </trkpt>
      <trkpt lat="44.69076" lon="6.92066">
        <ele>2528.2</ele>
        <time>2021-12-19T14:10:20Z</time>
      </trkpt>
      <trkpt lat="44.69081" lon="6.92053">
        <ele>2529.1</ele>
        <time>2021-12-19T14:10:21Z</time>
      </trkpt>
      <trkpt lat="44.69082" lon="6.92051">
        <ele>2529.3</ele>
        <time>2021-12-19T14:10:22Z</time>
      </trkpt>
      <trkpt lat="44.69083" lon="6.92048">
        <ele>2529.6</ele>
        <time>2021-12-19T14:10:28Z</time>
      </trkpt>
      <trkpt lat="44.69083" lon="6.92035">
        <ele>2530.5</ele>
        <time>2021-12-19T14:10:29Z</time>
      </trkpt>
      <trkpt lat="44.69084" lon="6.92033">
        <ele>2530.7</ele>
        <time>2021-12-19T14:10:30Z</time>
      </trkpt>
      <trkpt lat="44.69083" lon="6.92029">
        <ele>2531.1</ele>
        <time>2021-12-19T14:10:38Z</time>
      </trkpt>
      <trkpt lat="44.69087" lon="6.92016">
        <ele>2532.5</ele>
        <time>2021-12-19T14:10:39Z</time>
      </trkpt>
      <trkpt lat="44.69087" lon="6.92015">
        <ele>2532.5</ele>
        <time>2021-12-19T14:10:40Z</time>
      </trkpt>
      <trkpt lat="44.69087" lon="6.92012">
        <ele>2532.8</ele>
        <time>2021-12-19T14:11:45Z</time>
      </trkpt>
      <trkpt lat="44.69097" lon="6.92013">
        <ele>2538.9</ele>
        <time>2021-12-19T14:11:46Z</time>
      </trkpt>
      <trkpt lat="44.69099" lon="6.92012">
        <ele>2539.2</ele>
        <time>2021-12-19T14:11:47Z</time>
      </trkpt>
      <trkpt lat="44.69101" lon="6.92011">
        <ele>2539.5</ele>
        <time>2021-12-19T14:12:29Z</time>
      </trkpt>
      <trkpt lat="44.69104" lon="6.91999">
        <ele>2543.8</ele>
        <time>2021-12-19T14:12:30Z</time>
      </trkpt>
      <trkpt lat="44.69105" lon="6.91997">
        <ele>2544.2</ele>
        <time>2021-12-19T14:12:32Z</time>
      </trkpt>
      <trkpt lat="44.69107" lon="6.91999">
        <ele>2544.4</ele>
        <time>2021-12-19T14:12:33Z</time>
      </trkpt>
      <trkpt lat="44.69111" lon="6.92002">
        <ele>2545.1</ele>
        <time>2021-12-19T14:12:35Z</time>
      </trkpt>
      <trkpt lat="44.69118" lon="6.92002">
        <ele>2552</ele>
        <time>2021-12-19T14:12:56Z</time>
      </trkpt>
      <trkpt lat="44.69118" lon="6.91999">
        <ele>2552.2</ele>
        <time>2021-12-19T14:12:57Z</time>
      </trkpt>
      <trkpt lat="44.6912" lon="6.91994">
        <ele>2552.3</ele>
        <time>2021-12-19T14:12:58Z</time>
      </trkpt>
      <trkpt lat="44.69125" lon="6.91988">
        <ele>2552.3</ele>
        <time>2021-12-19T14:12:59Z</time>
      </trkpt>
      <trkpt lat="44.69129" lon="6.91983">
        <ele>2552.3</ele>
        <time>2021-12-19T14:13:00Z</time>
      </trkpt>
      <trkpt lat="44.69135" lon="6.91977">
        <ele>2552.2</ele>
        <time>2021-12-19T14:13:01Z</time>
      </trkpt>
      <trkpt lat="44.6914" lon="6.91973">
        <ele>2552.3</ele>
        <time>2021-12-19T14:13:02Z</time>
      </trkpt>
      <trkpt lat="44.69139" lon="6.91964">
        <ele>2553.7</ele>
        <time>2021-12-19T14:13:04Z</time>
      </trkpt>
      <trkpt lat="44.69136" lon="6.91966">
        <ele>2554.4</ele>
        <time>2021-12-19T14:13:05Z</time>
      </trkpt>
      <trkpt lat="44.69127" lon="6.91975">
        <ele>2556.4</ele>
        <time>2021-12-19T14:13:07Z</time>
      </trkpt>
      <trkpt lat="44.69127" lon="6.91975">
        <ele>2556.4</ele>
        <time>2021-12-19T14:13:26Z</time>
      </trkpt>
      <trkpt lat="44.69121" lon="6.91985">
        <ele>2560.6</ele>
        <time>2021-12-19T14:13:27Z</time>
      </trkpt>
      <trkpt lat="44.6912" lon="6.91986">
        <ele>2560.8</ele>
        <time>2021-12-19T14:13:28Z</time>
      </trkpt>
      <trkpt lat="44.69119" lon="6.91987">
        <ele>2561.3</ele>
        <time>2021-12-19T14:13:41Z</time>
      </trkpt>
      <trkpt lat="44.69114" lon="6.91997">
        <ele>2565.9</ele>
        <time>2021-12-19T14:13:42Z</time>
      </trkpt>
      <trkpt lat="44.69114" lon="6.91998">
        <ele>2566.5</ele>
        <time>2021-12-19T14:13:43Z</time>
      </trkpt>
      <trkpt lat="44.69112" lon="6.92003">
        <ele>2568.6</ele>
        <time>2021-12-19T14:14:48Z</time>
      </trkpt>
      <trkpt lat="44.69116" lon="6.92014">
        <ele>2576.7</ele>
        <time>2021-12-19T14:14:49Z</time>
      </trkpt>
      <trkpt lat="44.69116" lon="6.92014">
        <ele>2576.7</ele>
        <time>2021-12-19T14:14:50Z</time>
      </trkpt>
      <trkpt lat="44.69117" lon="6.92014">
        <ele>2576.9</ele>
        <time>2021-12-19T14:16:08Z</time>
      </trkpt>
      <trkpt lat="44.69121" lon="6.92026">
        <ele>2581</ele>
        <time>2021-12-19T14:16:09Z</time>
      </trkpt>
      <trkpt lat="44.69121" lon="6.92027">
        <ele>2581.1</ele>
        <time>2021-12-19T14:16:10Z</time>
      </trkpt>
      <trkpt lat="44.69128" lon="6.9204">
        <ele>2582.1</ele>
        <time>2021-12-19T14:16:21Z</time>
      </trkpt>
      <trkpt lat="44.69139" lon="6.92049">
        <ele>2585.7</ele>
        <time>2021-12-19T14:16:39Z</time>
      </trkpt>
      <trkpt lat="44.69139" lon="6.9205">
        <ele>2586.5</ele>
        <time>2021-12-19T14:17:24Z</time>
      </trkpt>
      <trkpt lat="44.69147" lon="6.92057">
        <ele>2589.2</ele>
        <time>2021-12-19T14:17:25Z</time>
      </trkpt>
      <trkpt lat="44.69147" lon="6.92057">
        <ele>2589.1</ele>
        <time>2021-12-19T14:17:26Z</time>
      </trkpt>
      <trkpt lat="44.69147" lon="6.92058">
        <ele>2589.3</ele>
        <time>2021-12-19T14:18:39Z</time>
      </trkpt>
      <trkpt lat="44.69156" lon="6.92059">
        <ele>2593.3</ele>
        <time>2021-12-19T14:18:40Z</time>
      </trkpt>
      <trkpt lat="44.69157" lon="6.92058">
        <ele>2593.3</ele>
        <time>2021-12-19T14:18:41Z</time>
      </trkpt>
      <trkpt lat="44.69157" lon="6.92059">
        <ele>2593.4</ele>
        <time>2021-12-19T14:21:09Z</time>
      </trkpt>
      <trkpt lat="44.69158" lon="6.92072">
        <ele>2597.9</ele>
        <time>2021-12-19T14:21:10Z</time>
      </trkpt>
      <trkpt lat="44.69158" lon="6.92072">
        <ele>2597.7</ele>
        <time>2021-12-19T14:21:11Z</time>
      </trkpt>
      <trkpt lat="44.69158" lon="6.92073">
        <ele>2597.4</ele>
        <time>2021-12-19T14:26:54Z</time>
      </trkpt>
      <trkpt lat="44.69156" lon="6.92085">
        <ele>2609.5</ele>
        <time>2021-12-19T14:26:55Z</time>
      </trkpt>
      <trkpt lat="44.69156" lon="6.92086">
        <ele>2609.6</ele>
        <time>2021-12-19T14:26:56Z</time>
      </trkpt>
      <trkpt lat="44.69146" lon="6.92086">
        <ele>2612</ele>
        <time>2021-12-19T14:27:53Z</time>
      </trkpt>
      <trkpt lat="44.69134" lon="6.92081">
        <ele>2614.9</ele>
        <time>2021-12-19T14:28:08Z</time>
      </trkpt>
      <trkpt lat="44.6913" lon="6.9209">
        <ele>2616.7</ele>
        <time>2021-12-19T14:28:27Z</time>
      </trkpt>
      <trkpt lat="44.6913" lon="6.92091">
        <ele>2616.9</ele>
        <time>2021-12-19T14:28:33Z</time>
      </trkpt>
      <trkpt lat="44.69127" lon="6.92074">
        <ele>2617.9</ele>
        <time>2021-12-19T14:28:34Z</time>
      </trkpt>
      <trkpt lat="44.69129" lon="6.9208">
        <ele>2617.6</ele>
        <time>2021-12-19T14:28:35Z</time>
      </trkpt>
      <trkpt lat="44.69128" lon="6.92076">
        <ele>2617.8</ele>
        <time>2021-12-19T14:28:51Z</time>
      </trkpt>
      <trkpt lat="44.69124" lon="6.92064">
        <ele>2619.7</ele>
        <time>2021-12-19T14:28:52Z</time>
      </trkpt>
      <trkpt lat="44.69125" lon="6.92066">
        <ele>2619.5</ele>
        <time>2021-12-19T14:28:53Z</time>
      </trkpt>
      <trkpt lat="44.69117" lon="6.9206">
        <ele>2621.6</ele>
        <time>2021-12-19T14:29:32Z</time>
      </trkpt>
      <trkpt lat="44.69111" lon="6.92047">
        <ele>2624.1</ele>
        <time>2021-12-19T14:30:07Z</time>
      </trkpt>
      <trkpt lat="44.69111" lon="6.92044">
        <ele>2624.6</ele>
        <time>2021-12-19T14:33:14Z</time>
      </trkpt>
      <trkpt lat="44.69114" lon="6.92033">
        <ele>2632.3</ele>
        <time>2021-12-19T14:33:15Z</time>
      </trkpt>
      <trkpt lat="44.69114" lon="6.92032">
        <ele>2632.2</ele>
        <time>2021-12-19T14:33:16Z</time>
      </trkpt>
      <trkpt lat="44.69109" lon="6.92033">
        <ele>2634.3</ele>
        <time>2021-12-19T14:33:32Z</time>
      </trkpt>
      <trkpt lat="44.69108" lon="6.92031">
        <ele>2635</ele>
        <time>2021-12-19T14:33:43Z</time>
      </trkpt>
      <trkpt lat="44.69112" lon="6.92019">
        <ele>2636.6</ele>
        <time>2021-12-19T14:33:44Z</time>
      </trkpt>
      <trkpt lat="44.69112" lon="6.92018">
        <ele>2636.6</ele>
        <time>2021-12-19T14:33:45Z</time>
      </trkpt>
      <trkpt lat="44.69112" lon="6.92017">
        <ele>2636.8</ele>
        <time>2021-12-19T14:36:54Z</time>
      </trkpt>
      <trkpt lat="44.6911" lon="6.9203">
        <ele>2640.8</ele>
        <time>2021-12-19T14:36:55Z</time>
      </trkpt>
      <trkpt lat="44.69111" lon="6.9203">
        <ele>2640.8</ele>
        <time>2021-12-19T14:36:56Z</time>
      </trkpt>
      <trkpt lat="44.69112" lon="6.92031">
        <ele>2640.7</ele>
        <time>2021-12-19T14:41:34Z</time>
      </trkpt>
      <trkpt lat="44.69121" lon="6.9203">
        <ele>2648.3</ele>
        <time>2021-12-19T14:41:35Z</time>
      </trkpt>
      <trkpt lat="44.6912" lon="6.9203">
        <ele>2648.3</ele>
        <time>2021-12-19T14:41:36Z</time>
      </trkpt>
      <trkpt lat="44.69126" lon="6.92028">
        <ele>2648.7</ele>
        <time>2021-12-19T14:41:53Z</time>
      </trkpt>
      <trkpt lat="44.69132" lon="6.92027">
        <ele>2648.7</ele>
        <time>2021-12-19T14:41:55Z</time>
      </trkpt>
      <trkpt lat="44.69135" lon="6.92026">
        <ele>2648.6</ele>
        <time>2021-12-19T14:41:56Z</time>
      </trkpt>
      <trkpt lat="44.69137" lon="6.92026">
        <ele>2648.6</ele>
        <time>2021-12-19T14:41:57Z</time>
      </trkpt>
      <trkpt lat="44.69142" lon="6.92023">
        <ele>2648.6</ele>
        <time>2021-12-19T14:41:59Z</time>
      </trkpt>
      <trkpt lat="44.69146" lon="6.92019">
        <ele>2648.5</ele>
        <time>2021-12-19T14:42:01Z</time>
      </trkpt>
      <trkpt lat="44.69151" lon="6.92011">
        <ele>2648.4</ele>
        <time>2021-12-19T14:42:03Z</time>
      </trkpt>
      <trkpt lat="44.69152" lon="6.92002">
        <ele>2648.4</ele>
        <time>2021-12-19T14:42:05Z</time>
      </trkpt>
      <trkpt lat="44.69159" lon="6.91993">
        <ele>2648.2</ele>
        <time>2021-12-19T14:42:07Z</time>
      </trkpt>
      <trkpt lat="44.69154" lon="6.92015">
        <ele>2648.1</ele>
        <time>2021-12-19T14:42:08Z</time>
      </trkpt>
      <trkpt lat="44.69147" lon="6.92018">
        <ele>2648</ele>
        <time>2021-12-19T14:42:10Z</time>
      </trkpt>
      <trkpt lat="44.69141" lon="6.92031">
        <ele>2648.3</ele>
        <time>2021-12-19T14:42:11Z</time>
      </trkpt>
      <trkpt lat="44.69136" lon="6.92036">
        <ele>2649.6</ele>
        <time>2021-12-19T14:42:13Z</time>
      </trkpt>
      <trkpt lat="44.69135" lon="6.92037">
        <ele>2650.1</ele>
        <time>2021-12-19T14:42:14Z</time>
      </trkpt>
      <trkpt lat="44.69139" lon="6.92026">
        <ele>2651.9</ele>
        <time>2021-12-19T14:42:27Z</time>
      </trkpt>
      <trkpt lat="44.69139" lon="6.92019">
        <ele>2651.7</ele>
        <time>2021-12-19T14:42:30Z</time>
      </trkpt>
      <trkpt lat="44.6914" lon="6.92012">
        <ele>2651.2</ele>
        <time>2021-12-19T14:42:34Z</time>
      </trkpt>
      <trkpt lat="44.6914" lon="6.92008">
        <ele>2651</ele>
        <time>2021-12-19T14:42:35Z</time>
      </trkpt>
      <trkpt lat="44.6914" lon="6.91995">
        <ele>2650.6</ele>
        <time>2021-12-19T14:42:37Z</time>
      </trkpt>
      <trkpt lat="44.69143" lon="6.91985">
        <ele>2650.5</ele>
        <time>2021-12-19T14:42:38Z</time>
      </trkpt>
      <trkpt lat="44.69144" lon="6.91973">
        <ele>2650.4</ele>
        <time>2021-12-19T14:42:39Z</time>
      </trkpt>
      <trkpt lat="44.69146" lon="6.91961">
        <ele>2650.2</ele>
        <time>2021-12-19T14:42:40Z</time>
      </trkpt>
      <trkpt lat="44.69148" lon="6.9195">
        <ele>2650</ele>
        <time>2021-12-19T14:42:41Z</time>
      </trkpt>
      <trkpt lat="44.69151" lon="6.91939">
        <ele>2649.9</ele>
        <time>2021-12-19T14:42:42Z</time>
      </trkpt>
      <trkpt lat="44.69154" lon="6.9193">
        <ele>2649.7</ele>
        <time>2021-12-19T14:42:43Z</time>
      </trkpt>
      <trkpt lat="44.69155" lon="6.91922">
        <ele>2649.5</ele>
        <time>2021-12-19T14:42:44Z</time>
      </trkpt>
      <trkpt lat="44.69156" lon="6.91915">
        <ele>2649.4</ele>
        <time>2021-12-19T14:42:45Z</time>
      </trkpt>
      <trkpt lat="44.69158" lon="6.91908">
        <ele>2649.2</ele>
        <time>2021-12-19T14:42:46Z</time>
      </trkpt>
      <trkpt lat="44.69163" lon="6.91899">
        <ele>2649</ele>
        <time>2021-12-19T14:42:47Z</time>
      </trkpt>
      <trkpt lat="44.69166" lon="6.91892">
        <ele>2648.9</ele>
        <time>2021-12-19T14:42:48Z</time>
      </trkpt>
      <trkpt lat="44.69169" lon="6.91885">
        <ele>2648.7</ele>
        <time>2021-12-19T14:42:49Z</time>
      </trkpt>
      <trkpt lat="44.6917" lon="6.91876">
        <ele>2648.4</ele>
        <time>2021-12-19T14:42:51Z</time>
      </trkpt>
      <trkpt lat="44.69172" lon="6.9187">
        <ele>2648.2</ele>
        <time>2021-12-19T14:42:52Z</time>
      </trkpt>
      <trkpt lat="44.69176" lon="6.9186">
        <ele>2647.9</ele>
        <time>2021-12-19T14:42:54Z</time>
      </trkpt>
      <trkpt lat="44.69171" lon="6.91855">
        <ele>2647.6</ele>
        <time>2021-12-19T14:42:56Z</time>
      </trkpt>
      <trkpt lat="44.6917" lon="6.91862">
        <ele>2646.8</ele>
        <time>2021-12-19T14:43:02Z</time>
      </trkpt>
      <trkpt lat="44.69171" lon="6.91865">
        <ele>2646.7</ele>
        <time>2021-12-19T14:43:03Z</time>
      </trkpt>
      <trkpt lat="44.6917" lon="6.91868">
        <ele>2646.6</ele>
        <time>2021-12-19T14:43:04Z</time>
      </trkpt>
      <trkpt lat="44.69172" lon="6.91883">
        <ele>2645.1</ele>
        <time>2021-12-19T14:43:13Z</time>
      </trkpt>
      <trkpt lat="44.69172" lon="6.91889">
        <ele>2644.6</ele>
        <time>2021-12-19T14:43:16Z</time>
      </trkpt>
      <trkpt lat="44.69175" lon="6.91883">
        <ele>2642</ele>
        <time>2021-12-19T14:43:45Z</time>
      </trkpt>
      <trkpt lat="44.69178" lon="6.91874">
        <ele>2641.9</ele>
        <time>2021-12-19T14:43:46Z</time>
      </trkpt>
      <trkpt lat="44.69179" lon="6.91868">
        <ele>2641.8</ele>
        <time>2021-12-19T14:43:47Z</time>
      </trkpt>
      <trkpt lat="44.6918" lon="6.91868">
        <ele>2641.7</ele>
        <time>2021-12-19T14:43:48Z</time>
      </trkpt>
      <trkpt lat="44.69183" lon="6.91862">
        <ele>2641.5</ele>
        <time>2021-12-19T14:43:50Z</time>
      </trkpt>
      <trkpt lat="44.69185" lon="6.91855">
        <ele>2641.2</ele>
        <time>2021-12-19T14:43:53Z</time>
      </trkpt>
      <trkpt lat="44.69186" lon="6.91859">
        <ele>2641.2</ele>
        <time>2021-12-19T14:43:54Z</time>
      </trkpt>
      <trkpt lat="44.69181" lon="6.91874">
        <ele>2640.9</ele>
        <time>2021-12-19T14:43:55Z</time>
      </trkpt>
      <trkpt lat="44.69173" lon="6.91903">
        <ele>2640.6</ele>
        <time>2021-12-19T14:43:56Z</time>
      </trkpt>
      <trkpt lat="44.69167" lon="6.91925">
        <ele>2640.4</ele>
        <time>2021-12-19T14:43:57Z</time>
      </trkpt>
      <trkpt lat="44.69162" lon="6.91943">
        <ele>2640.4</ele>
        <time>2021-12-19T14:43:58Z</time>
      </trkpt>
      <trkpt lat="44.69151" lon="6.91972">
        <ele>2640.7</ele>
        <time>2021-12-19T14:43:59Z</time>
      </trkpt>
      <trkpt lat="44.69141" lon="6.91987">
        <ele>2642.9</ele>
        <time>2021-12-19T14:44:00Z</time>
      </trkpt>
      <trkpt lat="44.69136" lon="6.91996">
        <ele>2646.6</ele>
        <time>2021-12-19T14:44:02Z</time>
      </trkpt>
      <trkpt lat="44.69136" lon="6.91998">
        <ele>2648.2</ele>
        <time>2021-12-19T14:44:03Z</time>
      </trkpt>
      <trkpt lat="44.69135" lon="6.92004">
        <ele>2650.9</ele>
        <time>2021-12-19T14:44:07Z</time>
      </trkpt>
      <trkpt lat="44.69135" lon="6.92013">
        <ele>2652.7</ele>
        <time>2021-12-19T14:44:08Z</time>
      </trkpt>
      <trkpt lat="44.6914" lon="6.9202">
        <ele>2654</ele>
        <time>2021-12-19T14:44:10Z</time>
      </trkpt>
      <trkpt lat="44.69145" lon="6.92023">
        <ele>2654.2</ele>
        <time>2021-12-19T14:44:12Z</time>
      </trkpt>
      <trkpt lat="44.69149" lon="6.92029">
        <ele>2654.8</ele>
        <time>2021-12-19T14:44:14Z</time>
      </trkpt>
      <trkpt lat="44.69151" lon="6.92035">
        <ele>2655.2</ele>
        <time>2021-12-19T14:44:15Z</time>
      </trkpt>
      <trkpt lat="44.69157" lon="6.92042">
        <ele>2655.2</ele>
        <time>2021-12-19T14:44:17Z</time>
      </trkpt>
      <trkpt lat="44.69159" lon="6.92047">
        <ele>2656.1</ele>
        <time>2021-12-19T14:44:18Z</time>
      </trkpt>
      <trkpt lat="44.69164" lon="6.92054">
        <ele>2656.7</ele>
        <time>2021-12-19T14:44:20Z</time>
      </trkpt>
      <trkpt lat="44.69169" lon="6.92058">
        <ele>2656.9</ele>
        <time>2021-12-19T14:44:22Z</time>
      </trkpt>
      <trkpt lat="44.69177" lon="6.92061">
        <ele>2657</ele>
        <time>2021-12-19T14:44:24Z</time>
      </trkpt>
      <trkpt lat="44.69184" lon="6.92061">
        <ele>2656.9</ele>
        <time>2021-12-19T14:44:26Z</time>
      </trkpt>
      <trkpt lat="44.6919" lon="6.92063">
        <ele>2656.8</ele>
        <time>2021-12-19T14:44:28Z</time>
      </trkpt>
      <trkpt lat="44.69195" lon="6.92061">
        <ele>2656.6</ele>
        <time>2021-12-19T14:44:30Z</time>
      </trkpt>
      <trkpt lat="44.692" lon="6.9206">
        <ele>2656.4</ele>
        <time>2021-12-19T14:44:32Z</time>
      </trkpt>
      <trkpt lat="44.69204" lon="6.92065">
        <ele>2655.8</ele>
        <time>2021-12-19T14:44:35Z</time>
      </trkpt>
      <trkpt lat="44.69203" lon="6.92063">
        <ele>2655.5</ele>
        <time>2021-12-19T14:44:36Z</time>
      </trkpt>
      <trkpt lat="44.69199" lon="6.92062">
        <ele>2655.4</ele>
        <time>2021-12-19T14:44:37Z</time>
      </trkpt>
      <trkpt lat="44.692" lon="6.92063">
        <ele>2655.3</ele>
        <time>2021-12-19T14:44:40Z</time>
      </trkpt>
      <trkpt lat="44.69197" lon="6.92068">
        <ele>2655.4</ele>
        <time>2021-12-19T14:44:41Z</time>
      </trkpt>
      <trkpt lat="44.69196" lon="6.92069">
        <ele>2655.2</ele>
        <time>2021-12-19T14:44:42Z</time>
      </trkpt>
      <trkpt lat="44.69196" lon="6.92071">
        <ele>2655.4</ele>
        <time>2021-12-19T14:44:43Z</time>
      </trkpt>
      <trkpt lat="44.69192" lon="6.92068">
        <ele>2657.4</ele>
        <time>2021-12-19T14:44:48Z</time>
      </trkpt>
      <trkpt lat="44.69192" lon="6.92068">
        <ele>2657.4</ele>
        <time>2021-12-19T14:44:50Z</time>
      </trkpt>
      <trkpt lat="44.69177" lon="6.92068">
        <ele>2658.5</ele>
        <time>2021-12-19T14:44:51Z</time>
      </trkpt>
      <trkpt lat="44.69169" lon="6.92067">
        <ele>2659</ele>
        <time>2021-12-19T14:44:52Z</time>
      </trkpt>
      <trkpt lat="44.69162" lon="6.92068">
        <ele>2660.1</ele>
        <time>2021-12-19T14:44:54Z</time>
      </trkpt>
      <trkpt lat="44.69162" lon="6.92068">
        <ele>2660.1</ele>
        <time>2021-12-19T14:44:55Z</time>
      </trkpt>
      <trkpt lat="44.69152" lon="6.92068">
        <ele>2660.9</ele>
        <time>2021-12-19T14:44:56Z</time>
      </trkpt>
      <trkpt lat="44.6915" lon="6.92067">
        <ele>2661.1</ele>
        <time>2021-12-19T14:44:57Z</time>
      </trkpt>
      <trkpt lat="44.69148" lon="6.92069">
        <ele>2661.1</ele>
        <time>2021-12-19T14:45:08Z</time>
      </trkpt>
      <trkpt lat="44.69138" lon="6.92066">
        <ele>2665.6</ele>
        <time>2021-12-19T14:45:09Z</time>
      </trkpt>
      <trkpt lat="44.69136" lon="6.92065">
        <ele>2666.4</ele>
        <time>2021-12-19T14:45:10Z</time>
      </trkpt>
      <trkpt lat="44.69133" lon="6.92052">
        <ele>2675.1</ele>
        <time>2021-12-19T14:50:56Z</time>
      </trkpt>
      <trkpt lat="44.69131" lon="6.92046">
        <ele>2679.2</ele>
        <time>2021-12-19T14:56:03Z</time>
      </trkpt>
      <trkpt lat="44.69128" lon="6.92037">
        <ele>2678.6</ele>
        <time>2021-12-19T14:56:06Z</time>
      </trkpt>
      <trkpt lat="44.69128" lon="6.92034">
        <ele>2678.5</ele>
        <time>2021-12-19T14:56:07Z</time>
      </trkpt>
      <trkpt lat="44.69127" lon="6.9203">
        <ele>2678.4</ele>
        <time>2021-12-19T14:56:08Z</time>
      </trkpt>
      <trkpt lat="44.69126" lon="6.92022">
        <ele>2678.1</ele>
        <time>2021-12-19T14:56:10Z</time>
      </trkpt>
      <trkpt lat="44.69127" lon="6.92012">
        <ele>2677.7</ele>
        <time>2021-12-19T14:56:12Z</time>
      </trkpt>
      <trkpt lat="44.69126" lon="6.92004">
        <ele>2678</ele>
        <time>2021-12-19T14:56:14Z</time>
      </trkpt>
      <trkpt lat="44.69123" lon="6.91999">
        <ele>2677.8</ele>
        <time>2021-12-19T14:56:16Z</time>
      </trkpt>
      <trkpt lat="44.69122" lon="6.9199">
        <ele>2677.9</ele>
        <time>2021-12-19T14:56:18Z</time>
      </trkpt>
      <trkpt lat="44.69122" lon="6.91983">
        <ele>2677.8</ele>
        <time>2021-12-19T14:56:19Z</time>
      </trkpt>
      <trkpt lat="44.69122" lon="6.91975">
        <ele>2678</ele>
        <time>2021-12-19T14:56:20Z</time>
      </trkpt>
      <trkpt lat="44.69121" lon="6.91963">
        <ele>2677.8</ele>
        <time>2021-12-19T14:56:21Z</time>
      </trkpt>
      <trkpt lat="44.6912" lon="6.91951">
        <ele>2677.7</ele>
        <time>2021-12-19T14:56:22Z</time>
      </trkpt>
      <trkpt lat="44.69119" lon="6.91941">
        <ele>2677.6</ele>
        <time>2021-12-19T14:56:23Z</time>
      </trkpt>
      <trkpt lat="44.6912" lon="6.91932">
        <ele>2677.4</ele>
        <time>2021-12-19T14:56:25Z</time>
      </trkpt>
      <trkpt lat="44.69128" lon="6.91924">
        <ele>2677.2</ele>
        <time>2021-12-19T14:56:27Z</time>
      </trkpt>
      <trkpt lat="44.69128" lon="6.91917">
        <ele>2676.8</ele>
        <time>2021-12-19T14:56:29Z</time>
      </trkpt>
      <trkpt lat="44.69125" lon="6.91909">
        <ele>2676.3</ele>
        <time>2021-12-19T14:56:32Z</time>
      </trkpt>
      <trkpt lat="44.69123" lon="6.91902">
        <ele>2676</ele>
        <time>2021-12-19T14:56:34Z</time>
      </trkpt>
      <trkpt lat="44.69123" lon="6.91891">
        <ele>2675.6</ele>
        <time>2021-12-19T14:56:36Z</time>
      </trkpt>
      <trkpt lat="44.6912" lon="6.91883">
        <ele>2675.3</ele>
        <time>2021-12-19T14:56:38Z</time>
      </trkpt>
      <trkpt lat="44.69117" lon="6.91877">
        <ele>2675</ele>
        <time>2021-12-19T14:56:40Z</time>
      </trkpt>
      <trkpt lat="44.6914" lon="6.91909">
        <ele>2674.9</ele>
        <time>2021-12-19T14:56:41Z</time>
      </trkpt>
      <trkpt lat="44.69134" lon="6.91907">
        <ele>2675</ele>
        <time>2021-12-19T14:56:42Z</time>
      </trkpt>
      <trkpt lat="44.69151" lon="6.91924">
        <ele>2675.6</ele>
        <time>2021-12-19T14:56:45Z</time>
      </trkpt>
      <trkpt lat="44.6915" lon="6.91951">
        <ele>2675.5</ele>
        <time>2021-12-19T14:56:46Z</time>
      </trkpt>
      <trkpt lat="44.69143" lon="6.91968">
        <ele>2676</ele>
        <time>2021-12-19T14:56:47Z</time>
      </trkpt>
      <trkpt lat="44.69139" lon="6.9198">
        <ele>2675.8</ele>
        <time>2021-12-19T14:56:48Z</time>
      </trkpt>
      <trkpt lat="44.69139" lon="6.9198">
        <ele>2675.8</ele>
        <time>2021-12-19T14:56:49Z</time>
      </trkpt>
      <trkpt lat="44.69132" lon="6.92001">
        <ele>2676</ele>
        <time>2021-12-19T14:56:50Z</time>
      </trkpt>
      <trkpt lat="44.6913" lon="6.92007">
        <ele>2676</ele>
        <time>2021-12-19T14:56:51Z</time>
      </trkpt>
      <trkpt lat="44.69132" lon="6.92002">
        <ele>2676</ele>
        <time>2021-12-19T14:57:29Z</time>
      </trkpt>
      <trkpt lat="44.69133" lon="6.92003">
        <ele>2675.1</ele>
        <time>2021-12-19T14:57:30Z</time>
      </trkpt>
      <trkpt lat="44.69128" lon="6.92006">
        <ele>2674.4</ele>
        <time>2021-12-19T14:57:32Z</time>
      </trkpt>
      <trkpt lat="44.69121" lon="6.92011">
        <ele>2673.2</ele>
        <time>2021-12-19T14:57:34Z</time>
      </trkpt>
      <trkpt lat="44.69114" lon="6.92015">
        <ele>2671.4</ele>
        <time>2021-12-19T14:57:36Z</time>
      </trkpt>
      <trkpt lat="44.69108" lon="6.92018">
        <ele>2670.2</ele>
        <time>2021-12-19T14:57:38Z</time>
      </trkpt>
      <trkpt lat="44.69101" lon="6.92021">
        <ele>2668.3</ele>
        <time>2021-12-19T14:57:40Z</time>
      </trkpt>
      <trkpt lat="44.69096" lon="6.92024">
        <ele>2667.6</ele>
        <time>2021-12-19T14:57:42Z</time>
      </trkpt>
      <trkpt lat="44.69096" lon="6.92025">
        <ele>2666.6</ele>
        <time>2021-12-19T14:57:43Z</time>
      </trkpt>
      <trkpt lat="44.69095" lon="6.92027">
        <ele>2665.4</ele>
        <time>2021-12-19T14:57:59Z</time>
      </trkpt>
      <trkpt lat="44.6909" lon="6.92037">
        <ele>2664.5</ele>
        <time>2021-12-19T14:58:00Z</time>
      </trkpt>
      <trkpt lat="44.69089" lon="6.92038">
        <ele>2664.5</ele>
        <time>2021-12-19T14:58:01Z</time>
      </trkpt>
      <trkpt lat="44.69088" lon="6.92038">
        <ele>2664.5</ele>
        <time>2021-12-19T14:58:19Z</time>
      </trkpt>
      <trkpt lat="44.69079" lon="6.92037">
        <ele>2664.4</ele>
        <time>2021-12-19T14:58:20Z</time>
      </trkpt>
      <trkpt lat="44.69078" lon="6.92037">
        <ele>2664.5</ele>
        <time>2021-12-19T14:58:21Z</time>
      </trkpt>
      <trkpt lat="44.69077" lon="6.92037">
        <ele>2664.8</ele>
        <time>2021-12-19T14:59:05Z</time>
      </trkpt>
      <trkpt lat="44.69069" lon="6.92042">
        <ele>2664.5</ele>
        <time>2021-12-19T14:59:06Z</time>
      </trkpt>
      <trkpt lat="44.69068" lon="6.92043">
        <ele>2664.4</ele>
        <time>2021-12-19T14:59:07Z</time>
      </trkpt>
      <trkpt lat="44.69066" lon="6.92043">
        <ele>2664.3</ele>
        <time>2021-12-19T14:59:10Z</time>
      </trkpt>
      <trkpt lat="44.69063" lon="6.92044">
        <ele>2663.9</ele>
        <time>2021-12-19T14:59:11Z</time>
      </trkpt>
      <trkpt lat="44.69058" lon="6.92044">
        <ele>2663.1</ele>
        <time>2021-12-19T14:59:13Z</time>
      </trkpt>
      <trkpt lat="44.69053" lon="6.92046">
        <ele>2661.6</ele>
        <time>2021-12-19T14:59:16Z</time>
      </trkpt>
      <trkpt lat="44.69052" lon="6.92046">
        <ele>2661.1</ele>
        <time>2021-12-19T14:59:17Z</time>
      </trkpt>
      <trkpt lat="44.69051" lon="6.92047">
        <ele>2660.6</ele>
        <time>2021-12-19T14:59:47Z</time>
      </trkpt>
      <trkpt lat="44.69043" lon="6.92049">
        <ele>2660.5</ele>
        <time>2021-12-19T14:59:48Z</time>
      </trkpt>
      <trkpt lat="44.69041" lon="6.92052">
        <ele>2660.3</ele>
        <time>2021-12-19T14:59:49Z</time>
      </trkpt>
      <trkpt lat="44.6904" lon="6.92057">
        <ele>2660.2</ele>
        <time>2021-12-19T14:59:50Z</time>
      </trkpt>
      <trkpt lat="44.69038" lon="6.92063">
        <ele>2660.2</ele>
        <time>2021-12-19T14:59:52Z</time>
      </trkpt>
      <trkpt lat="44.69038" lon="6.92063">
        <ele>2660.2</ele>
        <time>2021-12-19T14:59:59Z</time>
      </trkpt>
      <trkpt lat="44.69037" lon="6.92077">
        <ele>2659.8</ele>
        <time>2021-12-19T15:00:00Z</time>
      </trkpt>
      <trkpt lat="44.69037" lon="6.92079">
        <ele>2659.8</ele>
        <time>2021-12-19T15:00:01Z</time>
      </trkpt>
      <trkpt lat="44.69037" lon="6.92081">
        <ele>2659.8</ele>
        <time>2021-12-19T15:00:02Z</time>
      </trkpt>
      <trkpt lat="44.69039" lon="6.92085">
        <ele>2659.5</ele>
        <time>2021-12-19T15:00:03Z</time>
      </trkpt>
      <trkpt lat="44.69038" lon="6.92088">
        <ele>2659.7</ele>
        <time>2021-12-19T15:00:04Z</time>
      </trkpt>
      <trkpt lat="44.69042" lon="6.92101">
        <ele>2659.9</ele>
        <time>2021-12-19T15:00:05Z</time>
      </trkpt>
      <trkpt lat="44.6904" lon="6.92108">
        <ele>2659.9</ele>
        <time>2021-12-19T15:00:06Z</time>
      </trkpt>
      <trkpt lat="44.69028" lon="6.92122">
        <ele>2659.8</ele>
        <time>2021-12-19T15:00:07Z</time>
      </trkpt>
      <trkpt lat="44.69025" lon="6.9213">
        <ele>2660</ele>
        <time>2021-12-19T15:00:09Z</time>
      </trkpt>
      <trkpt lat="44.69025" lon="6.92136">
        <ele>2660</ele>
        <time>2021-12-19T15:00:10Z</time>
      </trkpt>
      <trkpt lat="44.69021" lon="6.92143">
        <ele>2658.9</ele>
        <time>2021-12-19T15:00:11Z</time>
      </trkpt>
      <trkpt lat="44.6902" lon="6.92147">
        <ele>2658.1</ele>
        <time>2021-12-19T15:00:14Z</time>
      </trkpt>
      <trkpt lat="44.69019" lon="6.92146">
        <ele>2657.4</ele>
        <time>2021-12-19T15:00:15Z</time>
      </trkpt>
      <trkpt lat="44.6902" lon="6.92152">
        <ele>2657.1</ele>
        <time>2021-12-19T15:00:29Z</time>
      </trkpt>
      <trkpt lat="44.6903" lon="6.92151">
        <ele>2654.6</ele>
        <time>2021-12-19T15:00:30Z</time>
      </trkpt>
      <trkpt lat="44.69031" lon="6.92149">
        <ele>2654.4</ele>
        <time>2021-12-19T15:00:31Z</time>
      </trkpt>
      <trkpt lat="44.69031" lon="6.92149">
        <ele>2654.4</ele>
        <time>2021-12-19T15:00:46Z</time>
      </trkpt>
      <trkpt lat="44.69037" lon="6.92138">
        <ele>2654.4</ele>
        <time>2021-12-19T15:00:47Z</time>
      </trkpt>
      <trkpt lat="44.69038" lon="6.92138">
        <ele>2654.4</ele>
        <time>2021-12-19T15:00:48Z</time>
      </trkpt>
      <trkpt lat="44.69044" lon="6.92126">
        <ele>2655.3</ele>
        <time>2021-12-19T15:01:07Z</time>
      </trkpt>
      <trkpt lat="44.69045" lon="6.92121">
        <ele>2655.9</ele>
        <time>2021-12-19T15:01:16Z</time>
      </trkpt>
      <trkpt lat="44.69048" lon="6.92107">
        <ele>2656.5</ele>
        <time>2021-12-19T15:01:17Z</time>
      </trkpt>
      <trkpt lat="44.69034" lon="6.92066">
        <ele>2649.4</ele>
        <time>2021-12-19T15:01:20Z</time>
      </trkpt>
      <trkpt lat="44.69034" lon="6.92065">
        <ele>2654.7</ele>
        <time>2021-12-19T15:01:21Z</time>
      </trkpt>
      <trkpt lat="44.69034" lon="6.92065">
        <ele>2656.3</ele>
        <time>2021-12-19T15:01:22Z</time>
      </trkpt>
      <trkpt lat="44.69036" lon="6.92066">
        <ele>2658.5</ele>
        <time>2021-12-19T15:01:23Z</time>
      </trkpt>
      <trkpt lat="44.69041" lon="6.92064">
        <ele>2662.7</ele>
        <time>2021-12-19T15:01:26Z</time>
      </trkpt>
      <trkpt lat="44.69043" lon="6.92063">
        <ele>2663.5</ele>
        <time>2021-12-19T15:01:27Z</time>
      </trkpt>
      <trkpt lat="44.69044" lon="6.92063">
        <ele>2664.4</ele>
        <time>2021-12-19T15:01:39Z</time>
      </trkpt>
      <trkpt lat="44.69054" lon="6.92062">
        <ele>2667.9</ele>
        <time>2021-12-19T15:01:40Z</time>
      </trkpt>
      <trkpt lat="44.69054" lon="6.92062">
        <ele>2668.2</ele>
        <time>2021-12-19T15:01:41Z</time>
      </trkpt>
      <trkpt lat="44.69056" lon="6.92062">
        <ele>2669</ele>
        <time>2021-12-19T15:01:50Z</time>
      </trkpt>
      <trkpt lat="44.69065" lon="6.92063">
        <ele>2672.2</ele>
        <time>2021-12-19T15:01:51Z</time>
      </trkpt>
      <trkpt lat="44.69067" lon="6.92064">
        <ele>2672.9</ele>
        <time>2021-12-19T15:01:52Z</time>
      </trkpt>
      <trkpt lat="44.69069" lon="6.92063">
        <ele>2673.7</ele>
        <time>2021-12-19T15:02:04Z</time>
      </trkpt>
      <trkpt lat="44.69079" lon="6.92061">
        <ele>2676.5</ele>
        <time>2021-12-19T15:02:05Z</time>
      </trkpt>
      <trkpt lat="44.6908" lon="6.92061">
        <ele>2676.8</ele>
        <time>2021-12-19T15:02:06Z</time>
      </trkpt>
      <trkpt lat="44.69082" lon="6.9206">
        <ele>2676.9</ele>
        <time>2021-12-19T15:02:09Z</time>
      </trkpt>
      <trkpt lat="44.69085" lon="6.92058">
        <ele>2676.9</ele>
        <time>2021-12-19T15:02:10Z</time>
      </trkpt>
      <trkpt lat="44.69086" lon="6.92057">
        <ele>2677.1</ele>
        <time>2021-12-19T15:02:11Z</time>
      </trkpt>
      <trkpt lat="44.69089" lon="6.92056">
        <ele>2678.1</ele>
        <time>2021-12-19T15:02:19Z</time>
      </trkpt>
      <trkpt lat="44.69094" lon="6.92051">
        <ele>2681.1</ele>
        <time>2021-12-19T15:02:20Z</time>
      </trkpt>
      <trkpt lat="44.69096" lon="6.9205">
        <ele>2681.5</ele>
        <time>2021-12-19T15:02:21Z</time>
      </trkpt>
      <trkpt lat="44.69096" lon="6.92049">
        <ele>2682.3</ele>
        <time>2021-12-19T15:02:22Z</time>
      </trkpt>
      <trkpt lat="44.69097" lon="6.92047">
        <ele>2682.8</ele>
        <time>2021-12-19T15:02:24Z</time>
      </trkpt>
      <trkpt lat="44.691" lon="6.92046">
        <ele>2683.1</ele>
        <time>2021-12-19T15:02:25Z</time>
      </trkpt>
      <trkpt lat="44.69104" lon="6.92045">
        <ele>2683.3</ele>
        <time>2021-12-19T15:02:27Z</time>
      </trkpt>
      <trkpt lat="44.69104" lon="6.92044">
        <ele>2683.7</ele>
        <time>2021-12-19T15:02:28Z</time>
      </trkpt>
      <trkpt lat="44.69105" lon="6.92042">
        <ele>2684.1</ele>
        <time>2021-12-19T15:02:40Z</time>
      </trkpt>
      <trkpt lat="44.69108" lon="6.92029">
        <ele>2685.9</ele>
        <time>2021-12-19T15:02:41Z</time>
      </trkpt>
      <trkpt lat="44.69108" lon="6.92028">
        <ele>2686.2</ele>
        <time>2021-12-19T15:02:42Z</time>
      </trkpt>
      <trkpt lat="44.69108" lon="6.92027">
        <ele>2686.4</ele>
        <time>2021-12-19T15:02:56Z</time>
      </trkpt>
      <trkpt lat="44.69105" lon="6.92014">
        <ele>2687</ele>
        <time>2021-12-19T15:02:57Z</time>
      </trkpt>
      <trkpt lat="44.69101" lon="6.92009">
        <ele>2687.1</ele>
        <time>2021-12-19T15:02:59Z</time>
      </trkpt>
      <trkpt lat="44.69097" lon="6.92003">
        <ele>2687.8</ele>
        <time>2021-12-19T15:03:01Z</time>
      </trkpt>
      <trkpt lat="44.69095" lon="6.91997">
        <ele>2687.7</ele>
        <time>2021-12-19T15:03:05Z</time>
      </trkpt>
      <trkpt lat="44.69091" lon="6.91992">
        <ele>2688.4</ele>
        <time>2021-12-19T15:03:08Z</time>
      </trkpt>
      <trkpt lat="44.69088" lon="6.91985">
        <ele>2688.2</ele>
        <time>2021-12-19T15:03:11Z</time>
      </trkpt>
      <trkpt lat="44.69085" lon="6.91979">
        <ele>2688.6</ele>
        <time>2021-12-19T15:03:14Z</time>
      </trkpt>
      <trkpt lat="44.69082" lon="6.91971">
        <ele>2688.5</ele>
        <time>2021-12-19T15:03:17Z</time>
      </trkpt>
      <trkpt lat="44.6908" lon="6.91962">
        <ele>2687.4</ele>
        <time>2021-12-19T15:03:20Z</time>
      </trkpt>
      <trkpt lat="44.69079" lon="6.91955">
        <ele>2687.1</ele>
        <time>2021-12-19T15:03:23Z</time>
      </trkpt>
      <trkpt lat="44.69079" lon="6.91948">
        <ele>2687.8</ele>
        <time>2021-12-19T15:03:28Z</time>
      </trkpt>
      <trkpt lat="44.69079" lon="6.9194">
        <ele>2688.1</ele>
        <time>2021-12-19T15:03:31Z</time>
      </trkpt>
      <trkpt lat="44.6908" lon="6.91933">
        <ele>2688.3</ele>
        <time>2021-12-19T15:03:34Z</time>
      </trkpt>
      <trkpt lat="44.6908" lon="6.91931">
        <ele>2688.6</ele>
        <time>2021-12-19T15:03:35Z</time>
      </trkpt>
      <trkpt lat="44.69082" lon="6.91931">
        <ele>2688.4</ele>
        <time>2021-12-19T15:03:36Z</time>
      </trkpt>
      <trkpt lat="44.69083" lon="6.91932">
        <ele>2688.2</ele>
        <time>2021-12-19T15:03:37Z</time>
      </trkpt>
      <trkpt lat="44.69086" lon="6.91936">
        <ele>2687.6</ele>
        <time>2021-12-19T15:03:38Z</time>
      </trkpt>
      <trkpt lat="44.6909" lon="6.9194">
        <ele>2686.4</ele>
        <time>2021-12-19T15:03:40Z</time>
      </trkpt>
      <trkpt lat="44.69095" lon="6.91941">
        <ele>2683</ele>
        <time>2021-12-19T15:03:42Z</time>
      </trkpt>
      <trkpt lat="44.69097" lon="6.91932">
        <ele>2678.2</ele>
        <time>2021-12-19T15:03:47Z</time>
      </trkpt>
      <trkpt lat="44.69099" lon="6.9193">
        <ele>2678.2</ele>
        <time>2021-12-19T15:03:52Z</time>
      </trkpt>
      <trkpt lat="44.691" lon="6.9193">
        <ele>2677.8</ele>
        <time>2021-12-19T15:03:53Z</time>
      </trkpt>
      <trkpt lat="44.69101" lon="6.91932">
        <ele>2677.3</ele>
        <time>2021-12-19T15:03:56Z</time>
      </trkpt>
      <trkpt lat="44.69101" lon="6.91932">
        <ele>2677.5</ele>
        <time>2021-12-19T15:03:57Z</time>
      </trkpt>
      <trkpt lat="44.69101" lon="6.91932">
        <ele>2679.4</ele>
        <time>2021-12-19T15:03:59Z</time>
      </trkpt>
      <trkpt lat="44.691" lon="6.9193">
        <ele>2680.8</ele>
        <time>2021-12-19T15:04:00Z</time>
      </trkpt>
      <trkpt lat="44.69101" lon="6.91929">
        <ele>2681.2</ele>
        <time>2021-12-19T15:04:03Z</time>
      </trkpt>
      <trkpt lat="44.69102" lon="6.91925">
        <ele>2681.5</ele>
        <time>2021-12-19T15:04:04Z</time>
      </trkpt>
      <trkpt lat="44.69102" lon="6.91913">
        <ele>2681.8</ele>
        <time>2021-12-19T15:04:06Z</time>
      </trkpt>
      <trkpt lat="44.69103" lon="6.91907">
        <ele>2682.3</ele>
        <time>2021-12-19T15:04:07Z</time>
      </trkpt>
      <trkpt lat="44.69104" lon="6.919">
        <ele>2682.6</ele>
        <time>2021-12-19T15:04:08Z</time>
      </trkpt>
      <trkpt lat="44.69105" lon="6.91889">
        <ele>2682.4</ele>
        <time>2021-12-19T15:04:10Z</time>
      </trkpt>
      <trkpt lat="44.69105" lon="6.9188">
        <ele>2683.2</ele>
        <time>2021-12-19T15:04:12Z</time>
      </trkpt>
      <trkpt lat="44.69106" lon="6.9187">
        <ele>2684.2</ele>
        <time>2021-12-19T15:04:14Z</time>
      </trkpt>
      <trkpt lat="44.69107" lon="6.91865">
        <ele>2683.9</ele>
        <time>2021-12-19T15:04:17Z</time>
      </trkpt>
      <trkpt lat="44.69107" lon="6.91864">
        <ele>2684</ele>
        <time>2021-12-19T15:04:18Z</time>
      </trkpt>
      <trkpt lat="44.69108" lon="6.91862">
        <ele>2684.3</ele>
        <time>2021-12-19T15:04:19Z</time>
      </trkpt>
      <trkpt lat="44.69108" lon="6.9186">
        <ele>2684.8</ele>
        <time>2021-12-19T15:04:20Z</time>
      </trkpt>
      <trkpt lat="44.69109" lon="6.91849">
        <ele>2685.6</ele>
        <time>2021-12-19T15:04:22Z</time>
      </trkpt>
      <trkpt lat="44.6911" lon="6.91841">
        <ele>2685.1</ele>
        <time>2021-12-19T15:04:23Z</time>
      </trkpt>
      <trkpt lat="44.69111" lon="6.91834">
        <ele>2684.9</ele>
        <time>2021-12-19T15:04:24Z</time>
      </trkpt>
      <trkpt lat="44.69112" lon="6.91827">
        <ele>2684.9</ele>
        <time>2021-12-19T15:04:25Z</time>
      </trkpt>
      <trkpt lat="44.69113" lon="6.91819">
        <ele>2684.2</ele>
        <time>2021-12-19T15:04:26Z</time>
      </trkpt>
      <trkpt lat="44.69114" lon="6.91811">
        <ele>2684</ele>
        <time>2021-12-19T15:04:27Z</time>
      </trkpt>
      <trkpt lat="44.69115" lon="6.91805">
        <ele>2683.8</ele>
        <time>2021-12-19T15:04:28Z</time>
      </trkpt>
      <trkpt lat="44.69116" lon="6.91796">
        <ele>2682.4</ele>
        <time>2021-12-19T15:04:30Z</time>
      </trkpt>
      <trkpt lat="44.69117" lon="6.91785">
        <ele>2681.2</ele>
        <time>2021-12-19T15:04:32Z</time>
      </trkpt>
      <trkpt lat="44.69117" lon="6.91773">
        <ele>2678.8</ele>
        <time>2021-12-19T15:04:34Z</time>
      </trkpt>
      <trkpt lat="44.69117" lon="6.91761">
        <ele>2676.2</ele>
        <time>2021-12-19T15:04:36Z</time>
      </trkpt>
      <trkpt lat="44.69117" lon="6.91753">
        <ele>2676.1</ele>
        <time>2021-12-19T15:04:38Z</time>
      </trkpt>
      <trkpt lat="44.69117" lon="6.91751">
        <ele>2676.6</ele>
        <time>2021-12-19T15:04:39Z</time>
      </trkpt>
      <trkpt lat="44.69117" lon="6.91751">
        <ele>2677.3</ele>
        <time>2021-12-19T15:04:51Z</time>
      </trkpt>
      <trkpt lat="44.69126" lon="6.91756">
        <ele>2677.1</ele>
        <time>2021-12-19T15:04:52Z</time>
      </trkpt>
      <trkpt lat="44.69137" lon="6.91762">
        <ele>2676.8</ele>
        <time>2021-12-19T15:04:53Z</time>
      </trkpt>
      <trkpt lat="44.69161" lon="6.91761">
        <ele>2675.9</ele>
        <time>2021-12-19T15:04:54Z</time>
      </trkpt>
      <trkpt lat="44.69155" lon="6.91761">
        <ele>2673.2</ele>
        <time>2021-12-19T15:04:56Z</time>
      </trkpt>
      <trkpt lat="44.69152" lon="6.91759">
        <ele>2673.1</ele>
        <time>2021-12-19T15:04:57Z</time>
      </trkpt>
      <trkpt lat="44.69152" lon="6.91759">
        <ele>2672.7</ele>
        <time>2021-12-19T15:04:58Z</time>
      </trkpt>
      <trkpt lat="44.6915" lon="6.9176">
        <ele>2672.7</ele>
        <time>2021-12-19T15:05:31Z</time>
      </trkpt>
      <trkpt lat="44.69132" lon="6.91772">
        <ele>2656.6</ele>
        <time>2021-12-19T15:05:32Z</time>
      </trkpt>
      <trkpt lat="44.69128" lon="6.91766">
        <ele>2654.2</ele>
        <time>2021-12-19T15:05:33Z</time>
      </trkpt>
      <trkpt lat="44.69127" lon="6.9176">
        <ele>2653</ele>
        <time>2021-12-19T15:05:34Z</time>
      </trkpt>
      <trkpt lat="44.69124" lon="6.91752">
        <ele>2653.8</ele>
        <time>2021-12-19T15:05:35Z</time>
      </trkpt>
      <trkpt lat="44.69123" lon="6.91746">
        <ele>2653.6</ele>
        <time>2021-12-19T15:05:36Z</time>
      </trkpt>
      <trkpt lat="44.6912" lon="6.91739">
        <ele>2653.8</ele>
        <time>2021-12-19T15:05:37Z</time>
      </trkpt>
      <trkpt lat="44.69119" lon="6.91733">
        <ele>2654.7</ele>
        <time>2021-12-19T15:05:38Z</time>
      </trkpt>
      <trkpt lat="44.69119" lon="6.91726">
        <ele>2655.5</ele>
        <time>2021-12-19T15:05:39Z</time>
      </trkpt>
      <trkpt lat="44.69119" lon="6.91718">
        <ele>2656.2</ele>
        <time>2021-12-19T15:05:41Z</time>
      </trkpt>
      <trkpt lat="44.69119" lon="6.91716">
        <ele>2656.5</ele>
        <time>2021-12-19T15:05:42Z</time>
      </trkpt>
      <trkpt lat="44.69119" lon="6.91715">
        <ele>2656.7</ele>
        <time>2021-12-19T15:05:58Z</time>
      </trkpt>
      <trkpt lat="44.69121" lon="6.91706">
        <ele>2656.7</ele>
        <time>2021-12-19T15:05:59Z</time>
      </trkpt>
      <trkpt lat="44.6912" lon="6.91695">
        <ele>2656.3</ele>
        <time>2021-12-19T15:06:01Z</time>
      </trkpt>
      <trkpt lat="44.69118" lon="6.91686">
        <ele>2656.6</ele>
        <time>2021-12-19T15:06:03Z</time>
      </trkpt>
      <trkpt lat="44.69116" lon="6.91674">
        <ele>2656.7</ele>
        <time>2021-12-19T15:06:05Z</time>
      </trkpt>
      <trkpt lat="44.69115" lon="6.91665">
        <ele>2656.6</ele>
        <time>2021-12-19T15:06:07Z</time>
      </trkpt>
      <trkpt lat="44.69115" lon="6.91663">
        <ele>2656.6</ele>
        <time>2021-12-19T15:06:08Z</time>
      </trkpt>
      <trkpt lat="44.69116" lon="6.91663">
        <ele>2656.5</ele>
        <time>2021-12-19T15:06:28Z</time>
      </trkpt>
      <trkpt lat="44.69109" lon="6.9166">
        <ele>2658.7</ele>
        <time>2021-12-19T15:06:29Z</time>
      </trkpt>
      <trkpt lat="44.69105" lon="6.91668">
        <ele>2659.1</ele>
        <time>2021-12-19T15:06:33Z</time>
      </trkpt>
      <trkpt lat="44.69102" lon="6.91675">
        <ele>2659.2</ele>
        <time>2021-12-19T15:06:35Z</time>
      </trkpt>
      <trkpt lat="44.691" lon="6.9168">
        <ele>2659.3</ele>
        <time>2021-12-19T15:06:38Z</time>
      </trkpt>
      <trkpt lat="44.691" lon="6.91681">
        <ele>2659.1</ele>
        <time>2021-12-19T15:06:39Z</time>
      </trkpt>
      <trkpt lat="44.691" lon="6.91682">
        <ele>2659.1</ele>
        <time>2021-12-19T15:07:26Z</time>
      </trkpt>
      <trkpt lat="44.69093" lon="6.91691">
        <ele>2658.9</ele>
        <time>2021-12-19T15:07:27Z</time>
      </trkpt>
      <trkpt lat="44.69093" lon="6.91692">
        <ele>2658.8</ele>
        <time>2021-12-19T15:07:28Z</time>
      </trkpt>
      <trkpt lat="44.69093" lon="6.91693">
        <ele>2658.8</ele>
        <time>2021-12-19T15:09:08Z</time>
      </trkpt>
      <trkpt lat="44.69097" lon="6.91704">
        <ele>2655.9</ele>
        <time>2021-12-19T15:09:09Z</time>
      </trkpt>
      <trkpt lat="44.69097" lon="6.91705">
        <ele>2655.8</ele>
        <time>2021-12-19T15:09:10Z</time>
      </trkpt>
      <trkpt lat="44.69097" lon="6.91706">
        <ele>2655.7</ele>
        <time>2021-12-19T15:10:29Z</time>
      </trkpt>
      <trkpt lat="44.691" lon="6.9171">
        <ele>2653.9</ele>
        <time>2021-12-19T15:10:30Z</time>
      </trkpt>
      <trkpt lat="44.69099" lon="6.91709">
        <ele>2652.5</ele>
        <time>2021-12-19T15:10:32Z</time>
      </trkpt>
      <trkpt lat="44.69098" lon="6.91709">
        <ele>2651.7</ele>
        <time>2021-12-19T15:10:33Z</time>
      </trkpt>
      <trkpt lat="44.69099" lon="6.9171">
        <ele>2650.7</ele>
        <time>2021-12-19T15:13:21Z</time>
      </trkpt>
      <trkpt lat="44.69104" lon="6.91707">
        <ele>2649</ele>
        <time>2021-12-19T15:13:22Z</time>
      </trkpt>
      <trkpt lat="44.69103" lon="6.917">
        <ele>2649</ele>
        <time>2021-12-19T15:13:23Z</time>
      </trkpt>
      <trkpt lat="44.69102" lon="6.9169">
        <ele>2648.5</ele>
        <time>2021-12-19T15:13:24Z</time>
      </trkpt>
      <trkpt lat="44.69102" lon="6.91683">
        <ele>2648.3</ele>
        <time>2021-12-19T15:13:25Z</time>
      </trkpt>
      <trkpt lat="44.69102" lon="6.91676">
        <ele>2649.6</ele>
        <time>2021-12-19T15:13:26Z</time>
      </trkpt>
      <trkpt lat="44.69102" lon="6.91674">
        <ele>2649.8</ele>
        <time>2021-12-19T15:13:27Z</time>
      </trkpt>
      <trkpt lat="44.69102" lon="6.91671">
        <ele>2649.5</ele>
        <time>2021-12-19T15:13:38Z</time>
      </trkpt>
      <trkpt lat="44.69098" lon="6.91658">
        <ele>2647.2</ele>
        <time>2021-12-19T15:13:39Z</time>
      </trkpt>
      <trkpt lat="44.69096" lon="6.91652">
        <ele>2646.4</ele>
        <time>2021-12-19T15:13:40Z</time>
      </trkpt>
      <trkpt lat="44.69095" lon="6.91641">
        <ele>2646.3</ele>
        <time>2021-12-19T15:13:42Z</time>
      </trkpt>
      <trkpt lat="44.69092" lon="6.91631">
        <ele>2647.9</ele>
        <time>2021-12-19T15:13:44Z</time>
      </trkpt>
      <trkpt lat="44.6909" lon="6.91622">
        <ele>2648.8</ele>
        <time>2021-12-19T15:13:46Z</time>
      </trkpt>
      <trkpt lat="44.69088" lon="6.91611">
        <ele>2648.5</ele>
        <time>2021-12-19T15:13:48Z</time>
      </trkpt>
      <trkpt lat="44.69086" lon="6.91602">
        <ele>2649</ele>
        <time>2021-12-19T15:13:50Z</time>
      </trkpt>
      <trkpt lat="44.69083" lon="6.91591">
        <ele>2648.7</ele>
        <time>2021-12-19T15:13:52Z</time>
      </trkpt>
      <trkpt lat="44.6908" lon="6.91579">
        <ele>2647.4</ele>
        <time>2021-12-19T15:13:54Z</time>
      </trkpt>
      <trkpt lat="44.69077" lon="6.91572">
        <ele>2646.6</ele>
        <time>2021-12-19T15:13:56Z</time>
      </trkpt>
      <trkpt lat="44.69077" lon="6.9157">
        <ele>2645.8</ele>
        <time>2021-12-19T15:13:57Z</time>
      </trkpt>
      <trkpt lat="44.69076" lon="6.91568">
        <ele>2646.6</ele>
        <time>2021-12-19T15:14:12Z</time>
      </trkpt>
      <trkpt lat="44.69069" lon="6.91556">
        <ele>2649.6</ele>
        <time>2021-12-19T15:14:13Z</time>
      </trkpt>
      <trkpt lat="44.69065" lon="6.91551">
        <ele>2649.5</ele>
        <time>2021-12-19T15:14:15Z</time>
      </trkpt>
      <trkpt lat="44.69064" lon="6.91549">
        <ele>2649.6</ele>
        <time>2021-12-19T15:14:16Z</time>
      </trkpt>
      <trkpt lat="44.69064" lon="6.91547">
        <ele>2650</ele>
        <time>2021-12-19T15:14:32Z</time>
      </trkpt>
      <trkpt lat="44.69059" lon="6.91552">
        <ele>2649.5</ele>
        <time>2021-12-19T15:14:33Z</time>
      </trkpt>
      <trkpt lat="44.69056" lon="6.91558">
        <ele>2648.7</ele>
        <time>2021-12-19T15:14:35Z</time>
      </trkpt>
      <trkpt lat="44.69055" lon="6.91564">
        <ele>2647.7</ele>
        <time>2021-12-19T15:14:37Z</time>
      </trkpt>
      <trkpt lat="44.69054" lon="6.9157">
        <ele>2647</ele>
        <time>2021-12-19T15:14:39Z</time>
      </trkpt>
      <trkpt lat="44.69053" lon="6.91572">
        <ele>2646.3</ele>
        <time>2021-12-19T15:14:40Z</time>
      </trkpt>
      <trkpt lat="44.69053" lon="6.91573">
        <ele>2645.9</ele>
        <time>2021-12-19T15:14:41Z</time>
      </trkpt>
      <trkpt lat="44.69052" lon="6.91572">
        <ele>2645.5</ele>
        <time>2021-12-19T15:14:58Z</time>
      </trkpt>
      <trkpt lat="44.69051" lon="6.9158">
        <ele>2643</ele>
        <time>2021-12-19T15:14:59Z</time>
      </trkpt>
      <trkpt lat="44.69049" lon="6.91586">
        <ele>2642.7</ele>
        <time>2021-12-19T15:15:01Z</time>
      </trkpt>
      <trkpt lat="44.69046" lon="6.91596">
        <ele>2641.8</ele>
        <time>2021-12-19T15:15:03Z</time>
      </trkpt>
      <trkpt lat="44.69043" lon="6.91603">
        <ele>2641.2</ele>
        <time>2021-12-19T15:15:04Z</time>
      </trkpt>
      <trkpt lat="44.6904" lon="6.91609">
        <ele>2640.3</ele>
        <time>2021-12-19T15:15:05Z</time>
      </trkpt>
      <trkpt lat="44.69036" lon="6.91619">
        <ele>2638.6</ele>
        <time>2021-12-19T15:15:07Z</time>
      </trkpt>
      <trkpt lat="44.69034" lon="6.91625">
        <ele>2637.1</ele>
        <time>2021-12-19T15:15:09Z</time>
      </trkpt>
      <trkpt lat="44.69028" lon="6.91632">
        <ele>2636.9</ele>
        <time>2021-12-19T15:15:12Z</time>
      </trkpt>
      <trkpt lat="44.69023" lon="6.91631">
        <ele>2636</ele>
        <time>2021-12-19T15:15:15Z</time>
      </trkpt>
      <trkpt lat="44.6902" lon="6.91625">
        <ele>2634.7</ele>
        <time>2021-12-19T15:15:17Z</time>
      </trkpt>
      <trkpt lat="44.69017" lon="6.91617">
        <ele>2633.5</ele>
        <time>2021-12-19T15:15:19Z</time>
      </trkpt>
      <trkpt lat="44.69015" lon="6.9161">
        <ele>2631.5</ele>
        <time>2021-12-19T15:15:21Z</time>
      </trkpt>
      <trkpt lat="44.69012" lon="6.91605">
        <ele>2629.4</ele>
        <time>2021-12-19T15:15:23Z</time>
      </trkpt>
      <trkpt lat="44.6901" lon="6.91603">
        <ele>2628.2</ele>
        <time>2021-12-19T15:15:24Z</time>
      </trkpt>
      <trkpt lat="44.69009" lon="6.91602">
        <ele>2627.3</ele>
        <time>2021-12-19T15:15:25Z</time>
      </trkpt>
      <trkpt lat="44.69008" lon="6.91602">
        <ele>2625.6</ele>
        <time>2021-12-19T15:15:31Z</time>
      </trkpt>
      <trkpt lat="44.69004" lon="6.916">
        <ele>2626.8</ele>
        <time>2021-12-19T15:15:32Z</time>
      </trkpt>
      <trkpt lat="44.69004" lon="6.916">
        <ele>2627</ele>
        <time>2021-12-19T15:15:33Z</time>
      </trkpt>
      <trkpt lat="44.69003" lon="6.91599">
        <ele>2627.1</ele>
        <time>2021-12-19T15:15:34Z</time>
      </trkpt>
      <trkpt lat="44.69002" lon="6.91599">
        <ele>2627.4</ele>
        <time>2021-12-19T15:17:20Z</time>
      </trkpt>
      <trkpt lat="44.68995" lon="6.91595">
        <ele>2629.1</ele>
        <time>2021-12-19T15:17:21Z</time>
      </trkpt>
      <trkpt lat="44.6899" lon="6.91597">
        <ele>2628.8</ele>
        <time>2021-12-19T15:17:23Z</time>
      </trkpt>
      <trkpt lat="44.68982" lon="6.916">
        <ele>2628.1</ele>
        <time>2021-12-19T15:17:25Z</time>
      </trkpt>
      <trkpt lat="44.68975" lon="6.91602">
        <ele>2626.5</ele>
        <time>2021-12-19T15:17:27Z</time>
      </trkpt>
      <trkpt lat="44.68968" lon="6.91605">
        <ele>2625.1</ele>
        <time>2021-12-19T15:17:29Z</time>
      </trkpt>
      <trkpt lat="44.68963" lon="6.91607">
        <ele>2623.1</ele>
        <time>2021-12-19T15:17:31Z</time>
      </trkpt>
      <trkpt lat="44.68958" lon="6.91611">
        <ele>2619.4</ele>
        <time>2021-12-19T15:17:34Z</time>
      </trkpt>
      <trkpt lat="44.68953" lon="6.91615">
        <ele>2615.9</ele>
        <time>2021-12-19T15:17:37Z</time>
      </trkpt>
      <trkpt lat="44.68948" lon="6.91619">
        <ele>2614.3</ele>
        <time>2021-12-19T15:17:39Z</time>
      </trkpt>
      <trkpt lat="44.6894" lon="6.91626">
        <ele>2612.8</ele>
        <time>2021-12-19T15:17:41Z</time>
      </trkpt>
      <trkpt lat="44.68936" lon="6.91631">
        <ele>2610.7</ele>
        <time>2021-12-19T15:17:43Z</time>
      </trkpt>
      <trkpt lat="44.68936" lon="6.91633">
        <ele>2609.3</ele>
        <time>2021-12-19T15:17:44Z</time>
      </trkpt>
      <trkpt lat="44.68935" lon="6.91634">
        <ele>2608.4</ele>
        <time>2021-12-19T15:17:45Z</time>
      </trkpt>
      <trkpt lat="44.68935" lon="6.91634">
        <ele>2606.8</ele>
        <time>2021-12-19T15:17:51Z</time>
      </trkpt>
      <trkpt lat="44.68932" lon="6.91633">
        <ele>2607.9</ele>
        <time>2021-12-19T15:17:52Z</time>
      </trkpt>
      <trkpt lat="44.68932" lon="6.91625">
        <ele>2606.2</ele>
        <time>2021-12-19T15:17:54Z</time>
      </trkpt>
      <trkpt lat="44.68931" lon="6.91619">
        <ele>2604.3</ele>
        <time>2021-12-19T15:17:56Z</time>
      </trkpt>
      <trkpt lat="44.6893" lon="6.91611">
        <ele>2602.6</ele>
        <time>2021-12-19T15:17:58Z</time>
      </trkpt>
      <trkpt lat="44.68928" lon="6.91605">
        <ele>2603.6</ele>
        <time>2021-12-19T15:18:00Z</time>
      </trkpt>
      <trkpt lat="44.68927" lon="6.91603">
        <ele>2604.1</ele>
        <time>2021-12-19T15:18:01Z</time>
      </trkpt>
      <trkpt lat="44.68926" lon="6.91601">
        <ele>2603.8</ele>
        <time>2021-12-19T15:18:17Z</time>
      </trkpt>
      <trkpt lat="44.6892" lon="6.91593">
        <ele>2600.1</ele>
        <time>2021-12-19T15:18:18Z</time>
      </trkpt>
      <trkpt lat="44.6892" lon="6.91592">
        <ele>2599.8</ele>
        <time>2021-12-19T15:18:19Z</time>
      </trkpt>
      <trkpt lat="44.68919" lon="6.91592">
        <ele>2599.7</ele>
        <time>2021-12-19T15:21:37Z</time>
      </trkpt>
      <trkpt lat="44.68925" lon="6.91595">
        <ele>2602.1</ele>
        <time>2021-12-19T15:21:38Z</time>
      </trkpt>
      <trkpt lat="44.68929" lon="6.91598">
        <ele>2600.8</ele>
        <time>2021-12-19T15:21:42Z</time>
      </trkpt>
      <trkpt lat="44.68931" lon="6.916">
        <ele>2598.8</ele>
        <time>2021-12-19T15:21:46Z</time>
      </trkpt>
      <trkpt lat="44.68932" lon="6.916">
        <ele>2598.3</ele>
        <time>2021-12-19T15:21:47Z</time>
      </trkpt>
      <trkpt lat="44.68932" lon="6.916">
        <ele>2597.5</ele>
        <time>2021-12-19T15:22:09Z</time>
      </trkpt>
      <trkpt lat="44.68937" lon="6.91602">
        <ele>2598.3</ele>
        <time>2021-12-19T15:22:10Z</time>
      </trkpt>
      <trkpt lat="44.68936" lon="6.91601">
        <ele>2598.4</ele>
        <time>2021-12-19T15:22:11Z</time>
      </trkpt>
      <trkpt lat="44.68936" lon="6.91602">
        <ele>2598.2</ele>
        <time>2021-12-19T15:22:47Z</time>
      </trkpt>
      <trkpt lat="44.68926" lon="6.91598">
        <ele>2598.6</ele>
        <time>2021-12-19T15:22:48Z</time>
      </trkpt>
      <trkpt lat="44.68922" lon="6.91597">
        <ele>2598.6</ele>
        <time>2021-12-19T15:22:50Z</time>
      </trkpt>
      <trkpt lat="44.68916" lon="6.91594">
        <ele>2598.5</ele>
        <time>2021-12-19T15:22:52Z</time>
      </trkpt>
      <trkpt lat="44.68907" lon="6.9159">
        <ele>2598.2</ele>
        <time>2021-12-19T15:22:54Z</time>
      </trkpt>
      <trkpt lat="44.68903" lon="6.91587">
        <ele>2598.3</ele>
        <time>2021-12-19T15:22:55Z</time>
      </trkpt>
      <trkpt lat="44.68897" lon="6.91585">
        <ele>2597.6</ele>
        <time>2021-12-19T15:22:56Z</time>
      </trkpt>
      <trkpt lat="44.68889" lon="6.91578">
        <ele>2596.9</ele>
        <time>2021-12-19T15:22:58Z</time>
      </trkpt>
      <trkpt lat="44.68886" lon="6.91574">
        <ele>2596.3</ele>
        <time>2021-12-19T15:23:01Z</time>
      </trkpt>
      <trkpt lat="44.68886" lon="6.91573">
        <ele>2596.3</ele>
        <time>2021-12-19T15:23:02Z</time>
      </trkpt>
      <trkpt lat="44.68886" lon="6.91573">
        <ele>2596</ele>
        <time>2021-12-19T15:23:11Z</time>
      </trkpt>
      <trkpt lat="44.68882" lon="6.91567">
        <ele>2593</ele>
        <time>2021-12-19T15:23:12Z</time>
      </trkpt>
      <trkpt lat="44.68875" lon="6.91557">
        <ele>2592.6</ele>
        <time>2021-12-19T15:23:14Z</time>
      </trkpt>
      <trkpt lat="44.6887" lon="6.9155">
        <ele>2592.1</ele>
        <time>2021-12-19T15:23:15Z</time>
      </trkpt>
      <trkpt lat="44.68865" lon="6.91543">
        <ele>2591.1</ele>
        <time>2021-12-19T15:23:16Z</time>
      </trkpt>
      <trkpt lat="44.68859" lon="6.91534">
        <ele>2590.4</ele>
        <time>2021-12-19T15:23:17Z</time>
      </trkpt>
      <trkpt lat="44.68853" lon="6.91527">
        <ele>2590.1</ele>
        <time>2021-12-19T15:23:18Z</time>
      </trkpt>
      <trkpt lat="44.68848" lon="6.91522">
        <ele>2589.4</ele>
        <time>2021-12-19T15:23:19Z</time>
      </trkpt>
      <trkpt lat="44.68843" lon="6.91517">
        <ele>2588.7</ele>
        <time>2021-12-19T15:23:20Z</time>
      </trkpt>
      <trkpt lat="44.68839" lon="6.91513">
        <ele>2588.3</ele>
        <time>2021-12-19T15:23:21Z</time>
      </trkpt>
      <trkpt lat="44.68834" lon="6.9151">
        <ele>2587.9</ele>
        <time>2021-12-19T15:23:22Z</time>
      </trkpt>
      <trkpt lat="44.68829" lon="6.91506">
        <ele>2587.7</ele>
        <time>2021-12-19T15:23:23Z</time>
      </trkpt>
      <trkpt lat="44.68825" lon="6.91502">
        <ele>2587.6</ele>
        <time>2021-12-19T15:23:24Z</time>
      </trkpt>
      <trkpt lat="44.68817" lon="6.91496">
        <ele>2587.1</ele>
        <time>2021-12-19T15:23:26Z</time>
      </trkpt>
      <trkpt lat="44.68814" lon="6.91492">
        <ele>2587.8</ele>
        <time>2021-12-19T15:23:27Z</time>
      </trkpt>
      <trkpt lat="44.68809" lon="6.91487">
        <ele>2589.8</ele>
        <time>2021-12-19T15:23:29Z</time>
      </trkpt>
      <trkpt lat="44.68804" lon="6.91483">
        <ele>2590.6</ele>
        <time>2021-12-19T15:23:31Z</time>
      </trkpt>
      <trkpt lat="44.688" lon="6.91477">
        <ele>2592.3</ele>
        <time>2021-12-19T15:23:33Z</time>
      </trkpt>
      <trkpt lat="44.68797" lon="6.91472">
        <ele>2592.9</ele>
        <time>2021-12-19T15:23:35Z</time>
      </trkpt>
      <trkpt lat="44.68796" lon="6.91471">
        <ele>2592.7</ele>
        <time>2021-12-19T15:23:36Z</time>
      </trkpt>
      <trkpt lat="44.68795" lon="6.91469">
        <ele>2592.3</ele>
        <time>2021-12-19T15:23:37Z</time>
      </trkpt>
      <trkpt lat="44.68795" lon="6.91468">
        <ele>2592.4</ele>
        <time>2021-12-19T15:23:38Z</time>
      </trkpt>
      <trkpt lat="44.68794" lon="6.91467">
        <ele>2592.5</ele>
        <time>2021-12-19T15:23:39Z</time>
      </trkpt>
      <trkpt lat="44.68793" lon="6.91466">
        <ele>2592</ele>
        <time>2021-12-19T15:23:40Z</time>
      </trkpt>
      <trkpt lat="44.68793" lon="6.91464">
        <ele>2591.2</ele>
        <time>2021-12-19T15:25:04Z</time>
      </trkpt>
      <trkpt lat="44.68789" lon="6.91452">
        <ele>2592.8</ele>
        <time>2021-12-19T15:25:05Z</time>
      </trkpt>
      <trkpt lat="44.68789" lon="6.91452">
        <ele>2592.8</ele>
        <time>2021-12-19T15:25:06Z</time>
      </trkpt>
      <trkpt lat="44.68789" lon="6.91452">
        <ele>2592.8</ele>
        <time>2021-12-19T15:25:55Z</time>
      </trkpt>
      <trkpt lat="44.68791" lon="6.91447">
        <ele>2591.6</ele>
        <time>2021-12-19T15:25:56Z</time>
      </trkpt>
      <trkpt lat="44.68791" lon="6.91446">
        <ele>2591.6</ele>
        <time>2021-12-19T15:25:57Z</time>
      </trkpt>
      <trkpt lat="44.6879" lon="6.91443">
        <ele>2591.4</ele>
        <time>2021-12-19T15:25:59Z</time>
      </trkpt>
      <trkpt lat="44.68789" lon="6.91439">
        <ele>2590.8</ele>
        <time>2021-12-19T15:26:00Z</time>
      </trkpt>
      <trkpt lat="44.68787" lon="6.91433">
        <ele>2589.9</ele>
        <time>2021-12-19T15:26:02Z</time>
      </trkpt>
      <trkpt lat="44.68784" lon="6.91422">
        <ele>2588.9</ele>
        <time>2021-12-19T15:26:04Z</time>
      </trkpt>
      <trkpt lat="44.68782" lon="6.91411">
        <ele>2586.8</ele>
        <time>2021-12-19T15:26:06Z</time>
      </trkpt>
      <trkpt lat="44.68782" lon="6.91404">
        <ele>2586</ele>
        <time>2021-12-19T15:26:08Z</time>
      </trkpt>
      <trkpt lat="44.68781" lon="6.91398">
        <ele>2584.7</ele>
        <time>2021-12-19T15:26:12Z</time>
      </trkpt>
      <trkpt lat="44.68779" lon="6.91389">
        <ele>2583.7</ele>
        <time>2021-12-19T15:26:16Z</time>
      </trkpt>
      <trkpt lat="44.68777" lon="6.91382">
        <ele>2583</ele>
        <time>2021-12-19T15:26:18Z</time>
      </trkpt>
      <trkpt lat="44.68776" lon="6.91375">
        <ele>2582.6</ele>
        <time>2021-12-19T15:26:20Z</time>
      </trkpt>
      <trkpt lat="44.68775" lon="6.91374">
        <ele>2582.5</ele>
        <time>2021-12-19T15:26:21Z</time>
      </trkpt>
      <trkpt lat="44.68775" lon="6.91374">
        <ele>2582.6</ele>
        <time>2021-12-19T15:26:36Z</time>
      </trkpt>
      <trkpt lat="44.68768" lon="6.91372">
        <ele>2583.4</ele>
        <time>2021-12-19T15:26:37Z</time>
      </trkpt>
      <trkpt lat="44.68767" lon="6.91373">
        <ele>2583.4</ele>
        <time>2021-12-19T15:26:38Z</time>
      </trkpt>
      <trkpt lat="44.68767" lon="6.91373">
        <ele>2583.1</ele>
        <time>2021-12-19T15:26:39Z</time>
      </trkpt>
      <trkpt lat="44.68766" lon="6.91374">
        <ele>2583.2</ele>
        <time>2021-12-19T15:26:40Z</time>
      </trkpt>
      <trkpt lat="44.68761" lon="6.91386">
        <ele>2585.6</ele>
        <time>2021-12-19T15:26:59Z</time>
      </trkpt>
      <trkpt lat="44.6876" lon="6.91386">
        <ele>2585.8</ele>
        <time>2021-12-19T15:27:12Z</time>
      </trkpt>
      <trkpt lat="44.68751" lon="6.91392">
        <ele>2585.7</ele>
        <time>2021-12-19T15:27:13Z</time>
      </trkpt>
      <trkpt lat="44.6875" lon="6.91393">
        <ele>2585.7</ele>
        <time>2021-12-19T15:27:14Z</time>
      </trkpt>
      <trkpt lat="44.68749" lon="6.91394">
        <ele>2585.5</ele>
        <time>2021-12-19T15:27:31Z</time>
      </trkpt>
      <trkpt lat="44.68741" lon="6.914">
        <ele>2585.4</ele>
        <time>2021-12-19T15:27:32Z</time>
      </trkpt>
      <trkpt lat="44.6874" lon="6.914">
        <ele>2585.3</ele>
        <time>2021-12-19T15:27:33Z</time>
      </trkpt>
      <trkpt lat="44.68739" lon="6.91401">
        <ele>2585.3</ele>
        <time>2021-12-19T15:28:12Z</time>
      </trkpt>
      <trkpt lat="44.68735" lon="6.91402">
        <ele>2587.1</ele>
        <time>2021-12-19T15:28:13Z</time>
      </trkpt>
      <trkpt lat="44.68729" lon="6.914">
        <ele>2587.4</ele>
        <time>2021-12-19T15:28:16Z</time>
      </trkpt>
      <trkpt lat="44.68724" lon="6.91398">
        <ele>2587.5</ele>
        <time>2021-12-19T15:28:19Z</time>
      </trkpt>
      <trkpt lat="44.68719" lon="6.91394">
        <ele>2587.5</ele>
        <time>2021-12-19T15:28:22Z</time>
      </trkpt>
      <trkpt lat="44.68714" lon="6.91392">
        <ele>2586.9</ele>
        <time>2021-12-19T15:28:24Z</time>
      </trkpt>
      <trkpt lat="44.68708" lon="6.91387">
        <ele>2586.1</ele>
        <time>2021-12-19T15:28:26Z</time>
      </trkpt>
      <trkpt lat="44.687" lon="6.9138">
        <ele>2584.4</ele>
        <time>2021-12-19T15:28:28Z</time>
      </trkpt>
      <trkpt lat="44.68693" lon="6.91374">
        <ele>2582.9</ele>
        <time>2021-12-19T15:28:30Z</time>
      </trkpt>
      <trkpt lat="44.68687" lon="6.9137">
        <ele>2580.2</ele>
        <time>2021-12-19T15:28:32Z</time>
      </trkpt>
      <trkpt lat="44.68681" lon="6.91366">
        <ele>2577.4</ele>
        <time>2021-12-19T15:28:34Z</time>
      </trkpt>
      <trkpt lat="44.68676" lon="6.91363">
        <ele>2575.6</ele>
        <time>2021-12-19T15:28:36Z</time>
      </trkpt>
      <trkpt lat="44.68671" lon="6.91359">
        <ele>2574.2</ele>
        <time>2021-12-19T15:28:38Z</time>
      </trkpt>
      <trkpt lat="44.6867" lon="6.91358">
        <ele>2573.6</ele>
        <time>2021-12-19T15:28:39Z</time>
      </trkpt>
      <trkpt lat="44.68669" lon="6.91357">
        <ele>2573.5</ele>
        <time>2021-12-19T15:28:40Z</time>
      </trkpt>
      <trkpt lat="44.68667" lon="6.91356">
        <ele>2572.7</ele>
        <time>2021-12-19T15:28:46Z</time>
      </trkpt>
      <trkpt lat="44.68661" lon="6.91352">
        <ele>2571</ele>
        <time>2021-12-19T15:28:47Z</time>
      </trkpt>
      <trkpt lat="44.68655" lon="6.91354">
        <ele>2570.3</ele>
        <time>2021-12-19T15:28:49Z</time>
      </trkpt>
      <trkpt lat="44.68649" lon="6.91356">
        <ele>2569.8</ele>
        <time>2021-12-19T15:28:51Z</time>
      </trkpt>
      <trkpt lat="44.68643" lon="6.9136">
        <ele>2569.4</ele>
        <time>2021-12-19T15:28:53Z</time>
      </trkpt>
      <trkpt lat="44.68638" lon="6.91363">
        <ele>2568.8</ele>
        <time>2021-12-19T15:28:55Z</time>
      </trkpt>
      <trkpt lat="44.68637" lon="6.91364">
        <ele>2568.5</ele>
        <time>2021-12-19T15:28:56Z</time>
      </trkpt>
      <trkpt lat="44.68636" lon="6.91364">
        <ele>2568.1</ele>
        <time>2021-12-19T15:28:57Z</time>
      </trkpt>
      <trkpt lat="44.68636" lon="6.91365">
        <ele>2567.5</ele>
        <time>2021-12-19T15:29:18Z</time>
      </trkpt>
      <trkpt lat="44.6863" lon="6.91374">
        <ele>2566</ele>
        <time>2021-12-19T15:29:19Z</time>
      </trkpt>
      <trkpt lat="44.68625" lon="6.91379">
        <ele>2565.6</ele>
        <time>2021-12-19T15:29:22Z</time>
      </trkpt>
      <trkpt lat="44.68622" lon="6.91384">
        <ele>2565.3</ele>
        <time>2021-12-19T15:29:25Z</time>
      </trkpt>
      <trkpt lat="44.68618" lon="6.91391">
        <ele>2565.8</ele>
        <time>2021-12-19T15:29:28Z</time>
      </trkpt>
      <trkpt lat="44.68613" lon="6.91398">
        <ele>2565.4</ele>
        <time>2021-12-19T15:29:30Z</time>
      </trkpt>
      <trkpt lat="44.68608" lon="6.91404">
        <ele>2565.3</ele>
        <time>2021-12-19T15:29:32Z</time>
      </trkpt>
      <trkpt lat="44.68602" lon="6.91409">
        <ele>2564</ele>
        <time>2021-12-19T15:29:34Z</time>
      </trkpt>
      <trkpt lat="44.68596" lon="6.91416">
        <ele>2562.5</ele>
        <time>2021-12-19T15:29:36Z</time>
      </trkpt>
      <trkpt lat="44.68591" lon="6.91421">
        <ele>2561.5</ele>
        <time>2021-12-19T15:29:38Z</time>
      </trkpt>
      <trkpt lat="44.68586" lon="6.91427">
        <ele>2560</ele>
        <time>2021-12-19T15:29:40Z</time>
      </trkpt>
      <trkpt lat="44.6858" lon="6.9143">
        <ele>2558.2</ele>
        <time>2021-12-19T15:29:42Z</time>
      </trkpt>
      <trkpt lat="44.68574" lon="6.91433">
        <ele>2556.8</ele>
        <time>2021-12-19T15:29:44Z</time>
      </trkpt>
      <trkpt lat="44.68571" lon="6.91434">
        <ele>2555.6</ele>
        <time>2021-12-19T15:29:46Z</time>
      </trkpt>
      <trkpt lat="44.6857" lon="6.91434">
        <ele>2555.6</ele>
        <time>2021-12-19T15:29:47Z</time>
      </trkpt>
      <trkpt lat="44.68568" lon="6.91435">
        <ele>2555.3</ele>
        <time>2021-12-19T15:29:53Z</time>
      </trkpt>
      <trkpt lat="44.6857" lon="6.91437">
        <ele>2554.7</ele>
        <time>2021-12-19T15:29:54Z</time>
      </trkpt>
      <trkpt lat="44.68571" lon="6.91437">
        <ele>2554</ele>
        <time>2021-12-19T15:29:56Z</time>
      </trkpt>
      <trkpt lat="44.68572" lon="6.91438">
        <ele>2552.7</ele>
        <time>2021-12-19T15:29:57Z</time>
      </trkpt>
      <trkpt lat="44.68572" lon="6.91438">
        <ele>2551.7</ele>
        <time>2021-12-19T15:30:18Z</time>
      </trkpt>
      <trkpt lat="44.68563" lon="6.91438">
        <ele>2550.6</ele>
        <time>2021-12-19T15:30:19Z</time>
      </trkpt>
      <trkpt lat="44.68562" lon="6.91438">
        <ele>2551</ele>
        <time>2021-12-19T15:30:20Z</time>
      </trkpt>
      <trkpt lat="44.68558" lon="6.9144">
        <ele>2550.7</ele>
        <time>2021-12-19T15:30:21Z</time>
      </trkpt>
      <trkpt lat="44.68559" lon="6.91441">
        <ele>2550.4</ele>
        <time>2021-12-19T15:30:22Z</time>
      </trkpt>
      <trkpt lat="44.68554" lon="6.91434">
        <ele>2549</ele>
        <time>2021-12-19T15:30:25Z</time>
      </trkpt>
      <trkpt lat="44.68549" lon="6.91436">
        <ele>2548.9</ele>
        <time>2021-12-19T15:30:28Z</time>
      </trkpt>
      <trkpt lat="44.68549" lon="6.91436">
        <ele>2548.9</ele>
        <time>2021-12-19T15:30:29Z</time>
      </trkpt>
      <trkpt lat="44.68549" lon="6.91439">
        <ele>2547.6</ele>
        <time>2021-12-19T15:30:30Z</time>
      </trkpt>
      <trkpt lat="44.68547" lon="6.9145">
        <ele>2548.3</ele>
        <time>2021-12-19T15:30:33Z</time>
      </trkpt>
      <trkpt lat="44.68549" lon="6.91461">
        <ele>2548.1</ele>
        <time>2021-12-19T15:30:35Z</time>
      </trkpt>
      <trkpt lat="44.68549" lon="6.91473">
        <ele>2548</ele>
        <time>2021-12-19T15:30:37Z</time>
      </trkpt>
      <trkpt lat="44.68549" lon="6.91479">
        <ele>2547.7</ele>
        <time>2021-12-19T15:30:38Z</time>
      </trkpt>
      <trkpt lat="44.68547" lon="6.91486">
        <ele>2547.4</ele>
        <time>2021-12-19T15:30:39Z</time>
      </trkpt>
      <trkpt lat="44.68542" lon="6.91497">
        <ele>2546.7</ele>
        <time>2021-12-19T15:30:41Z</time>
      </trkpt>
      <trkpt lat="44.68539" lon="6.91504">
        <ele>2545.4</ele>
        <time>2021-12-19T15:30:42Z</time>
      </trkpt>
      <trkpt lat="44.68537" lon="6.91511">
        <ele>2544.5</ele>
        <time>2021-12-19T15:30:43Z</time>
      </trkpt>
      <trkpt lat="44.68533" lon="6.91521">
        <ele>2543.3</ele>
        <time>2021-12-19T15:30:45Z</time>
      </trkpt>
      <trkpt lat="44.6853" lon="6.91526">
        <ele>2542.7</ele>
        <time>2021-12-19T15:30:46Z</time>
      </trkpt>
      <trkpt lat="44.68526" lon="6.91531">
        <ele>2542.3</ele>
        <time>2021-12-19T15:30:47Z</time>
      </trkpt>
      <trkpt lat="44.68521" lon="6.91539">
        <ele>2541.7</ele>
        <time>2021-12-19T15:30:49Z</time>
      </trkpt>
      <trkpt lat="44.68515" lon="6.91547">
        <ele>2541.8</ele>
        <time>2021-12-19T15:30:51Z</time>
      </trkpt>
      <trkpt lat="44.68511" lon="6.91554">
        <ele>2543</ele>
        <time>2021-12-19T15:30:53Z</time>
      </trkpt>
      <trkpt lat="44.68508" lon="6.9156">
        <ele>2542.5</ele>
        <time>2021-12-19T15:30:55Z</time>
      </trkpt>
      <trkpt lat="44.68506" lon="6.91563">
        <ele>2543.2</ele>
        <time>2021-12-19T15:30:57Z</time>
      </trkpt>
      <trkpt lat="44.68506" lon="6.91565">
        <ele>2543.3</ele>
        <time>2021-12-19T15:30:58Z</time>
      </trkpt>
      <trkpt lat="44.68504" lon="6.91567">
        <ele>2543.7</ele>
        <time>2021-12-19T15:31:08Z</time>
      </trkpt>
      <trkpt lat="44.68495" lon="6.91573">
        <ele>2544.9</ele>
        <time>2021-12-19T15:31:09Z</time>
      </trkpt>
      <trkpt lat="44.68491" lon="6.91577">
        <ele>2545.3</ele>
        <time>2021-12-19T15:31:11Z</time>
      </trkpt>
      <trkpt lat="44.68489" lon="6.91579">
        <ele>2545.6</ele>
        <time>2021-12-19T15:31:12Z</time>
      </trkpt>
      <trkpt lat="44.68488" lon="6.91581">
        <ele>2545.9</ele>
        <time>2021-12-19T15:31:13Z</time>
      </trkpt>
      <trkpt lat="44.68486" lon="6.91583">
        <ele>2546.3</ele>
        <time>2021-12-19T15:31:14Z</time>
      </trkpt>
      <trkpt lat="44.68482" lon="6.91585">
        <ele>2546.8</ele>
        <time>2021-12-19T15:31:18Z</time>
      </trkpt>
      <trkpt lat="44.68477" lon="6.91587">
        <ele>2547.3</ele>
        <time>2021-12-19T15:31:20Z</time>
      </trkpt>
      <trkpt lat="44.68469" lon="6.91589">
        <ele>2547.8</ele>
        <time>2021-12-19T15:31:22Z</time>
      </trkpt>
      <trkpt lat="44.68463" lon="6.91586">
        <ele>2547.6</ele>
        <time>2021-12-19T15:31:24Z</time>
      </trkpt>
      <trkpt lat="44.68458" lon="6.91583">
        <ele>2546.9</ele>
        <time>2021-12-19T15:31:26Z</time>
      </trkpt>
      <trkpt lat="44.68454" lon="6.91577">
        <ele>2542.1</ele>
        <time>2021-12-19T15:31:29Z</time>
      </trkpt>
      <trkpt lat="44.6845" lon="6.9157">
        <ele>2539.5</ele>
        <time>2021-12-19T15:31:31Z</time>
      </trkpt>
      <trkpt lat="44.68448" lon="6.91566">
        <ele>2537.8</ele>
        <time>2021-12-19T15:31:33Z</time>
      </trkpt>
      <trkpt lat="44.68447" lon="6.91565">
        <ele>2536.8</ele>
        <time>2021-12-19T15:31:34Z</time>
      </trkpt>
      <trkpt lat="44.68446" lon="6.91564">
        <ele>2536.9</ele>
        <time>2021-12-19T15:31:42Z</time>
      </trkpt>
      <trkpt lat="44.68443" lon="6.9156">
        <ele>2533.7</ele>
        <time>2021-12-19T15:31:43Z</time>
      </trkpt>
      <trkpt lat="44.68442" lon="6.91559">
        <ele>2532.9</ele>
        <time>2021-12-19T15:31:44Z</time>
      </trkpt>
      <trkpt lat="44.68441" lon="6.91558">
        <ele>2532.8</ele>
        <time>2021-12-19T15:32:00Z</time>
      </trkpt>
      <trkpt lat="44.68443" lon="6.91557">
        <ele>2532.7</ele>
        <time>2021-12-19T15:32:01Z</time>
      </trkpt>
      <trkpt lat="44.68447" lon="6.9156">
        <ele>2532.7</ele>
        <time>2021-12-19T15:32:02Z</time>
      </trkpt>
      <trkpt lat="44.68453" lon="6.91567">
        <ele>2532.6</ele>
        <time>2021-12-19T15:32:03Z</time>
      </trkpt>
      <trkpt lat="44.68455" lon="6.91572">
        <ele>2532.6</ele>
        <time>2021-12-19T15:32:04Z</time>
      </trkpt>
      <trkpt lat="44.68457" lon="6.91578">
        <ele>2530.6</ele>
        <time>2021-12-19T15:32:06Z</time>
      </trkpt>
      <trkpt lat="44.68458" lon="6.9158">
        <ele>2529.8</ele>
        <time>2021-12-19T15:32:07Z</time>
      </trkpt>
      <trkpt lat="44.68458" lon="6.91579">
        <ele>2530.5</ele>
        <time>2021-12-19T15:32:19Z</time>
      </trkpt>
      <trkpt lat="44.68455" lon="6.91573">
        <ele>2529.1</ele>
        <time>2021-12-19T15:32:20Z</time>
      </trkpt>
      <trkpt lat="44.68452" lon="6.91569">
        <ele>2529.7</ele>
        <time>2021-12-19T15:32:21Z</time>
      </trkpt>
      <trkpt lat="44.68452" lon="6.91568">
        <ele>2529.7</ele>
        <time>2021-12-19T15:32:22Z</time>
      </trkpt>
      <trkpt lat="44.68451" lon="6.91567">
        <ele>2530.2</ele>
        <time>2021-12-19T15:32:23Z</time>
      </trkpt>
      <trkpt lat="44.68447" lon="6.91563">
        <ele>2530.6</ele>
        <time>2021-12-19T15:32:25Z</time>
      </trkpt>
      <trkpt lat="44.6844" lon="6.91556">
        <ele>2530.7</ele>
        <time>2021-12-19T15:32:27Z</time>
      </trkpt>
      <trkpt lat="44.68435" lon="6.9155">
        <ele>2531.1</ele>
        <time>2021-12-19T15:32:29Z</time>
      </trkpt>
      <trkpt lat="44.68432" lon="6.91544">
        <ele>2530.7</ele>
        <time>2021-12-19T15:32:31Z</time>
      </trkpt>
      <trkpt lat="44.68428" lon="6.91539">
        <ele>2531.3</ele>
        <time>2021-12-19T15:32:33Z</time>
      </trkpt>
      <trkpt lat="44.68424" lon="6.9153">
        <ele>2533</ele>
        <time>2021-12-19T15:32:36Z</time>
      </trkpt>
      <trkpt lat="44.68422" lon="6.91525">
        <ele>2534.2</ele>
        <time>2021-12-19T15:32:38Z</time>
      </trkpt>
      <trkpt lat="44.68422" lon="6.91523">
        <ele>2534.4</ele>
        <time>2021-12-19T15:32:39Z</time>
      </trkpt>
      <trkpt lat="44.68421" lon="6.91521">
        <ele>2535.5</ele>
        <time>2021-12-19T15:32:53Z</time>
      </trkpt>
      <trkpt lat="44.6842" lon="6.91508">
        <ele>2532.2</ele>
        <time>2021-12-19T15:32:54Z</time>
      </trkpt>
      <trkpt lat="44.68419" lon="6.91508">
        <ele>2532</ele>
        <time>2021-12-19T15:32:55Z</time>
      </trkpt>
      <trkpt lat="44.68419" lon="6.91506">
        <ele>2531.4</ele>
        <time>2021-12-19T15:33:04Z</time>
      </trkpt>
      <trkpt lat="44.68413" lon="6.91495">
        <ele>2528.8</ele>
        <time>2021-12-19T15:33:05Z</time>
      </trkpt>
      <trkpt lat="44.68408" lon="6.91488">
        <ele>2527.7</ele>
        <time>2021-12-19T15:33:06Z</time>
      </trkpt>
      <trkpt lat="44.68404" lon="6.91481">
        <ele>2526</ele>
        <time>2021-12-19T15:33:07Z</time>
      </trkpt>
      <trkpt lat="44.68401" lon="6.91476">
        <ele>2525.1</ele>
        <time>2021-12-19T15:33:08Z</time>
      </trkpt>
      <trkpt lat="44.68396" lon="6.91468">
        <ele>2524.4</ele>
        <time>2021-12-19T15:33:10Z</time>
      </trkpt>
      <trkpt lat="44.68395" lon="6.91466">
        <ele>2524.4</ele>
        <time>2021-12-19T15:33:11Z</time>
      </trkpt>
      <trkpt lat="44.68395" lon="6.91464">
        <ele>2524.5</ele>
        <time>2021-12-19T15:33:12Z</time>
      </trkpt>
      <trkpt lat="44.68395" lon="6.91462">
        <ele>2524</ele>
        <time>2021-12-19T15:33:22Z</time>
      </trkpt>
      <trkpt lat="44.68398" lon="6.91451">
        <ele>2520.4</ele>
        <time>2021-12-19T15:33:23Z</time>
      </trkpt>
      <trkpt lat="44.68401" lon="6.91444">
        <ele>2518.9</ele>
        <time>2021-12-19T15:33:26Z</time>
      </trkpt>
      <trkpt lat="44.68405" lon="6.91436">
        <ele>2517.8</ele>
        <time>2021-12-19T15:33:28Z</time>
      </trkpt>
      <trkpt lat="44.68407" lon="6.91429">
        <ele>2517</ele>
        <time>2021-12-19T15:33:29Z</time>
      </trkpt>
      <trkpt lat="44.68409" lon="6.91422">
        <ele>2515.5</ele>
        <time>2021-12-19T15:33:30Z</time>
      </trkpt>
      <trkpt lat="44.6841" lon="6.91416">
        <ele>2514.6</ele>
        <time>2021-12-19T15:33:31Z</time>
      </trkpt>
      <trkpt lat="44.68408" lon="6.91406">
        <ele>2514.3</ele>
        <time>2021-12-19T15:33:33Z</time>
      </trkpt>
      <trkpt lat="44.68405" lon="6.91398">
        <ele>2515.1</ele>
        <time>2021-12-19T15:33:35Z</time>
      </trkpt>
      <trkpt lat="44.68401" lon="6.91393">
        <ele>2514.8</ele>
        <time>2021-12-19T15:33:37Z</time>
      </trkpt>
      <trkpt lat="44.68397" lon="6.91388">
        <ele>2514</ele>
        <time>2021-12-19T15:33:40Z</time>
      </trkpt>
      <trkpt lat="44.68392" lon="6.91381">
        <ele>2514.2</ele>
        <time>2021-12-19T15:33:43Z</time>
      </trkpt>
      <trkpt lat="44.68388" lon="6.91377">
        <ele>2514.7</ele>
        <time>2021-12-19T15:33:46Z</time>
      </trkpt>
      <trkpt lat="44.68384" lon="6.91373">
        <ele>2515.3</ele>
        <time>2021-12-19T15:33:48Z</time>
      </trkpt>
      <trkpt lat="44.68379" lon="6.9137">
        <ele>2516.1</ele>
        <time>2021-12-19T15:33:50Z</time>
      </trkpt>
      <trkpt lat="44.68374" lon="6.91368">
        <ele>2516.7</ele>
        <time>2021-12-19T15:33:52Z</time>
      </trkpt>
      <trkpt lat="44.68372" lon="6.91367">
        <ele>2516.9</ele>
        <time>2021-12-19T15:33:53Z</time>
      </trkpt>
      <trkpt lat="44.68371" lon="6.91366">
        <ele>2517.2</ele>
        <time>2021-12-19T15:33:54Z</time>
      </trkpt>
      <trkpt lat="44.68371" lon="6.91366">
        <ele>2517.7</ele>
        <time>2021-12-19T15:33:58Z</time>
      </trkpt>
      <trkpt lat="44.68369" lon="6.91366">
        <ele>2517.9</ele>
        <time>2021-12-19T15:33:59Z</time>
      </trkpt>
      <trkpt lat="44.68367" lon="6.91366">
        <ele>2518.2</ele>
        <time>2021-12-19T15:34:00Z</time>
      </trkpt>
      <trkpt lat="44.68366" lon="6.91367">
        <ele>2518.3</ele>
        <time>2021-12-19T15:34:01Z</time>
      </trkpt>
      <trkpt lat="44.68365" lon="6.91368">
        <ele>2519.1</ele>
        <time>2021-12-19T15:34:05Z</time>
      </trkpt>
      <trkpt lat="44.68363" lon="6.91371">
        <ele>2520.2</ele>
        <time>2021-12-19T15:34:06Z</time>
      </trkpt>
      <trkpt lat="44.68362" lon="6.91372">
        <ele>2520.7</ele>
        <time>2021-12-19T15:34:07Z</time>
      </trkpt>
      <trkpt lat="44.68362" lon="6.91372">
        <ele>2521.1</ele>
        <time>2021-12-19T15:34:08Z</time>
      </trkpt>
      <trkpt lat="44.68361" lon="6.91372">
        <ele>2521.7</ele>
        <time>2021-12-19T15:35:02Z</time>
      </trkpt>
      <trkpt lat="44.68368" lon="6.91361">
        <ele>2526.2</ele>
        <time>2021-12-19T15:35:03Z</time>
      </trkpt>
      <trkpt lat="44.6837" lon="6.9136">
        <ele>2526.1</ele>
        <time>2021-12-19T15:35:04Z</time>
      </trkpt>
      <trkpt lat="44.6837" lon="6.91359">
        <ele>2525.8</ele>
        <time>2021-12-19T15:35:47Z</time>
      </trkpt>
      <trkpt lat="44.68377" lon="6.91367">
        <ele>2526.6</ele>
        <time>2021-12-19T15:35:48Z</time>
      </trkpt>
      <trkpt lat="44.68384" lon="6.91373">
        <ele>2527.4</ele>
        <time>2021-12-19T15:35:50Z</time>
      </trkpt>
      <trkpt lat="44.68388" lon="6.91379">
        <ele>2524.6</ele>
        <time>2021-12-19T15:35:52Z</time>
      </trkpt>
      <trkpt lat="44.68392" lon="6.91384">
        <ele>2520.8</ele>
        <time>2021-12-19T15:35:54Z</time>
      </trkpt>
      <trkpt lat="44.68392" lon="6.91386">
        <ele>2517</ele>
        <time>2021-12-19T15:35:57Z</time>
      </trkpt>
      <trkpt lat="44.68391" lon="6.91385">
        <ele>2515.5</ele>
        <time>2021-12-19T15:35:58Z</time>
      </trkpt>
      <trkpt lat="44.68389" lon="6.91384">
        <ele>2514.6</ele>
        <time>2021-12-19T15:35:59Z</time>
      </trkpt>
      <trkpt lat="44.68387" lon="6.91384">
        <ele>2513.5</ele>
        <time>2021-12-19T15:36:00Z</time>
      </trkpt>
      <trkpt lat="44.68386" lon="6.91383">
        <ele>2512.9</ele>
        <time>2021-12-19T15:36:01Z</time>
      </trkpt>
      <trkpt lat="44.68377" lon="6.91389">
        <ele>2512.1</ele>
        <time>2021-12-19T15:36:16Z</time>
      </trkpt>
      <trkpt lat="44.68373" lon="6.91389">
        <ele>2511.7</ele>
        <time>2021-12-19T15:36:17Z</time>
      </trkpt>
      <trkpt lat="44.68368" lon="6.91387">
        <ele>2511.9</ele>
        <time>2021-12-19T15:36:18Z</time>
      </trkpt>
      <trkpt lat="44.68362" lon="6.91385">
        <ele>2512.2</ele>
        <time>2021-12-19T15:36:19Z</time>
      </trkpt>
      <trkpt lat="44.68357" lon="6.91384">
        <ele>2512.6</ele>
        <time>2021-12-19T15:36:20Z</time>
      </trkpt>
      <trkpt lat="44.68351" lon="6.91383">
        <ele>2512.7</ele>
        <time>2021-12-19T15:36:21Z</time>
      </trkpt>
      <trkpt lat="44.68346" lon="6.91382">
        <ele>2512.9</ele>
        <time>2021-12-19T15:36:22Z</time>
      </trkpt>
      <trkpt lat="44.6834" lon="6.91381">
        <ele>2512.8</ele>
        <time>2021-12-19T15:36:23Z</time>
      </trkpt>
      <trkpt lat="44.68334" lon="6.91379">
        <ele>2512</ele>
        <time>2021-12-19T15:36:24Z</time>
      </trkpt>
      <trkpt lat="44.68328" lon="6.91378">
        <ele>2511.7</ele>
        <time>2021-12-19T15:36:25Z</time>
      </trkpt>
      <trkpt lat="44.68318" lon="6.91375">
        <ele>2511.4</ele>
        <time>2021-12-19T15:36:27Z</time>
      </trkpt>
      <trkpt lat="44.68312" lon="6.91372">
        <ele>2511.9</ele>
        <time>2021-12-19T15:36:28Z</time>
      </trkpt>
      <trkpt lat="44.68306" lon="6.9137">
        <ele>2512</ele>
        <time>2021-12-19T15:36:29Z</time>
      </trkpt>
      <trkpt lat="44.68298" lon="6.91369">
        <ele>2511.7</ele>
        <time>2021-12-19T15:36:31Z</time>
      </trkpt>
      <trkpt lat="44.68289" lon="6.91369">
        <ele>2511</ele>
        <time>2021-12-19T15:36:33Z</time>
      </trkpt>
      <trkpt lat="44.68283" lon="6.91371">
        <ele>2511</ele>
        <time>2021-12-19T15:36:35Z</time>
      </trkpt>
      <trkpt lat="44.68278" lon="6.91372">
        <ele>2510.4</ele>
        <time>2021-12-19T15:36:37Z</time>
      </trkpt>
      <trkpt lat="44.68276" lon="6.91372">
        <ele>2510.4</ele>
        <time>2021-12-19T15:36:38Z</time>
      </trkpt>
      <trkpt lat="44.68275" lon="6.91372">
        <ele>2510.5</ele>
        <time>2021-12-19T15:36:52Z</time>
      </trkpt>
      <trkpt lat="44.68265" lon="6.91368">
        <ele>2509.6</ele>
        <time>2021-12-19T15:36:53Z</time>
      </trkpt>
      <trkpt lat="44.68264" lon="6.91367">
        <ele>2508.9</ele>
        <time>2021-12-19T15:36:54Z</time>
      </trkpt>
      <trkpt lat="44.68262" lon="6.91366">
        <ele>2508.4</ele>
        <time>2021-12-19T15:37:25Z</time>
      </trkpt>
      <trkpt lat="44.6826" lon="6.9136">
        <ele>2501.3</ele>
        <time>2021-12-19T15:37:26Z</time>
      </trkpt>
      <trkpt lat="44.6826" lon="6.91359">
        <ele>2501.3</ele>
        <time>2021-12-19T15:37:27Z</time>
      </trkpt>
      <trkpt lat="44.68259" lon="6.91359">
        <ele>2501.4</ele>
        <time>2021-12-19T15:38:48Z</time>
      </trkpt>
      <trkpt lat="44.68259" lon="6.9136">
        <ele>2505.8</ele>
        <time>2021-12-19T15:38:49Z</time>
      </trkpt>
      <trkpt lat="44.68265" lon="6.91368">
        <ele>2505.3</ele>
        <time>2021-12-19T15:38:50Z</time>
      </trkpt>
      <trkpt lat="44.6827" lon="6.91377">
        <ele>2504.7</ele>
        <time>2021-12-19T15:38:51Z</time>
      </trkpt>
      <trkpt lat="44.68273" lon="6.91386">
        <ele>2501</ele>
        <time>2021-12-19T15:38:52Z</time>
      </trkpt>
      <trkpt lat="44.68274" lon="6.91395">
        <ele>2496.2</ele>
        <time>2021-12-19T15:38:53Z</time>
      </trkpt>
      <trkpt lat="44.68277" lon="6.91402">
        <ele>2494.1</ele>
        <time>2021-12-19T15:38:54Z</time>
      </trkpt>
      <trkpt lat="44.6828" lon="6.91408">
        <ele>2492.4</ele>
        <time>2021-12-19T15:38:55Z</time>
      </trkpt>
      <trkpt lat="44.68285" lon="6.91413">
        <ele>2489.8</ele>
        <time>2021-12-19T15:38:57Z</time>
      </trkpt>
      <trkpt lat="44.68288" lon="6.9141">
        <ele>2482.9</ele>
        <time>2021-12-19T15:39:01Z</time>
      </trkpt>
      <trkpt lat="44.68287" lon="6.9141">
        <ele>2481.1</ele>
        <time>2021-12-19T15:39:02Z</time>
      </trkpt>
      <trkpt lat="44.68286" lon="6.91409">
        <ele>2479.5</ele>
        <time>2021-12-19T15:39:04Z</time>
      </trkpt>
      <trkpt lat="44.68285" lon="6.91407">
        <ele>2479</ele>
        <time>2021-12-19T15:39:05Z</time>
      </trkpt>
      <trkpt lat="44.68285" lon="6.91399">
        <ele>2476.9</ele>
        <time>2021-12-19T15:39:06Z</time>
      </trkpt>
      <trkpt lat="44.68285" lon="6.91399">
        <ele>2476.7</ele>
        <time>2021-12-19T15:39:07Z</time>
      </trkpt>
      <trkpt lat="44.68283" lon="6.91398">
        <ele>2476.2</ele>
        <time>2021-12-19T15:39:08Z</time>
      </trkpt>
      <trkpt lat="44.6828" lon="6.91391">
        <ele>2476.9</ele>
        <time>2021-12-19T15:39:09Z</time>
      </trkpt>
      <trkpt lat="44.6828" lon="6.91389">
        <ele>2476.1</ele>
        <time>2021-12-19T15:39:10Z</time>
      </trkpt>
      <trkpt lat="44.68279" lon="6.91387">
        <ele>2475.5</ele>
        <time>2021-12-19T15:39:11Z</time>
      </trkpt>
      <trkpt lat="44.68279" lon="6.91387">
        <ele>2475.3</ele>
        <time>2021-12-19T15:39:24Z</time>
      </trkpt>
      <trkpt lat="44.68271" lon="6.91377">
        <ele>2479.7</ele>
        <time>2021-12-19T15:39:25Z</time>
      </trkpt>
      <trkpt lat="44.6827" lon="6.91376">
        <ele>2480.4</ele>
        <time>2021-12-19T15:39:26Z</time>
      </trkpt>
      <trkpt lat="44.68265" lon="6.91371">
        <ele>2486.5</ele>
        <time>2021-12-19T15:39:51Z</time>
      </trkpt>
      <trkpt lat="44.68265" lon="6.91373">
        <ele>2486.7</ele>
        <time>2021-12-19T15:40:10Z</time>
      </trkpt>
      <trkpt lat="44.68265" lon="6.91387">
        <ele>2485.8</ele>
        <time>2021-12-19T15:40:11Z</time>
      </trkpt>
      <trkpt lat="44.68266" lon="6.91389">
        <ele>2485.6</ele>
        <time>2021-12-19T15:40:12Z</time>
      </trkpt>
      <trkpt lat="44.68266" lon="6.91391">
        <ele>2485.5</ele>
        <time>2021-12-19T15:42:01Z</time>
      </trkpt>
      <trkpt lat="44.6827" lon="6.91383">
        <ele>2488.2</ele>
        <time>2021-12-19T15:42:02Z</time>
      </trkpt>
      <trkpt lat="44.68271" lon="6.91382">
        <ele>2487.9</ele>
        <time>2021-12-19T15:42:03Z</time>
      </trkpt>
      <trkpt lat="44.68265" lon="6.91372">
        <ele>2488.7</ele>
        <time>2021-12-19T15:42:46Z</time>
      </trkpt>
      <trkpt lat="44.68261" lon="6.91365">
        <ele>2488.7</ele>
        <time>2021-12-19T15:42:51Z</time>
      </trkpt>
      <trkpt lat="44.68257" lon="6.9136">
        <ele>2488.6</ele>
        <time>2021-12-19T15:42:55Z</time>
      </trkpt>
      <trkpt lat="44.68257" lon="6.9136">
        <ele>2488.6</ele>
        <time>2021-12-19T15:42:56Z</time>
      </trkpt>
      <trkpt lat="44.68256" lon="6.91352">
        <ele>2488.5</ele>
        <time>2021-12-19T15:43:05Z</time>
      </trkpt>
      <trkpt lat="44.68255" lon="6.91348">
        <ele>2488.5</ele>
        <time>2021-12-19T15:43:08Z</time>
      </trkpt>
      <trkpt lat="44.68255" lon="6.91348">
        <ele>2488.5</ele>
        <time>2021-12-19T15:43:09Z</time>
      </trkpt>
      <trkpt lat="44.68265" lon="6.91357">
        <ele>2488.3</ele>
        <time>2021-12-19T15:43:28Z</time>
      </trkpt>
      <trkpt lat="44.68275" lon="6.91351">
        <ele>2488.3</ele>
        <time>2021-12-19T15:43:38Z</time>
      </trkpt>
      <trkpt lat="44.68271" lon="6.91359">
        <ele>2488.3</ele>
        <time>2021-12-19T15:44:02Z</time>
      </trkpt>
      <trkpt lat="44.68262" lon="6.91369">
        <ele>2489.7</ele>
        <time>2021-12-19T15:44:23Z</time>
      </trkpt>
      <trkpt lat="44.68265" lon="6.91353">
        <ele>2489.4</ele>
        <time>2021-12-19T15:44:37Z</time>
      </trkpt>
      <trkpt lat="44.68265" lon="6.91365">
        <ele>2489.5</ele>
        <time>2021-12-19T15:46:00Z</time>
      </trkpt>
      <trkpt lat="44.68265" lon="6.91366">
        <ele>2489.6</ele>
        <time>2021-12-19T15:47:10Z</time>
      </trkpt>
      <trkpt lat="44.68261" lon="6.91378">
        <ele>2490.3</ele>
        <time>2021-12-19T15:47:11Z</time>
      </trkpt>
      <trkpt lat="44.68257" lon="6.91378">
        <ele>2490.2</ele>
        <time>2021-12-19T15:47:13Z</time>
      </trkpt>
      <trkpt lat="44.68256" lon="6.91379">
        <ele>2490.2</ele>
        <time>2021-12-19T15:47:14Z</time>
      </trkpt>
      <trkpt lat="44.68254" lon="6.91379">
        <ele>2490.1</ele>
        <time>2021-12-19T15:47:15Z</time>
      </trkpt>
      <trkpt lat="44.68254" lon="6.9138">
        <ele>2490</ele>
        <time>2021-12-19T15:47:16Z</time>
      </trkpt>
      <trkpt lat="44.68253" lon="6.91381">
        <ele>2490</ele>
        <time>2021-12-19T15:47:17Z</time>
      </trkpt>
      <trkpt lat="44.6825" lon="6.91385">
        <ele>2490</ele>
        <time>2021-12-19T15:47:21Z</time>
      </trkpt>
      <trkpt lat="44.68249" lon="6.91385">
        <ele>2490.1</ele>
        <time>2021-12-19T15:47:22Z</time>
      </trkpt>
      <trkpt lat="44.68248" lon="6.91386">
        <ele>2490.2</ele>
        <time>2021-12-19T15:47:23Z</time>
      </trkpt>
      <trkpt lat="44.68247" lon="6.91386">
        <ele>2490.3</ele>
        <time>2021-12-19T15:47:39Z</time>
      </trkpt>
      <trkpt lat="44.68251" lon="6.91374">
        <ele>2489.5</ele>
        <time>2021-12-19T15:47:40Z</time>
      </trkpt>
      <trkpt lat="44.68253" lon="6.9137">
        <ele>2489.4</ele>
        <time>2021-12-19T15:47:41Z</time>
      </trkpt>
      <trkpt lat="44.68255" lon="6.91365">
        <ele>2489.4</ele>
        <time>2021-12-19T15:47:42Z</time>
      </trkpt>
      <trkpt lat="44.68258" lon="6.91355">
        <ele>2489.3</ele>
        <time>2021-12-19T15:47:44Z</time>
      </trkpt>
      <trkpt lat="44.6826" lon="6.91346">
        <ele>2489.1</ele>
        <time>2021-12-19T15:47:46Z</time>
      </trkpt>
      <trkpt lat="44.6826" lon="6.91333">
        <ele>2488.8</ele>
        <time>2021-12-19T15:47:48Z</time>
      </trkpt>
      <trkpt lat="44.68263" lon="6.91327">
        <ele>2488.6</ele>
        <time>2021-12-19T15:47:49Z</time>
      </trkpt>
      <trkpt lat="44.68253" lon="6.91318">
        <ele>2487.6</ele>
        <time>2021-12-19T15:47:51Z</time>
      </trkpt>
      <trkpt lat="44.68253" lon="6.91318">
        <ele>2487.3</ele>
        <time>2021-12-19T15:47:53Z</time>
      </trkpt>
      <trkpt lat="44.68251" lon="6.91324">
        <ele>2486.9</ele>
        <time>2021-12-19T15:47:54Z</time>
      </trkpt>
      <trkpt lat="44.68249" lon="6.91329">
        <ele>2486.4</ele>
        <time>2021-12-19T15:48:00Z</time>
      </trkpt>
      <trkpt lat="44.6824" lon="6.91347">
        <ele>2486</ele>
        <time>2021-12-19T15:48:01Z</time>
      </trkpt>
      <trkpt lat="44.68235" lon="6.91354">
        <ele>2485.6</ele>
        <time>2021-12-19T15:48:02Z</time>
      </trkpt>
      <trkpt lat="44.68226" lon="6.91378">
        <ele>2486.3</ele>
        <time>2021-12-19T15:48:03Z</time>
      </trkpt>
      <trkpt lat="44.6822" lon="6.91386">
        <ele>2485.6</ele>
        <time>2021-12-19T15:48:04Z</time>
      </trkpt>
      <trkpt lat="44.68219" lon="6.91388">
        <ele>2484.5</ele>
        <time>2021-12-19T15:48:18Z</time>
      </trkpt>
      <trkpt lat="44.68218" lon="6.91379">
        <ele>2480.7</ele>
        <time>2021-12-19T15:48:19Z</time>
      </trkpt>
      <trkpt lat="44.68216" lon="6.91372">
        <ele>2480</ele>
        <time>2021-12-19T15:48:23Z</time>
      </trkpt>
      <trkpt lat="44.68214" lon="6.91366">
        <ele>2479.5</ele>
        <time>2021-12-19T15:48:26Z</time>
      </trkpt>
      <trkpt lat="44.68214" lon="6.9136">
        <ele>2479</ele>
        <time>2021-12-19T15:48:29Z</time>
      </trkpt>
      <trkpt lat="44.68214" lon="6.91356">
        <ele>2479.1</ele>
        <time>2021-12-19T15:48:31Z</time>
      </trkpt>
      <trkpt lat="44.68214" lon="6.91354">
        <ele>2479.1</ele>
        <time>2021-12-19T15:48:32Z</time>
      </trkpt>
      <trkpt lat="44.68214" lon="6.91353">
        <ele>2479.1</ele>
        <time>2021-12-19T15:48:35Z</time>
      </trkpt>
      <trkpt lat="44.68214" lon="6.9135">
        <ele>2479</ele>
        <time>2021-12-19T15:48:36Z</time>
      </trkpt>
      <trkpt lat="44.68215" lon="6.91349">
        <ele>2479.5</ele>
        <time>2021-12-19T15:48:37Z</time>
      </trkpt>
      <trkpt lat="44.68215" lon="6.91348">
        <ele>2479.5</ele>
        <time>2021-12-19T15:48:38Z</time>
      </trkpt>
      <trkpt lat="44.68215" lon="6.91346">
        <ele>2479.4</ele>
        <time>2021-12-19T15:48:40Z</time>
      </trkpt>
      <trkpt lat="44.68216" lon="6.91345">
        <ele>2479.6</ele>
        <time>2021-12-19T15:48:41Z</time>
      </trkpt>
      <trkpt lat="44.68217" lon="6.91343">
        <ele>2479.7</ele>
        <time>2021-12-19T15:48:42Z</time>
      </trkpt>
      <trkpt lat="44.68217" lon="6.91342">
        <ele>2479.7</ele>
        <time>2021-12-19T15:48:43Z</time>
      </trkpt>
      <trkpt lat="44.68217" lon="6.9134">
        <ele>2479.8</ele>
        <time>2021-12-19T15:48:47Z</time>
      </trkpt>
      <trkpt lat="44.68217" lon="6.91335">
        <ele>2480</ele>
        <time>2021-12-19T15:48:48Z</time>
      </trkpt>
      <trkpt lat="44.68217" lon="6.91332">
        <ele>2480.4</ele>
        <time>2021-12-19T15:48:50Z</time>
      </trkpt>
      <trkpt lat="44.68217" lon="6.9133">
        <ele>2480.5</ele>
        <time>2021-12-19T15:48:51Z</time>
      </trkpt>
      <trkpt lat="44.68217" lon="6.91328">
        <ele>2480.5</ele>
        <time>2021-12-19T15:48:56Z</time>
      </trkpt>
      <trkpt lat="44.68219" lon="6.91334">
        <ele>2480.5</ele>
        <time>2021-12-19T15:48:57Z</time>
      </trkpt>
      <trkpt lat="44.68219" lon="6.91336">
        <ele>2480.2</ele>
        <time>2021-12-19T15:48:58Z</time>
      </trkpt>
      <trkpt lat="44.68219" lon="6.91338">
        <ele>2479.2</ele>
        <time>2021-12-19T15:48:59Z</time>
      </trkpt>
      <trkpt lat="44.6822" lon="6.91339">
        <ele>2478</ele>
        <time>2021-12-19T15:49:01Z</time>
      </trkpt>
      <trkpt lat="44.6822" lon="6.91335">
        <ele>2476.8</ele>
        <time>2021-12-19T15:49:02Z</time>
      </trkpt>
      <trkpt lat="44.6822" lon="6.91327">
        <ele>2478.7</ele>
        <time>2021-12-19T15:49:05Z</time>
      </trkpt>
      <trkpt lat="44.68219" lon="6.91319">
        <ele>2480.5</ele>
        <time>2021-12-19T15:49:08Z</time>
      </trkpt>
      <trkpt lat="44.68218" lon="6.91317">
        <ele>2481.5</ele>
        <time>2021-12-19T15:49:09Z</time>
      </trkpt>
      <trkpt lat="44.68218" lon="6.91318">
        <ele>2481.9</ele>
        <time>2021-12-19T15:49:10Z</time>
      </trkpt>
      <trkpt lat="44.68217" lon="6.91318">
        <ele>2482.2</ele>
        <time>2021-12-19T15:49:19Z</time>
      </trkpt>
      <trkpt lat="44.68216" lon="6.91319">
        <ele>2481.2</ele>
        <time>2021-12-19T15:49:20Z</time>
      </trkpt>
      <trkpt lat="44.68217" lon="6.91312">
        <ele>2479.9</ele>
        <time>2021-12-19T15:49:23Z</time>
      </trkpt>
      <trkpt lat="44.68219" lon="6.91304">
        <ele>2478.5</ele>
        <time>2021-12-19T15:49:26Z</time>
      </trkpt>
      <trkpt lat="44.68222" lon="6.91297">
        <ele>2478.4</ele>
        <time>2021-12-19T15:49:28Z</time>
      </trkpt>
      <trkpt lat="44.68224" lon="6.9129">
        <ele>2477.5</ele>
        <time>2021-12-19T15:49:30Z</time>
      </trkpt>
      <trkpt lat="44.68226" lon="6.91282">
        <ele>2477</ele>
        <time>2021-12-19T15:49:32Z</time>
      </trkpt>
      <trkpt lat="44.68228" lon="6.91273">
        <ele>2476.5</ele>
        <time>2021-12-19T15:49:34Z</time>
      </trkpt>
      <trkpt lat="44.68226" lon="6.91265">
        <ele>2476.5</ele>
        <time>2021-12-19T15:49:36Z</time>
      </trkpt>
      <trkpt lat="44.68224" lon="6.91257">
        <ele>2475.7</ele>
        <time>2021-12-19T15:49:38Z</time>
      </trkpt>
      <trkpt lat="44.68221" lon="6.91252">
        <ele>2475.5</ele>
        <time>2021-12-19T15:49:40Z</time>
      </trkpt>
      <trkpt lat="44.68216" lon="6.91255">
        <ele>2475.4</ele>
        <time>2021-12-19T15:49:45Z</time>
      </trkpt>
      <trkpt lat="44.68212" lon="6.91261">
        <ele>2474.3</ele>
        <time>2021-12-19T15:49:50Z</time>
      </trkpt>
      <trkpt lat="44.68207" lon="6.91264">
        <ele>2473.8</ele>
        <time>2021-12-19T15:49:55Z</time>
      </trkpt>
      <trkpt lat="44.68203" lon="6.91266">
        <ele>2474</ele>
        <time>2021-12-19T15:49:58Z</time>
      </trkpt>
      <trkpt lat="44.68197" lon="6.91268">
        <ele>2473.6</ele>
        <time>2021-12-19T15:50:01Z</time>
      </trkpt>
      <trkpt lat="44.68193" lon="6.9127">
        <ele>2473.6</ele>
        <time>2021-12-19T15:50:05Z</time>
      </trkpt>
      <trkpt lat="44.68188" lon="6.91271">
        <ele>2473.6</ele>
        <time>2021-12-19T15:50:08Z</time>
      </trkpt>
      <trkpt lat="44.68182" lon="6.91273">
        <ele>2473.7</ele>
        <time>2021-12-19T15:50:11Z</time>
      </trkpt>
      <trkpt lat="44.68176" lon="6.91276">
        <ele>2473.5</ele>
        <time>2021-12-19T15:50:14Z</time>
      </trkpt>
      <trkpt lat="44.68171" lon="6.91276">
        <ele>2473.4</ele>
        <time>2021-12-19T15:50:16Z</time>
      </trkpt>
      <trkpt lat="44.68167" lon="6.91278">
        <ele>2472.7</ele>
        <time>2021-12-19T15:50:19Z</time>
      </trkpt>
      <trkpt lat="44.68167" lon="6.91279">
        <ele>2472.2</ele>
        <time>2021-12-19T15:50:20Z</time>
      </trkpt>
      <trkpt lat="44.68167" lon="6.9128">
        <ele>2472.1</ele>
        <time>2021-12-19T15:50:51Z</time>
      </trkpt>
      <trkpt lat="44.68164" lon="6.91283">
        <ele>2472.4</ele>
        <time>2021-12-19T15:50:52Z</time>
      </trkpt>
      <trkpt lat="44.68159" lon="6.91284">
        <ele>2472.1</ele>
        <time>2021-12-19T15:50:55Z</time>
      </trkpt>
      <trkpt lat="44.68154" lon="6.91282">
        <ele>2471.4</ele>
        <time>2021-12-19T15:50:59Z</time>
      </trkpt>
      <trkpt lat="44.68151" lon="6.91275">
        <ele>2471.4</ele>
        <time>2021-12-19T15:51:02Z</time>
      </trkpt>
      <trkpt lat="44.68151" lon="6.91268">
        <ele>2471.9</ele>
        <time>2021-12-19T15:51:04Z</time>
      </trkpt>
      <trkpt lat="44.68149" lon="6.91262">
        <ele>2471</ele>
        <time>2021-12-19T15:51:06Z</time>
      </trkpt>
      <trkpt lat="44.68147" lon="6.91256">
        <ele>2471</ele>
        <time>2021-12-19T15:51:08Z</time>
      </trkpt>
      <trkpt lat="44.68145" lon="6.91247">
        <ele>2471.8</ele>
        <time>2021-12-19T15:51:11Z</time>
      </trkpt>
      <trkpt lat="44.68144" lon="6.9124">
        <ele>2471.1</ele>
        <time>2021-12-19T15:51:13Z</time>
      </trkpt>
      <trkpt lat="44.68141" lon="6.91232">
        <ele>2470.2</ele>
        <time>2021-12-19T15:51:16Z</time>
      </trkpt>
      <trkpt lat="44.68141" lon="6.91229">
        <ele>2469.9</ele>
        <time>2021-12-19T15:51:20Z</time>
      </trkpt>
      <trkpt lat="44.68141" lon="6.91227">
        <ele>2470</ele>
        <time>2021-12-19T15:51:21Z</time>
      </trkpt>
      <trkpt lat="44.68141" lon="6.91225">
        <ele>2470</ele>
        <time>2021-12-19T15:51:24Z</time>
      </trkpt>
      <trkpt lat="44.6814" lon="6.91223">
        <ele>2470.1</ele>
        <time>2021-12-19T15:51:25Z</time>
      </trkpt>
      <trkpt lat="44.68141" lon="6.91222">
        <ele>2469.7</ele>
        <time>2021-12-19T15:51:26Z</time>
      </trkpt>
      <trkpt lat="44.68141" lon="6.91221">
        <ele>2469.4</ele>
        <time>2021-12-19T15:51:27Z</time>
      </trkpt>
      <trkpt lat="44.68143" lon="6.9122">
        <ele>2469.1</ele>
        <time>2021-12-19T15:51:30Z</time>
      </trkpt>
      <trkpt lat="44.68144" lon="6.91219">
        <ele>2468.7</ele>
        <time>2021-12-19T15:51:31Z</time>
      </trkpt>
      <trkpt lat="44.68147" lon="6.91214">
        <ele>2468.5</ele>
        <time>2021-12-19T15:51:36Z</time>
      </trkpt>
      <trkpt lat="44.68151" lon="6.91209">
        <ele>2467</ele>
        <time>2021-12-19T15:51:39Z</time>
      </trkpt>
      <trkpt lat="44.68156" lon="6.91203">
        <ele>2465.8</ele>
        <time>2021-12-19T15:51:42Z</time>
      </trkpt>
      <trkpt lat="44.68159" lon="6.91198">
        <ele>2464.6</ele>
        <time>2021-12-19T15:51:44Z</time>
      </trkpt>
      <trkpt lat="44.68163" lon="6.91193">
        <ele>2463.7</ele>
        <time>2021-12-19T15:51:46Z</time>
      </trkpt>
      <trkpt lat="44.68166" lon="6.91187">
        <ele>2463.2</ele>
        <time>2021-12-19T15:51:48Z</time>
      </trkpt>
      <trkpt lat="44.68168" lon="6.91182">
        <ele>2461.2</ele>
        <time>2021-12-19T15:51:50Z</time>
      </trkpt>
      <trkpt lat="44.68172" lon="6.91176">
        <ele>2459.7</ele>
        <time>2021-12-19T15:51:52Z</time>
      </trkpt>
      <trkpt lat="44.68176" lon="6.91169">
        <ele>2459.2</ele>
        <time>2021-12-19T15:51:54Z</time>
      </trkpt>
      <trkpt lat="44.6818" lon="6.91164">
        <ele>2459.5</ele>
        <time>2021-12-19T15:51:56Z</time>
      </trkpt>
      <trkpt lat="44.68183" lon="6.91158">
        <ele>2459.2</ele>
        <time>2021-12-19T15:51:58Z</time>
      </trkpt>
      <trkpt lat="44.68188" lon="6.91154">
        <ele>2459.4</ele>
        <time>2021-12-19T15:52:01Z</time>
      </trkpt>
      <trkpt lat="44.68189" lon="6.91153">
        <ele>2458.6</ele>
        <time>2021-12-19T15:52:02Z</time>
      </trkpt>
      <trkpt lat="44.68189" lon="6.91152">
        <ele>2458.5</ele>
        <time>2021-12-19T15:52:21Z</time>
      </trkpt>
      <trkpt lat="44.68193" lon="6.91139">
        <ele>2460.6</ele>
        <time>2021-12-19T15:52:22Z</time>
      </trkpt>
      <trkpt lat="44.68194" lon="6.91136">
        <ele>2460.8</ele>
        <time>2021-12-19T15:52:23Z</time>
      </trkpt>
      <trkpt lat="44.68194" lon="6.91134">
        <ele>2460.8</ele>
        <time>2021-12-19T15:52:24Z</time>
      </trkpt>
      <trkpt lat="44.68194" lon="6.91132">
        <ele>2461.1</ele>
        <time>2021-12-19T15:53:00Z</time>
      </trkpt>
      <trkpt lat="44.68192" lon="6.9112">
        <ele>2461.7</ele>
        <time>2021-12-19T15:53:01Z</time>
      </trkpt>
      <trkpt lat="44.68191" lon="6.91112">
        <ele>2461.3</ele>
        <time>2021-12-19T15:53:04Z</time>
      </trkpt>
      <trkpt lat="44.68188" lon="6.91106">
        <ele>2460.9</ele>
        <time>2021-12-19T15:53:06Z</time>
      </trkpt>
      <trkpt lat="44.68185" lon="6.91099">
        <ele>2460.2</ele>
        <time>2021-12-19T15:53:09Z</time>
      </trkpt>
      <trkpt lat="44.68179" lon="6.91093">
        <ele>2459.6</ele>
        <time>2021-12-19T15:53:12Z</time>
      </trkpt>
      <trkpt lat="44.68176" lon="6.91093">
        <ele>2458.4</ele>
        <time>2021-12-19T15:53:14Z</time>
      </trkpt>
      <trkpt lat="44.68176" lon="6.91092">
        <ele>2457.7</ele>
        <time>2021-12-19T15:53:15Z</time>
      </trkpt>
      <trkpt lat="44.68176" lon="6.91092">
        <ele>2457.2</ele>
        <time>2021-12-19T15:53:32Z</time>
      </trkpt>
      <trkpt lat="44.68169" lon="6.91092">
        <ele>2455.1</ele>
        <time>2021-12-19T15:53:33Z</time>
      </trkpt>
      <trkpt lat="44.68164" lon="6.91096">
        <ele>2451.8</ele>
        <time>2021-12-19T15:53:36Z</time>
      </trkpt>
      <trkpt lat="44.68161" lon="6.91097">
        <ele>2450.3</ele>
        <time>2021-12-19T15:53:37Z</time>
      </trkpt>
      <trkpt lat="44.68159" lon="6.91099">
        <ele>2449.6</ele>
        <time>2021-12-19T15:53:38Z</time>
      </trkpt>
      <trkpt lat="44.68159" lon="6.91101">
        <ele>2449.3</ele>
        <time>2021-12-19T15:53:56Z</time>
      </trkpt>
      <trkpt lat="44.68157" lon="6.91101">
        <ele>2448.4</ele>
        <time>2021-12-19T15:53:57Z</time>
      </trkpt>
      <trkpt lat="44.68157" lon="6.91093">
        <ele>2447.5</ele>
        <time>2021-12-19T15:54:01Z</time>
      </trkpt>
      <trkpt lat="44.6816" lon="6.91087">
        <ele>2446.7</ele>
        <time>2021-12-19T15:54:04Z</time>
      </trkpt>
      <trkpt lat="44.68164" lon="6.91081">
        <ele>2445.2</ele>
        <time>2021-12-19T15:54:06Z</time>
      </trkpt>
      <trkpt lat="44.68169" lon="6.91073">
        <ele>2445</ele>
        <time>2021-12-19T15:54:08Z</time>
      </trkpt>
      <trkpt lat="44.68174" lon="6.91065">
        <ele>2443.7</ele>
        <time>2021-12-19T15:54:10Z</time>
      </trkpt>
      <trkpt lat="44.68178" lon="6.91057">
        <ele>2441.6</ele>
        <time>2021-12-19T15:54:12Z</time>
      </trkpt>
      <trkpt lat="44.68183" lon="6.9105">
        <ele>2439.9</ele>
        <time>2021-12-19T15:54:14Z</time>
      </trkpt>
      <trkpt lat="44.68187" lon="6.91043">
        <ele>2438.7</ele>
        <time>2021-12-19T15:54:16Z</time>
      </trkpt>
      <trkpt lat="44.6819" lon="6.91037">
        <ele>2438.5</ele>
        <time>2021-12-19T15:54:18Z</time>
      </trkpt>
      <trkpt lat="44.68194" lon="6.91033">
        <ele>2434.8</ele>
        <time>2021-12-19T15:54:22Z</time>
      </trkpt>
      <trkpt lat="44.68195" lon="6.91026">
        <ele>2433</ele>
        <time>2021-12-19T15:54:25Z</time>
      </trkpt>
      <trkpt lat="44.68197" lon="6.91018">
        <ele>2431.9</ele>
        <time>2021-12-19T15:54:28Z</time>
      </trkpt>
      <trkpt lat="44.68199" lon="6.91011">
        <ele>2431.5</ele>
        <time>2021-12-19T15:54:32Z</time>
      </trkpt>
      <trkpt lat="44.68201" lon="6.91005">
        <ele>2431.7</ele>
        <time>2021-12-19T15:54:36Z</time>
      </trkpt>
      <trkpt lat="44.68201" lon="6.91004">
        <ele>2431.8</ele>
        <time>2021-12-19T15:54:37Z</time>
      </trkpt>
      <trkpt lat="44.68201" lon="6.91002">
        <ele>2431.2</ele>
        <time>2021-12-19T15:54:43Z</time>
      </trkpt>
      <trkpt lat="44.68201" lon="6.90995">
        <ele>2430.2</ele>
        <time>2021-12-19T15:54:44Z</time>
      </trkpt>
      <trkpt lat="44.682" lon="6.90987">
        <ele>2430.4</ele>
        <time>2021-12-19T15:54:48Z</time>
      </trkpt>
      <trkpt lat="44.68201" lon="6.9098">
        <ele>2430</ele>
        <time>2021-12-19T15:54:54Z</time>
      </trkpt>
      <trkpt lat="44.68203" lon="6.90973">
        <ele>2430.8</ele>
        <time>2021-12-19T15:54:58Z</time>
      </trkpt>
      <trkpt lat="44.68205" lon="6.90965">
        <ele>2431.5</ele>
        <time>2021-12-19T15:55:01Z</time>
      </trkpt>
      <trkpt lat="44.68206" lon="6.90965">
        <ele>2431.6</ele>
        <time>2021-12-19T15:55:03Z</time>
      </trkpt>
      <trkpt lat="44.68207" lon="6.90964">
        <ele>2431.5</ele>
        <time>2021-12-19T15:55:04Z</time>
      </trkpt>
      <trkpt lat="44.68207" lon="6.90963">
        <ele>2431.3</ele>
        <time>2021-12-19T15:55:05Z</time>
      </trkpt>
      <trkpt lat="44.68207" lon="6.90963">
        <ele>2431.1</ele>
        <time>2021-12-19T15:55:06Z</time>
      </trkpt>
      <trkpt lat="44.6821" lon="6.90958">
        <ele>2428.3</ele>
        <time>2021-12-19T15:55:12Z</time>
      </trkpt>
      <trkpt lat="44.6821" lon="6.90957">
        <ele>2427.9</ele>
        <time>2021-12-19T15:55:13Z</time>
      </trkpt>
      <trkpt lat="44.6821" lon="6.90957">
        <ele>2427.5</ele>
        <time>2021-12-19T15:55:32Z</time>
      </trkpt>
      <trkpt lat="44.68218" lon="6.90949">
        <ele>2424.9</ele>
        <time>2021-12-19T15:55:33Z</time>
      </trkpt>
      <trkpt lat="44.68218" lon="6.90948">
        <ele>2424.8</ele>
        <time>2021-12-19T15:55:34Z</time>
      </trkpt>
      <trkpt lat="44.6822" lon="6.90946">
        <ele>2424.6</ele>
        <time>2021-12-19T15:55:36Z</time>
      </trkpt>
      <trkpt lat="44.68221" lon="6.90942">
        <ele>2424.8</ele>
        <time>2021-12-19T15:55:37Z</time>
      </trkpt>
      <trkpt lat="44.68224" lon="6.90936">
        <ele>2424.9</ele>
        <time>2021-12-19T15:55:40Z</time>
      </trkpt>
      <trkpt lat="44.6823" lon="6.90932">
        <ele>2425.1</ele>
        <time>2021-12-19T15:55:43Z</time>
      </trkpt>
      <trkpt lat="44.68235" lon="6.90926">
        <ele>2424.9</ele>
        <time>2021-12-19T15:55:45Z</time>
      </trkpt>
      <trkpt lat="44.68239" lon="6.90918">
        <ele>2425.3</ele>
        <time>2021-12-19T15:55:47Z</time>
      </trkpt>
      <trkpt lat="44.68241" lon="6.90909">
        <ele>2426.5</ele>
        <time>2021-12-19T15:55:49Z</time>
      </trkpt>
      <trkpt lat="44.68242" lon="6.90903">
        <ele>2426.9</ele>
        <time>2021-12-19T15:55:51Z</time>
      </trkpt>
      <trkpt lat="44.68243" lon="6.90895">
        <ele>2427.1</ele>
        <time>2021-12-19T15:55:53Z</time>
      </trkpt>
      <trkpt lat="44.68245" lon="6.90888">
        <ele>2427.6</ele>
        <time>2021-12-19T15:55:55Z</time>
      </trkpt>
      <trkpt lat="44.68246" lon="6.90881">
        <ele>2427.9</ele>
        <time>2021-12-19T15:55:57Z</time>
      </trkpt>
      <trkpt lat="44.68248" lon="6.90874">
        <ele>2429.5</ele>
        <time>2021-12-19T15:55:59Z</time>
      </trkpt>
      <trkpt lat="44.6825" lon="6.90868">
        <ele>2429.3</ele>
        <time>2021-12-19T15:56:01Z</time>
      </trkpt>
      <trkpt lat="44.68253" lon="6.90861">
        <ele>2429.7</ele>
        <time>2021-12-19T15:56:03Z</time>
      </trkpt>
      <trkpt lat="44.68256" lon="6.90853">
        <ele>2429.7</ele>
        <time>2021-12-19T15:56:05Z</time>
      </trkpt>
      <trkpt lat="44.6826" lon="6.90848">
        <ele>2429.6</ele>
        <time>2021-12-19T15:56:07Z</time>
      </trkpt>
      <trkpt lat="44.68264" lon="6.90842">
        <ele>2429.3</ele>
        <time>2021-12-19T15:56:09Z</time>
      </trkpt>
      <trkpt lat="44.6827" lon="6.90836">
        <ele>2428.6</ele>
        <time>2021-12-19T15:56:11Z</time>
      </trkpt>
      <trkpt lat="44.68274" lon="6.90831">
        <ele>2427.5</ele>
        <time>2021-12-19T15:56:12Z</time>
      </trkpt>
      <trkpt lat="44.68278" lon="6.90825">
        <ele>2426.6</ele>
        <time>2021-12-19T15:56:13Z</time>
      </trkpt>
      <trkpt lat="44.6828" lon="6.90819">
        <ele>2425.2</ele>
        <time>2021-12-19T15:56:14Z</time>
      </trkpt>
      <trkpt lat="44.68281" lon="6.90813">
        <ele>2424.6</ele>
        <time>2021-12-19T15:56:15Z</time>
      </trkpt>
      <trkpt lat="44.68283" lon="6.90803">
        <ele>2423.1</ele>
        <time>2021-12-19T15:56:17Z</time>
      </trkpt>
      <trkpt lat="44.68284" lon="6.90795">
        <ele>2422.2</ele>
        <time>2021-12-19T15:56:19Z</time>
      </trkpt>
      <trkpt lat="44.68284" lon="6.90793">
        <ele>2421.4</ele>
        <time>2021-12-19T15:56:20Z</time>
      </trkpt>
      <trkpt lat="44.68285" lon="6.90789">
        <ele>2421.1</ele>
        <time>2021-12-19T15:56:22Z</time>
      </trkpt>
      <trkpt lat="44.68285" lon="6.90787">
        <ele>2420.9</ele>
        <time>2021-12-19T15:56:23Z</time>
      </trkpt>
      <trkpt lat="44.68287" lon="6.9078">
        <ele>2420</ele>
        <time>2021-12-19T15:56:25Z</time>
      </trkpt>
      <trkpt lat="44.68288" lon="6.90771">
        <ele>2418.9</ele>
        <time>2021-12-19T15:56:27Z</time>
      </trkpt>
      <trkpt lat="44.6829" lon="6.9076">
        <ele>2417.6</ele>
        <time>2021-12-19T15:56:29Z</time>
      </trkpt>
      <trkpt lat="44.68291" lon="6.90754">
        <ele>2416.5</ele>
        <time>2021-12-19T15:56:30Z</time>
      </trkpt>
      <trkpt lat="44.68294" lon="6.90743">
        <ele>2414.3</ele>
        <time>2021-12-19T15:56:32Z</time>
      </trkpt>
      <trkpt lat="44.68297" lon="6.90736">
        <ele>2413.5</ele>
        <time>2021-12-19T15:56:34Z</time>
      </trkpt>
      <trkpt lat="44.68298" lon="6.90729">
        <ele>2411.7</ele>
        <time>2021-12-19T15:56:37Z</time>
      </trkpt>
      <trkpt lat="44.68298" lon="6.90728">
        <ele>2411.2</ele>
        <time>2021-12-19T15:56:38Z</time>
      </trkpt>
      <trkpt lat="44.68298" lon="6.90728">
        <ele>2410.5</ele>
        <time>2021-12-19T15:56:57Z</time>
      </trkpt>
      <trkpt lat="44.683" lon="6.90716">
        <ele>2408</ele>
        <time>2021-12-19T15:56:58Z</time>
      </trkpt>
      <trkpt lat="44.683" lon="6.90706">
        <ele>2408.7</ele>
        <time>2021-12-19T15:57:01Z</time>
      </trkpt>
      <trkpt lat="44.68301" lon="6.90698">
        <ele>2408.6</ele>
        <time>2021-12-19T15:57:03Z</time>
      </trkpt>
      <trkpt lat="44.68302" lon="6.90691">
        <ele>2408.8</ele>
        <time>2021-12-19T15:57:06Z</time>
      </trkpt>
      <trkpt lat="44.68302" lon="6.90683">
        <ele>2408.9</ele>
        <time>2021-12-19T15:57:10Z</time>
      </trkpt>
      <trkpt lat="44.68301" lon="6.90676">
        <ele>2408.7</ele>
        <time>2021-12-19T15:57:12Z</time>
      </trkpt>
      <trkpt lat="44.683" lon="6.90669">
        <ele>2408.3</ele>
        <time>2021-12-19T15:57:14Z</time>
      </trkpt>
      <trkpt lat="44.68299" lon="6.90662">
        <ele>2408.1</ele>
        <time>2021-12-19T15:57:16Z</time>
      </trkpt>
      <trkpt lat="44.68298" lon="6.90655">
        <ele>2406.9</ele>
        <time>2021-12-19T15:57:19Z</time>
      </trkpt>
      <trkpt lat="44.68297" lon="6.90652">
        <ele>2406.2</ele>
        <time>2021-12-19T15:57:21Z</time>
      </trkpt>
      <trkpt lat="44.68297" lon="6.90651">
        <ele>2405.7</ele>
        <time>2021-12-19T15:57:22Z</time>
      </trkpt>
      <trkpt lat="44.68297" lon="6.9065">
        <ele>2405.7</ele>
        <time>2021-12-19T15:57:28Z</time>
      </trkpt>
      <trkpt lat="44.68294" lon="6.90642">
        <ele>2405</ele>
        <time>2021-12-19T15:57:29Z</time>
      </trkpt>
      <trkpt lat="44.68292" lon="6.90635">
        <ele>2404.3</ele>
        <time>2021-12-19T15:57:32Z</time>
      </trkpt>
      <trkpt lat="44.68292" lon="6.90633">
        <ele>2404.2</ele>
        <time>2021-12-19T15:57:33Z</time>
      </trkpt>
      <trkpt lat="44.68292" lon="6.90631">
        <ele>2404</ele>
        <time>2021-12-19T15:57:34Z</time>
      </trkpt>
      <trkpt lat="44.68292" lon="6.90629">
        <ele>2403.6</ele>
        <time>2021-12-19T15:57:37Z</time>
      </trkpt>
      <trkpt lat="44.6829" lon="6.90626">
        <ele>2403.2</ele>
        <time>2021-12-19T15:57:38Z</time>
      </trkpt>
      <trkpt lat="44.68285" lon="6.90619">
        <ele>2402.4</ele>
        <time>2021-12-19T15:57:41Z</time>
      </trkpt>
      <trkpt lat="44.68281" lon="6.90614">
        <ele>2401.6</ele>
        <time>2021-12-19T15:57:43Z</time>
      </trkpt>
      <trkpt lat="44.68276" lon="6.90608">
        <ele>2401</ele>
        <time>2021-12-19T15:57:45Z</time>
      </trkpt>
      <trkpt lat="44.68274" lon="6.90605">
        <ele>2400.6</ele>
        <time>2021-12-19T15:57:46Z</time>
      </trkpt>
      <trkpt lat="44.68273" lon="6.90603">
        <ele>2400.3</ele>
        <time>2021-12-19T15:57:47Z</time>
      </trkpt>
      <trkpt lat="44.68272" lon="6.90602">
        <ele>2400</ele>
        <time>2021-12-19T15:58:24Z</time>
      </trkpt>
      <trkpt lat="44.68278" lon="6.90599">
        <ele>2399.3</ele>
        <time>2021-12-19T15:58:25Z</time>
      </trkpt>
      <trkpt lat="44.68279" lon="6.90599">
        <ele>2399</ele>
        <time>2021-12-19T15:58:26Z</time>
      </trkpt>
      <trkpt lat="44.6828" lon="6.90598">
        <ele>2398.5</ele>
        <time>2021-12-19T15:58:40Z</time>
      </trkpt>
      <trkpt lat="44.68282" lon="6.906">
        <ele>2397.5</ele>
        <time>2021-12-19T15:58:41Z</time>
      </trkpt>
      <trkpt lat="44.68287" lon="6.90606">
        <ele>2397.2</ele>
        <time>2021-12-19T15:58:42Z</time>
      </trkpt>
      <trkpt lat="44.68295" lon="6.90612">
        <ele>2397.1</ele>
        <time>2021-12-19T15:58:43Z</time>
      </trkpt>
      <trkpt lat="44.68303" lon="6.90617">
        <ele>2397.1</ele>
        <time>2021-12-19T15:58:44Z</time>
      </trkpt>
      <trkpt lat="44.68305" lon="6.90623">
        <ele>2396.8</ele>
        <time>2021-12-19T15:58:45Z</time>
      </trkpt>
      <trkpt lat="44.68308" lon="6.90629">
        <ele>2396.1</ele>
        <time>2021-12-19T15:58:46Z</time>
      </trkpt>
      <trkpt lat="44.68307" lon="6.90639">
        <ele>2395.4</ele>
        <time>2021-12-19T15:58:47Z</time>
      </trkpt>
      <trkpt lat="44.68302" lon="6.90637">
        <ele>2392.5</ele>
        <time>2021-12-19T15:58:48Z</time>
      </trkpt>
      <trkpt lat="44.68299" lon="6.90636">
        <ele>2392.3</ele>
        <time>2021-12-19T15:58:50Z</time>
      </trkpt>
      <trkpt lat="44.68296" lon="6.90636">
        <ele>2392</ele>
        <time>2021-12-19T15:58:51Z</time>
      </trkpt>
      <trkpt lat="44.68289" lon="6.9063">
        <ele>2391</ele>
        <time>2021-12-19T15:58:53Z</time>
      </trkpt>
      <trkpt lat="44.68285" lon="6.90626">
        <ele>2390.5</ele>
        <time>2021-12-19T15:58:54Z</time>
      </trkpt>
      <trkpt lat="44.6828" lon="6.90622">
        <ele>2390.3</ele>
        <time>2021-12-19T15:58:55Z</time>
      </trkpt>
      <trkpt lat="44.68275" lon="6.90615">
        <ele>2389.6</ele>
        <time>2021-12-19T15:58:56Z</time>
      </trkpt>
      <trkpt lat="44.68271" lon="6.90611">
        <ele>2389.1</ele>
        <time>2021-12-19T15:58:57Z</time>
      </trkpt>
      <trkpt lat="44.68264" lon="6.90604">
        <ele>2388.8</ele>
        <time>2021-12-19T15:58:59Z</time>
      </trkpt>
      <trkpt lat="44.68259" lon="6.90599">
        <ele>2388</ele>
        <time>2021-12-19T15:59:01Z</time>
      </trkpt>
      <trkpt lat="44.68254" lon="6.90593">
        <ele>2388.3</ele>
        <time>2021-12-19T15:59:04Z</time>
      </trkpt>
      <trkpt lat="44.6825" lon="6.90588">
        <ele>2388.9</ele>
        <time>2021-12-19T15:59:07Z</time>
      </trkpt>
      <trkpt lat="44.68245" lon="6.90584">
        <ele>2390.4</ele>
        <time>2021-12-19T15:59:09Z</time>
      </trkpt>
      <trkpt lat="44.68241" lon="6.90578">
        <ele>2392.1</ele>
        <time>2021-12-19T15:59:11Z</time>
      </trkpt>
      <trkpt lat="44.68239" lon="6.90576">
        <ele>2392.5</ele>
        <time>2021-12-19T15:59:12Z</time>
      </trkpt>
      <trkpt lat="44.68237" lon="6.90573">
        <ele>2393</ele>
        <time>2021-12-19T15:59:16Z</time>
      </trkpt>
      <trkpt lat="44.68236" lon="6.90569">
        <ele>2393.7</ele>
        <time>2021-12-19T15:59:17Z</time>
      </trkpt>
      <trkpt lat="44.68235" lon="6.90567">
        <ele>2393.6</ele>
        <time>2021-12-19T15:59:18Z</time>
      </trkpt>
      <trkpt lat="44.68235" lon="6.90565">
        <ele>2393.7</ele>
        <time>2021-12-19T15:59:24Z</time>
      </trkpt>
      <trkpt lat="44.68234" lon="6.90559">
        <ele>2394.2</ele>
        <time>2021-12-19T15:59:25Z</time>
      </trkpt>
      <trkpt lat="44.68236" lon="6.90553">
        <ele>2394.9</ele>
        <time>2021-12-19T15:59:30Z</time>
      </trkpt>
      <trkpt lat="44.68238" lon="6.90547">
        <ele>2395</ele>
        <time>2021-12-19T15:59:33Z</time>
      </trkpt>
      <trkpt lat="44.68239" lon="6.90539">
        <ele>2395.5</ele>
        <time>2021-12-19T15:59:35Z</time>
      </trkpt>
      <trkpt lat="44.68239" lon="6.9053">
        <ele>2395.9</ele>
        <time>2021-12-19T15:59:37Z</time>
      </trkpt>
      <trkpt lat="44.68239" lon="6.90522">
        <ele>2396.1</ele>
        <time>2021-12-19T15:59:40Z</time>
      </trkpt>
      <trkpt lat="44.68237" lon="6.90515">
        <ele>2394.8</ele>
        <time>2021-12-19T15:59:43Z</time>
      </trkpt>
      <trkpt lat="44.68236" lon="6.90513">
        <ele>2393.4</ele>
        <time>2021-12-19T15:59:44Z</time>
      </trkpt>
      <trkpt lat="44.68235" lon="6.90513">
        <ele>2393</ele>
        <time>2021-12-19T15:59:52Z</time>
      </trkpt>
      <trkpt lat="44.68232" lon="6.90507">
        <ele>2392.6</ele>
        <time>2021-12-19T15:59:53Z</time>
      </trkpt>
      <trkpt lat="44.68228" lon="6.90504">
        <ele>2392.9</ele>
        <time>2021-12-19T15:59:56Z</time>
      </trkpt>
      <trkpt lat="44.68223" lon="6.90502">
        <ele>2392.5</ele>
        <time>2021-12-19T16:00:01Z</time>
      </trkpt>
      <trkpt lat="44.68222" lon="6.90502">
        <ele>2392.5</ele>
        <time>2021-12-19T16:00:02Z</time>
      </trkpt>
      <trkpt lat="44.6822" lon="6.90502">
        <ele>2392.4</ele>
        <time>2021-12-19T16:00:05Z</time>
      </trkpt>
      <trkpt lat="44.68218" lon="6.90501">
        <ele>2392.4</ele>
        <time>2021-12-19T16:00:06Z</time>
      </trkpt>
      <trkpt lat="44.68215" lon="6.905">
        <ele>2391.9</ele>
        <time>2021-12-19T16:00:08Z</time>
      </trkpt>
      <trkpt lat="44.68214" lon="6.905">
        <ele>2391.6</ele>
        <time>2021-12-19T16:00:09Z</time>
      </trkpt>
      <trkpt lat="44.68212" lon="6.90501">
        <ele>2391.2</ele>
        <time>2021-12-19T16:00:12Z</time>
      </trkpt>
      <trkpt lat="44.68209" lon="6.90504">
        <ele>2390.7</ele>
        <time>2021-12-19T16:00:13Z</time>
      </trkpt>
      <trkpt lat="44.68206" lon="6.90508">
        <ele>2389.8</ele>
        <time>2021-12-19T16:00:15Z</time>
      </trkpt>
      <trkpt lat="44.68201" lon="6.90512">
        <ele>2388.8</ele>
        <time>2021-12-19T16:00:17Z</time>
      </trkpt>
      <trkpt lat="44.68196" lon="6.90515">
        <ele>2386.4</ele>
        <time>2021-12-19T16:00:20Z</time>
      </trkpt>
      <trkpt lat="44.68196" lon="6.90515">
        <ele>2385.3</ele>
        <time>2021-12-19T16:00:21Z</time>
      </trkpt>
      <trkpt lat="44.68196" lon="6.90515">
        <ele>2385.4</ele>
        <time>2021-12-19T16:00:24Z</time>
      </trkpt>
      <trkpt lat="44.68193" lon="6.90516">
        <ele>2384.9</ele>
        <time>2021-12-19T16:00:25Z</time>
      </trkpt>
      <trkpt lat="44.68188" lon="6.90517">
        <ele>2384.1</ele>
        <time>2021-12-19T16:00:27Z</time>
      </trkpt>
      <trkpt lat="44.68182" lon="6.90521">
        <ele>2383.3</ele>
        <time>2021-12-19T16:00:29Z</time>
      </trkpt>
      <trkpt lat="44.68177" lon="6.90526">
        <ele>2381.7</ele>
        <time>2021-12-19T16:00:31Z</time>
      </trkpt>
      <trkpt lat="44.68172" lon="6.90533">
        <ele>2379.8</ele>
        <time>2021-12-19T16:00:33Z</time>
      </trkpt>
      <trkpt lat="44.68168" lon="6.90537">
        <ele>2378.2</ele>
        <time>2021-12-19T16:00:36Z</time>
      </trkpt>
      <trkpt lat="44.68167" lon="6.90538">
        <ele>2377.9</ele>
        <time>2021-12-19T16:00:37Z</time>
      </trkpt>
      <trkpt lat="44.68167" lon="6.9054">
        <ele>2377.3</ele>
        <time>2021-12-19T16:01:32Z</time>
      </trkpt>
      <trkpt lat="44.68161" lon="6.90545">
        <ele>2376.6</ele>
        <time>2021-12-19T16:01:33Z</time>
      </trkpt>
      <trkpt lat="44.68155" lon="6.9054">
        <ele>2377.7</ele>
        <time>2021-12-19T16:01:36Z</time>
      </trkpt>
      <trkpt lat="44.68155" lon="6.90534">
        <ele>2378.5</ele>
        <time>2021-12-19T16:01:39Z</time>
      </trkpt>
      <trkpt lat="44.68155" lon="6.90534">
        <ele>2378.9</ele>
        <time>2021-12-19T16:01:40Z</time>
      </trkpt>
      <trkpt lat="44.68155" lon="6.90533">
        <ele>2379.2</ele>
        <time>2021-12-19T16:01:52Z</time>
      </trkpt>
      <trkpt lat="44.68151" lon="6.90535">
        <ele>2378.7</ele>
        <time>2021-12-19T16:01:53Z</time>
      </trkpt>
      <trkpt lat="44.68146" lon="6.90542">
        <ele>2376.5</ele>
        <time>2021-12-19T16:01:56Z</time>
      </trkpt>
      <trkpt lat="44.68143" lon="6.90548">
        <ele>2375.4</ele>
        <time>2021-12-19T16:01:58Z</time>
      </trkpt>
      <trkpt lat="44.68141" lon="6.90552">
        <ele>2374.3</ele>
        <time>2021-12-19T16:02:00Z</time>
      </trkpt>
      <trkpt lat="44.6814" lon="6.90553">
        <ele>2373.7</ele>
        <time>2021-12-19T16:02:01Z</time>
      </trkpt>
      <trkpt lat="44.68139" lon="6.90554">
        <ele>2373</ele>
        <time>2021-12-19T16:02:26Z</time>
      </trkpt>
      <trkpt lat="44.68133" lon="6.90564">
        <ele>2370.9</ele>
        <time>2021-12-19T16:02:27Z</time>
      </trkpt>
      <trkpt lat="44.68132" lon="6.90565">
        <ele>2370.9</ele>
        <time>2021-12-19T16:02:28Z</time>
      </trkpt>
      <trkpt lat="44.68134" lon="6.90579">
        <ele>2368.6</ele>
        <time>2021-12-19T16:03:08Z</time>
      </trkpt>
      <trkpt lat="44.68133" lon="6.90584">
        <ele>2368.7</ele>
        <time>2021-12-19T16:03:09Z</time>
      </trkpt>
      <trkpt lat="44.68132" lon="6.90602">
        <ele>2367.3</ele>
        <time>2021-12-19T16:03:11Z</time>
      </trkpt>
      <trkpt lat="44.6813" lon="6.90612">
        <ele>2367.4</ele>
        <time>2021-12-19T16:03:12Z</time>
      </trkpt>
      <trkpt lat="44.68129" lon="6.90619">
        <ele>2366.2</ele>
        <time>2021-12-19T16:03:14Z</time>
      </trkpt>
      <trkpt lat="44.68126" lon="6.9062">
        <ele>2365.5</ele>
        <time>2021-12-19T16:03:15Z</time>
      </trkpt>
      <trkpt lat="44.68125" lon="6.90618">
        <ele>2364.4</ele>
        <time>2021-12-19T16:03:17Z</time>
      </trkpt>
      <trkpt lat="44.68117" lon="6.90617">
        <ele>2365.9</ele>
        <time>2021-12-19T16:03:18Z</time>
      </trkpt>
      <trkpt lat="44.68113" lon="6.90612">
        <ele>2365.5</ele>
        <time>2021-12-19T16:03:20Z</time>
      </trkpt>
      <trkpt lat="44.68109" lon="6.90606">
        <ele>2364.1</ele>
        <time>2021-12-19T16:03:23Z</time>
      </trkpt>
      <trkpt lat="44.68105" lon="6.906">
        <ele>2363.9</ele>
        <time>2021-12-19T16:03:26Z</time>
      </trkpt>
      <trkpt lat="44.68102" lon="6.90593">
        <ele>2364.4</ele>
        <time>2021-12-19T16:03:30Z</time>
      </trkpt>
      <trkpt lat="44.68102" lon="6.9059">
        <ele>2364.3</ele>
        <time>2021-12-19T16:03:32Z</time>
      </trkpt>
      <trkpt lat="44.68102" lon="6.90589">
        <ele>2364.3</ele>
        <time>2021-12-19T16:03:33Z</time>
      </trkpt>
      <trkpt lat="44.68101" lon="6.90589">
        <ele>2364.6</ele>
        <time>2021-12-19T16:03:41Z</time>
      </trkpt>
      <trkpt lat="44.68099" lon="6.90588">
        <ele>2363.7</ele>
        <time>2021-12-19T16:03:42Z</time>
      </trkpt>
      <trkpt lat="44.681" lon="6.90588">
        <ele>2363.4</ele>
        <time>2021-12-19T16:03:43Z</time>
      </trkpt>
      <trkpt lat="44.68099" lon="6.90587">
        <ele>2363.1</ele>
        <time>2021-12-19T16:04:21Z</time>
      </trkpt>
      <trkpt lat="44.68097" lon="6.90584">
        <ele>2365</ele>
        <time>2021-12-19T16:04:22Z</time>
      </trkpt>
      <trkpt lat="44.68094" lon="6.9059">
        <ele>2363.6</ele>
        <time>2021-12-19T16:04:24Z</time>
      </trkpt>
      <trkpt lat="44.68093" lon="6.90592">
        <ele>2363.3</ele>
        <time>2021-12-19T16:04:25Z</time>
      </trkpt>
      <trkpt lat="44.68089" lon="6.90595">
        <ele>2362.8</ele>
        <time>2021-12-19T16:04:26Z</time>
      </trkpt>
      <trkpt lat="44.68088" lon="6.90597">
        <ele>2362.4</ele>
        <time>2021-12-19T16:04:27Z</time>
      </trkpt>
      <trkpt lat="44.68088" lon="6.90604">
        <ele>2360.2</ele>
        <time>2021-12-19T16:04:30Z</time>
      </trkpt>
      <trkpt lat="44.68087" lon="6.90612">
        <ele>2359.4</ele>
        <time>2021-12-19T16:04:32Z</time>
      </trkpt>
      <trkpt lat="44.68088" lon="6.9062">
        <ele>2357.4</ele>
        <time>2021-12-19T16:04:35Z</time>
      </trkpt>
      <trkpt lat="44.68088" lon="6.90621">
        <ele>2356.7</ele>
        <time>2021-12-19T16:04:36Z</time>
      </trkpt>
      <trkpt lat="44.68088" lon="6.90621">
        <ele>2356.3</ele>
        <time>2021-12-19T16:05:05Z</time>
      </trkpt>
      <trkpt lat="44.68083" lon="6.90632">
        <ele>2358.9</ele>
        <time>2021-12-19T16:05:06Z</time>
      </trkpt>
      <trkpt lat="44.68083" lon="6.90632">
        <ele>2358.9</ele>
        <time>2021-12-19T16:05:07Z</time>
      </trkpt>
      <trkpt lat="44.68087" lon="6.90635">
        <ele>2359.8</ele>
        <time>2021-12-19T16:05:36Z</time>
      </trkpt>
      <trkpt lat="44.68089" lon="6.90636">
        <ele>2359.7</ele>
        <time>2021-12-19T16:05:37Z</time>
      </trkpt>
      <trkpt lat="44.68093" lon="6.90641">
        <ele>2358.8</ele>
        <time>2021-12-19T16:05:39Z</time>
      </trkpt>
      <trkpt lat="44.681" lon="6.90646">
        <ele>2357.7</ele>
        <time>2021-12-19T16:05:41Z</time>
      </trkpt>
      <trkpt lat="44.68103" lon="6.90652">
        <ele>2356.7</ele>
        <time>2021-12-19T16:05:42Z</time>
      </trkpt>
      <trkpt lat="44.68106" lon="6.90656">
        <ele>2356</ele>
        <time>2021-12-19T16:05:43Z</time>
      </trkpt>
      <trkpt lat="44.68111" lon="6.90665">
        <ele>2353.9</ele>
        <time>2021-12-19T16:05:45Z</time>
      </trkpt>
      <trkpt lat="44.68111" lon="6.90666">
        <ele>2353.4</ele>
        <time>2021-12-19T16:05:46Z</time>
      </trkpt>
      <trkpt lat="44.68109" lon="6.90666">
        <ele>2353.3</ele>
        <time>2021-12-19T16:05:47Z</time>
      </trkpt>
      <trkpt lat="44.68107" lon="6.90665">
        <ele>2354.3</ele>
        <time>2021-12-19T16:05:57Z</time>
      </trkpt>
      <trkpt lat="44.68101" lon="6.90655">
        <ele>2355</ele>
        <time>2021-12-19T16:05:58Z</time>
      </trkpt>
      <trkpt lat="44.68096" lon="6.9065">
        <ele>2353.9</ele>
        <time>2021-12-19T16:06:00Z</time>
      </trkpt>
      <trkpt lat="44.68094" lon="6.90648">
        <ele>2353.9</ele>
        <time>2021-12-19T16:06:01Z</time>
      </trkpt>
      <trkpt lat="44.68091" lon="6.90643">
        <ele>2354.2</ele>
        <time>2021-12-19T16:06:02Z</time>
      </trkpt>
      <trkpt lat="44.68088" lon="6.90637">
        <ele>2354.5</ele>
        <time>2021-12-19T16:06:04Z</time>
      </trkpt>
      <trkpt lat="44.68088" lon="6.90636">
        <ele>2354.6</ele>
        <time>2021-12-19T16:06:05Z</time>
      </trkpt>
      <trkpt lat="44.68087" lon="6.90634">
        <ele>2354.7</ele>
        <time>2021-12-19T16:06:07Z</time>
      </trkpt>
      <trkpt lat="44.68085" lon="6.90632">
        <ele>2355</ele>
        <time>2021-12-19T16:06:08Z</time>
      </trkpt>
      <trkpt lat="44.68085" lon="6.90632">
        <ele>2355</ele>
        <time>2021-12-19T16:06:09Z</time>
      </trkpt>
      <trkpt lat="44.68084" lon="6.90631">
        <ele>2355.1</ele>
        <time>2021-12-19T16:06:10Z</time>
      </trkpt>
      <trkpt lat="44.68084" lon="6.90631">
        <ele>2355.3</ele>
        <time>2021-12-19T16:06:19Z</time>
      </trkpt>
      <trkpt lat="44.68076" lon="6.90629">
        <ele>2357.3</ele>
        <time>2021-12-19T16:06:20Z</time>
      </trkpt>
      <trkpt lat="44.68075" lon="6.90629">
        <ele>2357.3</ele>
        <time>2021-12-19T16:06:21Z</time>
      </trkpt>
      <trkpt lat="44.68074" lon="6.90629">
        <ele>2357.3</ele>
        <time>2021-12-19T16:06:24Z</time>
      </trkpt>
      <trkpt lat="44.68074" lon="6.9063">
        <ele>2357.4</ele>
        <time>2021-12-19T16:06:25Z</time>
      </trkpt>
      <trkpt lat="44.68072" lon="6.90638">
        <ele>2357.5</ele>
        <time>2021-12-19T16:06:30Z</time>
      </trkpt>
      <trkpt lat="44.6807" lon="6.90644">
        <ele>2356.7</ele>
        <time>2021-12-19T16:06:32Z</time>
      </trkpt>
      <trkpt lat="44.68069" lon="6.90652">
        <ele>2355.4</ele>
        <time>2021-12-19T16:06:35Z</time>
      </trkpt>
      <trkpt lat="44.68067" lon="6.90661">
        <ele>2352.6</ele>
        <time>2021-12-19T16:06:38Z</time>
      </trkpt>
      <trkpt lat="44.68064" lon="6.90668">
        <ele>2352</ele>
        <time>2021-12-19T16:06:40Z</time>
      </trkpt>
      <trkpt lat="44.68062" lon="6.90677">
        <ele>2350.3</ele>
        <time>2021-12-19T16:06:42Z</time>
      </trkpt>
      <trkpt lat="44.6806" lon="6.90684">
        <ele>2349</ele>
        <time>2021-12-19T16:06:44Z</time>
      </trkpt>
      <trkpt lat="44.6806" lon="6.90686">
        <ele>2348.8</ele>
        <time>2021-12-19T16:06:45Z</time>
      </trkpt>
      <trkpt lat="44.6806" lon="6.90687">
        <ele>2348.8</ele>
        <time>2021-12-19T16:08:23Z</time>
      </trkpt>
      <trkpt lat="44.68058" lon="6.907">
        <ele>2346.5</ele>
        <time>2021-12-19T16:08:24Z</time>
      </trkpt>
      <trkpt lat="44.68057" lon="6.90701">
        <ele>2346.5</ele>
        <time>2021-12-19T16:08:25Z</time>
      </trkpt>
      <trkpt lat="44.68057" lon="6.90703">
        <ele>2346.6</ele>
        <time>2021-12-19T16:08:29Z</time>
      </trkpt>
      <trkpt lat="44.68054" lon="6.90708">
        <ele>2346.5</ele>
        <time>2021-12-19T16:08:30Z</time>
      </trkpt>
      <trkpt lat="44.68052" lon="6.9071">
        <ele>2346.3</ele>
        <time>2021-12-19T16:08:31Z</time>
      </trkpt>
      <trkpt lat="44.68047" lon="6.90712">
        <ele>2346.4</ele>
        <time>2021-12-19T16:08:37Z</time>
      </trkpt>
      <trkpt lat="44.68044" lon="6.90713">
        <ele>2346.6</ele>
        <time>2021-12-19T16:08:39Z</time>
      </trkpt>
      <trkpt lat="44.68042" lon="6.90713">
        <ele>2346.8</ele>
        <time>2021-12-19T16:08:40Z</time>
      </trkpt>
      <trkpt lat="44.68036" lon="6.90715">
        <ele>2347.2</ele>
        <time>2021-12-19T16:08:44Z</time>
      </trkpt>
      <trkpt lat="44.68031" lon="6.90716">
        <ele>2347.5</ele>
        <time>2021-12-19T16:08:47Z</time>
      </trkpt>
      <trkpt lat="44.68025" lon="6.90718">
        <ele>2347.8</ele>
        <time>2021-12-19T16:08:51Z</time>
      </trkpt>
      <trkpt lat="44.68024" lon="6.90718">
        <ele>2347.8</ele>
        <time>2021-12-19T16:08:52Z</time>
      </trkpt>
      <trkpt lat="44.68014" lon="6.9072">
        <ele>2349.1</ele>
        <time>2021-12-19T16:09:08Z</time>
      </trkpt>
      <trkpt lat="44.68012" lon="6.9072">
        <ele>2349.5</ele>
        <time>2021-12-19T16:09:27Z</time>
      </trkpt>
      <trkpt lat="44.68002" lon="6.90719">
        <ele>2350.7</ele>
        <time>2021-12-19T16:09:28Z</time>
      </trkpt>
      <trkpt lat="44.68" lon="6.90719">
        <ele>2350.7</ele>
        <time>2021-12-19T16:09:29Z</time>
      </trkpt>
      <trkpt lat="44.67994" lon="6.90718">
        <ele>2351</ele>
        <time>2021-12-19T16:09:33Z</time>
      </trkpt>
      <trkpt lat="44.67992" lon="6.90719">
        <ele>2350.9</ele>
        <time>2021-12-19T16:09:34Z</time>
      </trkpt>
      <trkpt lat="44.67986" lon="6.90719">
        <ele>2351.1</ele>
        <time>2021-12-19T16:09:37Z</time>
      </trkpt>
      <trkpt lat="44.6798" lon="6.90716">
        <ele>2350.7</ele>
        <time>2021-12-19T16:09:40Z</time>
      </trkpt>
      <trkpt lat="44.67979" lon="6.90716">
        <ele>2350.7</ele>
        <time>2021-12-19T16:09:41Z</time>
      </trkpt>
      <trkpt lat="44.67979" lon="6.90716">
        <ele>2350.4</ele>
        <time>2021-12-19T16:09:50Z</time>
      </trkpt>
      <trkpt lat="44.67973" lon="6.90716">
        <ele>2350</ele>
        <time>2021-12-19T16:09:51Z</time>
      </trkpt>
      <trkpt lat="44.67972" lon="6.90716">
        <ele>2349.6</ele>
        <time>2021-12-19T16:09:52Z</time>
      </trkpt>
      <trkpt lat="44.67963" lon="6.90709">
        <ele>2348.5</ele>
        <time>2021-12-19T16:10:14Z</time>
      </trkpt>
      <trkpt lat="44.67962" lon="6.90708">
        <ele>2348.3</ele>
        <time>2021-12-19T16:10:22Z</time>
      </trkpt>
      <trkpt lat="44.67963" lon="6.90707">
        <ele>2347.4</ele>
        <time>2021-12-19T16:10:23Z</time>
      </trkpt>
      <trkpt lat="44.67964" lon="6.90707">
        <ele>2346.3</ele>
        <time>2021-12-19T16:10:24Z</time>
      </trkpt>
      <trkpt lat="44.67964" lon="6.90709">
        <ele>2346</ele>
        <time>2021-12-19T16:10:25Z</time>
      </trkpt>
      <trkpt lat="44.67964" lon="6.9071">
        <ele>2345.1</ele>
        <time>2021-12-19T16:10:27Z</time>
      </trkpt>
      <trkpt lat="44.67962" lon="6.9071">
        <ele>2344.8</ele>
        <time>2021-12-19T16:10:28Z</time>
      </trkpt>
      <trkpt lat="44.6796" lon="6.9071">
        <ele>2344.2</ele>
        <time>2021-12-19T16:10:29Z</time>
      </trkpt>
      <trkpt lat="44.67959" lon="6.90711">
        <ele>2343.8</ele>
        <time>2021-12-19T16:10:30Z</time>
      </trkpt>
      <trkpt lat="44.6796" lon="6.90711">
        <ele>2342.6</ele>
        <time>2021-12-19T16:11:12Z</time>
      </trkpt>
      <trkpt lat="44.67951" lon="6.90706">
        <ele>2341.1</ele>
        <time>2021-12-19T16:11:13Z</time>
      </trkpt>
      <trkpt lat="44.67947" lon="6.90703">
        <ele>2341.1</ele>
        <time>2021-12-19T16:11:16Z</time>
      </trkpt>
      <trkpt lat="44.67946" lon="6.90702">
        <ele>2341.2</ele>
        <time>2021-12-19T16:11:17Z</time>
      </trkpt>
      <trkpt lat="44.67945" lon="6.90701">
        <ele>2341.4</ele>
        <time>2021-12-19T16:11:45Z</time>
      </trkpt>
      <trkpt lat="44.67939" lon="6.90691">
        <ele>2342</ele>
        <time>2021-12-19T16:11:46Z</time>
      </trkpt>
      <trkpt lat="44.67939" lon="6.9069">
        <ele>2342</ele>
        <time>2021-12-19T16:11:47Z</time>
      </trkpt>
      <trkpt lat="44.67938" lon="6.90687">
        <ele>2342</ele>
        <time>2021-12-19T16:11:48Z</time>
      </trkpt>
      <trkpt lat="44.67932" lon="6.90683">
        <ele>2341.7</ele>
        <time>2021-12-19T16:11:49Z</time>
      </trkpt>
      <trkpt lat="44.6793" lon="6.90674">
        <ele>2341.2</ele>
        <time>2021-12-19T16:11:51Z</time>
      </trkpt>
      <trkpt lat="44.67931" lon="6.90666">
        <ele>2340.3</ele>
        <time>2021-12-19T16:11:53Z</time>
      </trkpt>
      <trkpt lat="44.67931" lon="6.90659">
        <ele>2338.2</ele>
        <time>2021-12-19T16:11:56Z</time>
      </trkpt>
      <trkpt lat="44.67932" lon="6.90658">
        <ele>2337.7</ele>
        <time>2021-12-19T16:11:57Z</time>
      </trkpt>
      <trkpt lat="44.67933" lon="6.90657">
        <ele>2337</ele>
        <time>2021-12-19T16:12:17Z</time>
      </trkpt>
      <trkpt lat="44.67933" lon="6.90644">
        <ele>2334.1</ele>
        <time>2021-12-19T16:12:18Z</time>
      </trkpt>
      <trkpt lat="44.67933" lon="6.90643">
        <ele>2334.1</ele>
        <time>2021-12-19T16:12:19Z</time>
      </trkpt>
      <trkpt lat="44.67932" lon="6.90641">
        <ele>2333.6</ele>
        <time>2021-12-19T16:12:20Z</time>
      </trkpt>
      <trkpt lat="44.67932" lon="6.90633">
        <ele>2332.8</ele>
        <time>2021-12-19T16:12:23Z</time>
      </trkpt>
      <trkpt lat="44.6793" lon="6.90626">
        <ele>2331.8</ele>
        <time>2021-12-19T16:12:26Z</time>
      </trkpt>
      <trkpt lat="44.67929" lon="6.9062">
        <ele>2331.5</ele>
        <time>2021-12-19T16:12:28Z</time>
      </trkpt>
      <trkpt lat="44.67929" lon="6.90619">
        <ele>2331.4</ele>
        <time>2021-12-19T16:12:29Z</time>
      </trkpt>
      <trkpt lat="44.67928" lon="6.90616">
        <ele>2331.4</ele>
        <time>2021-12-19T16:12:31Z</time>
      </trkpt>
      <trkpt lat="44.67928" lon="6.90613">
        <ele>2331.2</ele>
        <time>2021-12-19T16:12:32Z</time>
      </trkpt>
      <trkpt lat="44.67926" lon="6.90607">
        <ele>2330.9</ele>
        <time>2021-12-19T16:12:35Z</time>
      </trkpt>
      <trkpt lat="44.67926" lon="6.90606">
        <ele>2330.9</ele>
        <time>2021-12-19T16:12:36Z</time>
      </trkpt>
      <trkpt lat="44.67925" lon="6.90603">
        <ele>2331</ele>
        <time>2021-12-19T16:12:39Z</time>
      </trkpt>
      <trkpt lat="44.67924" lon="6.90599">
        <ele>2330.8</ele>
        <time>2021-12-19T16:12:40Z</time>
      </trkpt>
      <trkpt lat="44.67922" lon="6.90592">
        <ele>2330.7</ele>
        <time>2021-12-19T16:12:43Z</time>
      </trkpt>
      <trkpt lat="44.67919" lon="6.90585">
        <ele>2330.3</ele>
        <time>2021-12-19T16:12:46Z</time>
      </trkpt>
      <trkpt lat="44.67917" lon="6.90578">
        <ele>2329.2</ele>
        <time>2021-12-19T16:12:49Z</time>
      </trkpt>
      <trkpt lat="44.67914" lon="6.90571">
        <ele>2328.4</ele>
        <time>2021-12-19T16:12:52Z</time>
      </trkpt>
      <trkpt lat="44.67912" lon="6.90563">
        <ele>2327.6</ele>
        <time>2021-12-19T16:12:55Z</time>
      </trkpt>
      <trkpt lat="44.67909" lon="6.90555">
        <ele>2326.3</ele>
        <time>2021-12-19T16:12:58Z</time>
      </trkpt>
      <trkpt lat="44.67907" lon="6.90549">
        <ele>2325.7</ele>
        <time>2021-12-19T16:13:00Z</time>
      </trkpt>
      <trkpt lat="44.67904" lon="6.90541">
        <ele>2323.9</ele>
        <time>2021-12-19T16:13:03Z</time>
      </trkpt>
      <trkpt lat="44.67902" lon="6.90534">
        <ele>2322.2</ele>
        <time>2021-12-19T16:13:06Z</time>
      </trkpt>
      <trkpt lat="44.67897" lon="6.90529">
        <ele>2320.3</ele>
        <time>2021-12-19T16:13:10Z</time>
      </trkpt>
      <trkpt lat="44.67894" lon="6.90525">
        <ele>2318.7</ele>
        <time>2021-12-19T16:13:13Z</time>
      </trkpt>
      <trkpt lat="44.6789" lon="6.90519">
        <ele>2317.9</ele>
        <time>2021-12-19T16:13:17Z</time>
      </trkpt>
      <trkpt lat="44.67886" lon="6.90515">
        <ele>2316.7</ele>
        <time>2021-12-19T16:13:20Z</time>
      </trkpt>
      <trkpt lat="44.67884" lon="6.90513">
        <ele>2315.5</ele>
        <time>2021-12-19T16:13:22Z</time>
      </trkpt>
      <trkpt lat="44.67884" lon="6.90512">
        <ele>2315</ele>
        <time>2021-12-19T16:13:23Z</time>
      </trkpt>
      <trkpt lat="44.67883" lon="6.90512">
        <ele>2314.2</ele>
        <time>2021-12-19T16:13:28Z</time>
      </trkpt>
      <trkpt lat="44.67878" lon="6.90509">
        <ele>2312.6</ele>
        <time>2021-12-19T16:13:29Z</time>
      </trkpt>
      <trkpt lat="44.67877" lon="6.90508">
        <ele>2312.4</ele>
        <time>2021-12-19T16:13:30Z</time>
      </trkpt>
      <trkpt lat="44.67876" lon="6.90507">
        <ele>2312.2</ele>
        <time>2021-12-19T16:13:31Z</time>
      </trkpt>
      <trkpt lat="44.67874" lon="6.90505">
        <ele>2311.9</ele>
        <time>2021-12-19T16:13:42Z</time>
      </trkpt>
      <trkpt lat="44.6787" lon="6.90495">
        <ele>2309.9</ele>
        <time>2021-12-19T16:13:43Z</time>
      </trkpt>
      <trkpt lat="44.67873" lon="6.9049">
        <ele>2309.6</ele>
        <time>2021-12-19T16:13:46Z</time>
      </trkpt>
      <trkpt lat="44.67876" lon="6.90486">
        <ele>2309</ele>
        <time>2021-12-19T16:13:48Z</time>
      </trkpt>
      <trkpt lat="44.67882" lon="6.90483">
        <ele>2308.9</ele>
        <time>2021-12-19T16:13:51Z</time>
      </trkpt>
      <trkpt lat="44.67883" lon="6.90482">
        <ele>2309.1</ele>
        <time>2021-12-19T16:13:52Z</time>
      </trkpt>
      <trkpt lat="44.67884" lon="6.90481">
        <ele>2308.6</ele>
        <time>2021-12-19T16:13:54Z</time>
      </trkpt>
      <trkpt lat="44.67884" lon="6.90481">
        <ele>2308.6</ele>
        <time>2021-12-19T16:13:55Z</time>
      </trkpt>
      <trkpt lat="44.67884" lon="6.9048">
        <ele>2308.5</ele>
        <time>2021-12-19T16:13:56Z</time>
      </trkpt>
      <trkpt lat="44.67886" lon="6.90473">
        <ele>2308</ele>
        <time>2021-12-19T16:14:11Z</time>
      </trkpt>
      <trkpt lat="44.67885" lon="6.90466">
        <ele>2307.8</ele>
        <time>2021-12-19T16:14:13Z</time>
      </trkpt>
      <trkpt lat="44.67884" lon="6.90463">
        <ele>2307.8</ele>
        <time>2021-12-19T16:14:14Z</time>
      </trkpt>
      <trkpt lat="44.67884" lon="6.90461">
        <ele>2307.5</ele>
        <time>2021-12-19T16:14:15Z</time>
      </trkpt>
      <trkpt lat="44.67884" lon="6.9046">
        <ele>2307.3</ele>
        <time>2021-12-19T16:14:16Z</time>
      </trkpt>
      <trkpt lat="44.67884" lon="6.90459">
        <ele>2307.1</ele>
        <time>2021-12-19T16:14:32Z</time>
      </trkpt>
      <trkpt lat="44.67881" lon="6.90445">
        <ele>2304.6</ele>
        <time>2021-12-19T16:14:33Z</time>
      </trkpt>
      <trkpt lat="44.67881" lon="6.90444">
        <ele>2304.4</ele>
        <time>2021-12-19T16:14:34Z</time>
      </trkpt>
      <trkpt lat="44.67881" lon="6.90441">
        <ele>2304.1</ele>
        <time>2021-12-19T16:14:39Z</time>
      </trkpt>
      <trkpt lat="44.67879" lon="6.90435">
        <ele>2303.2</ele>
        <time>2021-12-19T16:14:40Z</time>
      </trkpt>
      <trkpt lat="44.67878" lon="6.90433">
        <ele>2302.8</ele>
        <time>2021-12-19T16:14:41Z</time>
      </trkpt>
      <trkpt lat="44.67878" lon="6.90431">
        <ele>2302.4</ele>
        <time>2021-12-19T16:14:42Z</time>
      </trkpt>
      <trkpt lat="44.67877" lon="6.9043">
        <ele>2302.1</ele>
        <time>2021-12-19T16:14:52Z</time>
      </trkpt>
      <trkpt lat="44.67872" lon="6.90425">
        <ele>2301</ele>
        <time>2021-12-19T16:14:53Z</time>
      </trkpt>
      <trkpt lat="44.6787" lon="6.90424">
        <ele>2300.7</ele>
        <time>2021-12-19T16:14:54Z</time>
      </trkpt>
      <trkpt lat="44.67869" lon="6.90423">
        <ele>2300.6</ele>
        <time>2021-12-19T16:14:55Z</time>
      </trkpt>
      <trkpt lat="44.67867" lon="6.90421">
        <ele>2300.3</ele>
        <time>2021-12-19T16:14:57Z</time>
      </trkpt>
      <trkpt lat="44.67865" lon="6.90421">
        <ele>2300.2</ele>
        <time>2021-12-19T16:14:58Z</time>
      </trkpt>
      <trkpt lat="44.67861" lon="6.90418">
        <ele>2299.9</ele>
        <time>2021-12-19T16:15:02Z</time>
      </trkpt>
      <trkpt lat="44.67857" lon="6.90414">
        <ele>2299.4</ele>
        <time>2021-12-19T16:15:06Z</time>
      </trkpt>
      <trkpt lat="44.67853" lon="6.90409">
        <ele>2299.7</ele>
        <time>2021-12-19T16:15:08Z</time>
      </trkpt>
      <trkpt lat="44.67849" lon="6.90406">
        <ele>2299.4</ele>
        <time>2021-12-19T16:15:10Z</time>
      </trkpt>
      <trkpt lat="44.67844" lon="6.90402">
        <ele>2298.8</ele>
        <time>2021-12-19T16:15:13Z</time>
      </trkpt>
      <trkpt lat="44.67842" lon="6.90402">
        <ele>2298.5</ele>
        <time>2021-12-19T16:15:14Z</time>
      </trkpt>
      <trkpt lat="44.67841" lon="6.90401">
        <ele>2297.9</ele>
        <time>2021-12-19T16:15:15Z</time>
      </trkpt>
      <trkpt lat="44.67842" lon="6.904">
        <ele>2297.6</ele>
        <time>2021-12-19T16:15:57Z</time>
      </trkpt>
      <trkpt lat="44.67833" lon="6.90404">
        <ele>2298.1</ele>
        <time>2021-12-19T16:15:58Z</time>
      </trkpt>
      <trkpt lat="44.67832" lon="6.90405">
        <ele>2298.1</ele>
        <time>2021-12-19T16:15:59Z</time>
      </trkpt>
      <trkpt lat="44.67831" lon="6.90406">
        <ele>2298.1</ele>
        <time>2021-12-19T16:16:10Z</time>
      </trkpt>
      <trkpt lat="44.6783" lon="6.90404">
        <ele>2297.8</ele>
        <time>2021-12-19T16:16:11Z</time>
      </trkpt>
      <trkpt lat="44.6783" lon="6.90398">
        <ele>2297.4</ele>
        <time>2021-12-19T16:16:13Z</time>
      </trkpt>
      <trkpt lat="44.67829" lon="6.9039">
        <ele>2296.8</ele>
        <time>2021-12-19T16:16:15Z</time>
      </trkpt>
      <trkpt lat="44.6783" lon="6.90383">
        <ele>2296</ele>
        <time>2021-12-19T16:16:17Z</time>
      </trkpt>
      <trkpt lat="44.67829" lon="6.90377">
        <ele>2295.1</ele>
        <time>2021-12-19T16:16:19Z</time>
      </trkpt>
      <trkpt lat="44.67829" lon="6.90376">
        <ele>2294.6</ele>
        <time>2021-12-19T16:16:20Z</time>
      </trkpt>
      <trkpt lat="44.67829" lon="6.90375">
        <ele>2293.9</ele>
        <time>2021-12-19T16:16:40Z</time>
      </trkpt>
      <trkpt lat="44.67826" lon="6.90379">
        <ele>2288.9</ele>
        <time>2021-12-19T16:16:41Z</time>
      </trkpt>
      <trkpt lat="44.67823" lon="6.90387">
        <ele>2288.9</ele>
        <time>2021-12-19T16:16:42Z</time>
      </trkpt>
      <trkpt lat="44.67822" lon="6.90395">
        <ele>2289.1</ele>
        <time>2021-12-19T16:16:43Z</time>
      </trkpt>
      <trkpt lat="44.67822" lon="6.90404">
        <ele>2289.3</ele>
        <time>2021-12-19T16:16:44Z</time>
      </trkpt>
      <trkpt lat="44.67822" lon="6.90414">
        <ele>2289</ele>
        <time>2021-12-19T16:16:45Z</time>
      </trkpt>
      <trkpt lat="44.67821" lon="6.90427">
        <ele>2288.7</ele>
        <time>2021-12-19T16:16:46Z</time>
      </trkpt>
      <trkpt lat="44.67819" lon="6.9044">
        <ele>2288.5</ele>
        <time>2021-12-19T16:16:47Z</time>
      </trkpt>
      <trkpt lat="44.67818" lon="6.90451">
        <ele>2287.8</ele>
        <time>2021-12-19T16:16:48Z</time>
      </trkpt>
      <trkpt lat="44.67816" lon="6.90463">
        <ele>2287.7</ele>
        <time>2021-12-19T16:16:49Z</time>
      </trkpt>
      <trkpt lat="44.67813" lon="6.90475">
        <ele>2287.6</ele>
        <time>2021-12-19T16:16:50Z</time>
      </trkpt>
      <trkpt lat="44.6781" lon="6.90493">
        <ele>2287.5</ele>
        <time>2021-12-19T16:16:51Z</time>
      </trkpt>
      <trkpt lat="44.67819" lon="6.90498">
        <ele>2287.7</ele>
        <time>2021-12-19T16:16:52Z</time>
      </trkpt>
      <trkpt lat="44.67818" lon="6.90514">
        <ele>2287.5</ele>
        <time>2021-12-19T16:16:53Z</time>
      </trkpt>
      <trkpt lat="44.67826" lon="6.90517">
        <ele>2287.3</ele>
        <time>2021-12-19T16:16:55Z</time>
      </trkpt>
      <trkpt lat="44.67824" lon="6.90524">
        <ele>2287.1</ele>
        <time>2021-12-19T16:16:56Z</time>
      </trkpt>
      <trkpt lat="44.67827" lon="6.90513">
        <ele>2287.2</ele>
        <time>2021-12-19T16:16:57Z</time>
      </trkpt>
      <trkpt lat="44.67826" lon="6.90503">
        <ele>2286.9</ele>
        <time>2021-12-19T16:16:58Z</time>
      </trkpt>
      <trkpt lat="44.6783" lon="6.90493">
        <ele>2286.8</ele>
        <time>2021-12-19T16:16:59Z</time>
      </trkpt>
      <trkpt lat="44.6783" lon="6.90481">
        <ele>2286.8</ele>
        <time>2021-12-19T16:17:00Z</time>
      </trkpt>
      <trkpt lat="44.6783" lon="6.90474">
        <ele>2286.7</ele>
        <time>2021-12-19T16:17:01Z</time>
      </trkpt>
      <trkpt lat="44.6783" lon="6.90461">
        <ele>2286.6</ele>
        <time>2021-12-19T16:17:02Z</time>
      </trkpt>
      <trkpt lat="44.67829" lon="6.90435">
        <ele>2286.5</ele>
        <time>2021-12-19T16:17:03Z</time>
      </trkpt>
      <trkpt lat="44.67827" lon="6.90403">
        <ele>2286.4</ele>
        <time>2021-12-19T16:17:04Z</time>
      </trkpt>
      <trkpt lat="44.67829" lon="6.90383">
        <ele>2286.3</ele>
        <time>2021-12-19T16:17:05Z</time>
      </trkpt>
      <trkpt lat="44.67831" lon="6.90354">
        <ele>2286.5</ele>
        <time>2021-12-19T16:17:06Z</time>
      </trkpt>
      <trkpt lat="44.67833" lon="6.90329">
        <ele>2286.6</ele>
        <time>2021-12-19T16:17:07Z</time>
      </trkpt>
      <trkpt lat="44.67832" lon="6.90312">
        <ele>2286.5</ele>
        <time>2021-12-19T16:17:08Z</time>
      </trkpt>
      <trkpt lat="44.67834" lon="6.903">
        <ele>2286.5</ele>
        <time>2021-12-19T16:17:09Z</time>
      </trkpt>
      <trkpt lat="44.67836" lon="6.90286">
        <ele>2286.8</ele>
        <time>2021-12-19T16:17:10Z</time>
      </trkpt>
      <trkpt lat="44.67837" lon="6.90275">
        <ele>2286.9</ele>
        <time>2021-12-19T16:17:11Z</time>
      </trkpt>
      <trkpt lat="44.67837" lon="6.90261">
        <ele>2287</ele>
        <time>2021-12-19T16:17:12Z</time>
      </trkpt>
      <trkpt lat="44.67836" lon="6.90248">
        <ele>2287.2</ele>
        <time>2021-12-19T16:17:13Z</time>
      </trkpt>
      <trkpt lat="44.67833" lon="6.90238">
        <ele>2287.6</ele>
        <time>2021-12-19T16:17:14Z</time>
      </trkpt>
      <trkpt lat="44.67836" lon="6.90225">
        <ele>2287.6</ele>
        <time>2021-12-19T16:17:15Z</time>
      </trkpt>
      <trkpt lat="44.67837" lon="6.90218">
        <ele>2287.9</ele>
        <time>2021-12-19T16:17:16Z</time>
      </trkpt>
      <trkpt lat="44.67838" lon="6.90211">
        <ele>2288.2</ele>
        <time>2021-12-19T16:17:17Z</time>
      </trkpt>
      <trkpt lat="44.67842" lon="6.90214">
        <ele>2289.4</ele>
        <time>2021-12-19T16:17:23Z</time>
      </trkpt>
      <trkpt lat="44.67847" lon="6.90225">
        <ele>2290.7</ele>
        <time>2021-12-19T16:17:25Z</time>
      </trkpt>
      <trkpt lat="44.67847" lon="6.90245">
        <ele>2290.7</ele>
        <time>2021-12-19T16:17:27Z</time>
      </trkpt>
      <trkpt lat="44.67847" lon="6.90255">
        <ele>2290.7</ele>
        <time>2021-12-19T16:17:28Z</time>
      </trkpt>
      <trkpt lat="44.67847" lon="6.90265">
        <ele>2291.1</ele>
        <time>2021-12-19T16:17:29Z</time>
      </trkpt>
      <trkpt lat="44.67849" lon="6.90273">
        <ele>2290.6</ele>
        <time>2021-12-19T16:17:31Z</time>
      </trkpt>
      <trkpt lat="44.67853" lon="6.90275">
        <ele>2288.4</ele>
        <time>2021-12-19T16:17:35Z</time>
      </trkpt>
      <trkpt lat="44.67853" lon="6.90277">
        <ele>2287.6</ele>
        <time>2021-12-19T16:17:36Z</time>
      </trkpt>
      <trkpt lat="44.67854" lon="6.90277">
        <ele>2287.6</ele>
        <time>2021-12-19T16:17:37Z</time>
      </trkpt>
      <trkpt lat="44.67855" lon="6.90277">
        <ele>2286.9</ele>
        <time>2021-12-19T16:17:38Z</time>
      </trkpt>
      <trkpt lat="44.67859" lon="6.90274">
        <ele>2285.3</ele>
        <time>2021-12-19T16:17:42Z</time>
      </trkpt>
      <trkpt lat="44.67863" lon="6.90269">
        <ele>2283.4</ele>
        <time>2021-12-19T16:17:46Z</time>
      </trkpt>
      <trkpt lat="44.67865" lon="6.90261">
        <ele>2282</ele>
        <time>2021-12-19T16:17:49Z</time>
      </trkpt>
      <trkpt lat="44.67865" lon="6.9026">
        <ele>2282</ele>
        <time>2021-12-19T16:17:50Z</time>
      </trkpt>
      <trkpt lat="44.67865" lon="6.90258">
        <ele>2281.6</ele>
        <time>2021-12-19T16:18:33Z</time>
      </trkpt>
      <trkpt lat="44.67866" lon="6.9025">
        <ele>2280.8</ele>
        <time>2021-12-19T16:18:34Z</time>
      </trkpt>
      <trkpt lat="44.67867" lon="6.90246">
        <ele>2280.4</ele>
        <time>2021-12-19T16:18:36Z</time>
      </trkpt>
      <trkpt lat="44.67867" lon="6.90245">
        <ele>2280.1</ele>
        <time>2021-12-19T16:18:37Z</time>
      </trkpt>
      <trkpt lat="44.67868" lon="6.90245">
        <ele>2279.7</ele>
        <time>2021-12-19T16:19:15Z</time>
      </trkpt>
      <trkpt lat="44.67859" lon="6.90239">
        <ele>2279.6</ele>
        <time>2021-12-19T16:19:16Z</time>
      </trkpt>
      <trkpt lat="44.67858" lon="6.90239">
        <ele>2279.5</ele>
        <time>2021-12-19T16:19:17Z</time>
      </trkpt>
      <trkpt lat="44.67856" lon="6.90239">
        <ele>2279.5</ele>
        <time>2021-12-19T16:19:27Z</time>
      </trkpt>
      <trkpt lat="44.67846" lon="6.90238">
        <ele>2279.1</ele>
        <time>2021-12-19T16:19:28Z</time>
      </trkpt>
      <trkpt lat="44.67845" lon="6.90239">
        <ele>2279.1</ele>
        <time>2021-12-19T16:19:29Z</time>
      </trkpt>
      <trkpt lat="44.67843" lon="6.90239">
        <ele>2279</ele>
        <time>2021-12-19T16:19:43Z</time>
      </trkpt>
      <trkpt lat="44.67834" lon="6.90245">
        <ele>2278.7</ele>
        <time>2021-12-19T16:19:44Z</time>
      </trkpt>
      <trkpt lat="44.67834" lon="6.90246">
        <ele>2278.7</ele>
        <time>2021-12-19T16:19:45Z</time>
      </trkpt>
      <trkpt lat="44.67833" lon="6.90247">
        <ele>2278.6</ele>
        <time>2021-12-19T16:20:01Z</time>
      </trkpt>
      <trkpt lat="44.67826" lon="6.90255">
        <ele>2278.2</ele>
        <time>2021-12-19T16:20:02Z</time>
      </trkpt>
      <trkpt lat="44.67826" lon="6.90256">
        <ele>2278.3</ele>
        <time>2021-12-19T16:20:03Z</time>
      </trkpt>
      <trkpt lat="44.67825" lon="6.90257">
        <ele>2278.3</ele>
        <time>2021-12-19T16:20:26Z</time>
      </trkpt>
      <trkpt lat="44.6782" lon="6.90268">
        <ele>2275.8</ele>
        <time>2021-12-19T16:20:27Z</time>
      </trkpt>
      <trkpt lat="44.6782" lon="6.90268">
        <ele>2275.9</ele>
        <time>2021-12-19T16:20:28Z</time>
      </trkpt>
      <trkpt lat="44.67821" lon="6.90268">
        <ele>2275.8</ele>
        <time>2021-12-19T16:20:43Z</time>
      </trkpt>
      <trkpt lat="44.67814" lon="6.90278">
        <ele>2273</ele>
        <time>2021-12-19T16:20:44Z</time>
      </trkpt>
      <trkpt lat="44.67814" lon="6.90278">
        <ele>2272.8</ele>
        <time>2021-12-19T16:20:45Z</time>
      </trkpt>
      <trkpt lat="44.67813" lon="6.90279">
        <ele>2272.3</ele>
        <time>2021-12-19T16:20:59Z</time>
      </trkpt>
      <trkpt lat="44.67807" lon="6.90289">
        <ele>2269.7</ele>
        <time>2021-12-19T16:21:00Z</time>
      </trkpt>
      <trkpt lat="44.67806" lon="6.90289">
        <ele>2269.5</ele>
        <time>2021-12-19T16:21:01Z</time>
      </trkpt>
      <trkpt lat="44.67805" lon="6.90293">
        <ele>2268.9</ele>
        <time>2021-12-19T16:21:04Z</time>
      </trkpt>
      <trkpt lat="44.67804" lon="6.90294">
        <ele>2268.7</ele>
        <time>2021-12-19T16:21:05Z</time>
      </trkpt>
      <trkpt lat="44.67805" lon="6.90295">
        <ele>2268.4</ele>
        <time>2021-12-19T16:21:06Z</time>
      </trkpt>
      <trkpt lat="44.67804" lon="6.90297">
        <ele>2268</ele>
        <time>2021-12-19T16:21:20Z</time>
      </trkpt>
      <trkpt lat="44.67799" lon="6.90308">
        <ele>2265.3</ele>
        <time>2021-12-19T16:21:21Z</time>
      </trkpt>
      <trkpt lat="44.67799" lon="6.90309">
        <ele>2265.1</ele>
        <time>2021-12-19T16:21:22Z</time>
      </trkpt>
      <trkpt lat="44.67798" lon="6.90311">
        <ele>2264.8</ele>
        <time>2021-12-19T16:21:34Z</time>
      </trkpt>
      <trkpt lat="44.6779" lon="6.90319">
        <ele>2262.5</ele>
        <time>2021-12-19T16:21:35Z</time>
      </trkpt>
      <trkpt lat="44.6779" lon="6.9032">
        <ele>2262.3</ele>
        <time>2021-12-19T16:21:36Z</time>
      </trkpt>
      <trkpt lat="44.67784" lon="6.90331">
        <ele>2260.3</ele>
        <time>2021-12-19T16:21:56Z</time>
      </trkpt>
      <trkpt lat="44.67782" lon="6.90332">
        <ele>2259.9</ele>
        <time>2021-12-19T16:22:13Z</time>
      </trkpt>
      <trkpt lat="44.67783" lon="6.90345">
        <ele>2259.2</ele>
        <time>2021-12-19T16:22:14Z</time>
      </trkpt>
      <trkpt lat="44.67783" lon="6.90346">
        <ele>2259.2</ele>
        <time>2021-12-19T16:22:15Z</time>
      </trkpt>
      <trkpt lat="44.67785" lon="6.90362">
        <ele>2258.7</ele>
        <time>2021-12-19T16:23:11Z</time>
      </trkpt>
      <trkpt lat="44.67784" lon="6.90382">
        <ele>2258.9</ele>
        <time>2021-12-19T16:23:30Z</time>
      </trkpt>
      <trkpt lat="44.67786" lon="6.90399">
        <ele>2258.7</ele>
        <time>2021-12-19T16:23:43Z</time>
      </trkpt>
      <trkpt lat="44.67787" lon="6.90416">
        <ele>2258.2</ele>
        <time>2021-12-19T16:23:56Z</time>
      </trkpt>
      <trkpt lat="44.67781" lon="6.90431">
        <ele>2258.4</ele>
        <time>2021-12-19T16:24:21Z</time>
      </trkpt>
      <trkpt lat="44.67778" lon="6.90446">
        <ele>2258.7</ele>
        <time>2021-12-19T16:24:31Z</time>
      </trkpt>
      <trkpt lat="44.67777" lon="6.90455">
        <ele>2258.8</ele>
        <time>2021-12-19T16:24:33Z</time>
      </trkpt>
      <trkpt lat="44.67779" lon="6.90461">
        <ele>2259.5</ele>
        <time>2021-12-19T16:24:36Z</time>
      </trkpt>
      <trkpt lat="44.67779" lon="6.90461">
        <ele>2259.5</ele>
        <time>2021-12-19T16:24:52Z</time>
      </trkpt>
      <trkpt lat="44.67781" lon="6.90474">
        <ele>2258.4</ele>
        <time>2021-12-19T16:24:53Z</time>
      </trkpt>
      <trkpt lat="44.67781" lon="6.90474">
        <ele>2258.3</ele>
        <time>2021-12-19T16:24:54Z</time>
      </trkpt>
      <trkpt lat="44.67782" lon="6.9049">
        <ele>2259.5</ele>
        <time>2021-12-19T16:25:05Z</time>
      </trkpt>
      <trkpt lat="44.67784" lon="6.90495">
        <ele>2259.3</ele>
        <time>2021-12-19T16:25:08Z</time>
      </trkpt>
      <trkpt lat="44.67786" lon="6.9051">
        <ele>2259.7</ele>
        <time>2021-12-19T16:25:09Z</time>
      </trkpt>
      <trkpt lat="44.67783" lon="6.90512">
        <ele>2259.8</ele>
        <time>2021-12-19T16:25:11Z</time>
      </trkpt>
      <trkpt lat="44.67782" lon="6.90513">
        <ele>2260.2</ele>
        <time>2021-12-19T16:25:12Z</time>
      </trkpt>
      <trkpt lat="44.67782" lon="6.90518">
        <ele>2260.5</ele>
        <time>2021-12-19T16:25:31Z</time>
      </trkpt>
      <trkpt lat="44.67781" lon="6.90531">
        <ele>2260.5</ele>
        <time>2021-12-19T16:25:32Z</time>
      </trkpt>
      <trkpt lat="44.6778" lon="6.90533">
        <ele>2260.4</ele>
        <time>2021-12-19T16:25:33Z</time>
      </trkpt>
      <trkpt lat="44.6778" lon="6.90534">
        <ele>2260</ele>
        <time>2021-12-19T16:25:45Z</time>
      </trkpt>
      <trkpt lat="44.67778" lon="6.90547">
        <ele>2258.1</ele>
        <time>2021-12-19T16:25:46Z</time>
      </trkpt>
      <trkpt lat="44.67778" lon="6.90548">
        <ele>2258</ele>
        <time>2021-12-19T16:25:47Z</time>
      </trkpt>
      <trkpt lat="44.67778" lon="6.9055">
        <ele>2258</ele>
        <time>2021-12-19T16:25:48Z</time>
      </trkpt>
      <trkpt lat="44.67777" lon="6.9055">
        <ele>2257.9</ele>
        <time>2021-12-19T16:25:49Z</time>
      </trkpt>
      <trkpt lat="44.67777" lon="6.90552">
        <ele>2257.6</ele>
        <time>2021-12-19T16:25:50Z</time>
      </trkpt>
      <trkpt lat="44.67777" lon="6.90554">
        <ele>2257.4</ele>
        <time>2021-12-19T16:25:53Z</time>
      </trkpt>
      <trkpt lat="44.67778" lon="6.90556">
        <ele>2256.6</ele>
        <time>2021-12-19T16:25:54Z</time>
      </trkpt>
      <trkpt lat="44.67778" lon="6.90557">
        <ele>2256.2</ele>
        <time>2021-12-19T16:25:55Z</time>
      </trkpt>
      <trkpt lat="44.67777" lon="6.90558">
        <ele>2255.8</ele>
        <time>2021-12-19T16:25:56Z</time>
      </trkpt>
      <trkpt lat="44.67778" lon="6.90566">
        <ele>2254.3</ele>
        <time>2021-12-19T16:26:00Z</time>
      </trkpt>
      <trkpt lat="44.67778" lon="6.90573">
        <ele>2253.7</ele>
        <time>2021-12-19T16:26:03Z</time>
      </trkpt>
      <trkpt lat="44.67778" lon="6.90574">
        <ele>2253.6</ele>
        <time>2021-12-19T16:26:04Z</time>
      </trkpt>
      <trkpt lat="44.67778" lon="6.90576">
        <ele>2253.5</ele>
        <time>2021-12-19T16:26:05Z</time>
      </trkpt>
      <trkpt lat="44.67779" lon="6.90578">
        <ele>2253.5</ele>
        <time>2021-12-19T16:26:06Z</time>
      </trkpt>
      <trkpt lat="44.6778" lon="6.9058">
        <ele>2253.3</ele>
        <time>2021-12-19T16:26:07Z</time>
      </trkpt>
      <trkpt lat="44.6778" lon="6.90581">
        <ele>2253.1</ele>
        <time>2021-12-19T16:26:08Z</time>
      </trkpt>
      <trkpt lat="44.6778" lon="6.90583">
        <ele>2253.1</ele>
        <time>2021-12-19T16:26:09Z</time>
      </trkpt>
      <trkpt lat="44.6778" lon="6.90584">
        <ele>2253.1</ele>
        <time>2021-12-19T16:26:10Z</time>
      </trkpt>
      <trkpt lat="44.67777" lon="6.9059">
        <ele>2253.4</ele>
        <time>2021-12-19T16:26:14Z</time>
      </trkpt>
      <trkpt lat="44.67777" lon="6.90592">
        <ele>2253.4</ele>
        <time>2021-12-19T16:26:15Z</time>
      </trkpt>
      <trkpt lat="44.67776" lon="6.90594">
        <ele>2253.4</ele>
        <time>2021-12-19T16:26:27Z</time>
      </trkpt>
      <trkpt lat="44.67776" lon="6.90608">
        <ele>2253.8</ele>
        <time>2021-12-19T16:26:28Z</time>
      </trkpt>
      <trkpt lat="44.67776" lon="6.9061">
        <ele>2253.8</ele>
        <time>2021-12-19T16:26:29Z</time>
      </trkpt>
      <trkpt lat="44.67776" lon="6.90612">
        <ele>2253.6</ele>
        <time>2021-12-19T16:26:30Z</time>
      </trkpt>
      <trkpt lat="44.67776" lon="6.90614">
        <ele>2253.5</ele>
        <time>2021-12-19T16:26:31Z</time>
      </trkpt>
      <trkpt lat="44.67776" lon="6.90617">
        <ele>2253.8</ele>
        <time>2021-12-19T16:26:41Z</time>
      </trkpt>
      <trkpt lat="44.67776" lon="6.9063">
        <ele>2254.7</ele>
        <time>2021-12-19T16:26:42Z</time>
      </trkpt>
      <trkpt lat="44.67777" lon="6.90632">
        <ele>2254.9</ele>
        <time>2021-12-19T16:26:43Z</time>
      </trkpt>
      <trkpt lat="44.67778" lon="6.90635">
        <ele>2255.2</ele>
        <time>2021-12-19T16:26:54Z</time>
      </trkpt>
      <trkpt lat="44.67779" lon="6.90649">
        <ele>2255.8</ele>
        <time>2021-12-19T16:26:55Z</time>
      </trkpt>
      <trkpt lat="44.67779" lon="6.9065">
        <ele>2255.8</ele>
        <time>2021-12-19T16:26:56Z</time>
      </trkpt>
      <trkpt lat="44.67778" lon="6.90654">
        <ele>2256.1</ele>
        <time>2021-12-19T16:27:00Z</time>
      </trkpt>
      <trkpt lat="44.67778" lon="6.9066">
        <ele>2256.9</ele>
        <time>2021-12-19T16:27:01Z</time>
      </trkpt>
      <trkpt lat="44.67778" lon="6.90662">
        <ele>2257.6</ele>
        <time>2021-12-19T16:27:02Z</time>
      </trkpt>
      <trkpt lat="44.67778" lon="6.90665">
        <ele>2257.8</ele>
        <time>2021-12-19T16:27:06Z</time>
      </trkpt>
      <trkpt lat="44.67778" lon="6.9067">
        <ele>2258.2</ele>
        <time>2021-12-19T16:27:07Z</time>
      </trkpt>
      <trkpt lat="44.67777" lon="6.90672">
        <ele>2258.2</ele>
        <time>2021-12-19T16:27:08Z</time>
      </trkpt>
      <trkpt lat="44.67777" lon="6.90679">
        <ele>2258.6</ele>
        <time>2021-12-19T16:27:12Z</time>
      </trkpt>
      <trkpt lat="44.67778" lon="6.90681">
        <ele>2258.3</ele>
        <time>2021-12-19T16:27:13Z</time>
      </trkpt>
      <trkpt lat="44.67778" lon="6.90686">
        <ele>2258.3</ele>
        <time>2021-12-19T16:27:15Z</time>
      </trkpt>
      <trkpt lat="44.67779" lon="6.90687">
        <ele>2258.5</ele>
        <time>2021-12-19T16:27:16Z</time>
      </trkpt>
      <trkpt lat="44.67778" lon="6.9069">
        <ele>2258.4</ele>
        <time>2021-12-19T16:27:30Z</time>
      </trkpt>
      <trkpt lat="44.6778" lon="6.90703">
        <ele>2257.1</ele>
        <time>2021-12-19T16:27:31Z</time>
      </trkpt>
      <trkpt lat="44.6778" lon="6.90704">
        <ele>2257.1</ele>
        <time>2021-12-19T16:27:32Z</time>
      </trkpt>
      <trkpt lat="44.67786" lon="6.90718">
        <ele>2257.2</ele>
        <time>2021-12-19T16:27:45Z</time>
      </trkpt>
      <trkpt lat="44.67792" lon="6.90732">
        <ele>2258.5</ele>
        <time>2021-12-19T16:27:57Z</time>
      </trkpt>
      <trkpt lat="44.67793" lon="6.90737">
        <ele>2258.9</ele>
        <time>2021-12-19T16:28:06Z</time>
      </trkpt>
      <trkpt lat="44.67794" lon="6.90748">
        <ele>2259.9</ele>
        <time>2021-12-19T16:28:07Z</time>
      </trkpt>
      <trkpt lat="44.67795" lon="6.90749">
        <ele>2260</ele>
        <time>2021-12-19T16:28:08Z</time>
      </trkpt>
      <trkpt lat="44.67797" lon="6.90755">
        <ele>2260.7</ele>
        <time>2021-12-19T16:28:12Z</time>
      </trkpt>
      <trkpt lat="44.67799" lon="6.90766">
        <ele>2261.5</ele>
        <time>2021-12-19T16:28:18Z</time>
      </trkpt>
      <trkpt lat="44.67798" lon="6.90784">
        <ele>2263.6</ele>
        <time>2021-12-19T16:28:36Z</time>
      </trkpt>
      <trkpt lat="44.67795" lon="6.9079">
        <ele>2263.7</ele>
        <time>2021-12-19T16:28:41Z</time>
      </trkpt>
      <trkpt lat="44.67792" lon="6.9079">
        <ele>2263.6</ele>
        <time>2021-12-19T16:28:42Z</time>
      </trkpt>
      <trkpt lat="44.67793" lon="6.90792">
        <ele>2263.7</ele>
        <time>2021-12-19T16:28:43Z</time>
      </trkpt>
      <trkpt lat="44.67793" lon="6.90794">
        <ele>2263.6</ele>
        <time>2021-12-19T16:28:44Z</time>
      </trkpt>
      <trkpt lat="44.67792" lon="6.90796">
        <ele>2263.8</ele>
        <time>2021-12-19T16:28:45Z</time>
      </trkpt>
      <trkpt lat="44.67792" lon="6.90797">
        <ele>2263.8</ele>
        <time>2021-12-19T16:28:46Z</time>
      </trkpt>
      <trkpt lat="44.67793" lon="6.908">
        <ele>2263.9</ele>
        <time>2021-12-19T16:28:55Z</time>
      </trkpt>
      <trkpt lat="44.67791" lon="6.90794">
        <ele>2263.6</ele>
        <time>2021-12-19T16:28:56Z</time>
      </trkpt>
      <trkpt lat="44.67791" lon="6.9079">
        <ele>2263.2</ele>
        <time>2021-12-19T16:28:57Z</time>
      </trkpt>
      <trkpt lat="44.67791" lon="6.90786">
        <ele>2262.3</ele>
        <time>2021-12-19T16:28:58Z</time>
      </trkpt>
      <trkpt lat="44.6779" lon="6.90784">
        <ele>2261.3</ele>
        <time>2021-12-19T16:28:59Z</time>
      </trkpt>
      <trkpt lat="44.67788" lon="6.90775">
        <ele>2258.7</ele>
        <time>2021-12-19T16:29:02Z</time>
      </trkpt>
      <trkpt lat="44.67786" lon="6.9078">
        <ele>2254.5</ele>
        <time>2021-12-19T16:29:05Z</time>
      </trkpt>
      <trkpt lat="44.67785" lon="6.90781">
        <ele>2253.1</ele>
        <time>2021-12-19T16:29:06Z</time>
      </trkpt>
      <trkpt lat="44.67786" lon="6.90783">
        <ele>2253.1</ele>
        <time>2021-12-19T16:29:15Z</time>
      </trkpt>
      <trkpt lat="44.67786" lon="6.90796">
        <ele>2249.5</ele>
        <time>2021-12-19T16:29:16Z</time>
      </trkpt>
      <trkpt lat="44.67786" lon="6.90798">
        <ele>2249.1</ele>
        <time>2021-12-19T16:29:17Z</time>
      </trkpt>
      <trkpt lat="44.67786" lon="6.90804">
        <ele>2248.4</ele>
        <time>2021-12-19T16:29:23Z</time>
      </trkpt>
      <trkpt lat="44.67786" lon="6.90823">
        <ele>2248.2</ele>
        <time>2021-12-19T16:29:24Z</time>
      </trkpt>
      <trkpt lat="44.67787" lon="6.90825">
        <ele>2248.2</ele>
        <time>2021-12-19T16:29:25Z</time>
      </trkpt>
      <trkpt lat="44.67787" lon="6.90829">
        <ele>2247.9</ele>
        <time>2021-12-19T16:29:32Z</time>
      </trkpt>
      <trkpt lat="44.67791" lon="6.90843">
        <ele>2247.1</ele>
        <time>2021-12-19T16:29:33Z</time>
      </trkpt>
      <trkpt lat="44.67792" lon="6.90844">
        <ele>2246.9</ele>
        <time>2021-12-19T16:29:34Z</time>
      </trkpt>
      <trkpt lat="44.67792" lon="6.90851">
        <ele>2247.5</ele>
        <time>2021-12-19T16:29:36Z</time>
      </trkpt>
      <trkpt lat="44.67792" lon="6.90851">
        <ele>2247.5</ele>
        <time>2021-12-19T16:29:44Z</time>
      </trkpt>
      <trkpt lat="44.67798" lon="6.90863">
        <ele>2246.1</ele>
        <time>2021-12-19T16:29:45Z</time>
      </trkpt>
      <trkpt lat="44.67799" lon="6.90863">
        <ele>2245.8</ele>
        <time>2021-12-19T16:29:46Z</time>
      </trkpt>
      <trkpt lat="44.67799" lon="6.90864">
        <ele>2245.4</ele>
        <time>2021-12-19T16:29:57Z</time>
      </trkpt>
      <trkpt lat="44.67803" lon="6.90876">
        <ele>2244.2</ele>
        <time>2021-12-19T16:29:58Z</time>
      </trkpt>
      <trkpt lat="44.67803" lon="6.90877">
        <ele>2244.2</ele>
        <time>2021-12-19T16:29:59Z</time>
      </trkpt>
      <trkpt lat="44.67805" lon="6.90882">
        <ele>2243.7</ele>
        <time>2021-12-19T16:30:05Z</time>
      </trkpt>
      <trkpt lat="44.67806" lon="6.90882">
        <ele>2243.9</ele>
        <time>2021-12-19T16:30:06Z</time>
      </trkpt>
      <trkpt lat="44.67809" lon="6.90888">
        <ele>2244.8</ele>
        <time>2021-12-19T16:30:10Z</time>
      </trkpt>
      <trkpt lat="44.6781" lon="6.9089">
        <ele>2245.1</ele>
        <time>2021-12-19T16:30:12Z</time>
      </trkpt>
      <trkpt lat="44.67812" lon="6.90892">
        <ele>2245.4</ele>
        <time>2021-12-19T16:30:13Z</time>
      </trkpt>
      <trkpt lat="44.67812" lon="6.90893">
        <ele>2245.6</ele>
        <time>2021-12-19T16:30:14Z</time>
      </trkpt>
      <trkpt lat="44.67812" lon="6.90894">
        <ele>2246</ele>
        <time>2021-12-19T16:30:15Z</time>
      </trkpt>
      <trkpt lat="44.67813" lon="6.90895">
        <ele>2246.2</ele>
        <time>2021-12-19T16:30:16Z</time>
      </trkpt>
      <trkpt lat="44.67813" lon="6.90897">
        <ele>2246.5</ele>
        <time>2021-12-19T16:30:17Z</time>
      </trkpt>
      <trkpt lat="44.67814" lon="6.90898">
        <ele>2246.9</ele>
        <time>2021-12-19T16:30:18Z</time>
      </trkpt>
      <trkpt lat="44.67816" lon="6.90906">
        <ele>2248.5</ele>
        <time>2021-12-19T16:30:22Z</time>
      </trkpt>
      <trkpt lat="44.67818" lon="6.9091">
        <ele>2249.4</ele>
        <time>2021-12-19T16:30:24Z</time>
      </trkpt>
      <trkpt lat="44.67819" lon="6.90911">
        <ele>2249.8</ele>
        <time>2021-12-19T16:30:25Z</time>
      </trkpt>
      <trkpt lat="44.67818" lon="6.90927">
        <ele>2253</ele>
        <time>2021-12-19T16:30:38Z</time>
      </trkpt>
      <trkpt lat="44.67817" lon="6.9093">
        <ele>2253.4</ele>
        <time>2021-12-19T16:30:39Z</time>
      </trkpt>
      <trkpt lat="44.67815" lon="6.90931">
        <ele>2253.8</ele>
        <time>2021-12-19T16:30:40Z</time>
      </trkpt>
      <trkpt lat="44.67815" lon="6.90933">
        <ele>2254.2</ele>
        <time>2021-12-19T16:30:52Z</time>
      </trkpt>
      <trkpt lat="44.67814" lon="6.90946">
        <ele>2257.4</ele>
        <time>2021-12-19T16:30:53Z</time>
      </trkpt>
      <trkpt lat="44.67813" lon="6.90947">
        <ele>2257.8</ele>
        <time>2021-12-19T16:30:54Z</time>
      </trkpt>
      <trkpt lat="44.67813" lon="6.90951">
        <ele>2258.7</ele>
        <time>2021-12-19T16:31:04Z</time>
      </trkpt>
      <trkpt lat="44.67816" lon="6.90963">
        <ele>2260.8</ele>
        <time>2021-12-19T16:31:05Z</time>
      </trkpt>
      <trkpt lat="44.67815" lon="6.90967">
        <ele>2262.1</ele>
        <time>2021-12-19T16:31:06Z</time>
      </trkpt>
      <trkpt lat="44.67816" lon="6.9097">
        <ele>2262.6</ele>
        <time>2021-12-19T16:31:07Z</time>
      </trkpt>
      <trkpt lat="44.67818" lon="6.90974">
        <ele>2264</ele>
        <time>2021-12-19T16:31:09Z</time>
      </trkpt>
      <trkpt lat="44.67819" lon="6.90976">
        <ele>2264.5</ele>
        <time>2021-12-19T16:31:10Z</time>
      </trkpt>
      <trkpt lat="44.6782" lon="6.90978">
        <ele>2265</ele>
        <time>2021-12-19T16:31:11Z</time>
      </trkpt>
      <trkpt lat="44.67821" lon="6.9098">
        <ele>2265.4</ele>
        <time>2021-12-19T16:31:15Z</time>
      </trkpt>
      <trkpt lat="44.67825" lon="6.90985">
        <ele>2266.1</ele>
        <time>2021-12-19T16:31:16Z</time>
      </trkpt>
      <trkpt lat="44.67826" lon="6.90987">
        <ele>2266.8</ele>
        <time>2021-12-19T16:31:17Z</time>
      </trkpt>
      <trkpt lat="44.67827" lon="6.90988">
        <ele>2267.3</ele>
        <time>2021-12-19T16:31:18Z</time>
      </trkpt>
      <trkpt lat="44.67829" lon="6.90991">
        <ele>2267.7</ele>
        <time>2021-12-19T16:31:25Z</time>
      </trkpt>
      <trkpt lat="44.67833" lon="6.90997">
        <ele>2269.3</ele>
        <time>2021-12-19T16:31:26Z</time>
      </trkpt>
      <trkpt lat="44.67834" lon="6.90997">
        <ele>2269.9</ele>
        <time>2021-12-19T16:31:27Z</time>
      </trkpt>
      <trkpt lat="44.67834" lon="6.90998">
        <ele>2270.1</ele>
        <time>2021-12-19T16:31:28Z</time>
      </trkpt>
      <trkpt lat="44.67835" lon="6.91">
        <ele>2270.9</ele>
        <time>2021-12-19T16:31:30Z</time>
      </trkpt>
      <trkpt lat="44.67836" lon="6.91001">
        <ele>2271.3</ele>
        <time>2021-12-19T16:31:31Z</time>
      </trkpt>
      <trkpt lat="44.67839" lon="6.91009">
        <ele>2271.4</ele>
        <time>2021-12-19T16:31:34Z</time>
      </trkpt>
      <trkpt lat="44.67841" lon="6.91012">
        <ele>2272</ele>
        <time>2021-12-19T16:31:36Z</time>
      </trkpt>
      <trkpt lat="44.67841" lon="6.91013">
        <ele>2272.3</ele>
        <time>2021-12-19T16:31:37Z</time>
      </trkpt>
      <trkpt lat="44.67842" lon="6.91015">
        <ele>2272.7</ele>
        <time>2021-12-19T16:31:49Z</time>
      </trkpt>
      <trkpt lat="44.67848" lon="6.91026">
        <ele>2273.9</ele>
        <time>2021-12-19T16:31:50Z</time>
      </trkpt>
      <trkpt lat="44.67848" lon="6.91026">
        <ele>2274</ele>
        <time>2021-12-19T16:31:51Z</time>
      </trkpt>
      <trkpt lat="44.67849" lon="6.91028">
        <ele>2274.2</ele>
        <time>2021-12-19T16:32:13Z</time>
      </trkpt>
      <trkpt lat="44.67857" lon="6.91035">
        <ele>2275.9</ele>
        <time>2021-12-19T16:32:14Z</time>
      </trkpt>
      <trkpt lat="44.67857" lon="6.91036">
        <ele>2275.9</ele>
        <time>2021-12-19T16:32:15Z</time>
      </trkpt>
      <trkpt lat="44.67858" lon="6.91035">
        <ele>2275.9</ele>
        <time>2021-12-19T16:33:20Z</time>
      </trkpt>
      <trkpt lat="44.67864" lon="6.91043">
        <ele>2274.9</ele>
        <time>2021-12-19T16:33:21Z</time>
      </trkpt>
      <trkpt lat="44.67865" lon="6.91044">
        <ele>2274.9</ele>
        <time>2021-12-19T16:33:22Z</time>
      </trkpt>
      <trkpt lat="44.67865" lon="6.91044">
        <ele>2275</ele>
        <time>2021-12-19T16:33:23Z</time>
      </trkpt>
      <trkpt lat="44.67864" lon="6.91046">
        <ele>2275.1</ele>
        <time>2021-12-19T16:33:43Z</time>
      </trkpt>
      <trkpt lat="44.67868" lon="6.91058">
        <ele>2275.8</ele>
        <time>2021-12-19T16:33:44Z</time>
      </trkpt>
      <trkpt lat="44.67868" lon="6.91058">
        <ele>2275.7</ele>
        <time>2021-12-19T16:33:45Z</time>
      </trkpt>
      <trkpt lat="44.67868" lon="6.91058">
        <ele>2275.7</ele>
        <time>2021-12-19T16:34:06Z</time>
      </trkpt>
      <trkpt lat="44.67868" lon="6.9105">
        <ele>2276</ele>
        <time>2021-12-19T16:34:07Z</time>
      </trkpt>
      <trkpt lat="44.67865" lon="6.91042">
        <ele>2276.1</ele>
        <time>2021-12-19T16:34:08Z</time>
      </trkpt>
      <trkpt lat="44.67867" lon="6.91036">
        <ele>2276.2</ele>
        <time>2021-12-19T16:34:09Z</time>
      </trkpt>
      <trkpt lat="44.67865" lon="6.91034">
        <ele>2276.2</ele>
        <time>2021-12-19T16:34:10Z</time>
      </trkpt>
      <trkpt lat="44.67865" lon="6.91035">
        <ele>2276.2</ele>
        <time>2021-12-19T16:34:31Z</time>
      </trkpt>
      <trkpt lat="44.67868" lon="6.91047">
        <ele>2275.4</ele>
        <time>2021-12-19T16:34:32Z</time>
      </trkpt>
      <trkpt lat="44.67868" lon="6.91048">
        <ele>2275.4</ele>
        <time>2021-12-19T16:34:33Z</time>
      </trkpt>
      <trkpt lat="44.67868" lon="6.91049">
        <ele>2275.4</ele>
        <time>2021-12-19T16:34:47Z</time>
      </trkpt>
      <trkpt lat="44.67864" lon="6.9106">
        <ele>2274.4</ele>
        <time>2021-12-19T16:34:48Z</time>
      </trkpt>
      <trkpt lat="44.67864" lon="6.91061">
        <ele>2274.5</ele>
        <time>2021-12-19T16:34:49Z</time>
      </trkpt>
      <trkpt lat="44.67864" lon="6.91062">
        <ele>2274.4</ele>
        <time>2021-12-19T16:35:23Z</time>
      </trkpt>
      <trkpt lat="44.6787" lon="6.91072">
        <ele>2273.7</ele>
        <time>2021-12-19T16:35:24Z</time>
      </trkpt>
      <trkpt lat="44.67871" lon="6.91072">
        <ele>2273.8</ele>
        <time>2021-12-19T16:35:25Z</time>
      </trkpt>
      <trkpt lat="44.67875" lon="6.91073">
        <ele>2274</ele>
        <time>2021-12-19T16:35:26Z</time>
      </trkpt>
      <trkpt lat="44.67881" lon="6.91077">
        <ele>2274.2</ele>
        <time>2021-12-19T16:35:27Z</time>
      </trkpt>
      <trkpt lat="44.67885" lon="6.91078">
        <ele>2274.6</ele>
        <time>2021-12-19T16:35:28Z</time>
      </trkpt>
      <trkpt lat="44.67888" lon="6.91079">
        <ele>2274.6</ele>
        <time>2021-12-19T16:35:29Z</time>
      </trkpt>
      <trkpt lat="44.67885" lon="6.91078">
        <ele>2275.2</ele>
        <time>2021-12-19T16:35:32Z</time>
      </trkpt>
      <trkpt lat="44.67882" lon="6.91079">
        <ele>2275</ele>
        <time>2021-12-19T16:35:33Z</time>
      </trkpt>
      <trkpt lat="44.67875" lon="6.91089">
        <ele>2274.6</ele>
        <time>2021-12-19T16:35:50Z</time>
      </trkpt>
      <trkpt lat="44.67871" lon="6.911">
        <ele>2274.6</ele>
        <time>2021-12-19T16:36:08Z</time>
      </trkpt>
      <trkpt lat="44.67872" lon="6.91105">
        <ele>2273.3</ele>
        <time>2021-12-19T16:36:09Z</time>
      </trkpt>
      <trkpt lat="44.6787" lon="6.91107">
        <ele>2270.9</ele>
        <time>2021-12-19T16:36:12Z</time>
      </trkpt>
      <trkpt lat="44.6787" lon="6.91108">
        <ele>2270</ele>
        <time>2021-12-19T16:36:13Z</time>
      </trkpt>
      <trkpt lat="44.67874" lon="6.91102">
        <ele>2271.3</ele>
        <time>2021-12-19T16:36:29Z</time>
      </trkpt>
      <trkpt lat="44.67873" lon="6.91101">
        <ele>2271.9</ele>
        <time>2021-12-19T16:36:30Z</time>
      </trkpt>
      <trkpt lat="44.67873" lon="6.91099">
        <ele>2272.6</ele>
        <time>2021-12-19T16:36:31Z</time>
      </trkpt>
      <trkpt lat="44.67876" lon="6.91094">
        <ele>2273.4</ele>
        <time>2021-12-19T16:36:33Z</time>
      </trkpt>
      <trkpt lat="44.67876" lon="6.91093">
        <ele>2273.3</ele>
        <time>2021-12-19T16:36:47Z</time>
      </trkpt>
      <trkpt lat="44.67877" lon="6.91091">
        <ele>2273.1</ele>
        <time>2021-12-19T16:36:48Z</time>
      </trkpt>
      <trkpt lat="44.67878" lon="6.9109">
        <ele>2272.9</ele>
        <time>2021-12-19T16:36:49Z</time>
      </trkpt>
      <trkpt lat="44.67879" lon="6.9109">
        <ele>2272.7</ele>
        <time>2021-12-19T16:37:34Z</time>
      </trkpt>
      <trkpt lat="44.6787" lon="6.9109">
        <ele>2274.9</ele>
        <time>2021-12-19T16:37:35Z</time>
      </trkpt>
      <trkpt lat="44.6787" lon="6.9109">
        <ele>2274.9</ele>
        <time>2021-12-19T16:37:36Z</time>
      </trkpt>
      <trkpt lat="44.6787" lon="6.91091">
        <ele>2274.8</ele>
        <time>2021-12-19T16:39:06Z</time>
      </trkpt>
      <trkpt lat="44.67874" lon="6.91103">
        <ele>2276.9</ele>
        <time>2021-12-19T16:39:07Z</time>
      </trkpt>
      <trkpt lat="44.67874" lon="6.91104">
        <ele>2276.9</ele>
        <time>2021-12-19T16:39:08Z</time>
      </trkpt>
      <trkpt lat="44.67874" lon="6.91106">
        <ele>2277</ele>
        <time>2021-12-19T16:39:28Z</time>
      </trkpt>
      <trkpt lat="44.67879" lon="6.91118">
        <ele>2277.5</ele>
        <time>2021-12-19T16:39:29Z</time>
      </trkpt>
      <trkpt lat="44.67879" lon="6.91118">
        <ele>2277.6</ele>
        <time>2021-12-19T16:39:30Z</time>
      </trkpt>
      <trkpt lat="44.67881" lon="6.9112">
        <ele>2277.8</ele>
        <time>2021-12-19T16:39:41Z</time>
      </trkpt>
      <trkpt lat="44.6788" lon="6.91119">
        <ele>2277.2</ele>
        <time>2021-12-19T16:39:42Z</time>
      </trkpt>
      <trkpt lat="44.67877" lon="6.9112">
        <ele>2276.2</ele>
        <time>2021-12-19T16:39:43Z</time>
      </trkpt>
      <trkpt lat="44.67876" lon="6.91119">
        <ele>2275.8</ele>
        <time>2021-12-19T16:39:44Z</time>
      </trkpt>
      <trkpt lat="44.67884" lon="6.91129">
        <ele>2273.9</ele>
        <time>2021-12-19T16:41:08Z</time>
      </trkpt>
      <trkpt lat="44.67879" lon="6.91126">
        <ele>2274.5</ele>
        <time>2021-12-19T16:42:18Z</time>
      </trkpt>
      <trkpt lat="44.67871" lon="6.91113">
        <ele>2274.9</ele>
        <time>2021-12-19T16:42:55Z</time>
      </trkpt>
      <trkpt lat="44.67871" lon="6.91112">
        <ele>2274.9</ele>
        <time>2021-12-19T16:44:15Z</time>
      </trkpt>
      <trkpt lat="44.67871" lon="6.911">
        <ele>2275.2</ele>
        <time>2021-12-19T16:44:16Z</time>
      </trkpt>
      <trkpt lat="44.67871" lon="6.91099">
        <ele>2275.2</ele>
        <time>2021-12-19T16:44:17Z</time>
      </trkpt>
      <trkpt lat="44.67871" lon="6.91099">
        <ele>2275.2</ele>
        <time>2021-12-19T16:44:47Z</time>
      </trkpt>
      <trkpt lat="44.67869" lon="6.91086">
        <ele>2274.9</ele>
        <time>2021-12-19T16:44:48Z</time>
      </trkpt>
      <trkpt lat="44.67869" lon="6.91085">
        <ele>2275</ele>
        <time>2021-12-19T16:44:49Z</time>
      </trkpt>
      <trkpt lat="44.67871" lon="6.91073">
        <ele>2274</ele>
        <time>2021-12-19T16:45:22Z</time>
      </trkpt>
      <trkpt lat="44.67874" lon="6.91069">
        <ele>2273.4</ele>
        <time>2021-12-19T16:45:24Z</time>
      </trkpt>
      <trkpt lat="44.67876" lon="6.91066">
        <ele>2273.4</ele>
        <time>2021-12-19T16:45:25Z</time>
      </trkpt>
      <trkpt lat="44.67881" lon="6.91063">
        <ele>2272.9</ele>
        <time>2021-12-19T16:45:27Z</time>
      </trkpt>
      <trkpt lat="44.67881" lon="6.91066">
        <ele>2272.4</ele>
        <time>2021-12-19T16:45:30Z</time>
      </trkpt>
      <trkpt lat="44.67879" lon="6.91067">
        <ele>2272.3</ele>
        <time>2021-12-19T16:45:31Z</time>
      </trkpt>
      <trkpt lat="44.67878" lon="6.91068">
        <ele>2272.1</ele>
        <time>2021-12-19T16:45:51Z</time>
      </trkpt>
      <trkpt lat="44.67876" lon="6.91082">
        <ele>2271.6</ele>
        <time>2021-12-19T16:45:52Z</time>
      </trkpt>
      <trkpt lat="44.67876" lon="6.91083">
        <ele>2271.6</ele>
        <time>2021-12-19T16:45:53Z</time>
      </trkpt>
      <trkpt lat="44.67878" lon="6.91099">
        <ele>2271.3</ele>
        <time>2021-12-19T16:46:00Z</time>
      </trkpt>
      <trkpt lat="44.67878" lon="6.91103">
        <ele>2271.1</ele>
        <time>2021-12-19T16:46:01Z</time>
      </trkpt>
      <trkpt lat="44.67878" lon="6.9111">
        <ele>2271.1</ele>
        <time>2021-12-19T16:46:02Z</time>
      </trkpt>
      <trkpt lat="44.6788" lon="6.91112">
        <ele>2271</ele>
        <time>2021-12-19T16:46:03Z</time>
      </trkpt>
      <trkpt lat="44.67882" lon="6.91116">
        <ele>2270.6</ele>
        <time>2021-12-19T16:46:04Z</time>
      </trkpt>
      <trkpt lat="44.67881" lon="6.91115">
        <ele>2270.4</ele>
        <time>2021-12-19T16:46:16Z</time>
      </trkpt>
      <trkpt lat="44.67877" lon="6.91103">
        <ele>2269.3</ele>
        <time>2021-12-19T16:46:17Z</time>
      </trkpt>
      <trkpt lat="44.67876" lon="6.91102">
        <ele>2269.3</ele>
        <time>2021-12-19T16:46:18Z</time>
      </trkpt>
      <trkpt lat="44.67875" lon="6.911">
        <ele>2269.4</ele>
        <time>2021-12-19T16:47:03Z</time>
      </trkpt>
      <trkpt lat="44.67873" lon="6.91099">
        <ele>2264.7</ele>
        <time>2021-12-19T16:47:04Z</time>
      </trkpt>
      <trkpt lat="44.67875" lon="6.91101">
        <ele>2260.8</ele>
        <time>2021-12-19T16:47:09Z</time>
      </trkpt>
      <trkpt lat="44.67874" lon="6.91102">
        <ele>2259.9</ele>
        <time>2021-12-19T16:47:10Z</time>
      </trkpt>
      <trkpt lat="44.67877" lon="6.91098">
        <ele>2258.8</ele>
        <time>2021-12-19T16:48:03Z</time>
      </trkpt>
      <trkpt lat="44.67883" lon="6.91103">
        <ele>2258.8</ele>
        <time>2021-12-19T16:48:04Z</time>
      </trkpt>
      <trkpt lat="44.67884" lon="6.91104">
        <ele>2258.5</ele>
        <time>2021-12-19T16:48:06Z</time>
      </trkpt>
      <trkpt lat="44.67882" lon="6.91102">
        <ele>2258.5</ele>
        <time>2021-12-19T16:48:07Z</time>
      </trkpt>
      <trkpt lat="44.67881" lon="6.91101">
        <ele>2258.4</ele>
        <time>2021-12-19T16:48:21Z</time>
      </trkpt>
      <trkpt lat="44.67875" lon="6.91089">
        <ele>2258</ele>
        <time>2021-12-19T16:48:22Z</time>
      </trkpt>
      <trkpt lat="44.67876" lon="6.91091">
        <ele>2258</ele>
        <time>2021-12-19T16:48:23Z</time>
      </trkpt>
      <trkpt lat="44.67869" lon="6.91081">
        <ele>2257.8</ele>
        <time>2021-12-19T16:48:58Z</time>
      </trkpt>
      <trkpt lat="44.67868" lon="6.91077">
        <ele>2257.7</ele>
        <time>2021-12-19T16:49:38Z</time>
      </trkpt>
      <trkpt lat="44.67861" lon="6.91068">
        <ele>2257.1</ele>
        <time>2021-12-19T16:49:39Z</time>
      </trkpt>
      <trkpt lat="44.6786" lon="6.91069">
        <ele>2257.3</ele>
        <time>2021-12-19T16:49:40Z</time>
      </trkpt>
      <trkpt lat="44.67859" lon="6.9107">
        <ele>2257.6</ele>
        <time>2021-12-19T16:50:18Z</time>
      </trkpt>
      <trkpt lat="44.67849" lon="6.91066">
        <ele>2258.3</ele>
        <time>2021-12-19T16:50:19Z</time>
      </trkpt>
      <trkpt lat="44.67849" lon="6.91066">
        <ele>2258.4</ele>
        <time>2021-12-19T16:50:20Z</time>
      </trkpt>
      <trkpt lat="44.67848" lon="6.91067">
        <ele>2258.5</ele>
        <time>2021-12-19T16:51:14Z</time>
      </trkpt>
      <trkpt lat="44.67842" lon="6.91077">
        <ele>2258.5</ele>
        <time>2021-12-19T16:51:15Z</time>
      </trkpt>
      <trkpt lat="44.67842" lon="6.91077">
        <ele>2258.4</ele>
        <time>2021-12-19T16:51:16Z</time>
      </trkpt>
      <trkpt lat="44.67842" lon="6.91077">
        <ele>2258.4</ele>
        <time>2021-12-19T16:52:03Z</time>
      </trkpt>
      <trkpt lat="44.67838" lon="6.91089">
        <ele>2256.8</ele>
        <time>2021-12-19T16:52:04Z</time>
      </trkpt>
      <trkpt lat="44.67838" lon="6.91089">
        <ele>2256.7</ele>
        <time>2021-12-19T16:52:05Z</time>
      </trkpt>
      <trkpt lat="44.67838" lon="6.9109">
        <ele>2256.6</ele>
        <time>2021-12-19T16:53:28Z</time>
      </trkpt>
      <trkpt lat="44.67829" lon="6.91095">
        <ele>2254.4</ele>
        <time>2021-12-19T16:53:29Z</time>
      </trkpt>
      <trkpt lat="44.67828" lon="6.91096">
        <ele>2254.4</ele>
        <time>2021-12-19T16:53:30Z</time>
      </trkpt>
      <trkpt lat="44.67822" lon="6.91107">
        <ele>2253.5</ele>
        <time>2021-12-19T16:54:36Z</time>
      </trkpt>
      <trkpt lat="44.67821" lon="6.91109">
        <ele>2253.6</ele>
        <time>2021-12-19T16:57:18Z</time>
      </trkpt>
      <trkpt lat="44.67824" lon="6.91104">
        <ele>2251.9</ele>
        <time>2021-12-19T16:57:19Z</time>
      </trkpt>
      <trkpt lat="44.67824" lon="6.91106">
        <ele>2252.1</ele>
        <time>2021-12-19T16:57:20Z</time>
      </trkpt>
      <trkpt lat="44.67825" lon="6.91109">
        <ele>2252.1</ele>
        <time>2021-12-19T16:57:21Z</time>
      </trkpt>
      <trkpt lat="44.67827" lon="6.9111">
        <ele>2252.5</ele>
        <time>2021-12-19T16:57:22Z</time>
      </trkpt>
      <trkpt lat="44.6783" lon="6.91112">
        <ele>2252.7</ele>
        <time>2021-12-19T16:57:23Z</time>
      </trkpt>
      <trkpt lat="44.67831" lon="6.91114">
        <ele>2253.3</ele>
        <time>2021-12-19T16:57:24Z</time>
      </trkpt>
      <trkpt lat="44.67837" lon="6.91115">
        <ele>2254.2</ele>
        <time>2021-12-19T16:57:26Z</time>
      </trkpt>
      <trkpt lat="44.67833" lon="6.91112">
        <ele>2258.9</ele>
        <time>2021-12-19T16:57:30Z</time>
      </trkpt>
      <trkpt lat="44.67833" lon="6.9111">
        <ele>2260.1</ele>
        <time>2021-12-19T16:57:31Z</time>
      </trkpt>
      <trkpt lat="44.67833" lon="6.91109">
        <ele>2260</ele>
        <time>2021-12-19T16:57:32Z</time>
      </trkpt>
      <trkpt lat="44.67832" lon="6.9111">
        <ele>2260.2</ele>
        <time>2021-12-19T16:58:41Z</time>
      </trkpt>
      <trkpt lat="44.67827" lon="6.91111">
        <ele>2254.3</ele>
        <time>2021-12-19T16:58:42Z</time>
      </trkpt>
      <trkpt lat="44.67826" lon="6.91111">
        <ele>2253.8</ele>
        <time>2021-12-19T16:58:43Z</time>
      </trkpt>
      <trkpt lat="44.67827" lon="6.9111">
        <ele>2253.4</ele>
        <time>2021-12-19T16:58:44Z</time>
      </trkpt>
      <trkpt lat="44.67828" lon="6.9111">
        <ele>2253.1</ele>
        <time>2021-12-19T16:58:54Z</time>
      </trkpt>
      <trkpt lat="44.6783" lon="6.91109">
        <ele>2252.8</ele>
        <time>2021-12-19T16:58:55Z</time>
      </trkpt>
      <trkpt lat="44.67832" lon="6.91109">
        <ele>2252.8</ele>
        <time>2021-12-19T16:58:56Z</time>
      </trkpt>
      <trkpt lat="44.67831" lon="6.91109">
        <ele>2252.8</ele>
        <time>2021-12-19T16:58:57Z</time>
      </trkpt>
      <trkpt lat="44.67832" lon="6.91108">
        <ele>2252.8</ele>
        <time>2021-12-19T16:59:02Z</time>
      </trkpt>
      <trkpt lat="44.67834" lon="6.91108">
        <ele>2252</ele>
        <time>2021-12-19T16:59:03Z</time>
      </trkpt>
      <trkpt lat="44.67833" lon="6.91106">
        <ele>2251.7</ele>
        <time>2021-12-19T16:59:04Z</time>
      </trkpt>
      <trkpt lat="44.67831" lon="6.91105">
        <ele>2251.4</ele>
        <time>2021-12-19T16:59:07Z</time>
      </trkpt>
      <trkpt lat="44.67829" lon="6.91104">
        <ele>2251.2</ele>
        <time>2021-12-19T16:59:08Z</time>
      </trkpt>
      <trkpt lat="44.67827" lon="6.91106">
        <ele>2250.8</ele>
        <time>2021-12-19T16:59:09Z</time>
      </trkpt>
      <trkpt lat="44.67828" lon="6.91108">
        <ele>2250</ele>
        <time>2021-12-19T16:59:10Z</time>
      </trkpt>
      <trkpt lat="44.67829" lon="6.91108">
        <ele>2249.6</ele>
        <time>2021-12-19T17:00:05Z</time>
      </trkpt>
      <trkpt lat="44.67829" lon="6.91111">
        <ele>2248.7</ele>
        <time>2021-12-19T17:00:06Z</time>
      </trkpt>
      <trkpt lat="44.67829" lon="6.91112">
        <ele>2248.6</ele>
        <time>2021-12-19T17:00:08Z</time>
      </trkpt>
      <trkpt lat="44.67831" lon="6.91111">
        <ele>2248.6</ele>
        <time>2021-12-19T17:00:09Z</time>
      </trkpt>
      <trkpt lat="44.67831" lon="6.91111">
        <ele>2248.6</ele>
        <time>2021-12-19T17:00:15Z</time>
      </trkpt>
      <trkpt lat="44.67834" lon="6.91113">
        <ele>2248.9</ele>
        <time>2021-12-19T17:00:16Z</time>
      </trkpt>
      <trkpt lat="44.67838" lon="6.91118">
        <ele>2249.3</ele>
        <time>2021-12-19T17:00:22Z</time>
      </trkpt>
      <trkpt lat="44.6784" lon="6.91125">
        <ele>2251.1</ele>
        <time>2021-12-19T17:00:28Z</time>
      </trkpt>
      <trkpt lat="44.67841" lon="6.91132">
        <ele>2251.9</ele>
        <time>2021-12-19T17:00:33Z</time>
      </trkpt>
      <trkpt lat="44.67843" lon="6.91138">
        <ele>2253.3</ele>
        <time>2021-12-19T17:00:37Z</time>
      </trkpt>
      <trkpt lat="44.67844" lon="6.91139">
        <ele>2253.6</ele>
        <time>2021-12-19T17:00:38Z</time>
      </trkpt>
      <trkpt lat="44.67844" lon="6.91141">
        <ele>2254.3</ele>
        <time>2021-12-19T17:00:42Z</time>
      </trkpt>
      <trkpt lat="44.67844" lon="6.91145">
        <ele>2255</ele>
        <time>2021-12-19T17:00:43Z</time>
      </trkpt>
      <trkpt lat="44.67846" lon="6.91152">
        <ele>2255.6</ele>
        <time>2021-12-19T17:00:47Z</time>
      </trkpt>
      <trkpt lat="44.67847" lon="6.91159">
        <ele>2256.1</ele>
        <time>2021-12-19T17:00:51Z</time>
      </trkpt>
      <trkpt lat="44.67847" lon="6.9116">
        <ele>2256.2</ele>
        <time>2021-12-19T17:00:52Z</time>
      </trkpt>
      <trkpt lat="44.67847" lon="6.91162">
        <ele>2256.7</ele>
        <time>2021-12-19T17:00:58Z</time>
      </trkpt>
      <trkpt lat="44.67846" lon="6.91169">
        <ele>2257.2</ele>
        <time>2021-12-19T17:00:59Z</time>
      </trkpt>
      <trkpt lat="44.67847" lon="6.91177">
        <ele>2257</ele>
        <time>2021-12-19T17:01:03Z</time>
      </trkpt>
      <trkpt lat="44.67848" lon="6.91184">
        <ele>2256.5</ele>
        <time>2021-12-19T17:01:07Z</time>
      </trkpt>
      <trkpt lat="44.67849" lon="6.9119">
        <ele>2255.3</ele>
        <time>2021-12-19T17:01:12Z</time>
      </trkpt>
      <trkpt lat="44.6785" lon="6.91198">
        <ele>2254.6</ele>
        <time>2021-12-19T17:01:17Z</time>
      </trkpt>
      <trkpt lat="44.67851" lon="6.91202">
        <ele>2253</ele>
        <time>2021-12-19T17:01:20Z</time>
      </trkpt>
      <trkpt lat="44.67851" lon="6.91203">
        <ele>2253</ele>
        <time>2021-12-19T17:01:21Z</time>
      </trkpt>
      <trkpt lat="44.67851" lon="6.91206">
        <ele>2253.1</ele>
        <time>2021-12-19T17:01:23Z</time>
      </trkpt>
      <trkpt lat="44.67852" lon="6.91207">
        <ele>2252.7</ele>
        <time>2021-12-19T17:01:24Z</time>
      </trkpt>
      <trkpt lat="44.67852" lon="6.91214">
        <ele>2251.8</ele>
        <time>2021-12-19T17:01:28Z</time>
      </trkpt>
      <trkpt lat="44.67853" lon="6.91217">
        <ele>2251.5</ele>
        <time>2021-12-19T17:01:30Z</time>
      </trkpt>
      <trkpt lat="44.67854" lon="6.91218">
        <ele>2251.4</ele>
        <time>2021-12-19T17:01:31Z</time>
      </trkpt>
      <trkpt lat="44.67854" lon="6.91219">
        <ele>2251.4</ele>
        <time>2021-12-19T17:01:32Z</time>
      </trkpt>
      <trkpt lat="44.67854" lon="6.9122">
        <ele>2251.3</ele>
        <time>2021-12-19T17:01:33Z</time>
      </trkpt>
      <trkpt lat="44.67853" lon="6.91227">
        <ele>2250.6</ele>
        <time>2021-12-19T17:01:38Z</time>
      </trkpt>
      <trkpt lat="44.67853" lon="6.91232">
        <ele>2250.3</ele>
        <time>2021-12-19T17:01:41Z</time>
      </trkpt>
      <trkpt lat="44.67853" lon="6.91233">
        <ele>2250.2</ele>
        <time>2021-12-19T17:01:42Z</time>
      </trkpt>
      <trkpt lat="44.67853" lon="6.91234">
        <ele>2250.2</ele>
        <time>2021-12-19T17:01:43Z</time>
      </trkpt>
      <trkpt lat="44.67853" lon="6.91235">
        <ele>2250.1</ele>
        <time>2021-12-19T17:01:44Z</time>
      </trkpt>
      <trkpt lat="44.67854" lon="6.9124">
        <ele>2250.1</ele>
        <time>2021-12-19T17:01:48Z</time>
      </trkpt>
      <trkpt lat="44.67854" lon="6.91241">
        <ele>2249.5</ele>
        <time>2021-12-19T17:01:49Z</time>
      </trkpt>
      <trkpt lat="44.67855" lon="6.91242">
        <ele>2249.4</ele>
        <time>2021-12-19T17:01:50Z</time>
      </trkpt>
      <trkpt lat="44.67855" lon="6.91243">
        <ele>2249.2</ele>
        <time>2021-12-19T17:01:51Z</time>
      </trkpt>
      <trkpt lat="44.67855" lon="6.91247">
        <ele>2248.7</ele>
        <time>2021-12-19T17:01:54Z</time>
      </trkpt>
      <trkpt lat="44.67855" lon="6.91249">
        <ele>2248.8</ele>
        <time>2021-12-19T17:01:55Z</time>
      </trkpt>
      <trkpt lat="44.67856" lon="6.91251">
        <ele>2248.6</ele>
        <time>2021-12-19T17:02:00Z</time>
      </trkpt>
      <trkpt lat="44.67857" lon="6.91257">
        <ele>2248.2</ele>
        <time>2021-12-19T17:02:01Z</time>
      </trkpt>
      <trkpt lat="44.67857" lon="6.91258">
        <ele>2248.2</ele>
        <time>2021-12-19T17:02:02Z</time>
      </trkpt>
      <trkpt lat="44.67857" lon="6.9126">
        <ele>2248.5</ele>
        <time>2021-12-19T17:02:03Z</time>
      </trkpt>
      <trkpt lat="44.67857" lon="6.91261">
        <ele>2248.5</ele>
        <time>2021-12-19T17:02:04Z</time>
      </trkpt>
      <trkpt lat="44.67858" lon="6.91263">
        <ele>2248.4</ele>
        <time>2021-12-19T17:02:05Z</time>
      </trkpt>
      <trkpt lat="44.67858" lon="6.91264">
        <ele>2248.4</ele>
        <time>2021-12-19T17:02:06Z</time>
      </trkpt>
      <trkpt lat="44.67858" lon="6.91265">
        <ele>2248.4</ele>
        <time>2021-12-19T17:02:07Z</time>
      </trkpt>
      <trkpt lat="44.67858" lon="6.91267">
        <ele>2248.4</ele>
        <time>2021-12-19T17:02:10Z</time>
      </trkpt>
      <trkpt lat="44.67859" lon="6.9127">
        <ele>2248.6</ele>
        <time>2021-12-19T17:02:11Z</time>
      </trkpt>
      <trkpt lat="44.67859" lon="6.91273">
        <ele>2249</ele>
        <time>2021-12-19T17:02:13Z</time>
      </trkpt>
      <trkpt lat="44.6786" lon="6.91274">
        <ele>2249</ele>
        <time>2021-12-19T17:02:14Z</time>
      </trkpt>
      <trkpt lat="44.6786" lon="6.91276">
        <ele>2249.4</ele>
        <time>2021-12-19T17:02:20Z</time>
      </trkpt>
      <trkpt lat="44.6786" lon="6.91282">
        <ele>2249.5</ele>
        <time>2021-12-19T17:02:21Z</time>
      </trkpt>
      <trkpt lat="44.67859" lon="6.91283">
        <ele>2249.9</ele>
        <time>2021-12-19T17:02:22Z</time>
      </trkpt>
      <trkpt lat="44.67859" lon="6.91285">
        <ele>2250</ele>
        <time>2021-12-19T17:02:29Z</time>
      </trkpt>
      <trkpt lat="44.67859" lon="6.91292">
        <ele>2249</ele>
        <time>2021-12-19T17:02:30Z</time>
      </trkpt>
      <trkpt lat="44.67857" lon="6.91296">
        <ele>2248.2</ele>
        <time>2021-12-19T17:02:32Z</time>
      </trkpt>
      <trkpt lat="44.67857" lon="6.91298">
        <ele>2247.8</ele>
        <time>2021-12-19T17:02:33Z</time>
      </trkpt>
      <trkpt lat="44.67857" lon="6.91301">
        <ele>2247.5</ele>
        <time>2021-12-19T17:02:37Z</time>
      </trkpt>
      <trkpt lat="44.67856" lon="6.91306">
        <ele>2247</ele>
        <time>2021-12-19T17:02:38Z</time>
      </trkpt>
      <trkpt lat="44.67855" lon="6.91312">
        <ele>2246.5</ele>
        <time>2021-12-19T17:02:41Z</time>
      </trkpt>
      <trkpt lat="44.67855" lon="6.91315">
        <ele>2246</ele>
        <time>2021-12-19T17:02:43Z</time>
      </trkpt>
      <trkpt lat="44.67855" lon="6.91316">
        <ele>2245.9</ele>
        <time>2021-12-19T17:02:44Z</time>
      </trkpt>
      <trkpt lat="44.67855" lon="6.91318">
        <ele>2245.5</ele>
        <time>2021-12-19T17:02:46Z</time>
      </trkpt>
      <trkpt lat="44.67855" lon="6.9132">
        <ele>2245.5</ele>
        <time>2021-12-19T17:02:47Z</time>
      </trkpt>
      <trkpt lat="44.67855" lon="6.91323">
        <ele>2245.2</ele>
        <time>2021-12-19T17:02:49Z</time>
      </trkpt>
      <trkpt lat="44.67856" lon="6.91324">
        <ele>2245</ele>
        <time>2021-12-19T17:02:50Z</time>
      </trkpt>
      <trkpt lat="44.67856" lon="6.91326">
        <ele>2244.8</ele>
        <time>2021-12-19T17:02:51Z</time>
      </trkpt>
      <trkpt lat="44.67856" lon="6.91327">
        <ele>2244.7</ele>
        <time>2021-12-19T17:02:52Z</time>
      </trkpt>
      <trkpt lat="44.67858" lon="6.91335">
        <ele>2244.1</ele>
        <time>2021-12-19T17:02:56Z</time>
      </trkpt>
      <trkpt lat="44.67858" lon="6.91342">
        <ele>2243.9</ele>
        <time>2021-12-19T17:03:00Z</time>
      </trkpt>
      <trkpt lat="44.67858" lon="6.91346">
        <ele>2243.9</ele>
        <time>2021-12-19T17:03:02Z</time>
      </trkpt>
      <trkpt lat="44.67858" lon="6.91347">
        <ele>2243.9</ele>
        <time>2021-12-19T17:03:03Z</time>
      </trkpt>
      <trkpt lat="44.67858" lon="6.91349">
        <ele>2243.3</ele>
        <time>2021-12-19T17:03:13Z</time>
      </trkpt>
      <trkpt lat="44.67854" lon="6.9136">
        <ele>2242</ele>
        <time>2021-12-19T17:03:14Z</time>
      </trkpt>
      <trkpt lat="44.6785" lon="6.91365">
        <ele>2243.7</ele>
        <time>2021-12-19T17:03:17Z</time>
      </trkpt>
      <trkpt lat="44.67847" lon="6.91371">
        <ele>2244.7</ele>
        <time>2021-12-19T17:03:21Z</time>
      </trkpt>
      <trkpt lat="44.67843" lon="6.91377">
        <ele>2245.3</ele>
        <time>2021-12-19T17:03:25Z</time>
      </trkpt>
      <trkpt lat="44.67838" lon="6.91382">
        <ele>2245.6</ele>
        <time>2021-12-19T17:03:29Z</time>
      </trkpt>
      <trkpt lat="44.67837" lon="6.91383">
        <ele>2245.7</ele>
        <time>2021-12-19T17:03:30Z</time>
      </trkpt>
      <trkpt lat="44.67837" lon="6.91384">
        <ele>2245.6</ele>
        <time>2021-12-19T17:03:31Z</time>
      </trkpt>
      <trkpt lat="44.67836" lon="6.91385">
        <ele>2245.8</ele>
        <time>2021-12-19T17:03:32Z</time>
      </trkpt>
      <trkpt lat="44.67835" lon="6.91386">
        <ele>2245.7</ele>
        <time>2021-12-19T17:03:33Z</time>
      </trkpt>
      <trkpt lat="44.67834" lon="6.91388">
        <ele>2245.6</ele>
        <time>2021-12-19T17:03:46Z</time>
      </trkpt>
      <trkpt lat="44.6783" lon="6.914">
        <ele>2244.4</ele>
        <time>2021-12-19T17:03:47Z</time>
      </trkpt>
      <trkpt lat="44.6783" lon="6.91401">
        <ele>2244.3</ele>
        <time>2021-12-19T17:03:48Z</time>
      </trkpt>
      <trkpt lat="44.67829" lon="6.91403">
        <ele>2244.1</ele>
        <time>2021-12-19T17:03:50Z</time>
      </trkpt>
      <trkpt lat="44.67828" lon="6.91405">
        <ele>2244</ele>
        <time>2021-12-19T17:03:51Z</time>
      </trkpt>
      <trkpt lat="44.67826" lon="6.91412">
        <ele>2244.2</ele>
        <time>2021-12-19T17:03:54Z</time>
      </trkpt>
      <trkpt lat="44.67826" lon="6.91413">
        <ele>2244.3</ele>
        <time>2021-12-19T17:03:55Z</time>
      </trkpt>
      <trkpt lat="44.67826" lon="6.91414">
        <ele>2244.2</ele>
        <time>2021-12-19T17:04:14Z</time>
      </trkpt>
      <trkpt lat="44.67833" lon="6.91422">
        <ele>2239.5</ele>
        <time>2021-12-19T17:04:15Z</time>
      </trkpt>
      <trkpt lat="44.67833" lon="6.91423">
        <ele>2239.4</ele>
        <time>2021-12-19T17:04:16Z</time>
      </trkpt>
      <trkpt lat="44.67834" lon="6.91426">
        <ele>2238.8</ele>
        <time>2021-12-19T17:04:27Z</time>
      </trkpt>
      <trkpt lat="44.67834" lon="6.91439">
        <ele>2236.4</ele>
        <time>2021-12-19T17:04:28Z</time>
      </trkpt>
      <trkpt lat="44.67834" lon="6.9144">
        <ele>2236.1</ele>
        <time>2021-12-19T17:04:29Z</time>
      </trkpt>
      <trkpt lat="44.67834" lon="6.91442">
        <ele>2235.8</ele>
        <time>2021-12-19T17:04:30Z</time>
      </trkpt>
      <trkpt lat="44.67832" lon="6.9145">
        <ele>2234.4</ele>
        <time>2021-12-19T17:04:34Z</time>
      </trkpt>
      <trkpt lat="44.67835" lon="6.91458">
        <ele>2233.6</ele>
        <time>2021-12-19T17:04:38Z</time>
      </trkpt>
      <trkpt lat="44.67837" lon="6.91465">
        <ele>2233.8</ele>
        <time>2021-12-19T17:04:42Z</time>
      </trkpt>
      <trkpt lat="44.6784" lon="6.91471">
        <ele>2233.8</ele>
        <time>2021-12-19T17:04:46Z</time>
      </trkpt>
      <trkpt lat="44.67844" lon="6.91477">
        <ele>2232.9</ele>
        <time>2021-12-19T17:04:50Z</time>
      </trkpt>
      <trkpt lat="44.67846" lon="6.91483">
        <ele>2233.3</ele>
        <time>2021-12-19T17:04:54Z</time>
      </trkpt>
      <trkpt lat="44.67846" lon="6.9149">
        <ele>2233.6</ele>
        <time>2021-12-19T17:04:58Z</time>
      </trkpt>
      <trkpt lat="44.67844" lon="6.91496">
        <ele>2235.2</ele>
        <time>2021-12-19T17:05:02Z</time>
      </trkpt>
      <trkpt lat="44.67842" lon="6.91503">
        <ele>2236.3</ele>
        <time>2021-12-19T17:05:05Z</time>
      </trkpt>
      <trkpt lat="44.67837" lon="6.91507">
        <ele>2237</ele>
        <time>2021-12-19T17:05:08Z</time>
      </trkpt>
      <trkpt lat="44.67833" lon="6.91511">
        <ele>2238.1</ele>
        <time>2021-12-19T17:05:12Z</time>
      </trkpt>
      <trkpt lat="44.67832" lon="6.91511">
        <ele>2238.3</ele>
        <time>2021-12-19T17:05:13Z</time>
      </trkpt>
      <trkpt lat="44.67831" lon="6.91512">
        <ele>2238.5</ele>
        <time>2021-12-19T17:05:14Z</time>
      </trkpt>
      <trkpt lat="44.6783" lon="6.91512">
        <ele>2238.5</ele>
        <time>2021-12-19T17:05:15Z</time>
      </trkpt>
      <trkpt lat="44.67829" lon="6.91512">
        <ele>2239.1</ele>
        <time>2021-12-19T17:05:16Z</time>
      </trkpt>
      <trkpt lat="44.67829" lon="6.91513">
        <ele>2239.5</ele>
        <time>2021-12-19T17:05:17Z</time>
      </trkpt>
      <trkpt lat="44.67828" lon="6.91513">
        <ele>2239.8</ele>
        <time>2021-12-19T17:05:36Z</time>
      </trkpt>
      <trkpt lat="44.6782" lon="6.91521">
        <ele>2235</ele>
        <time>2021-12-19T17:05:37Z</time>
      </trkpt>
      <trkpt lat="44.6782" lon="6.91522">
        <ele>2234.6</ele>
        <time>2021-12-19T17:05:38Z</time>
      </trkpt>
      <trkpt lat="44.67819" lon="6.91523">
        <ele>2233.7</ele>
        <time>2021-12-19T17:05:49Z</time>
      </trkpt>
      <trkpt lat="44.67815" lon="6.91535">
        <ele>2230.7</ele>
        <time>2021-12-19T17:05:50Z</time>
      </trkpt>
      <trkpt lat="44.67815" lon="6.91537">
        <ele>2230.4</ele>
        <time>2021-12-19T17:05:51Z</time>
      </trkpt>
      <trkpt lat="44.67814" lon="6.9154">
        <ele>2230</ele>
        <time>2021-12-19T17:06:01Z</time>
      </trkpt>
      <trkpt lat="44.67815" lon="6.91553">
        <ele>2227.7</ele>
        <time>2021-12-19T17:06:02Z</time>
      </trkpt>
      <trkpt lat="44.67815" lon="6.91554">
        <ele>2227.4</ele>
        <time>2021-12-19T17:06:03Z</time>
      </trkpt>
      <trkpt lat="44.67813" lon="6.91558">
        <ele>2227.3</ele>
        <time>2021-12-19T17:06:13Z</time>
      </trkpt>
      <trkpt lat="44.67809" lon="6.91569">
        <ele>2226.2</ele>
        <time>2021-12-19T17:06:14Z</time>
      </trkpt>
      <trkpt lat="44.67808" lon="6.9157">
        <ele>2226</ele>
        <time>2021-12-19T17:06:15Z</time>
      </trkpt>
      <trkpt lat="44.67809" lon="6.91573">
        <ele>2225.4</ele>
        <time>2021-12-19T17:06:26Z</time>
      </trkpt>
      <trkpt lat="44.67807" lon="6.91586">
        <ele>2224.3</ele>
        <time>2021-12-19T17:06:27Z</time>
      </trkpt>
      <trkpt lat="44.67807" lon="6.91588">
        <ele>2224</ele>
        <time>2021-12-19T17:06:28Z</time>
      </trkpt>
      <trkpt lat="44.67807" lon="6.91591">
        <ele>2223.8</ele>
        <time>2021-12-19T17:06:37Z</time>
      </trkpt>
      <trkpt lat="44.67809" lon="6.91603">
        <ele>2223.3</ele>
        <time>2021-12-19T17:06:38Z</time>
      </trkpt>
      <trkpt lat="44.67809" lon="6.91605">
        <ele>2223.2</ele>
        <time>2021-12-19T17:06:39Z</time>
      </trkpt>
      <trkpt lat="44.67809" lon="6.91608">
        <ele>2223.1</ele>
        <time>2021-12-19T17:06:50Z</time>
      </trkpt>
      <trkpt lat="44.67808" lon="6.91621">
        <ele>2222.4</ele>
        <time>2021-12-19T17:06:51Z</time>
      </trkpt>
      <trkpt lat="44.67808" lon="6.91623">
        <ele>2222.4</ele>
        <time>2021-12-19T17:06:52Z</time>
      </trkpt>
      <trkpt lat="44.67807" lon="6.91625">
        <ele>2222.2</ele>
        <time>2021-12-19T17:07:03Z</time>
      </trkpt>
      <trkpt lat="44.67805" lon="6.91637">
        <ele>2222.7</ele>
        <time>2021-12-19T17:07:04Z</time>
      </trkpt>
      <trkpt lat="44.67805" lon="6.91639">
        <ele>2222.7</ele>
        <time>2021-12-19T17:07:05Z</time>
      </trkpt>
      <trkpt lat="44.67805" lon="6.91641">
        <ele>2223</ele>
        <time>2021-12-19T17:07:17Z</time>
      </trkpt>
      <trkpt lat="44.67801" lon="6.91653">
        <ele>2224.5</ele>
        <time>2021-12-19T17:07:18Z</time>
      </trkpt>
      <trkpt lat="44.67801" lon="6.91654">
        <ele>2224.6</ele>
        <time>2021-12-19T17:07:19Z</time>
      </trkpt>
      <trkpt lat="44.678" lon="6.91656">
        <ele>2224.8</ele>
        <time>2021-12-19T17:07:25Z</time>
      </trkpt>
      <trkpt lat="44.67795" lon="6.91662">
        <ele>2226.9</ele>
        <time>2021-12-19T17:07:26Z</time>
      </trkpt>
      <trkpt lat="44.67793" lon="6.91669">
        <ele>2229.9</ele>
        <time>2021-12-19T17:07:29Z</time>
      </trkpt>
      <trkpt lat="44.67789" lon="6.91674">
        <ele>2236.1</ele>
        <time>2021-12-19T17:07:32Z</time>
      </trkpt>
      <trkpt lat="44.67786" lon="6.91678">
        <ele>2243.1</ele>
        <time>2021-12-19T17:07:35Z</time>
      </trkpt>
      <trkpt lat="44.67781" lon="6.91685">
        <ele>2252.5</ele>
        <time>2021-12-19T17:07:39Z</time>
      </trkpt>
      <trkpt lat="44.67776" lon="6.91692">
        <ele>2256.6</ele>
        <time>2021-12-19T17:07:42Z</time>
      </trkpt>
      <trkpt lat="44.67773" lon="6.91697">
        <ele>2262.4</ele>
        <time>2021-12-19T17:07:46Z</time>
      </trkpt>
      <trkpt lat="44.67773" lon="6.91697">
        <ele>2263.8</ele>
        <time>2021-12-19T17:07:47Z</time>
      </trkpt>
      <trkpt lat="44.67772" lon="6.91698">
        <ele>2264.6</ele>
        <time>2021-12-19T17:07:48Z</time>
      </trkpt>
      <trkpt lat="44.67771" lon="6.91699">
        <ele>2266</ele>
        <time>2021-12-19T17:07:49Z</time>
      </trkpt>
      <trkpt lat="44.6777" lon="6.91699">
        <ele>2267.1</ele>
        <time>2021-12-19T17:07:50Z</time>
      </trkpt>
      <trkpt lat="44.6777" lon="6.91699">
        <ele>2268.8</ele>
        <time>2021-12-19T17:07:59Z</time>
      </trkpt>
      <trkpt lat="44.67767" lon="6.91697">
        <ele>2270.7</ele>
        <time>2021-12-19T17:08:00Z</time>
      </trkpt>
      <trkpt lat="44.67763" lon="6.91702">
        <ele>2272.8</ele>
        <time>2021-12-19T17:08:04Z</time>
      </trkpt>
      <trkpt lat="44.6776" lon="6.91707">
        <ele>2277.6</ele>
        <time>2021-12-19T17:08:09Z</time>
      </trkpt>
      <trkpt lat="44.67756" lon="6.91711">
        <ele>2280.2</ele>
        <time>2021-12-19T17:08:15Z</time>
      </trkpt>
      <trkpt lat="44.67753" lon="6.91715">
        <ele>2282.3</ele>
        <time>2021-12-19T17:08:20Z</time>
      </trkpt>
      <trkpt lat="44.67752" lon="6.91715">
        <ele>2282.5</ele>
        <time>2021-12-19T17:08:21Z</time>
      </trkpt>
      <trkpt lat="44.67752" lon="6.91716">
        <ele>2282.5</ele>
        <time>2021-12-19T17:08:22Z</time>
      </trkpt>
      <trkpt lat="44.67751" lon="6.91717">
        <ele>2283.6</ele>
        <time>2021-12-19T17:08:43Z</time>
      </trkpt>
      <trkpt lat="44.67751" lon="6.91725">
        <ele>2280.2</ele>
        <time>2021-12-19T17:08:44Z</time>
      </trkpt>
      <trkpt lat="44.67747" lon="6.9173">
        <ele>2279.3</ele>
        <time>2021-12-19T17:08:47Z</time>
      </trkpt>
      <trkpt lat="44.67744" lon="6.91733">
        <ele>2278.6</ele>
        <time>2021-12-19T17:08:50Z</time>
      </trkpt>
      <trkpt lat="44.67743" lon="6.91734">
        <ele>2278.4</ele>
        <time>2021-12-19T17:08:51Z</time>
      </trkpt>
      <trkpt lat="44.67748" lon="6.91739">
        <ele>2276.7</ele>
        <time>2021-12-19T17:09:41Z</time>
      </trkpt>
      <trkpt lat="44.67745" lon="6.91744">
        <ele>2275.7</ele>
        <time>2021-12-19T17:09:45Z</time>
      </trkpt>
      <trkpt lat="44.67745" lon="6.91757">
        <ele>2273.6</ele>
        <time>2021-12-19T17:10:03Z</time>
      </trkpt>
      <trkpt lat="44.67743" lon="6.91773">
        <ele>2271.1</ele>
        <time>2021-12-19T17:10:26Z</time>
      </trkpt>
      <trkpt lat="44.67742" lon="6.91789">
        <ele>2267.1</ele>
        <time>2021-12-19T17:10:45Z</time>
      </trkpt>
      <trkpt lat="44.67742" lon="6.91804">
        <ele>2261.4</ele>
        <time>2021-12-19T17:11:02Z</time>
      </trkpt>
      <trkpt lat="44.67733" lon="6.91818">
        <ele>2259.7</ele>
        <time>2021-12-19T17:11:13Z</time>
      </trkpt>
      <trkpt lat="44.67731" lon="6.91832">
        <ele>2253</ele>
        <time>2021-12-19T17:11:33Z</time>
      </trkpt>
      <trkpt lat="44.67723" lon="6.91846">
        <ele>2249.2</ele>
        <time>2021-12-19T17:11:44Z</time>
      </trkpt>
      <trkpt lat="44.67722" lon="6.91864">
        <ele>2241.9</ele>
        <time>2021-12-19T17:12:07Z</time>
      </trkpt>
      <trkpt lat="44.67729" lon="6.91876">
        <ele>2232</ele>
        <time>2021-12-19T17:12:25Z</time>
      </trkpt>
      <trkpt lat="44.67729" lon="6.91892">
        <ele>2220.5</ele>
        <time>2021-12-19T17:12:43Z</time>
      </trkpt>
      <trkpt lat="44.67728" lon="6.91906">
        <ele>2208.7</ele>
        <time>2021-12-19T17:12:59Z</time>
      </trkpt>
      <trkpt lat="44.67723" lon="6.91911">
        <ele>2202.5</ele>
        <time>2021-12-19T17:13:06Z</time>
      </trkpt>
      <trkpt lat="44.67722" lon="6.91912">
        <ele>2202.4</ele>
        <time>2021-12-19T17:13:07Z</time>
      </trkpt>
      <trkpt lat="44.67721" lon="6.91914">
        <ele>2202.3</ele>
        <time>2021-12-19T17:13:08Z</time>
      </trkpt>
      <trkpt lat="44.67721" lon="6.91915">
        <ele>2203</ele>
        <time>2021-12-19T17:13:09Z</time>
      </trkpt>
      <trkpt lat="44.67719" lon="6.91918">
        <ele>2203.1</ele>
        <time>2021-12-19T17:13:10Z</time>
      </trkpt>
      <trkpt lat="44.67717" lon="6.9192">
        <ele>2203.5</ele>
        <time>2021-12-19T17:13:11Z</time>
      </trkpt>
      <trkpt lat="44.67709" lon="6.9193">
        <ele>2201.5</ele>
        <time>2021-12-19T17:13:23Z</time>
      </trkpt>
      <trkpt lat="44.67704" lon="6.91935">
        <ele>2202.5</ele>
        <time>2021-12-19T17:13:26Z</time>
      </trkpt>
      <trkpt lat="44.67696" lon="6.91941">
        <ele>2204.3</ele>
        <time>2021-12-19T17:13:31Z</time>
      </trkpt>
      <trkpt lat="44.67693" lon="6.91945">
        <ele>2205.4</ele>
        <time>2021-12-19T17:13:33Z</time>
      </trkpt>
      <trkpt lat="44.67687" lon="6.91957">
        <ele>2209.6</ele>
        <time>2021-12-19T17:13:43Z</time>
      </trkpt>
      <trkpt lat="44.6768" lon="6.91963">
        <ele>2212.6</ele>
        <time>2021-12-19T17:13:48Z</time>
      </trkpt>
      <trkpt lat="44.67681" lon="6.91965">
        <ele>2213</ele>
        <time>2021-12-19T17:13:49Z</time>
      </trkpt>
      <trkpt lat="44.67682" lon="6.91968">
        <ele>2214.1</ele>
        <time>2021-12-19T17:13:50Z</time>
      </trkpt>
      <trkpt lat="44.67683" lon="6.91969">
        <ele>2214.7</ele>
        <time>2021-12-19T17:13:51Z</time>
      </trkpt>
      <trkpt lat="44.67685" lon="6.91971">
        <ele>2214.9</ele>
        <time>2021-12-19T17:13:52Z</time>
      </trkpt>
      <trkpt lat="44.67684" lon="6.9197">
        <ele>2216.4</ele>
        <time>2021-12-19T17:13:53Z</time>
      </trkpt>
      <trkpt lat="44.67683" lon="6.91968">
        <ele>2217.1</ele>
        <time>2021-12-19T17:13:59Z</time>
      </trkpt>
      <trkpt lat="44.67682" lon="6.91967">
        <ele>2217.3</ele>
        <time>2021-12-19T17:14:00Z</time>
      </trkpt>
      <trkpt lat="44.67674" lon="6.91973">
        <ele>2226.2</ele>
        <time>2021-12-19T17:14:23Z</time>
      </trkpt>
      <trkpt lat="44.67662" lon="6.91975">
        <ele>2234.8</ele>
        <time>2021-12-19T17:14:34Z</time>
      </trkpt>
      <trkpt lat="44.67648" lon="6.91971">
        <ele>2238.9</ele>
        <time>2021-12-19T17:14:44Z</time>
      </trkpt>
      <trkpt lat="44.67644" lon="6.91971">
        <ele>2240.1</ele>
        <time>2021-12-19T17:14:46Z</time>
      </trkpt>
      <trkpt lat="44.67639" lon="6.91971">
        <ele>2241.2</ele>
        <time>2021-12-19T17:14:48Z</time>
      </trkpt>
      <trkpt lat="44.67626" lon="6.91975">
        <ele>2246</ele>
        <time>2021-12-19T17:15:06Z</time>
      </trkpt>
      <trkpt lat="44.67616" lon="6.91983">
        <ele>2252.8</ele>
        <time>2021-12-19T17:15:25Z</time>
      </trkpt>
      <trkpt lat="44.67614" lon="6.91984">
        <ele>2253.9</ele>
        <time>2021-12-19T17:15:44Z</time>
      </trkpt>
      <trkpt lat="44.67607" lon="6.91994">
        <ele>2258.9</ele>
        <time>2021-12-19T17:15:45Z</time>
      </trkpt>
      <trkpt lat="44.67607" lon="6.91995">
        <ele>2258.9</ele>
        <time>2021-12-19T17:15:46Z</time>
      </trkpt>
      <trkpt lat="44.67603" lon="6.92007">
        <ele>2271.7</ele>
        <time>2021-12-19T17:16:10Z</time>
      </trkpt>
      <trkpt lat="44.67604" lon="6.9201">
        <ele>2273.7</ele>
        <time>2021-12-19T17:16:31Z</time>
      </trkpt>
      <trkpt lat="44.67613" lon="6.92014">
        <ele>2280.1</ele>
        <time>2021-12-19T17:16:32Z</time>
      </trkpt>
      <trkpt lat="44.67614" lon="6.92014">
        <ele>2280.6</ele>
        <time>2021-12-19T17:16:33Z</time>
      </trkpt>
      <trkpt lat="44.67615" lon="6.92014">
        <ele>2281.2</ele>
        <time>2021-12-19T17:16:44Z</time>
      </trkpt>
      <trkpt lat="44.67624" lon="6.92013">
        <ele>2284.1</ele>
        <time>2021-12-19T17:16:45Z</time>
      </trkpt>
      <trkpt lat="44.67625" lon="6.92013">
        <ele>2284.4</ele>
        <time>2021-12-19T17:16:46Z</time>
      </trkpt>
      <trkpt lat="44.67627" lon="6.92013">
        <ele>2285.4</ele>
        <time>2021-12-19T17:16:47Z</time>
      </trkpt>
      <trkpt lat="44.67628" lon="6.92012">
        <ele>2286.3</ele>
        <time>2021-12-19T17:16:48Z</time>
      </trkpt>
      <trkpt lat="44.6763" lon="6.92011">
        <ele>2286.6</ele>
        <time>2021-12-19T17:16:59Z</time>
      </trkpt>
      <trkpt lat="44.67639" lon="6.9201">
        <ele>2287.9</ele>
        <time>2021-12-19T17:17:00Z</time>
      </trkpt>
      <trkpt lat="44.6764" lon="6.9201">
        <ele>2287.9</ele>
        <time>2021-12-19T17:17:01Z</time>
      </trkpt>
      <trkpt lat="44.67647" lon="6.9202">
        <ele>2288.7</ele>
        <time>2021-12-19T17:17:20Z</time>
      </trkpt>
      <trkpt lat="44.67648" lon="6.92037">
        <ele>2289.1</ele>
        <time>2021-12-19T17:17:48Z</time>
      </trkpt>
      <trkpt lat="44.67645" lon="6.9205">
        <ele>2289.2</ele>
        <time>2021-12-19T17:18:18Z</time>
      </trkpt>
      <trkpt lat="44.6764" lon="6.92056">
        <ele>2289.1</ele>
        <time>2021-12-19T17:18:35Z</time>
      </trkpt>
      <trkpt lat="44.6763" lon="6.92064">
        <ele>2288.9</ele>
        <time>2021-12-19T17:19:02Z</time>
      </trkpt>
      <trkpt lat="44.67627" lon="6.92064">
        <ele>2289.2</ele>
        <time>2021-12-19T17:20:02Z</time>
      </trkpt>
      <trkpt lat="44.67618" lon="6.92069">
        <ele>2292.8</ele>
        <time>2021-12-19T17:20:03Z</time>
      </trkpt>
      <trkpt lat="44.67618" lon="6.92069">
        <ele>2292.9</ele>
        <time>2021-12-19T17:20:04Z</time>
      </trkpt>
      <trkpt lat="44.67618" lon="6.9207">
        <ele>2293.3</ele>
        <time>2021-12-19T17:20:41Z</time>
      </trkpt>
      <trkpt lat="44.67608" lon="6.92068">
        <ele>2299.2</ele>
        <time>2021-12-19T17:20:42Z</time>
      </trkpt>
      <trkpt lat="44.67608" lon="6.92067">
        <ele>2299.4</ele>
        <time>2021-12-19T17:20:43Z</time>
      </trkpt>
      <trkpt lat="44.67606" lon="6.92066">
        <ele>2300</ele>
        <time>2021-12-19T17:21:01Z</time>
      </trkpt>
      <trkpt lat="44.67597" lon="6.92062">
        <ele>2303</ele>
        <time>2021-12-19T17:21:02Z</time>
      </trkpt>
      <trkpt lat="44.67596" lon="6.92062">
        <ele>2303.2</ele>
        <time>2021-12-19T17:21:03Z</time>
      </trkpt>
      <trkpt lat="44.67595" lon="6.92061">
        <ele>2303.5</ele>
        <time>2021-12-19T17:21:19Z</time>
      </trkpt>
      <trkpt lat="44.67586" lon="6.92063">
        <ele>2306.4</ele>
        <time>2021-12-19T17:21:20Z</time>
      </trkpt>
      <trkpt lat="44.67585" lon="6.92063">
        <ele>2306.6</ele>
        <time>2021-12-19T17:21:21Z</time>
      </trkpt>
      <trkpt lat="44.67584" lon="6.92063">
        <ele>2307</ele>
        <time>2021-12-19T17:21:39Z</time>
      </trkpt>
      <trkpt lat="44.67576" lon="6.9207">
        <ele>2309</ele>
        <time>2021-12-19T17:21:40Z</time>
      </trkpt>
      <trkpt lat="44.67576" lon="6.92071">
        <ele>2309.2</ele>
        <time>2021-12-19T17:21:41Z</time>
      </trkpt>
      <trkpt lat="44.67575" lon="6.92072">
        <ele>2309.5</ele>
        <time>2021-12-19T17:21:57Z</time>
      </trkpt>
      <trkpt lat="44.67573" lon="6.92085">
        <ele>2312.2</ele>
        <time>2021-12-19T17:21:58Z</time>
      </trkpt>
      <trkpt lat="44.67573" lon="6.92086">
        <ele>2312.4</ele>
        <time>2021-12-19T17:21:59Z</time>
      </trkpt>
      <trkpt lat="44.67573" lon="6.92087">
        <ele>2312.8</ele>
        <time>2021-12-19T17:22:12Z</time>
      </trkpt>
      <trkpt lat="44.67569" lon="6.921">
        <ele>2315.7</ele>
        <time>2021-12-19T17:22:13Z</time>
      </trkpt>
      <trkpt lat="44.67569" lon="6.92101">
        <ele>2315.9</ele>
        <time>2021-12-19T17:22:14Z</time>
      </trkpt>
      <trkpt lat="44.67568" lon="6.92103">
        <ele>2316.2</ele>
        <time>2021-12-19T17:22:28Z</time>
      </trkpt>
      <trkpt lat="44.67567" lon="6.92111">
        <ele>2319.3</ele>
        <time>2021-12-19T17:22:29Z</time>
      </trkpt>
      <trkpt lat="44.67567" lon="6.92114">
        <ele>2321</ele>
        <time>2021-12-19T17:22:31Z</time>
      </trkpt>
      <trkpt lat="44.67567" lon="6.92115">
        <ele>2321.1</ele>
        <time>2021-12-19T17:22:32Z</time>
      </trkpt>
      <trkpt lat="44.67566" lon="6.92117">
        <ele>2321.6</ele>
        <time>2021-12-19T17:22:34Z</time>
      </trkpt>
      <trkpt lat="44.67566" lon="6.92119">
        <ele>2322.1</ele>
        <time>2021-12-19T17:22:35Z</time>
      </trkpt>
      <trkpt lat="44.67565" lon="6.92123">
        <ele>2325.9</ele>
        <time>2021-12-19T17:22:39Z</time>
      </trkpt>
      <trkpt lat="44.67565" lon="6.92124">
        <ele>2326.1</ele>
        <time>2021-12-19T17:22:40Z</time>
      </trkpt>
      <trkpt lat="44.67564" lon="6.92125">
        <ele>2326.2</ele>
        <time>2021-12-19T17:22:41Z</time>
      </trkpt>
      <trkpt lat="44.67563" lon="6.92126">
        <ele>2326.6</ele>
        <time>2021-12-19T17:22:42Z</time>
      </trkpt>
      <trkpt lat="44.67561" lon="6.92133">
        <ele>2330.3</ele>
        <time>2021-12-19T17:22:48Z</time>
      </trkpt>
      <trkpt lat="44.67559" lon="6.92135">
        <ele>2331.3</ele>
        <time>2021-12-19T17:22:50Z</time>
      </trkpt>
      <trkpt lat="44.67559" lon="6.92136">
        <ele>2331.8</ele>
        <time>2021-12-19T17:22:51Z</time>
      </trkpt>
      <trkpt lat="44.67559" lon="6.92138">
        <ele>2332</ele>
        <time>2021-12-19T17:22:52Z</time>
      </trkpt>
      <trkpt lat="44.67558" lon="6.92138">
        <ele>2332.7</ele>
        <time>2021-12-19T17:22:53Z</time>
      </trkpt>
      <trkpt lat="44.67555" lon="6.92143">
        <ele>2336.7</ele>
        <time>2021-12-19T17:22:59Z</time>
      </trkpt>
      <trkpt lat="44.67554" lon="6.92146">
        <ele>2338.3</ele>
        <time>2021-12-19T17:23:01Z</time>
      </trkpt>
      <trkpt lat="44.67553" lon="6.92147">
        <ele>2338.7</ele>
        <time>2021-12-19T17:23:02Z</time>
      </trkpt>
      <trkpt lat="44.67553" lon="6.92149">
        <ele>2339.1</ele>
        <time>2021-12-19T17:23:05Z</time>
      </trkpt>
      <trkpt lat="44.67553" lon="6.92152">
        <ele>2339.4</ele>
        <time>2021-12-19T17:23:06Z</time>
      </trkpt>
      <trkpt lat="44.67551" lon="6.92159">
        <ele>2340.3</ele>
        <time>2021-12-19T17:23:10Z</time>
      </trkpt>
      <trkpt lat="44.67548" lon="6.92166">
        <ele>2341.8</ele>
        <time>2021-12-19T17:23:14Z</time>
      </trkpt>
      <trkpt lat="44.67547" lon="6.92173">
        <ele>2343.4</ele>
        <time>2021-12-19T17:23:18Z</time>
      </trkpt>
      <trkpt lat="44.67547" lon="6.9218">
        <ele>2344.2</ele>
        <time>2021-12-19T17:23:23Z</time>
      </trkpt>
      <trkpt lat="44.67546" lon="6.92188">
        <ele>2344.6</ele>
        <time>2021-12-19T17:23:27Z</time>
      </trkpt>
      <trkpt lat="44.67546" lon="6.92195">
        <ele>2344.7</ele>
        <time>2021-12-19T17:23:31Z</time>
      </trkpt>
      <trkpt lat="44.67545" lon="6.92201">
        <ele>2345.1</ele>
        <time>2021-12-19T17:23:35Z</time>
      </trkpt>
      <trkpt lat="44.67542" lon="6.92207">
        <ele>2345.2</ele>
        <time>2021-12-19T17:23:39Z</time>
      </trkpt>
      <trkpt lat="44.6754" lon="6.92214">
        <ele>2345.2</ele>
        <time>2021-12-19T17:23:43Z</time>
      </trkpt>
      <trkpt lat="44.67536" lon="6.92218">
        <ele>2345.8</ele>
        <time>2021-12-19T17:23:47Z</time>
      </trkpt>
      <trkpt lat="44.67531" lon="6.92222">
        <ele>2345.5</ele>
        <time>2021-12-19T17:23:51Z</time>
      </trkpt>
      <trkpt lat="44.6753" lon="6.92223">
        <ele>2345.3</ele>
        <time>2021-12-19T17:23:52Z</time>
      </trkpt>
      <trkpt lat="44.67529" lon="6.92225">
        <ele>2345.5</ele>
        <time>2021-12-19T17:23:54Z</time>
      </trkpt>
      <trkpt lat="44.67528" lon="6.92225">
        <ele>2345.2</ele>
        <time>2021-12-19T17:23:55Z</time>
      </trkpt>
      <trkpt lat="44.67527" lon="6.92227">
        <ele>2345.1</ele>
        <time>2021-12-19T17:23:56Z</time>
      </trkpt>
      <trkpt lat="44.67525" lon="6.92228">
        <ele>2344.9</ele>
        <time>2021-12-19T17:24:06Z</time>
      </trkpt>
      <trkpt lat="44.6752" lon="6.92231">
        <ele>2343.1</ele>
        <time>2021-12-19T17:24:07Z</time>
      </trkpt>
      <trkpt lat="44.67514" lon="6.92232">
        <ele>2341.7</ele>
        <time>2021-12-19T17:24:11Z</time>
      </trkpt>
      <trkpt lat="44.6751" lon="6.92235">
        <ele>2341.1</ele>
        <time>2021-12-19T17:24:15Z</time>
      </trkpt>
      <trkpt lat="44.67505" lon="6.92238">
        <ele>2340.8</ele>
        <time>2021-12-19T17:24:18Z</time>
      </trkpt>
      <trkpt lat="44.675" lon="6.92241">
        <ele>2340.4</ele>
        <time>2021-12-19T17:24:20Z</time>
      </trkpt>
      <trkpt lat="44.67496" lon="6.92242">
        <ele>2340.2</ele>
        <time>2021-12-19T17:24:23Z</time>
      </trkpt>
      <trkpt lat="44.67495" lon="6.92241">
        <ele>2340</ele>
        <time>2021-12-19T17:24:24Z</time>
      </trkpt>
      <trkpt lat="44.67493" lon="6.92241">
        <ele>2339.9</ele>
        <time>2021-12-19T17:24:26Z</time>
      </trkpt>
      <trkpt lat="44.67492" lon="6.9224">
        <ele>2339.8</ele>
        <time>2021-12-19T17:24:27Z</time>
      </trkpt>
      <trkpt lat="44.6749" lon="6.9224">
        <ele>2339.7</ele>
        <time>2021-12-19T17:24:28Z</time>
      </trkpt>
      <trkpt lat="44.67489" lon="6.92239">
        <ele>2339.7</ele>
        <time>2021-12-19T17:24:43Z</time>
      </trkpt>
      <trkpt lat="44.67485" lon="6.92227">
        <ele>2339.5</ele>
        <time>2021-12-19T17:24:44Z</time>
      </trkpt>
      <trkpt lat="44.67485" lon="6.92225">
        <ele>2339.6</ele>
        <time>2021-12-19T17:24:45Z</time>
      </trkpt>
      <trkpt lat="44.67485" lon="6.92224">
        <ele>2339.7</ele>
        <time>2021-12-19T17:25:47Z</time>
      </trkpt>
      <trkpt lat="44.67484" lon="6.92211">
        <ele>2341.2</ele>
        <time>2021-12-19T17:25:48Z</time>
      </trkpt>
      <trkpt lat="44.67483" lon="6.9221">
        <ele>2341.3</ele>
        <time>2021-12-19T17:25:49Z</time>
      </trkpt>
      <trkpt lat="44.67479" lon="6.92196">
        <ele>2342.4</ele>
        <time>2021-12-19T17:26:05Z</time>
      </trkpt>
      <trkpt lat="44.67474" lon="6.92188">
        <ele>2342.9</ele>
        <time>2021-12-19T17:26:16Z</time>
      </trkpt>
      <trkpt lat="44.67475" lon="6.92193">
        <ele>2342.3</ele>
        <time>2021-12-19T17:26:20Z</time>
      </trkpt>
      <trkpt lat="44.67477" lon="6.92195">
        <ele>2342</ele>
        <time>2021-12-19T17:26:21Z</time>
      </trkpt>
      <trkpt lat="44.67477" lon="6.92201">
        <ele>2338.8</ele>
        <time>2021-12-19T17:26:26Z</time>
      </trkpt>
      <trkpt lat="44.67477" lon="6.92202">
        <ele>2338.2</ele>
        <time>2021-12-19T17:26:27Z</time>
      </trkpt>
      <trkpt lat="44.67476" lon="6.922">
        <ele>2338.3</ele>
        <time>2021-12-19T17:26:28Z</time>
      </trkpt>
      <trkpt lat="44.67472" lon="6.92185">
        <ele>2335.8</ele>
        <time>2021-12-19T17:26:38Z</time>
      </trkpt>
      <trkpt lat="44.67468" lon="6.92181">
        <ele>2335.9</ele>
        <time>2021-12-19T17:26:41Z</time>
      </trkpt>
      <trkpt lat="44.67465" lon="6.92179">
        <ele>2336</ele>
        <time>2021-12-19T17:26:43Z</time>
      </trkpt>
      <trkpt lat="44.67463" lon="6.92178">
        <ele>2335.9</ele>
        <time>2021-12-19T17:26:44Z</time>
      </trkpt>
      <trkpt lat="44.67459" lon="6.92174">
        <ele>2336.6</ele>
        <time>2021-12-19T17:26:47Z</time>
      </trkpt>
      <trkpt lat="44.67456" lon="6.92172">
        <ele>2337.4</ele>
        <time>2021-12-19T17:26:50Z</time>
      </trkpt>
      <trkpt lat="44.67455" lon="6.92171">
        <ele>2337.7</ele>
        <time>2021-12-19T17:26:51Z</time>
      </trkpt>
      <trkpt lat="44.67453" lon="6.9217">
        <ele>2338</ele>
        <time>2021-12-19T17:26:58Z</time>
      </trkpt>
      <trkpt lat="44.67449" lon="6.92168">
        <ele>2338.9</ele>
        <time>2021-12-19T17:26:59Z</time>
      </trkpt>
      <trkpt lat="44.67448" lon="6.92167">
        <ele>2339.1</ele>
        <time>2021-12-19T17:27:00Z</time>
      </trkpt>
      <trkpt lat="44.67447" lon="6.92165">
        <ele>2339.3</ele>
        <time>2021-12-19T17:27:25Z</time>
      </trkpt>
      <trkpt lat="44.6744" lon="6.92158">
        <ele>2341.1</ele>
        <time>2021-12-19T17:27:26Z</time>
      </trkpt>
      <trkpt lat="44.67439" lon="6.92157">
        <ele>2341.1</ele>
        <time>2021-12-19T17:27:27Z</time>
      </trkpt>
      <trkpt lat="44.6743" lon="6.92152">
        <ele>2343</ele>
        <time>2021-12-19T17:27:41Z</time>
      </trkpt>
      <trkpt lat="44.67419" lon="6.92149">
        <ele>2345.3</ele>
        <time>2021-12-19T17:27:58Z</time>
      </trkpt>
      <trkpt lat="44.67407" lon="6.92149">
        <ele>2346.1</ele>
        <time>2021-12-19T17:28:14Z</time>
      </trkpt>
      <trkpt lat="44.67405" lon="6.92149">
        <ele>2346.3</ele>
        <time>2021-12-19T17:28:23Z</time>
      </trkpt>
      <trkpt lat="44.67402" lon="6.92147">
        <ele>2345.7</ele>
        <time>2021-12-19T17:28:24Z</time>
      </trkpt>
      <trkpt lat="44.67401" lon="6.92148">
        <ele>2346.1</ele>
        <time>2021-12-19T17:28:25Z</time>
      </trkpt>
      <trkpt lat="44.6739" lon="6.92149">
        <ele>2349.4</ele>
        <time>2021-12-19T17:28:45Z</time>
      </trkpt>
      <trkpt lat="44.67384" lon="6.92147">
        <ele>2350.5</ele>
        <time>2021-12-19T17:28:51Z</time>
      </trkpt>
      <trkpt lat="44.67381" lon="6.92147">
        <ele>2351.4</ele>
        <time>2021-12-19T17:28:54Z</time>
      </trkpt>
      <trkpt lat="44.67379" lon="6.92147">
        <ele>2351.8</ele>
        <time>2021-12-19T17:28:55Z</time>
      </trkpt>
      <trkpt lat="44.67379" lon="6.92148">
        <ele>2352</ele>
        <time>2021-12-19T17:28:56Z</time>
      </trkpt>
      <trkpt lat="44.67368" lon="6.92152">
        <ele>2356</ele>
        <time>2021-12-19T17:29:14Z</time>
      </trkpt>
      <trkpt lat="44.67357" lon="6.92155">
        <ele>2361.8</ele>
        <time>2021-12-19T17:29:43Z</time>
      </trkpt>
      <trkpt lat="44.67347" lon="6.92157">
        <ele>2365.7</ele>
        <time>2021-12-19T17:30:00Z</time>
      </trkpt>
      <trkpt lat="44.67335" lon="6.92157">
        <ele>2371.7</ele>
        <time>2021-12-19T17:30:28Z</time>
      </trkpt>
      <trkpt lat="44.67332" lon="6.92164">
        <ele>2373.3</ele>
        <time>2021-12-19T17:30:35Z</time>
      </trkpt>
      <trkpt lat="44.6732" lon="6.92172">
        <ele>2377.8</ele>
        <time>2021-12-19T17:30:52Z</time>
      </trkpt>
      <trkpt lat="44.67312" lon="6.92182">
        <ele>2383.4</ele>
        <time>2021-12-19T17:31:14Z</time>
      </trkpt>
      <trkpt lat="44.67304" lon="6.92193">
        <ele>2384.2</ele>
        <time>2021-12-19T17:31:27Z</time>
      </trkpt>
      <trkpt lat="44.67296" lon="6.92206">
        <ele>2384.4</ele>
        <time>2021-12-19T17:31:49Z</time>
      </trkpt>
      <trkpt lat="44.67288" lon="6.92213">
        <ele>2386.3</ele>
        <time>2021-12-19T17:32:03Z</time>
      </trkpt>
      <trkpt lat="44.67279" lon="6.92224">
        <ele>2388.2</ele>
        <time>2021-12-19T17:32:18Z</time>
      </trkpt>
      <trkpt lat="44.67271" lon="6.92235">
        <ele>2391.2</ele>
        <time>2021-12-19T17:32:37Z</time>
      </trkpt>
      <trkpt lat="44.67261" lon="6.9224">
        <ele>2393.5</ele>
        <time>2021-12-19T17:32:54Z</time>
      </trkpt>
      <trkpt lat="44.67252" lon="6.92248">
        <ele>2391.3</ele>
        <time>2021-12-19T17:33:25Z</time>
      </trkpt>
      <trkpt lat="44.67251" lon="6.9225">
        <ele>2391.3</ele>
        <time>2021-12-19T17:35:02Z</time>
      </trkpt>
      <trkpt lat="44.67244" lon="6.92258">
        <ele>2393.5</ele>
        <time>2021-12-19T17:35:03Z</time>
      </trkpt>
      <trkpt lat="44.67244" lon="6.92259">
        <ele>2393.6</ele>
        <time>2021-12-19T17:35:04Z</time>
      </trkpt>
      <trkpt lat="44.67237" lon="6.9226">
        <ele>2388.1</ele>
        <time>2021-12-19T17:35:23Z</time>
      </trkpt>
      <trkpt lat="44.67232" lon="6.92261">
        <ele>2386.5</ele>
        <time>2021-12-19T17:35:25Z</time>
      </trkpt>
      <trkpt lat="44.67232" lon="6.92259">
        <ele>2385.8</ele>
        <time>2021-12-19T17:35:26Z</time>
      </trkpt>
      <trkpt lat="44.67231" lon="6.92259">
        <ele>2385</ele>
        <time>2021-12-19T17:35:27Z</time>
      </trkpt>
      <trkpt lat="44.6723" lon="6.9226">
        <ele>2384.4</ele>
        <time>2021-12-19T17:35:28Z</time>
      </trkpt>
      <trkpt lat="44.67229" lon="6.92259">
        <ele>2383.8</ele>
        <time>2021-12-19T17:35:29Z</time>
      </trkpt>
      <trkpt lat="44.67225" lon="6.92262">
        <ele>2381.9</ele>
        <time>2021-12-19T17:35:32Z</time>
      </trkpt>
      <trkpt lat="44.67219" lon="6.92266">
        <ele>2380.6</ele>
        <time>2021-12-19T17:35:35Z</time>
      </trkpt>
      <trkpt lat="44.67222" lon="6.92263">
        <ele>2379.4</ele>
        <time>2021-12-19T17:35:41Z</time>
      </trkpt>
      <trkpt lat="44.67224" lon="6.92263">
        <ele>2379.5</ele>
        <time>2021-12-19T17:35:42Z</time>
      </trkpt>
      <trkpt lat="44.67229" lon="6.92265">
        <ele>2380.1</ele>
        <time>2021-12-19T17:35:52Z</time>
      </trkpt>
      <trkpt lat="44.67228" lon="6.92262">
        <ele>2381.6</ele>
        <time>2021-12-19T17:35:57Z</time>
      </trkpt>
      <trkpt lat="44.67228" lon="6.92264">
        <ele>2382</ele>
        <time>2021-12-19T17:35:58Z</time>
      </trkpt>
      <trkpt lat="44.67226" lon="6.92269">
        <ele>2384</ele>
        <time>2021-12-19T17:36:04Z</time>
      </trkpt>
      <trkpt lat="44.67225" lon="6.9227">
        <ele>2384.3</ele>
        <time>2021-12-19T17:36:05Z</time>
      </trkpt>
      <trkpt lat="44.67225" lon="6.92278">
        <ele>2386.8</ele>
        <time>2021-12-19T17:36:23Z</time>
      </trkpt>
      <trkpt lat="44.67224" lon="6.92285">
        <ele>2386.8</ele>
        <time>2021-12-19T17:36:27Z</time>
      </trkpt>
      <trkpt lat="44.67219" lon="6.92287">
        <ele>2387.1</ele>
        <time>2021-12-19T17:36:43Z</time>
      </trkpt>
      <trkpt lat="44.67216" lon="6.92292">
        <ele>2387.7</ele>
        <time>2021-12-19T17:36:47Z</time>
      </trkpt>
      <trkpt lat="44.6721" lon="6.92292">
        <ele>2385.9</ele>
        <time>2021-12-19T17:37:15Z</time>
      </trkpt>
      <trkpt lat="44.67202" lon="6.92303">
        <ele>2386.2</ele>
        <time>2021-12-19T17:37:35Z</time>
      </trkpt>
      <trkpt lat="44.67195" lon="6.92316">
        <ele>2387.1</ele>
        <time>2021-12-19T17:38:04Z</time>
      </trkpt>
      <trkpt lat="44.67195" lon="6.92319">
        <ele>2387.4</ele>
        <time>2021-12-19T17:39:11Z</time>
      </trkpt>
      <trkpt lat="44.67187" lon="6.92326">
        <ele>2388.7</ele>
        <time>2021-12-19T17:39:12Z</time>
      </trkpt>
      <trkpt lat="44.67187" lon="6.92326">
        <ele>2388.7</ele>
        <time>2021-12-19T17:39:13Z</time>
      </trkpt>
      <trkpt lat="44.67177" lon="6.9233">
        <ele>2390.8</ele>
        <time>2021-12-19T17:39:25Z</time>
      </trkpt>
      <trkpt lat="44.67169" lon="6.92341">
        <ele>2393.7</ele>
        <time>2021-12-19T17:39:41Z</time>
      </trkpt>
      <trkpt lat="44.6716" lon="6.92351">
        <ele>2395.7</ele>
        <time>2021-12-19T17:40:01Z</time>
      </trkpt>
      <trkpt lat="44.67151" lon="6.92361">
        <ele>2395.5</ele>
        <time>2021-12-19T17:40:17Z</time>
      </trkpt>
      <trkpt lat="44.6715" lon="6.92361">
        <ele>2395.4</ele>
        <time>2021-12-19T17:40:39Z</time>
      </trkpt>
      <trkpt lat="44.67141" lon="6.92366">
        <ele>2394.9</ele>
        <time>2021-12-19T17:40:40Z</time>
      </trkpt>
      <trkpt lat="44.67141" lon="6.92366">
        <ele>2395</ele>
        <time>2021-12-19T17:40:41Z</time>
      </trkpt>
      <trkpt lat="44.6714" lon="6.92368">
        <ele>2395.1</ele>
        <time>2021-12-19T17:41:00Z</time>
      </trkpt>
      <trkpt lat="44.67133" lon="6.92377">
        <ele>2395.3</ele>
        <time>2021-12-19T17:41:01Z</time>
      </trkpt>
      <trkpt lat="44.67133" lon="6.92377">
        <ele>2395.4</ele>
        <time>2021-12-19T17:41:02Z</time>
      </trkpt>
      <trkpt lat="44.67124" lon="6.92379">
        <ele>2395.5</ele>
        <time>2021-12-19T17:41:32Z</time>
      </trkpt>
      <trkpt lat="44.67113" lon="6.92382">
        <ele>2395.5</ele>
        <time>2021-12-19T17:41:45Z</time>
      </trkpt>
      <trkpt lat="44.67108" lon="6.92383">
        <ele>2395.6</ele>
        <time>2021-12-19T17:41:50Z</time>
      </trkpt>
      <trkpt lat="44.67108" lon="6.92383">
        <ele>2395.6</ele>
        <time>2021-12-19T17:41:51Z</time>
      </trkpt>
      <trkpt lat="44.67106" lon="6.92383">
        <ele>2395.6</ele>
        <time>2021-12-19T17:41:52Z</time>
      </trkpt>
      <trkpt lat="44.67106" lon="6.92383">
        <ele>2395.5</ele>
        <time>2021-12-19T17:41:53Z</time>
      </trkpt>
      <trkpt lat="44.67095" lon="6.92383">
        <ele>2394.6</ele>
        <time>2021-12-19T17:42:08Z</time>
      </trkpt>
      <trkpt lat="44.67092" lon="6.92384">
        <ele>2394.4</ele>
        <time>2021-12-19T17:42:23Z</time>
      </trkpt>
      <trkpt lat="44.67083" lon="6.92389">
        <ele>2393.8</ele>
        <time>2021-12-19T17:42:24Z</time>
      </trkpt>
      <trkpt lat="44.67083" lon="6.92389">
        <ele>2393.7</ele>
        <time>2021-12-19T17:42:25Z</time>
      </trkpt>
      <trkpt lat="44.67081" lon="6.9239">
        <ele>2393.7</ele>
        <time>2021-12-19T17:42:45Z</time>
      </trkpt>
      <trkpt lat="44.67073" lon="6.92398">
        <ele>2392.1</ele>
        <time>2021-12-19T17:42:46Z</time>
      </trkpt>
      <trkpt lat="44.67073" lon="6.92398">
        <ele>2392</ele>
        <time>2021-12-19T17:42:47Z</time>
      </trkpt>
      <trkpt lat="44.67063" lon="6.92405">
        <ele>2392.2</ele>
        <time>2021-12-19T17:43:18Z</time>
      </trkpt>
      <trkpt lat="44.67062" lon="6.92406">
        <ele>2392.4</ele>
        <time>2021-12-19T17:43:35Z</time>
      </trkpt>
      <trkpt lat="44.67054" lon="6.92413">
        <ele>2393.1</ele>
        <time>2021-12-19T17:43:36Z</time>
      </trkpt>
      <trkpt lat="44.67053" lon="6.92413">
        <ele>2393.2</ele>
        <time>2021-12-19T17:43:37Z</time>
      </trkpt>
      <trkpt lat="44.67052" lon="6.92414">
        <ele>2393.3</ele>
        <time>2021-12-19T17:43:52Z</time>
      </trkpt>
      <trkpt lat="44.67044" lon="6.92421">
        <ele>2393.9</ele>
        <time>2021-12-19T17:43:53Z</time>
      </trkpt>
      <trkpt lat="44.67043" lon="6.92422">
        <ele>2394</ele>
        <time>2021-12-19T17:43:54Z</time>
      </trkpt>
      <trkpt lat="44.67042" lon="6.92424">
        <ele>2394.1</ele>
        <time>2021-12-19T17:44:12Z</time>
      </trkpt>
      <trkpt lat="44.67036" lon="6.92433">
        <ele>2395.3</ele>
        <time>2021-12-19T17:44:13Z</time>
      </trkpt>
      <trkpt lat="44.67036" lon="6.92434">
        <ele>2395.3</ele>
        <time>2021-12-19T17:44:14Z</time>
      </trkpt>
      <trkpt lat="44.67035" lon="6.92434">
        <ele>2395.4</ele>
        <time>2021-12-19T17:44:49Z</time>
      </trkpt>
      <trkpt lat="44.67028" lon="6.92443">
        <ele>2395.6</ele>
        <time>2021-12-19T17:44:50Z</time>
      </trkpt>
      <trkpt lat="44.67028" lon="6.92443">
        <ele>2395.6</ele>
        <time>2021-12-19T17:44:51Z</time>
      </trkpt>
      <trkpt lat="44.67026" lon="6.92444">
        <ele>2395.5</ele>
        <time>2021-12-19T17:45:03Z</time>
      </trkpt>
      <trkpt lat="44.67019" lon="6.92452">
        <ele>2396.1</ele>
        <time>2021-12-19T17:45:04Z</time>
      </trkpt>
      <trkpt lat="44.67018" lon="6.92453">
        <ele>2396.2</ele>
        <time>2021-12-19T17:45:05Z</time>
      </trkpt>
      <trkpt lat="44.67017" lon="6.92454">
        <ele>2396.5</ele>
        <time>2021-12-19T17:46:38Z</time>
      </trkpt>
      <trkpt lat="44.6701" lon="6.92464">
        <ele>2400</ele>
        <time>2021-12-19T17:46:39Z</time>
      </trkpt>
      <trkpt lat="44.6701" lon="6.92464">
        <ele>2400.1</ele>
        <time>2021-12-19T17:46:40Z</time>
      </trkpt>
      <trkpt lat="44.6701" lon="6.92464">
        <ele>2400.1</ele>
        <time>2021-12-19T17:47:16Z</time>
      </trkpt>
      <trkpt lat="44.67002" lon="6.9247">
        <ele>2401</ele>
        <time>2021-12-19T17:47:17Z</time>
      </trkpt>
      <trkpt lat="44.67001" lon="6.9247">
        <ele>2401.1</ele>
        <time>2021-12-19T17:47:18Z</time>
      </trkpt>
      <trkpt lat="44.67" lon="6.92471">
        <ele>2401.2</ele>
        <time>2021-12-19T17:47:29Z</time>
      </trkpt>
      <trkpt lat="44.66994" lon="6.92479">
        <ele>2401.9</ele>
        <time>2021-12-19T17:47:30Z</time>
      </trkpt>
      <trkpt lat="44.66994" lon="6.9248">
        <ele>2402</ele>
        <time>2021-12-19T17:47:31Z</time>
      </trkpt>
      <trkpt lat="44.66993" lon="6.9248">
        <ele>2402.2</ele>
        <time>2021-12-19T17:47:32Z</time>
      </trkpt>
      <trkpt lat="44.66992" lon="6.92482">
        <ele>2402.4</ele>
        <time>2021-12-19T17:47:46Z</time>
      </trkpt>
      <trkpt lat="44.66985" lon="6.92489">
        <ele>2403.8</ele>
        <time>2021-12-19T17:47:47Z</time>
      </trkpt>
      <trkpt lat="44.66984" lon="6.92489">
        <ele>2404</ele>
        <time>2021-12-19T17:47:48Z</time>
      </trkpt>
      <trkpt lat="44.66983" lon="6.92491">
        <ele>2404.2</ele>
        <time>2021-12-19T17:48:01Z</time>
      </trkpt>
      <trkpt lat="44.66975" lon="6.92499">
        <ele>2405.6</ele>
        <time>2021-12-19T17:48:02Z</time>
      </trkpt>
      <trkpt lat="44.66975" lon="6.92499">
        <ele>2405.7</ele>
        <time>2021-12-19T17:48:03Z</time>
      </trkpt>
      <trkpt lat="44.66974" lon="6.925">
        <ele>2405.8</ele>
        <time>2021-12-19T17:48:23Z</time>
      </trkpt>
      <trkpt lat="44.66965" lon="6.92504">
        <ele>2406.7</ele>
        <time>2021-12-19T17:48:24Z</time>
      </trkpt>
      <trkpt lat="44.66964" lon="6.92504">
        <ele>2406.8</ele>
        <time>2021-12-19T17:48:25Z</time>
      </trkpt>
      <trkpt lat="44.66963" lon="6.92506">
        <ele>2407</ele>
        <time>2021-12-19T17:48:28Z</time>
      </trkpt>
      <trkpt lat="44.66962" lon="6.92506">
        <ele>2407.2</ele>
        <time>2021-12-19T17:48:29Z</time>
      </trkpt>
      <trkpt lat="44.66958" lon="6.92511">
        <ele>2409</ele>
        <time>2021-12-19T17:48:35Z</time>
      </trkpt>
      <trkpt lat="44.66956" lon="6.92513">
        <ele>2410.1</ele>
        <time>2021-12-19T17:48:37Z</time>
      </trkpt>
      <trkpt lat="44.66955" lon="6.92514">
        <ele>2410.2</ele>
        <time>2021-12-19T17:48:38Z</time>
      </trkpt>
      <trkpt lat="44.66954" lon="6.92514">
        <ele>2410.5</ele>
        <time>2021-12-19T17:48:52Z</time>
      </trkpt>
      <trkpt lat="44.66946" lon="6.92521">
        <ele>2412.5</ele>
        <time>2021-12-19T17:48:53Z</time>
      </trkpt>
      <trkpt lat="44.66946" lon="6.92522">
        <ele>2412.5</ele>
        <time>2021-12-19T17:48:54Z</time>
      </trkpt>
      <trkpt lat="44.66944" lon="6.92524">
        <ele>2412.7</ele>
        <time>2021-12-19T17:49:19Z</time>
      </trkpt>
      <trkpt lat="44.66942" lon="6.92528">
        <ele>2414.8</ele>
        <time>2021-12-19T17:49:20Z</time>
      </trkpt>
      <trkpt lat="44.66943" lon="6.92528">
        <ele>2414.7</ele>
        <time>2021-12-19T17:49:21Z</time>
      </trkpt>
      <trkpt lat="44.66943" lon="6.92528">
        <ele>2414.3</ele>
        <time>2021-12-19T17:49:43Z</time>
      </trkpt>
      <trkpt lat="44.66945" lon="6.92524">
        <ele>2415.6</ele>
        <time>2021-12-19T17:49:44Z</time>
      </trkpt>
      <trkpt lat="44.66944" lon="6.92532">
        <ele>2417.3</ele>
        <time>2021-12-19T17:49:47Z</time>
      </trkpt>
      <trkpt lat="44.66941" lon="6.9254">
        <ele>2421.6</ele>
        <time>2021-12-19T17:49:52Z</time>
      </trkpt>
      <trkpt lat="44.66938" lon="6.92545">
        <ele>2424</ele>
        <time>2021-12-19T17:49:55Z</time>
      </trkpt>
      <trkpt lat="44.66934" lon="6.92549">
        <ele>2428.1</ele>
        <time>2021-12-19T17:49:59Z</time>
      </trkpt>
      <trkpt lat="44.66931" lon="6.92552">
        <ele>2432.9</ele>
        <time>2021-12-19T17:50:03Z</time>
      </trkpt>
      <trkpt lat="44.66931" lon="6.92553">
        <ele>2434</ele>
        <time>2021-12-19T17:50:04Z</time>
      </trkpt>
      <trkpt lat="44.6693" lon="6.92554">
        <ele>2434.9</ele>
        <time>2021-12-19T17:50:13Z</time>
      </trkpt>
      <trkpt lat="44.66928" lon="6.9256">
        <ele>2436.3</ele>
        <time>2021-12-19T17:50:14Z</time>
      </trkpt>
      <trkpt lat="44.66928" lon="6.92561">
        <ele>2436.5</ele>
        <time>2021-12-19T17:50:15Z</time>
      </trkpt>
      <trkpt lat="44.66928" lon="6.92562">
        <ele>2436.1</ele>
        <time>2021-12-19T17:50:16Z</time>
      </trkpt>
      <trkpt lat="44.66927" lon="6.92564">
        <ele>2435.9</ele>
        <time>2021-12-19T17:50:18Z</time>
      </trkpt>
      <trkpt lat="44.66927" lon="6.92566">
        <ele>2436</ele>
        <time>2021-12-19T17:50:19Z</time>
      </trkpt>
      <trkpt lat="44.66924" lon="6.92569">
        <ele>2435.8</ele>
        <time>2021-12-19T17:50:23Z</time>
      </trkpt>
      <trkpt lat="44.66924" lon="6.9257">
        <ele>2436.3</ele>
        <time>2021-12-19T17:50:24Z</time>
      </trkpt>
      <trkpt lat="44.66923" lon="6.92572">
        <ele>2436.5</ele>
        <time>2021-12-19T17:50:28Z</time>
      </trkpt>
      <trkpt lat="44.66922" lon="6.92575">
        <ele>2436.5</ele>
        <time>2021-12-19T17:50:29Z</time>
      </trkpt>
      <trkpt lat="44.66922" lon="6.92576">
        <ele>2436.3</ele>
        <time>2021-12-19T17:50:30Z</time>
      </trkpt>
      <trkpt lat="44.66922" lon="6.92578">
        <ele>2436.5</ele>
        <time>2021-12-19T17:50:42Z</time>
      </trkpt>
      <trkpt lat="44.66921" lon="6.9259">
        <ele>2437.5</ele>
        <time>2021-12-19T17:50:43Z</time>
      </trkpt>
      <trkpt lat="44.66921" lon="6.92598">
        <ele>2437.4</ele>
        <time>2021-12-19T17:50:48Z</time>
      </trkpt>
      <trkpt lat="44.66921" lon="6.92607">
        <ele>2436.9</ele>
        <time>2021-12-19T17:50:51Z</time>
      </trkpt>
      <trkpt lat="44.66923" lon="6.92613">
        <ele>2436.8</ele>
        <time>2021-12-19T17:50:55Z</time>
      </trkpt>
      <trkpt lat="44.66923" lon="6.92615">
        <ele>2436.5</ele>
        <time>2021-12-19T17:50:57Z</time>
      </trkpt>
      <trkpt lat="44.66923" lon="6.92616">
        <ele>2436.8</ele>
        <time>2021-12-19T17:50:58Z</time>
      </trkpt>
      <trkpt lat="44.66924" lon="6.92617">
        <ele>2436.8</ele>
        <time>2021-12-19T17:50:59Z</time>
      </trkpt>
      <trkpt lat="44.66924" lon="6.92619">
        <ele>2436.6</ele>
        <time>2021-12-19T17:51:00Z</time>
      </trkpt>
      <trkpt lat="44.66924" lon="6.92619">
        <ele>2436.9</ele>
        <time>2021-12-19T17:51:01Z</time>
      </trkpt>
      <trkpt lat="44.66924" lon="6.9262">
        <ele>2437</ele>
        <time>2021-12-19T17:51:02Z</time>
      </trkpt>
      <trkpt lat="44.66925" lon="6.92622">
        <ele>2436.7</ele>
        <time>2021-12-19T17:51:03Z</time>
      </trkpt>
      <trkpt lat="44.66925" lon="6.92623">
        <ele>2436.7</ele>
        <time>2021-12-19T17:51:04Z</time>
      </trkpt>
      <trkpt lat="44.66925" lon="6.92624">
        <ele>2436.8</ele>
        <time>2021-12-19T17:51:05Z</time>
      </trkpt>
      <trkpt lat="44.66926" lon="6.92625">
        <ele>2436.7</ele>
        <time>2021-12-19T17:51:06Z</time>
      </trkpt>
      <trkpt lat="44.66926" lon="6.92626">
        <ele>2436.9</ele>
        <time>2021-12-19T17:51:07Z</time>
      </trkpt>
      <trkpt lat="44.66926" lon="6.92627">
        <ele>2437.1</ele>
        <time>2021-12-19T17:51:08Z</time>
      </trkpt>
      <trkpt lat="44.66926" lon="6.92628">
        <ele>2437.1</ele>
        <time>2021-12-19T17:51:09Z</time>
      </trkpt>
      <trkpt lat="44.66927" lon="6.92629">
        <ele>2436.7</ele>
        <time>2021-12-19T17:51:10Z</time>
      </trkpt>
      <trkpt lat="44.66928" lon="6.9263">
        <ele>2436.8</ele>
        <time>2021-12-19T17:51:11Z</time>
      </trkpt>
      <trkpt lat="44.66928" lon="6.92632">
        <ele>2437</ele>
        <time>2021-12-19T17:51:26Z</time>
      </trkpt>
      <trkpt lat="44.66931" lon="6.92645">
        <ele>2437.6</ele>
        <time>2021-12-19T17:51:27Z</time>
      </trkpt>
      <trkpt lat="44.66931" lon="6.92645">
        <ele>2437.6</ele>
        <time>2021-12-19T17:51:28Z</time>
      </trkpt>
      <trkpt lat="44.66932" lon="6.92646">
        <ele>2437.5</ele>
        <time>2021-12-19T17:51:45Z</time>
      </trkpt>
      <trkpt lat="44.66933" lon="6.92659">
        <ele>2437.3</ele>
        <time>2021-12-19T17:51:46Z</time>
      </trkpt>
      <trkpt lat="44.66933" lon="6.9266">
        <ele>2437.5</ele>
        <time>2021-12-19T17:51:47Z</time>
      </trkpt>
      <trkpt lat="44.66934" lon="6.92662">
        <ele>2437.5</ele>
        <time>2021-12-19T17:52:08Z</time>
      </trkpt>
      <trkpt lat="44.66936" lon="6.92676">
        <ele>2437.6</ele>
        <time>2021-12-19T17:52:09Z</time>
      </trkpt>
      <trkpt lat="44.66934" lon="6.92682">
        <ele>2439.9</ele>
        <time>2021-12-19T17:52:13Z</time>
      </trkpt>
      <trkpt lat="44.66931" lon="6.92689">
        <ele>2441.5</ele>
        <time>2021-12-19T17:52:17Z</time>
      </trkpt>
      <trkpt lat="44.66928" lon="6.92694">
        <ele>2443.7</ele>
        <time>2021-12-19T17:52:21Z</time>
      </trkpt>
      <trkpt lat="44.66926" lon="6.92698">
        <ele>2443.9</ele>
        <time>2021-12-19T17:52:25Z</time>
      </trkpt>
      <trkpt lat="44.66926" lon="6.92699">
        <ele>2444.2</ele>
        <time>2021-12-19T17:52:26Z</time>
      </trkpt>
      <trkpt lat="44.66925" lon="6.927">
        <ele>2444.9</ele>
        <time>2021-12-19T17:52:32Z</time>
      </trkpt>
      <trkpt lat="44.66923" lon="6.92705">
        <ele>2446.1</ele>
        <time>2021-12-19T17:52:33Z</time>
      </trkpt>
      <trkpt lat="44.66923" lon="6.92706">
        <ele>2446.2</ele>
        <time>2021-12-19T17:52:34Z</time>
      </trkpt>
      <trkpt lat="44.66923" lon="6.92708">
        <ele>2445.8</ele>
        <time>2021-12-19T17:52:35Z</time>
      </trkpt>
      <trkpt lat="44.66922" lon="6.9271">
        <ele>2446.3</ele>
        <time>2021-12-19T17:52:42Z</time>
      </trkpt>
      <trkpt lat="44.66919" lon="6.92716">
        <ele>2447.1</ele>
        <time>2021-12-19T17:52:43Z</time>
      </trkpt>
      <trkpt lat="44.66918" lon="6.92717">
        <ele>2447</ele>
        <time>2021-12-19T17:52:44Z</time>
      </trkpt>
      <trkpt lat="44.66917" lon="6.92719">
        <ele>2447.5</ele>
        <time>2021-12-19T17:53:00Z</time>
      </trkpt>
      <trkpt lat="44.66911" lon="6.92729">
        <ele>2448</ele>
        <time>2021-12-19T17:53:01Z</time>
      </trkpt>
      <trkpt lat="44.66911" lon="6.9273">
        <ele>2447.8</ele>
        <time>2021-12-19T17:53:02Z</time>
      </trkpt>
      <trkpt lat="44.6691" lon="6.92733">
        <ele>2447.5</ele>
        <time>2021-12-19T17:53:16Z</time>
      </trkpt>
      <trkpt lat="44.66905" lon="6.92744">
        <ele>2445.7</ele>
        <time>2021-12-19T17:53:17Z</time>
      </trkpt>
      <trkpt lat="44.66904" lon="6.92745">
        <ele>2445.6</ele>
        <time>2021-12-19T17:53:18Z</time>
      </trkpt>
      <trkpt lat="44.66903" lon="6.92747">
        <ele>2445.3</ele>
        <time>2021-12-19T17:53:31Z</time>
      </trkpt>
      <trkpt lat="44.66898" lon="6.92758">
        <ele>2443</ele>
        <time>2021-12-19T17:53:32Z</time>
      </trkpt>
      <trkpt lat="44.66898" lon="6.92759">
        <ele>2443</ele>
        <time>2021-12-19T17:53:33Z</time>
      </trkpt>
      <trkpt lat="44.66897" lon="6.92761">
        <ele>2442.8</ele>
        <time>2021-12-19T17:53:46Z</time>
      </trkpt>
      <trkpt lat="44.66893" lon="6.92773">
        <ele>2442.1</ele>
        <time>2021-12-19T17:53:47Z</time>
      </trkpt>
      <trkpt lat="44.66892" lon="6.92773">
        <ele>2442.2</ele>
        <time>2021-12-19T17:53:48Z</time>
      </trkpt>
      <trkpt lat="44.66891" lon="6.92776">
        <ele>2442.1</ele>
        <time>2021-12-19T17:53:50Z</time>
      </trkpt>
      <trkpt lat="44.6689" lon="6.92777">
        <ele>2441.9</ele>
        <time>2021-12-19T17:53:51Z</time>
      </trkpt>
      <trkpt lat="44.6689" lon="6.9278">
        <ele>2442.3</ele>
        <time>2021-12-19T17:53:52Z</time>
      </trkpt>
      <trkpt lat="44.66889" lon="6.92781">
        <ele>2442.6</ele>
        <time>2021-12-19T17:53:53Z</time>
      </trkpt>
      <trkpt lat="44.66889" lon="6.92782">
        <ele>2442.5</ele>
        <time>2021-12-19T17:53:54Z</time>
      </trkpt>
      <trkpt lat="44.66889" lon="6.92785">
        <ele>2442.8</ele>
        <time>2021-12-19T17:53:55Z</time>
      </trkpt>
      <trkpt lat="44.66886" lon="6.9279">
        <ele>2443.4</ele>
        <time>2021-12-19T17:53:59Z</time>
      </trkpt>
      <trkpt lat="44.66885" lon="6.92792">
        <ele>2443.6</ele>
        <time>2021-12-19T17:54:00Z</time>
      </trkpt>
      <trkpt lat="44.66885" lon="6.92793">
        <ele>2443.7</ele>
        <time>2021-12-19T17:54:01Z</time>
      </trkpt>
      <trkpt lat="44.66884" lon="6.92795">
        <ele>2444.3</ele>
        <time>2021-12-19T17:54:02Z</time>
      </trkpt>
      <trkpt lat="44.66883" lon="6.92796">
        <ele>2444.2</ele>
        <time>2021-12-19T17:54:03Z</time>
      </trkpt>
      <trkpt lat="44.66882" lon="6.92796">
        <ele>2444.7</ele>
        <time>2021-12-19T17:54:04Z</time>
      </trkpt>
      <trkpt lat="44.66881" lon="6.92798">
        <ele>2444.9</ele>
        <time>2021-12-19T17:54:18Z</time>
      </trkpt>
      <trkpt lat="44.66877" lon="6.92809">
        <ele>2446</ele>
        <time>2021-12-19T17:54:19Z</time>
      </trkpt>
      <trkpt lat="44.66876" lon="6.92811">
        <ele>2446</ele>
        <time>2021-12-19T17:54:20Z</time>
      </trkpt>
      <trkpt lat="44.66876" lon="6.92813">
        <ele>2446.1</ele>
        <time>2021-12-19T17:54:33Z</time>
      </trkpt>
      <trkpt lat="44.66871" lon="6.92824">
        <ele>2447</ele>
        <time>2021-12-19T17:54:34Z</time>
      </trkpt>
      <trkpt lat="44.6687" lon="6.92824">
        <ele>2447</ele>
        <time>2021-12-19T17:54:35Z</time>
      </trkpt>
      <trkpt lat="44.66869" lon="6.92826">
        <ele>2447.1</ele>
        <time>2021-12-19T17:54:46Z</time>
      </trkpt>
      <trkpt lat="44.66865" lon="6.92837">
        <ele>2447.6</ele>
        <time>2021-12-19T17:54:47Z</time>
      </trkpt>
      <trkpt lat="44.66865" lon="6.92838">
        <ele>2447.7</ele>
        <time>2021-12-19T17:54:48Z</time>
      </trkpt>
      <trkpt lat="44.66864" lon="6.92841">
        <ele>2447.7</ele>
        <time>2021-12-19T17:54:51Z</time>
      </trkpt>
      <trkpt lat="44.66862" lon="6.92843">
        <ele>2448.2</ele>
        <time>2021-12-19T17:54:52Z</time>
      </trkpt>
      <trkpt lat="44.6686" lon="6.92845">
        <ele>2448.7</ele>
        <time>2021-12-19T17:54:54Z</time>
      </trkpt>
      <trkpt lat="44.66859" lon="6.92847">
        <ele>2449</ele>
        <time>2021-12-19T17:54:55Z</time>
      </trkpt>
      <trkpt lat="44.66858" lon="6.92849">
        <ele>2449</ele>
        <time>2021-12-19T17:54:57Z</time>
      </trkpt>
      <trkpt lat="44.66857" lon="6.9285">
        <ele>2449.4</ele>
        <time>2021-12-19T17:54:58Z</time>
      </trkpt>
      <trkpt lat="44.66857" lon="6.92851">
        <ele>2449.7</ele>
        <time>2021-12-19T17:54:59Z</time>
      </trkpt>
      <trkpt lat="44.66856" lon="6.92852">
        <ele>2449.5</ele>
        <time>2021-12-19T17:55:00Z</time>
      </trkpt>
      <trkpt lat="44.66855" lon="6.92854">
        <ele>2449.6</ele>
        <time>2021-12-19T17:55:15Z</time>
      </trkpt>
      <trkpt lat="44.6685" lon="6.92865">
        <ele>2449.9</ele>
        <time>2021-12-19T17:55:16Z</time>
      </trkpt>
      <trkpt lat="44.66849" lon="6.92866">
        <ele>2449.9</ele>
        <time>2021-12-19T17:55:17Z</time>
      </trkpt>
      <trkpt lat="44.66849" lon="6.92869">
        <ele>2450.1</ele>
        <time>2021-12-19T17:55:28Z</time>
      </trkpt>
      <trkpt lat="44.66844" lon="6.9288">
        <ele>2450.6</ele>
        <time>2021-12-19T17:55:29Z</time>
      </trkpt>
      <trkpt lat="44.66843" lon="6.92881">
        <ele>2450.7</ele>
        <time>2021-12-19T17:55:30Z</time>
      </trkpt>
      <trkpt lat="44.66842" lon="6.92884">
        <ele>2450.8</ele>
        <time>2021-12-19T17:55:41Z</time>
      </trkpt>
      <trkpt lat="44.66838" lon="6.92895">
        <ele>2451.5</ele>
        <time>2021-12-19T17:55:42Z</time>
      </trkpt>
      <trkpt lat="44.66837" lon="6.92896">
        <ele>2451.5</ele>
        <time>2021-12-19T17:55:43Z</time>
      </trkpt>
      <trkpt lat="44.66836" lon="6.92898">
        <ele>2451.6</ele>
        <time>2021-12-19T17:55:58Z</time>
      </trkpt>
      <trkpt lat="44.66831" lon="6.92909">
        <ele>2451.9</ele>
        <time>2021-12-19T17:55:59Z</time>
      </trkpt>
      <trkpt lat="44.6683" lon="6.9291">
        <ele>2452</ele>
        <time>2021-12-19T17:56:00Z</time>
      </trkpt>
      <trkpt lat="44.6683" lon="6.92912">
        <ele>2452.1</ele>
        <time>2021-12-19T17:56:13Z</time>
      </trkpt>
      <trkpt lat="44.66825" lon="6.92923">
        <ele>2452.3</ele>
        <time>2021-12-19T17:56:14Z</time>
      </trkpt>
      <trkpt lat="44.66824" lon="6.92924">
        <ele>2452.4</ele>
        <time>2021-12-19T17:56:15Z</time>
      </trkpt>
      <trkpt lat="44.66823" lon="6.92925">
        <ele>2452.5</ele>
        <time>2021-12-19T17:56:16Z</time>
      </trkpt>
      <trkpt lat="44.66824" lon="6.92927">
        <ele>2452.8</ele>
        <time>2021-12-19T17:56:17Z</time>
      </trkpt>
      <trkpt lat="44.66822" lon="6.92935">
        <ele>2452.2</ele>
        <time>2021-12-19T17:56:21Z</time>
      </trkpt>
      <trkpt lat="44.66821" lon="6.92937">
        <ele>2451.9</ele>
        <time>2021-12-19T17:56:22Z</time>
      </trkpt>
      <trkpt lat="44.66821" lon="6.92938">
        <ele>2451.7</ele>
        <time>2021-12-19T17:56:23Z</time>
      </trkpt>
      <trkpt lat="44.6682" lon="6.9294">
        <ele>2451.6</ele>
        <time>2021-12-19T17:56:26Z</time>
      </trkpt>
      <trkpt lat="44.66819" lon="6.92942">
        <ele>2451.6</ele>
        <time>2021-12-19T17:56:27Z</time>
      </trkpt>
      <trkpt lat="44.66816" lon="6.92947">
        <ele>2454.1</ele>
        <time>2021-12-19T17:56:30Z</time>
      </trkpt>
      <trkpt lat="44.66813" lon="6.92954">
        <ele>2458.1</ele>
        <time>2021-12-19T17:56:34Z</time>
      </trkpt>
      <trkpt lat="44.66811" lon="6.9296">
        <ele>2460</ele>
        <time>2021-12-19T17:56:38Z</time>
      </trkpt>
      <trkpt lat="44.6681" lon="6.92961">
        <ele>2460.1</ele>
        <time>2021-12-19T17:56:39Z</time>
      </trkpt>
      <trkpt lat="44.66809" lon="6.92962">
        <ele>2459.9</ele>
        <time>2021-12-19T17:56:40Z</time>
      </trkpt>
      <trkpt lat="44.66808" lon="6.92962">
        <ele>2460.3</ele>
        <time>2021-12-19T17:56:41Z</time>
      </trkpt>
      <trkpt lat="44.66808" lon="6.92963">
        <ele>2460.3</ele>
        <time>2021-12-19T17:56:42Z</time>
      </trkpt>
      <trkpt lat="44.66804" lon="6.92968">
        <ele>2460.8</ele>
        <time>2021-12-19T17:56:47Z</time>
      </trkpt>
      <trkpt lat="44.668" lon="6.92973">
        <ele>2461.8</ele>
        <time>2021-12-19T17:56:51Z</time>
      </trkpt>
      <trkpt lat="44.66797" lon="6.92979">
        <ele>2462.1</ele>
        <time>2021-12-19T17:56:55Z</time>
      </trkpt>
      <trkpt lat="44.66793" lon="6.92984">
        <ele>2462.4</ele>
        <time>2021-12-19T17:57:00Z</time>
      </trkpt>
      <trkpt lat="44.66793" lon="6.92985">
        <ele>2462.1</ele>
        <time>2021-12-19T17:57:01Z</time>
      </trkpt>
      <trkpt lat="44.66793" lon="6.92985">
        <ele>2462.9</ele>
        <time>2021-12-19T17:57:14Z</time>
      </trkpt>
      <trkpt lat="44.66789" lon="6.92995">
        <ele>2460.9</ele>
        <time>2021-12-19T17:57:15Z</time>
      </trkpt>
      <trkpt lat="44.66789" lon="6.92996">
        <ele>2460.4</ele>
        <time>2021-12-19T17:57:16Z</time>
      </trkpt>
      <trkpt lat="44.66789" lon="6.92996">
        <ele>2459.9</ele>
        <time>2021-12-19T17:57:17Z</time>
      </trkpt>
      <trkpt lat="44.66788" lon="6.92998">
        <ele>2459.7</ele>
        <time>2021-12-19T17:57:19Z</time>
      </trkpt>
      <trkpt lat="44.66788" lon="6.92999">
        <ele>2459.5</ele>
        <time>2021-12-19T17:57:20Z</time>
      </trkpt>
      <trkpt lat="44.66785" lon="6.93004">
        <ele>2458.6</ele>
        <time>2021-12-19T17:57:25Z</time>
      </trkpt>
      <trkpt lat="44.6678" lon="6.93007">
        <ele>2458.1</ele>
        <time>2021-12-19T17:57:30Z</time>
      </trkpt>
      <trkpt lat="44.66777" lon="6.93012">
        <ele>2457.4</ele>
        <time>2021-12-19T17:57:34Z</time>
      </trkpt>
      <trkpt lat="44.66774" lon="6.93017">
        <ele>2456.6</ele>
        <time>2021-12-19T17:57:38Z</time>
      </trkpt>
      <trkpt lat="44.6677" lon="6.93023">
        <ele>2455.5</ele>
        <time>2021-12-19T17:57:42Z</time>
      </trkpt>
      <trkpt lat="44.66767" lon="6.93027">
        <ele>2454</ele>
        <time>2021-12-19T17:57:46Z</time>
      </trkpt>
      <trkpt lat="44.66765" lon="6.93033">
        <ele>2452.9</ele>
        <time>2021-12-19T17:57:51Z</time>
      </trkpt>
      <trkpt lat="44.66764" lon="6.93034">
        <ele>2452.4</ele>
        <time>2021-12-19T17:57:52Z</time>
      </trkpt>
      <trkpt lat="44.66763" lon="6.93035">
        <ele>2452.2</ele>
        <time>2021-12-19T17:57:53Z</time>
      </trkpt>
      <trkpt lat="44.66763" lon="6.93036">
        <ele>2452</ele>
        <time>2021-12-19T17:57:54Z</time>
      </trkpt>
      <trkpt lat="44.66762" lon="6.93037">
        <ele>2452.2</ele>
        <time>2021-12-19T17:57:55Z</time>
      </trkpt>
      <trkpt lat="44.66759" lon="6.93039">
        <ele>2451.8</ele>
        <time>2021-12-19T17:57:59Z</time>
      </trkpt>
      <trkpt lat="44.66758" lon="6.9304">
        <ele>2451.7</ele>
        <time>2021-12-19T17:58:00Z</time>
      </trkpt>
      <trkpt lat="44.66757" lon="6.93041">
        <ele>2451.7</ele>
        <time>2021-12-19T17:58:01Z</time>
      </trkpt>
      <trkpt lat="44.66756" lon="6.93041">
        <ele>2451.8</ele>
        <time>2021-12-19T17:58:02Z</time>
      </trkpt>
      <trkpt lat="44.66753" lon="6.93047">
        <ele>2451.8</ele>
        <time>2021-12-19T17:58:06Z</time>
      </trkpt>
      <trkpt lat="44.66751" lon="6.93053">
        <ele>2451.3</ele>
        <time>2021-12-19T17:58:10Z</time>
      </trkpt>
      <trkpt lat="44.66747" lon="6.93057">
        <ele>2451.3</ele>
        <time>2021-12-19T17:58:14Z</time>
      </trkpt>
      <trkpt lat="44.66743" lon="6.93063">
        <ele>2450.2</ele>
        <time>2021-12-19T17:58:19Z</time>
      </trkpt>
      <trkpt lat="44.66739" lon="6.93067">
        <ele>2449.3</ele>
        <time>2021-12-19T17:58:23Z</time>
      </trkpt>
      <trkpt lat="44.66738" lon="6.93068">
        <ele>2449.3</ele>
        <time>2021-12-19T17:58:24Z</time>
      </trkpt>
      <trkpt lat="44.66737" lon="6.9307">
        <ele>2449.4</ele>
        <time>2021-12-19T17:58:41Z</time>
      </trkpt>
      <trkpt lat="44.6673" lon="6.93079">
        <ele>2449.7</ele>
        <time>2021-12-19T17:58:42Z</time>
      </trkpt>
      <trkpt lat="44.6673" lon="6.9308">
        <ele>2449.7</ele>
        <time>2021-12-19T17:58:43Z</time>
      </trkpt>
      <trkpt lat="44.66729" lon="6.93081">
        <ele>2449.8</ele>
        <time>2021-12-19T17:58:49Z</time>
      </trkpt>
      <trkpt lat="44.66725" lon="6.93086">
        <ele>2449</ele>
        <time>2021-12-19T17:58:50Z</time>
      </trkpt>
      <trkpt lat="44.66723" lon="6.93091">
        <ele>2449.2</ele>
        <time>2021-12-19T17:58:54Z</time>
      </trkpt>
      <trkpt lat="44.66719" lon="6.93096">
        <ele>2448.7</ele>
        <time>2021-12-19T17:58:58Z</time>
      </trkpt>
      <trkpt lat="44.66715" lon="6.931">
        <ele>2449</ele>
        <time>2021-12-19T17:59:03Z</time>
      </trkpt>
      <trkpt lat="44.66713" lon="6.93102">
        <ele>2449.3</ele>
        <time>2021-12-19T17:59:05Z</time>
      </trkpt>
      <trkpt lat="44.66713" lon="6.93103">
        <ele>2449.5</ele>
        <time>2021-12-19T17:59:06Z</time>
      </trkpt>
      <trkpt lat="44.66712" lon="6.93103">
        <ele>2449.6</ele>
        <time>2021-12-19T17:59:07Z</time>
      </trkpt>
      <trkpt lat="44.66711" lon="6.93105">
        <ele>2449.5</ele>
        <time>2021-12-19T17:59:08Z</time>
      </trkpt>
      <trkpt lat="44.6671" lon="6.93107">
        <ele>2450.6</ele>
        <time>2021-12-19T17:59:10Z</time>
      </trkpt>
      <trkpt lat="44.66709" lon="6.93108">
        <ele>2451</ele>
        <time>2021-12-19T17:59:11Z</time>
      </trkpt>
      <trkpt lat="44.66707" lon="6.93109">
        <ele>2451.3</ele>
        <time>2021-12-19T17:59:14Z</time>
      </trkpt>
      <trkpt lat="44.66706" lon="6.9311">
        <ele>2451.2</ele>
        <time>2021-12-19T17:59:15Z</time>
      </trkpt>
      <trkpt lat="44.66702" lon="6.93115">
        <ele>2451.3</ele>
        <time>2021-12-19T17:59:19Z</time>
      </trkpt>
      <trkpt lat="44.66701" lon="6.93117">
        <ele>2451.7</ele>
        <time>2021-12-19T17:59:21Z</time>
      </trkpt>
      <trkpt lat="44.66701" lon="6.93117">
        <ele>2451.3</ele>
        <time>2021-12-19T17:59:22Z</time>
      </trkpt>
      <trkpt lat="44.667" lon="6.93118">
        <ele>2451.5</ele>
        <time>2021-12-19T17:59:23Z</time>
      </trkpt>
      <trkpt lat="44.66699" lon="6.9312">
        <ele>2451.9</ele>
        <time>2021-12-19T17:59:24Z</time>
      </trkpt>
      <trkpt lat="44.66697" lon="6.93125">
        <ele>2452.3</ele>
        <time>2021-12-19T17:59:28Z</time>
      </trkpt>
      <trkpt lat="44.66696" lon="6.93126">
        <ele>2452.2</ele>
        <time>2021-12-19T17:59:29Z</time>
      </trkpt>
      <trkpt lat="44.66696" lon="6.93127">
        <ele>2452.3</ele>
        <time>2021-12-19T17:59:30Z</time>
      </trkpt>
      <trkpt lat="44.66695" lon="6.93127">
        <ele>2452.3</ele>
        <time>2021-12-19T17:59:31Z</time>
      </trkpt>
      <trkpt lat="44.66691" lon="6.93132">
        <ele>2452.7</ele>
        <time>2021-12-19T17:59:35Z</time>
      </trkpt>
      <trkpt lat="44.66688" lon="6.93137">
        <ele>2452.4</ele>
        <time>2021-12-19T17:59:39Z</time>
      </trkpt>
      <trkpt lat="44.66687" lon="6.93142">
        <ele>2451.3</ele>
        <time>2021-12-19T17:59:43Z</time>
      </trkpt>
      <trkpt lat="44.66686" lon="6.93143">
        <ele>2451.3</ele>
        <time>2021-12-19T17:59:44Z</time>
      </trkpt>
      <trkpt lat="44.66686" lon="6.93144">
        <ele>2451.4</ele>
        <time>2021-12-19T17:59:45Z</time>
      </trkpt>
      <trkpt lat="44.66686" lon="6.93146">
        <ele>2451.3</ele>
        <time>2021-12-19T17:59:46Z</time>
      </trkpt>
      <trkpt lat="44.66682" lon="6.9315">
        <ele>2450.9</ele>
        <time>2021-12-19T17:59:50Z</time>
      </trkpt>
      <trkpt lat="44.66679" lon="6.93157">
        <ele>2450</ele>
        <time>2021-12-19T17:59:54Z</time>
      </trkpt>
      <trkpt lat="44.66677" lon="6.93163">
        <ele>2449.3</ele>
        <time>2021-12-19T17:59:58Z</time>
      </trkpt>
      <trkpt lat="44.66677" lon="6.93164">
        <ele>2449.1</ele>
        <time>2021-12-19T17:59:59Z</time>
      </trkpt>
      <trkpt lat="44.66676" lon="6.93166">
        <ele>2449</ele>
        <time>2021-12-19T18:00:12Z</time>
      </trkpt>
      <trkpt lat="44.66673" lon="6.93178">
        <ele>2448.3</ele>
        <time>2021-12-19T18:00:13Z</time>
      </trkpt>
      <trkpt lat="44.66673" lon="6.93179">
        <ele>2448.3</ele>
        <time>2021-12-19T18:00:14Z</time>
      </trkpt>
      <trkpt lat="44.66672" lon="6.9318">
        <ele>2448.2</ele>
        <time>2021-12-19T18:00:28Z</time>
      </trkpt>
      <trkpt lat="44.6667" lon="6.93193">
        <ele>2448.1</ele>
        <time>2021-12-19T18:00:29Z</time>
      </trkpt>
      <trkpt lat="44.6667" lon="6.93193">
        <ele>2448</ele>
        <time>2021-12-19T18:00:30Z</time>
      </trkpt>
      <trkpt lat="44.66669" lon="6.93196">
        <ele>2448.1</ele>
        <time>2021-12-19T18:00:45Z</time>
      </trkpt>
      <trkpt lat="44.66666" lon="6.93208">
        <ele>2448.2</ele>
        <time>2021-12-19T18:00:46Z</time>
      </trkpt>
      <trkpt lat="44.66666" lon="6.93209">
        <ele>2448.2</ele>
        <time>2021-12-19T18:00:47Z</time>
      </trkpt>
      <trkpt lat="44.66665" lon="6.93211">
        <ele>2448.2</ele>
        <time>2021-12-19T18:01:02Z</time>
      </trkpt>
      <trkpt lat="44.66661" lon="6.93222">
        <ele>2449</ele>
        <time>2021-12-19T18:01:03Z</time>
      </trkpt>
      <trkpt lat="44.66661" lon="6.93223">
        <ele>2449.1</ele>
        <time>2021-12-19T18:01:04Z</time>
      </trkpt>
      <trkpt lat="44.6666" lon="6.93225">
        <ele>2449.2</ele>
        <time>2021-12-19T18:01:16Z</time>
      </trkpt>
      <trkpt lat="44.66656" lon="6.93238">
        <ele>2449.7</ele>
        <time>2021-12-19T18:01:17Z</time>
      </trkpt>
      <trkpt lat="44.66655" lon="6.93239">
        <ele>2449.8</ele>
        <time>2021-12-19T18:01:18Z</time>
      </trkpt>
      <trkpt lat="44.66655" lon="6.93241">
        <ele>2449.9</ele>
        <time>2021-12-19T18:01:31Z</time>
      </trkpt>
      <trkpt lat="44.66652" lon="6.93254">
        <ele>2450.5</ele>
        <time>2021-12-19T18:01:32Z</time>
      </trkpt>
      <trkpt lat="44.66652" lon="6.93255">
        <ele>2450.6</ele>
        <time>2021-12-19T18:01:33Z</time>
      </trkpt>
      <trkpt lat="44.66651" lon="6.93258">
        <ele>2450.7</ele>
        <time>2021-12-19T18:01:40Z</time>
      </trkpt>
      <trkpt lat="44.66649" lon="6.93265">
        <ele>2450.8</ele>
        <time>2021-12-19T18:01:41Z</time>
      </trkpt>
      <trkpt lat="44.66649" lon="6.93266">
        <ele>2450.9</ele>
        <time>2021-12-19T18:01:42Z</time>
      </trkpt>
      <trkpt lat="44.66648" lon="6.93268">
        <ele>2451.1</ele>
        <time>2021-12-19T18:01:50Z</time>
      </trkpt>
      <trkpt lat="44.66645" lon="6.93275">
        <ele>2451.6</ele>
        <time>2021-12-19T18:01:51Z</time>
      </trkpt>
      <trkpt lat="44.66646" lon="6.93277">
        <ele>2451.1</ele>
        <time>2021-12-19T18:01:52Z</time>
      </trkpt>
      <trkpt lat="44.66645" lon="6.93279">
        <ele>2451.5</ele>
        <time>2021-12-19T18:02:06Z</time>
      </trkpt>
      <trkpt lat="44.66642" lon="6.93291">
        <ele>2452.6</ele>
        <time>2021-12-19T18:02:07Z</time>
      </trkpt>
      <trkpt lat="44.66641" lon="6.93292">
        <ele>2452.7</ele>
        <time>2021-12-19T18:02:08Z</time>
      </trkpt>
      <trkpt lat="44.66641" lon="6.93294">
        <ele>2452.7</ele>
        <time>2021-12-19T18:02:19Z</time>
      </trkpt>
      <trkpt lat="44.66638" lon="6.93307">
        <ele>2453</ele>
        <time>2021-12-19T18:02:20Z</time>
      </trkpt>
      <trkpt lat="44.66638" lon="6.93308">
        <ele>2453.1</ele>
        <time>2021-12-19T18:02:21Z</time>
      </trkpt>
      <trkpt lat="44.66638" lon="6.9331">
        <ele>2453.2</ele>
        <time>2021-12-19T18:02:24Z</time>
      </trkpt>
      <trkpt lat="44.66637" lon="6.93312">
        <ele>2453.4</ele>
        <time>2021-12-19T18:02:25Z</time>
      </trkpt>
      <trkpt lat="44.66636" lon="6.93313">
        <ele>2453.7</ele>
        <time>2021-12-19T18:02:26Z</time>
      </trkpt>
      <trkpt lat="44.66635" lon="6.93315">
        <ele>2453.9</ele>
        <time>2021-12-19T18:02:39Z</time>
      </trkpt>
      <trkpt lat="44.66631" lon="6.93327">
        <ele>2454.6</ele>
        <time>2021-12-19T18:02:40Z</time>
      </trkpt>
      <trkpt lat="44.66631" lon="6.93328">
        <ele>2454.6</ele>
        <time>2021-12-19T18:02:41Z</time>
      </trkpt>
      <trkpt lat="44.6663" lon="6.93331">
        <ele>2455</ele>
        <time>2021-12-19T18:02:46Z</time>
      </trkpt>
      <trkpt lat="44.66629" lon="6.93335">
        <ele>2455.1</ele>
        <time>2021-12-19T18:02:47Z</time>
      </trkpt>
      <trkpt lat="44.66629" lon="6.93336">
        <ele>2455.2</ele>
        <time>2021-12-19T18:02:48Z</time>
      </trkpt>
      <trkpt lat="44.66628" lon="6.93338">
        <ele>2455.4</ele>
        <time>2021-12-19T18:02:52Z</time>
      </trkpt>
      <trkpt lat="44.66626" lon="6.93341">
        <ele>2455.4</ele>
        <time>2021-12-19T18:02:53Z</time>
      </trkpt>
      <trkpt lat="44.66625" lon="6.93345">
        <ele>2455.2</ele>
        <time>2021-12-19T18:02:56Z</time>
      </trkpt>
      <trkpt lat="44.66625" lon="6.93346">
        <ele>2455.2</ele>
        <time>2021-12-19T18:02:57Z</time>
      </trkpt>
      <trkpt lat="44.66624" lon="6.93348">
        <ele>2455.3</ele>
        <time>2021-12-19T18:02:59Z</time>
      </trkpt>
      <trkpt lat="44.66624" lon="6.9335">
        <ele>2455.4</ele>
        <time>2021-12-19T18:03:00Z</time>
      </trkpt>
      <trkpt lat="44.66624" lon="6.93351">
        <ele>2455.5</ele>
        <time>2021-12-19T18:03:01Z</time>
      </trkpt>
      <trkpt lat="44.66623" lon="6.93354">
        <ele>2455.6</ele>
        <time>2021-12-19T18:03:04Z</time>
      </trkpt>
      <trkpt lat="44.66622" lon="6.93356">
        <ele>2455.7</ele>
        <time>2021-12-19T18:03:05Z</time>
      </trkpt>
      <trkpt lat="44.66622" lon="6.93357">
        <ele>2455.8</ele>
        <time>2021-12-19T18:03:06Z</time>
      </trkpt>
      <trkpt lat="44.66622" lon="6.93358">
        <ele>2455.8</ele>
        <time>2021-12-19T18:03:07Z</time>
      </trkpt>
      <trkpt lat="44.66621" lon="6.9336">
        <ele>2456</ele>
        <time>2021-12-19T18:03:21Z</time>
      </trkpt>
      <trkpt lat="44.66617" lon="6.93372">
        <ele>2456.6</ele>
        <time>2021-12-19T18:03:22Z</time>
      </trkpt>
      <trkpt lat="44.66617" lon="6.93373">
        <ele>2456.7</ele>
        <time>2021-12-19T18:03:23Z</time>
      </trkpt>
      <trkpt lat="44.66616" lon="6.93375">
        <ele>2456.8</ele>
        <time>2021-12-19T18:03:38Z</time>
      </trkpt>
      <trkpt lat="44.66612" lon="6.93387">
        <ele>2457.3</ele>
        <time>2021-12-19T18:03:39Z</time>
      </trkpt>
      <trkpt lat="44.66612" lon="6.93388">
        <ele>2457.3</ele>
        <time>2021-12-19T18:03:40Z</time>
      </trkpt>
      <trkpt lat="44.66612" lon="6.9339">
        <ele>2457.4</ele>
        <time>2021-12-19T18:03:53Z</time>
      </trkpt>
      <trkpt lat="44.66607" lon="6.93401">
        <ele>2457.9</ele>
        <time>2021-12-19T18:03:54Z</time>
      </trkpt>
      <trkpt lat="44.66607" lon="6.93402">
        <ele>2458</ele>
        <time>2021-12-19T18:03:55Z</time>
      </trkpt>
      <trkpt lat="44.66607" lon="6.93404">
        <ele>2458</ele>
        <time>2021-12-19T18:04:09Z</time>
      </trkpt>
      <trkpt lat="44.66603" lon="6.93417">
        <ele>2458.4</ele>
        <time>2021-12-19T18:04:10Z</time>
      </trkpt>
      <trkpt lat="44.66603" lon="6.93418">
        <ele>2458.4</ele>
        <time>2021-12-19T18:04:11Z</time>
      </trkpt>
      <trkpt lat="44.66602" lon="6.9342">
        <ele>2458.4</ele>
        <time>2021-12-19T18:04:43Z</time>
      </trkpt>
      <trkpt lat="44.66598" lon="6.93432">
        <ele>2459.1</ele>
        <time>2021-12-19T18:04:44Z</time>
      </trkpt>
      <trkpt lat="44.66598" lon="6.93433">
        <ele>2459.1</ele>
        <time>2021-12-19T18:04:45Z</time>
      </trkpt>
      <trkpt lat="44.66597" lon="6.93435">
        <ele>2459.3</ele>
        <time>2021-12-19T18:04:58Z</time>
      </trkpt>
      <trkpt lat="44.66594" lon="6.93448">
        <ele>2459.9</ele>
        <time>2021-12-19T18:04:59Z</time>
      </trkpt>
      <trkpt lat="44.66593" lon="6.93448">
        <ele>2460</ele>
        <time>2021-12-19T18:05:00Z</time>
      </trkpt>
      <trkpt lat="44.66593" lon="6.9345">
        <ele>2460.1</ele>
        <time>2021-12-19T18:05:15Z</time>
      </trkpt>
      <trkpt lat="44.6659" lon="6.93463">
        <ele>2460.6</ele>
        <time>2021-12-19T18:05:16Z</time>
      </trkpt>
      <trkpt lat="44.6659" lon="6.93464">
        <ele>2460.6</ele>
        <time>2021-12-19T18:05:17Z</time>
      </trkpt>
      <trkpt lat="44.66589" lon="6.93467">
        <ele>2460.6</ele>
        <time>2021-12-19T18:05:19Z</time>
      </trkpt>
      <trkpt lat="44.66588" lon="6.93469">
        <ele>2460.4</ele>
        <time>2021-12-19T18:05:20Z</time>
      </trkpt>
      <trkpt lat="44.66587" lon="6.93476">
        <ele>2460.3</ele>
        <time>2021-12-19T18:05:23Z</time>
      </trkpt>
      <trkpt lat="44.66584" lon="6.93482">
        <ele>2460</ele>
        <time>2021-12-19T18:05:27Z</time>
      </trkpt>
      <trkpt lat="44.66584" lon="6.93489">
        <ele>2460.1</ele>
        <time>2021-12-19T18:05:31Z</time>
      </trkpt>
      <trkpt lat="44.6658" lon="6.93495">
        <ele>2460.1</ele>
        <time>2021-12-19T18:05:35Z</time>
      </trkpt>
      <trkpt lat="44.66579" lon="6.93502">
        <ele>2460.7</ele>
        <time>2021-12-19T18:05:39Z</time>
      </trkpt>
      <trkpt lat="44.6658" lon="6.9351">
        <ele>2461.6</ele>
        <time>2021-12-19T18:05:43Z</time>
      </trkpt>
      <trkpt lat="44.66581" lon="6.93516">
        <ele>2461.9</ele>
        <time>2021-12-19T18:05:46Z</time>
      </trkpt>
      <trkpt lat="44.6658" lon="6.93517">
        <ele>2461.8</ele>
        <time>2021-12-19T18:05:47Z</time>
      </trkpt>
      <trkpt lat="44.6658" lon="6.93519">
        <ele>2462.2</ele>
        <time>2021-12-19T18:05:48Z</time>
      </trkpt>
      <trkpt lat="44.6658" lon="6.93521">
        <ele>2462.5</ele>
        <time>2021-12-19T18:06:01Z</time>
      </trkpt>
      <trkpt lat="44.66583" lon="6.93534">
        <ele>2463.5</ele>
        <time>2021-12-19T18:06:02Z</time>
      </trkpt>
      <trkpt lat="44.66583" lon="6.93535">
        <ele>2463.6</ele>
        <time>2021-12-19T18:06:03Z</time>
      </trkpt>
      <trkpt lat="44.66583" lon="6.93538">
        <ele>2463.8</ele>
        <time>2021-12-19T18:06:16Z</time>
      </trkpt>
      <trkpt lat="44.66584" lon="6.93551">
        <ele>2464.2</ele>
        <time>2021-12-19T18:06:17Z</time>
      </trkpt>
      <trkpt lat="44.66584" lon="6.93552">
        <ele>2464.3</ele>
        <time>2021-12-19T18:06:18Z</time>
      </trkpt>
      <trkpt lat="44.66584" lon="6.93554">
        <ele>2464.3</ele>
        <time>2021-12-19T18:06:41Z</time>
      </trkpt>
      <trkpt lat="44.66584" lon="6.93567">
        <ele>2465.9</ele>
        <time>2021-12-19T18:06:42Z</time>
      </trkpt>
      <trkpt lat="44.66583" lon="6.93567">
        <ele>2465.9</ele>
        <time>2021-12-19T18:06:43Z</time>
      </trkpt>
      <trkpt lat="44.66582" lon="6.93567">
        <ele>2465.7</ele>
        <time>2021-12-19T18:06:59Z</time>
      </trkpt>
      <trkpt lat="44.66578" lon="6.93579">
        <ele>2466</ele>
        <time>2021-12-19T18:07:00Z</time>
      </trkpt>
      <trkpt lat="44.66578" lon="6.9358">
        <ele>2466</ele>
        <time>2021-12-19T18:07:01Z</time>
      </trkpt>
      <trkpt lat="44.66578" lon="6.93582">
        <ele>2466.1</ele>
        <time>2021-12-19T18:07:31Z</time>
      </trkpt>
      <trkpt lat="44.66575" lon="6.93594">
        <ele>2466.8</ele>
        <time>2021-12-19T18:07:32Z</time>
      </trkpt>
      <trkpt lat="44.66575" lon="6.93594">
        <ele>2466.9</ele>
        <time>2021-12-19T18:07:33Z</time>
      </trkpt>
      <trkpt lat="44.66575" lon="6.93594">
        <ele>2466.9</ele>
        <time>2021-12-19T18:07:49Z</time>
      </trkpt>
      <trkpt lat="44.6657" lon="6.93605">
        <ele>2468.4</ele>
        <time>2021-12-19T18:07:50Z</time>
      </trkpt>
      <trkpt lat="44.66569" lon="6.93606">
        <ele>2468.5</ele>
        <time>2021-12-19T18:07:51Z</time>
      </trkpt>
      <trkpt lat="44.66568" lon="6.93607">
        <ele>2468.7</ele>
        <time>2021-12-19T18:08:01Z</time>
      </trkpt>
      <trkpt lat="44.66564" lon="6.93615">
        <ele>2468.7</ele>
        <time>2021-12-19T18:08:02Z</time>
      </trkpt>
      <trkpt lat="44.66564" lon="6.93617">
        <ele>2468.6</ele>
        <time>2021-12-19T18:08:03Z</time>
      </trkpt>
      <trkpt lat="44.66564" lon="6.93619">
        <ele>2468.4</ele>
        <time>2021-12-19T18:08:04Z</time>
      </trkpt>
      <trkpt lat="44.66562" lon="6.9362">
        <ele>2468</ele>
        <time>2021-12-19T18:08:15Z</time>
      </trkpt>
      <trkpt lat="44.66556" lon="6.93629">
        <ele>2464.4</ele>
        <time>2021-12-19T18:08:16Z</time>
      </trkpt>
      <trkpt lat="44.66555" lon="6.9363">
        <ele>2464.2</ele>
        <time>2021-12-19T18:08:17Z</time>
      </trkpt>
      <trkpt lat="44.66555" lon="6.93632">
        <ele>2463.9</ele>
        <time>2021-12-19T18:08:37Z</time>
      </trkpt>
      <trkpt lat="44.66555" lon="6.93645">
        <ele>2462</ele>
        <time>2021-12-19T18:08:38Z</time>
      </trkpt>
      <trkpt lat="44.66555" lon="6.93646">
        <ele>2462</ele>
        <time>2021-12-19T18:08:39Z</time>
      </trkpt>
      <trkpt lat="44.66555" lon="6.93647">
        <ele>2462.1</ele>
        <time>2021-12-19T18:08:59Z</time>
      </trkpt>
      <trkpt lat="44.66549" lon="6.93657">
        <ele>2466</ele>
        <time>2021-12-19T18:09:00Z</time>
      </trkpt>
      <trkpt lat="44.66549" lon="6.93658">
        <ele>2466.3</ele>
        <time>2021-12-19T18:09:01Z</time>
      </trkpt>
      <trkpt lat="44.66548" lon="6.9366">
        <ele>2466.8</ele>
        <time>2021-12-19T18:09:16Z</time>
      </trkpt>
      <trkpt lat="44.66545" lon="6.93671">
        <ele>2471.1</ele>
        <time>2021-12-19T18:09:17Z</time>
      </trkpt>
      <trkpt lat="44.66544" lon="6.93672">
        <ele>2471.4</ele>
        <time>2021-12-19T18:09:18Z</time>
      </trkpt>
      <trkpt lat="44.66544" lon="6.93674">
        <ele>2472.3</ele>
        <time>2021-12-19T18:09:32Z</time>
      </trkpt>
      <trkpt lat="44.66545" lon="6.93686">
        <ele>2476</ele>
        <time>2021-12-19T18:09:33Z</time>
      </trkpt>
      <trkpt lat="44.66545" lon="6.93687">
        <ele>2476.3</ele>
        <time>2021-12-19T18:09:34Z</time>
      </trkpt>
      <trkpt lat="44.66545" lon="6.93689">
        <ele>2476.9</ele>
        <time>2021-12-19T18:10:38Z</time>
      </trkpt>
      <trkpt lat="44.66547" lon="6.93699">
        <ele>2477.4</ele>
        <time>2021-12-19T18:10:39Z</time>
      </trkpt>
      <trkpt lat="44.66544" lon="6.93706">
        <ele>2478</ele>
        <time>2021-12-19T18:10:44Z</time>
      </trkpt>
      <trkpt lat="44.66544" lon="6.93708">
        <ele>2478.1</ele>
        <time>2021-12-19T18:10:45Z</time>
      </trkpt>
      <trkpt lat="44.66543" lon="6.9371">
        <ele>2478.1</ele>
        <time>2021-12-19T18:11:04Z</time>
      </trkpt>
      <trkpt lat="44.6654" lon="6.93722">
        <ele>2477.5</ele>
        <time>2021-12-19T18:11:05Z</time>
      </trkpt>
      <trkpt lat="44.6654" lon="6.93723">
        <ele>2477.8</ele>
        <time>2021-12-19T18:11:06Z</time>
      </trkpt>
      <trkpt lat="44.66539" lon="6.93724">
        <ele>2478.3</ele>
        <time>2021-12-19T18:11:37Z</time>
      </trkpt>
      <trkpt lat="44.66539" lon="6.93738">
        <ele>2481.4</ele>
        <time>2021-12-19T18:11:38Z</time>
      </trkpt>
      <trkpt lat="44.6654" lon="6.93739">
        <ele>2481.6</ele>
        <time>2021-12-19T18:11:39Z</time>
      </trkpt>
      <trkpt lat="44.66541" lon="6.9374">
        <ele>2482</ele>
        <time>2021-12-19T18:11:54Z</time>
      </trkpt>
      <trkpt lat="44.66547" lon="6.9375">
        <ele>2484.4</ele>
        <time>2021-12-19T18:11:55Z</time>
      </trkpt>
      <trkpt lat="44.66548" lon="6.93751">
        <ele>2484.7</ele>
        <time>2021-12-19T18:11:56Z</time>
      </trkpt>
      <trkpt lat="44.66549" lon="6.93752">
        <ele>2484.8</ele>
        <time>2021-12-19T18:11:57Z</time>
      </trkpt>
      <trkpt lat="44.66549" lon="6.93753">
        <ele>2485.6</ele>
        <time>2021-12-19T18:11:58Z</time>
      </trkpt>
      <trkpt lat="44.66552" lon="6.93758">
        <ele>2487.4</ele>
        <time>2021-12-19T18:12:02Z</time>
      </trkpt>
      <trkpt lat="44.66555" lon="6.93766">
        <ele>2488.3</ele>
        <time>2021-12-19T18:12:05Z</time>
      </trkpt>
      <trkpt lat="44.66558" lon="6.93772">
        <ele>2488.5</ele>
        <time>2021-12-19T18:12:07Z</time>
      </trkpt>
      <trkpt lat="44.66562" lon="6.93777">
        <ele>2488.4</ele>
        <time>2021-12-19T18:12:09Z</time>
      </trkpt>
      <trkpt lat="44.66566" lon="6.93783">
        <ele>2487.3</ele>
        <time>2021-12-19T18:12:12Z</time>
      </trkpt>
      <trkpt lat="44.66568" lon="6.93788">
        <ele>2485</ele>
        <time>2021-12-19T18:12:16Z</time>
      </trkpt>
      <trkpt lat="44.66569" lon="6.93791">
        <ele>2484.3</ele>
        <time>2021-12-19T18:12:18Z</time>
      </trkpt>
      <trkpt lat="44.66569" lon="6.93792">
        <ele>2484</ele>
        <time>2021-12-19T18:12:19Z</time>
      </trkpt>
      <trkpt lat="44.66569" lon="6.93793">
        <ele>2483.8</ele>
        <time>2021-12-19T18:13:28Z</time>
      </trkpt>
      <trkpt lat="44.66575" lon="6.93803">
        <ele>2482.8</ele>
        <time>2021-12-19T18:13:29Z</time>
      </trkpt>
      <trkpt lat="44.66579" lon="6.93809">
        <ele>2482.3</ele>
        <time>2021-12-19T18:13:33Z</time>
      </trkpt>
      <trkpt lat="44.66579" lon="6.9381">
        <ele>2482.3</ele>
        <time>2021-12-19T18:13:34Z</time>
      </trkpt>
      <trkpt lat="44.6658" lon="6.93812">
        <ele>2482.1</ele>
        <time>2021-12-19T18:13:40Z</time>
      </trkpt>
      <trkpt lat="44.66582" lon="6.93819">
        <ele>2481.4</ele>
        <time>2021-12-19T18:13:41Z</time>
      </trkpt>
      <trkpt lat="44.66584" lon="6.93825">
        <ele>2481.8</ele>
        <time>2021-12-19T18:13:45Z</time>
      </trkpt>
      <trkpt lat="44.66585" lon="6.93832">
        <ele>2482</ele>
        <time>2021-12-19T18:13:49Z</time>
      </trkpt>
      <trkpt lat="44.66587" lon="6.93839">
        <ele>2482.2</ele>
        <time>2021-12-19T18:13:54Z</time>
      </trkpt>
      <trkpt lat="44.66587" lon="6.9384">
        <ele>2482.4</ele>
        <time>2021-12-19T18:13:55Z</time>
      </trkpt>
      <trkpt lat="44.66587" lon="6.93842">
        <ele>2482.5</ele>
        <time>2021-12-19T18:13:56Z</time>
      </trkpt>
      <trkpt lat="44.66587" lon="6.93844">
        <ele>2482.9</ele>
        <time>2021-12-19T18:14:09Z</time>
      </trkpt>
      <trkpt lat="44.66588" lon="6.93856">
        <ele>2484.1</ele>
        <time>2021-12-19T18:14:10Z</time>
      </trkpt>
      <trkpt lat="44.66588" lon="6.93858">
        <ele>2484.2</ele>
        <time>2021-12-19T18:14:11Z</time>
      </trkpt>
      <trkpt lat="44.66587" lon="6.9386">
        <ele>2484.4</ele>
        <time>2021-12-19T18:14:14Z</time>
      </trkpt>
      <trkpt lat="44.66587" lon="6.93863">
        <ele>2484.5</ele>
        <time>2021-12-19T18:14:15Z</time>
      </trkpt>
      <trkpt lat="44.66586" lon="6.93866">
        <ele>2484.8</ele>
        <time>2021-12-19T18:14:17Z</time>
      </trkpt>
      <trkpt lat="44.66585" lon="6.93867">
        <ele>2484.9</ele>
        <time>2021-12-19T18:14:18Z</time>
      </trkpt>
      <trkpt lat="44.66585" lon="6.93869">
        <ele>2485.1</ele>
        <time>2021-12-19T18:14:34Z</time>
      </trkpt>
      <trkpt lat="44.66579" lon="6.9388">
        <ele>2485.1</ele>
        <time>2021-12-19T18:14:35Z</time>
      </trkpt>
      <trkpt lat="44.66578" lon="6.93881">
        <ele>2485.2</ele>
        <time>2021-12-19T18:14:36Z</time>
      </trkpt>
      <trkpt lat="44.66578" lon="6.93884">
        <ele>2485.4</ele>
        <time>2021-12-19T18:14:53Z</time>
      </trkpt>
      <trkpt lat="44.66575" lon="6.93896">
        <ele>2486</ele>
        <time>2021-12-19T18:14:54Z</time>
      </trkpt>
      <trkpt lat="44.66574" lon="6.93896">
        <ele>2486</ele>
        <time>2021-12-19T18:14:55Z</time>
      </trkpt>
      <trkpt lat="44.66573" lon="6.93897">
        <ele>2486.1</ele>
        <time>2021-12-19T18:15:11Z</time>
      </trkpt>
      <trkpt lat="44.66566" lon="6.93912">
        <ele>2485.5</ele>
        <time>2021-12-19T18:15:12Z</time>
      </trkpt>
      <trkpt lat="44.66566" lon="6.93915">
        <ele>2485.1</ele>
        <time>2021-12-19T18:15:13Z</time>
      </trkpt>
      <trkpt lat="44.66566" lon="6.93917">
        <ele>2484.9</ele>
        <time>2021-12-19T18:15:14Z</time>
      </trkpt>
      <trkpt lat="44.66565" lon="6.93918">
        <ele>2484.9</ele>
        <time>2021-12-19T18:15:15Z</time>
      </trkpt>
      <trkpt lat="44.66566" lon="6.93921">
        <ele>2484.7</ele>
        <time>2021-12-19T18:15:16Z</time>
      </trkpt>
      <trkpt lat="44.66566" lon="6.93923">
        <ele>2484.9</ele>
        <time>2021-12-19T18:15:17Z</time>
      </trkpt>
      <trkpt lat="44.66566" lon="6.93925">
        <ele>2484.9</ele>
        <time>2021-12-19T18:15:18Z</time>
      </trkpt>
      <trkpt lat="44.66566" lon="6.93926">
        <ele>2484.8</ele>
        <time>2021-12-19T18:15:21Z</time>
      </trkpt>
      <trkpt lat="44.66565" lon="6.93928">
        <ele>2484.8</ele>
        <time>2021-12-19T18:15:22Z</time>
      </trkpt>
      <trkpt lat="44.66566" lon="6.93935">
        <ele>2484.5</ele>
        <time>2021-12-19T18:15:26Z</time>
      </trkpt>
      <trkpt lat="44.66566" lon="6.93936">
        <ele>2484.5</ele>
        <time>2021-12-19T18:15:27Z</time>
      </trkpt>
      <trkpt lat="44.66566" lon="6.93938">
        <ele>2484.5</ele>
        <time>2021-12-19T18:15:42Z</time>
      </trkpt>
      <trkpt lat="44.66563" lon="6.93951">
        <ele>2486.4</ele>
        <time>2021-12-19T18:15:43Z</time>
      </trkpt>
      <trkpt lat="44.66563" lon="6.93952">
        <ele>2486.5</ele>
        <time>2021-12-19T18:15:44Z</time>
      </trkpt>
      <trkpt lat="44.66563" lon="6.93954">
        <ele>2486.8</ele>
        <time>2021-12-19T18:15:58Z</time>
      </trkpt>
      <trkpt lat="44.66557" lon="6.93964">
        <ele>2488.6</ele>
        <time>2021-12-19T18:15:59Z</time>
      </trkpt>
      <trkpt lat="44.66557" lon="6.93965">
        <ele>2488.8</ele>
        <time>2021-12-19T18:16:00Z</time>
      </trkpt>
      <trkpt lat="44.66556" lon="6.93967">
        <ele>2488.9</ele>
        <time>2021-12-19T18:16:18Z</time>
      </trkpt>
      <trkpt lat="44.66556" lon="6.9398">
        <ele>2490.9</ele>
        <time>2021-12-19T18:16:19Z</time>
      </trkpt>
      <trkpt lat="44.66556" lon="6.9398">
        <ele>2491</ele>
        <time>2021-12-19T18:16:20Z</time>
      </trkpt>
      <trkpt lat="44.66556" lon="6.93982">
        <ele>2491.2</ele>
        <time>2021-12-19T18:16:35Z</time>
      </trkpt>
      <trkpt lat="44.66556" lon="6.93996">
        <ele>2492.4</ele>
        <time>2021-12-19T18:16:36Z</time>
      </trkpt>
      <trkpt lat="44.66556" lon="6.93997">
        <ele>2492.5</ele>
        <time>2021-12-19T18:16:37Z</time>
      </trkpt>
      <trkpt lat="44.66556" lon="6.93999">
        <ele>2492.7</ele>
        <time>2021-12-19T18:16:52Z</time>
      </trkpt>
      <trkpt lat="44.66555" lon="6.94011">
        <ele>2493.9</ele>
        <time>2021-12-19T18:16:53Z</time>
      </trkpt>
      <trkpt lat="44.66555" lon="6.94012">
        <ele>2494</ele>
        <time>2021-12-19T18:16:54Z</time>
      </trkpt>
      <trkpt lat="44.66554" lon="6.94014">
        <ele>2494</ele>
        <time>2021-12-19T18:17:33Z</time>
      </trkpt>
      <trkpt lat="44.66553" lon="6.94027">
        <ele>2495.3</ele>
        <time>2021-12-19T18:17:34Z</time>
      </trkpt>
      <trkpt lat="44.66553" lon="6.94027">
        <ele>2495.2</ele>
        <time>2021-12-19T18:17:35Z</time>
      </trkpt>
      <trkpt lat="44.66553" lon="6.94028">
        <ele>2495.1</ele>
        <time>2021-12-19T18:17:51Z</time>
      </trkpt>
      <trkpt lat="44.66551" lon="6.9404">
        <ele>2495.8</ele>
        <time>2021-12-19T18:17:52Z</time>
      </trkpt>
      <trkpt lat="44.66551" lon="6.94041">
        <ele>2495.9</ele>
        <time>2021-12-19T18:17:53Z</time>
      </trkpt>
      <trkpt lat="44.6655" lon="6.94042">
        <ele>2495.9</ele>
        <time>2021-12-19T18:18:14Z</time>
      </trkpt>
      <trkpt lat="44.66548" lon="6.94054">
        <ele>2495.9</ele>
        <time>2021-12-19T18:18:15Z</time>
      </trkpt>
      <trkpt lat="44.66548" lon="6.94055">
        <ele>2495.9</ele>
        <time>2021-12-19T18:18:16Z</time>
      </trkpt>
      <trkpt lat="44.66548" lon="6.94056">
        <ele>2495.9</ele>
        <time>2021-12-19T18:18:56Z</time>
      </trkpt>
      <trkpt lat="44.66544" lon="6.94068">
        <ele>2498.1</ele>
        <time>2021-12-19T18:18:57Z</time>
      </trkpt>
      <trkpt lat="44.66543" lon="6.94069">
        <ele>2498</ele>
        <time>2021-12-19T18:18:58Z</time>
      </trkpt>
      <trkpt lat="44.66542" lon="6.9407">
        <ele>2498</ele>
        <time>2021-12-19T18:19:15Z</time>
      </trkpt>
      <trkpt lat="44.66538" lon="6.94082">
        <ele>2497.8</ele>
        <time>2021-12-19T18:19:16Z</time>
      </trkpt>
      <trkpt lat="44.66538" lon="6.94082">
        <ele>2497.8</ele>
        <time>2021-12-19T18:19:17Z</time>
      </trkpt>
      <trkpt lat="44.66537" lon="6.94084">
        <ele>2497.9</ele>
        <time>2021-12-19T18:19:34Z</time>
      </trkpt>
      <trkpt lat="44.66533" lon="6.94095">
        <ele>2498.5</ele>
        <time>2021-12-19T18:19:35Z</time>
      </trkpt>
      <trkpt lat="44.66533" lon="6.94096">
        <ele>2498.6</ele>
        <time>2021-12-19T18:19:36Z</time>
      </trkpt>
      <trkpt lat="44.66533" lon="6.94097">
        <ele>2498.7</ele>
        <time>2021-12-19T18:19:56Z</time>
      </trkpt>
      <trkpt lat="44.66538" lon="6.94109">
        <ele>2499.3</ele>
        <time>2021-12-19T18:19:57Z</time>
      </trkpt>
      <trkpt lat="44.66539" lon="6.94109">
        <ele>2499.3</ele>
        <time>2021-12-19T18:19:58Z</time>
      </trkpt>
      <trkpt lat="44.6654" lon="6.9411">
        <ele>2499.4</ele>
        <time>2021-12-19T18:20:05Z</time>
      </trkpt>
      <trkpt lat="44.66546" lon="6.94108">
        <ele>2499.8</ele>
        <time>2021-12-19T18:20:06Z</time>
      </trkpt>
      <trkpt lat="44.66552" lon="6.94107">
        <ele>2500.7</ele>
        <time>2021-12-19T18:20:10Z</time>
      </trkpt>
      <trkpt lat="44.66557" lon="6.94104">
        <ele>2501.4</ele>
        <time>2021-12-19T18:20:13Z</time>
      </trkpt>
      <trkpt lat="44.66561" lon="6.941">
        <ele>2502.2</ele>
        <time>2021-12-19T18:20:17Z</time>
      </trkpt>
      <trkpt lat="44.66565" lon="6.94096">
        <ele>2503.2</ele>
        <time>2021-12-19T18:20:21Z</time>
      </trkpt>
      <trkpt lat="44.66569" lon="6.94091">
        <ele>2504.5</ele>
        <time>2021-12-19T18:20:25Z</time>
      </trkpt>
      <trkpt lat="44.66571" lon="6.94089">
        <ele>2504.9</ele>
        <time>2021-12-19T18:20:28Z</time>
      </trkpt>
      <trkpt lat="44.66572" lon="6.94088">
        <ele>2504.9</ele>
        <time>2021-12-19T18:20:29Z</time>
      </trkpt>
      <trkpt lat="44.66573" lon="6.94087">
        <ele>2505.1</ele>
        <time>2021-12-19T18:20:32Z</time>
      </trkpt>
      <trkpt lat="44.66575" lon="6.94086">
        <ele>2504.8</ele>
        <time>2021-12-19T18:20:33Z</time>
      </trkpt>
      <trkpt lat="44.66578" lon="6.94085">
        <ele>2504.8</ele>
        <time>2021-12-19T18:20:37Z</time>
      </trkpt>
      <trkpt lat="44.66579" lon="6.94084">
        <ele>2504.5</ele>
        <time>2021-12-19T18:20:38Z</time>
      </trkpt>
      <trkpt lat="44.66579" lon="6.94083">
        <ele>2504.5</ele>
        <time>2021-12-19T18:20:53Z</time>
      </trkpt>
      <trkpt lat="44.66588" lon="6.94077">
        <ele>2505</ele>
        <time>2021-12-19T18:20:54Z</time>
      </trkpt>
      <trkpt lat="44.66589" lon="6.94077">
        <ele>2505</ele>
        <time>2021-12-19T18:20:55Z</time>
      </trkpt>
      <trkpt lat="44.66589" lon="6.94075">
        <ele>2505</ele>
        <time>2021-12-19T18:21:14Z</time>
      </trkpt>
      <trkpt lat="44.66593" lon="6.94064">
        <ele>2506.3</ele>
        <time>2021-12-19T18:21:15Z</time>
      </trkpt>
      <trkpt lat="44.66593" lon="6.94064">
        <ele>2506.4</ele>
        <time>2021-12-19T18:21:16Z</time>
      </trkpt>
      <trkpt lat="44.66594" lon="6.94063">
        <ele>2506.5</ele>
        <time>2021-12-19T18:21:30Z</time>
      </trkpt>
      <trkpt lat="44.66599" lon="6.94053">
        <ele>2507.7</ele>
        <time>2021-12-19T18:21:31Z</time>
      </trkpt>
      <trkpt lat="44.666" lon="6.94053">
        <ele>2507.9</ele>
        <time>2021-12-19T18:21:32Z</time>
      </trkpt>
      <trkpt lat="44.66602" lon="6.94051">
        <ele>2508.2</ele>
        <time>2021-12-19T18:22:02Z</time>
      </trkpt>
      <trkpt lat="44.66608" lon="6.94042">
        <ele>2509.5</ele>
        <time>2021-12-19T18:22:03Z</time>
      </trkpt>
      <trkpt lat="44.66609" lon="6.94042">
        <ele>2509.6</ele>
        <time>2021-12-19T18:22:04Z</time>
      </trkpt>
      <trkpt lat="44.66609" lon="6.94042">
        <ele>2509.6</ele>
        <time>2021-12-19T18:22:24Z</time>
      </trkpt>
      <trkpt lat="44.66618" lon="6.94036">
        <ele>2508.9</ele>
        <time>2021-12-19T18:22:25Z</time>
      </trkpt>
      <trkpt lat="44.66619" lon="6.94036">
        <ele>2509</ele>
        <time>2021-12-19T18:22:26Z</time>
      </trkpt>
      <trkpt lat="44.6662" lon="6.94036">
        <ele>2509.3</ele>
        <time>2021-12-19T18:22:43Z</time>
      </trkpt>
      <trkpt lat="44.66629" lon="6.94041">
        <ele>2511.2</ele>
        <time>2021-12-19T18:22:44Z</time>
      </trkpt>
      <trkpt lat="44.6663" lon="6.94041">
        <ele>2511.4</ele>
        <time>2021-12-19T18:22:45Z</time>
      </trkpt>
      <trkpt lat="44.66641" lon="6.94037">
        <ele>2511.7</ele>
        <time>2021-12-19T18:23:28Z</time>
      </trkpt>
      <trkpt lat="44.66648" lon="6.94024">
        <ele>2512.4</ele>
        <time>2021-12-19T18:23:42Z</time>
      </trkpt>
      <trkpt lat="44.66653" lon="6.94023">
        <ele>2512.7</ele>
        <time>2021-12-19T18:23:46Z</time>
      </trkpt>
      <trkpt lat="44.66654" lon="6.94024">
        <ele>2512.7</ele>
        <time>2021-12-19T18:23:47Z</time>
      </trkpt>
      <trkpt lat="44.66655" lon="6.94024">
        <ele>2512.8</ele>
        <time>2021-12-19T18:23:48Z</time>
      </trkpt>
      <trkpt lat="44.66655" lon="6.94015">
        <ele>2512.9</ele>
        <time>2021-12-19T18:23:51Z</time>
      </trkpt>
      <trkpt lat="44.66656" lon="6.94009">
        <ele>2513</ele>
        <time>2021-12-19T18:23:53Z</time>
      </trkpt>
      <trkpt lat="44.66659" lon="6.94001">
        <ele>2513.2</ele>
        <time>2021-12-19T18:23:56Z</time>
      </trkpt>
      <trkpt lat="44.66662" lon="6.93995">
        <ele>2513.3</ele>
        <time>2021-12-19T18:23:58Z</time>
      </trkpt>
      <trkpt lat="44.66498" lon="6.9445">
        <ele>2385.3</ele>
        <time>2021-12-19T18:24:51Z</time>
      </trkpt>
      <trkpt lat="44.66528" lon="6.94385">
        <ele>2401.8</ele>
        <time>2021-12-19T18:24:54Z</time>
      </trkpt>
      <trkpt lat="44.66547" lon="6.94342">
        <ele>2408.4</ele>
        <time>2021-12-19T18:24:55Z</time>
      </trkpt>
      <trkpt lat="44.66557" lon="6.94319">
        <ele>2413.4</ele>
        <time>2021-12-19T18:24:56Z</time>
      </trkpt>
      <trkpt lat="44.66565" lon="6.94304">
        <ele>2416.9</ele>
        <time>2021-12-19T18:24:57Z</time>
      </trkpt>
      <trkpt lat="44.66571" lon="6.94293">
        <ele>2419.9</ele>
        <time>2021-12-19T18:24:58Z</time>
      </trkpt>
      <trkpt lat="44.66577" lon="6.94281">
        <ele>2421.2</ele>
        <time>2021-12-19T18:24:59Z</time>
      </trkpt>
      <trkpt lat="44.6658" lon="6.94271">
        <ele>2424.3</ele>
        <time>2021-12-19T18:25:00Z</time>
      </trkpt>
      <trkpt lat="44.66583" lon="6.94263">
        <ele>2426.4</ele>
        <time>2021-12-19T18:25:01Z</time>
      </trkpt>
      <trkpt lat="44.66585" lon="6.94255">
        <ele>2427.1</ele>
        <time>2021-12-19T18:25:02Z</time>
      </trkpt>
      <trkpt lat="44.66587" lon="6.94248">
        <ele>2430.2</ele>
        <time>2021-12-19T18:25:03Z</time>
      </trkpt>
      <trkpt lat="44.66587" lon="6.94238">
        <ele>2435.3</ele>
        <time>2021-12-19T18:25:05Z</time>
      </trkpt>
      <trkpt lat="44.66589" lon="6.94228">
        <ele>2439.5</ele>
        <time>2021-12-19T18:25:07Z</time>
      </trkpt>
      <trkpt lat="44.66594" lon="6.94225">
        <ele>2441.6</ele>
        <time>2021-12-19T18:25:09Z</time>
      </trkpt>
      <trkpt lat="44.66597" lon="6.94215">
        <ele>2438</ele>
        <time>2021-12-19T18:25:11Z</time>
      </trkpt>
      <trkpt lat="44.66601" lon="6.94207">
        <ele>2437.1</ele>
        <time>2021-12-19T18:25:13Z</time>
      </trkpt>
      <trkpt lat="44.66604" lon="6.94198">
        <ele>2435.8</ele>
        <time>2021-12-19T18:25:15Z</time>
      </trkpt>
      <trkpt lat="44.66608" lon="6.94189">
        <ele>2438.8</ele>
        <time>2021-12-19T18:25:17Z</time>
      </trkpt>
      <trkpt lat="44.66612" lon="6.94181">
        <ele>2440.7</ele>
        <time>2021-12-19T18:25:19Z</time>
      </trkpt>
      <trkpt lat="44.66611" lon="6.94195">
        <ele>2442</ele>
        <time>2021-12-19T18:25:20Z</time>
      </trkpt>
      <trkpt lat="44.66612" lon="6.94201">
        <ele>2440.1</ele>
        <time>2021-12-19T18:25:22Z</time>
      </trkpt>
      <trkpt lat="44.66613" lon="6.94199">
        <ele>2442.3</ele>
        <time>2021-12-19T18:25:23Z</time>
      </trkpt>
      <trkpt lat="44.6662" lon="6.94188">
        <ele>2442.8</ele>
        <time>2021-12-19T18:25:31Z</time>
      </trkpt>
    </trkseg>
  </trk>
</gpx>